<?xml version='1.0' encoding='UTF-8'?><gpx version="1.1" creator="JPX - https://github.com/jenetics/jpx" xmlns="http://www.topografix.com/GPX/1/1"><trk><trkseg><trkpt lat="44.4626077" lon="11.1716381"><ele>135.0</ele><time>2026-04-11T15:18:08.654Z</time></trkpt><trkpt lat="44.4627087" lon="11.1715271"><ele>135.0</ele><time>2026-04-11T15:18:10.654Z</time></trkpt><trkpt lat="44.4627944" lon="11.171478"><ele>135.0</ele><time>2026-04-11T15:18:11.654Z</time></trkpt><trkpt lat="44.462875" lon="11.1714149"><ele>135.0</ele><time>2026-04-11T15:18:12.653Z</time></trkpt><trkpt lat="44.4629764" lon="11.171344"><ele>135.0</ele><time>2026-04-11T15:18:13.654Z</time></trkpt><trkpt lat="44.4631047" lon="11.171286"><ele>138.5</ele><time>2026-04-11T15:18:14.654Z</time></trkpt><trkpt lat="44.463216" lon="11.1712182"><ele>142.0</ele><time>2026-04-11T15:18:15.653Z</time></trkpt><trkpt lat="44.4633314" lon="11.1711228"><ele>145.5</ele><time>2026-04-11T15:18:16.654Z</time></trkpt><trkpt lat="44.4634209" lon="11.1710018"><ele>149.0</ele><time>2026-04-11T15:18:17.654Z</time></trkpt><trkpt lat="44.463514" lon="11.1708712"><ele>149.0</ele><time>2026-04-11T15:18:18.654Z</time></trkpt><trkpt lat="44.463593" lon="11.1707339"><ele>149.0</ele><time>2026-04-11T15:18:19.653Z</time></trkpt><trkpt lat="44.4636792" lon="11.170604"><ele>149.0</ele><time>2026-04-11T15:18:20.653Z</time></trkpt><trkpt lat="44.4637489" lon="11.1704807"><ele>149.0</ele><time>2026-04-11T15:18:21.653Z</time></trkpt><trkpt lat="44.4638096" lon="11.170373"><ele>149.5</ele><time>2026-04-11T15:18:22.654Z</time></trkpt><trkpt lat="44.4638744" lon="11.1702685"><ele>150.0</ele><time>2026-04-11T15:18:23.654Z</time></trkpt><trkpt lat="44.4638575" lon="11.1701713"><ele>150.5</ele><time>2026-04-11T15:18:24.654Z</time></trkpt><trkpt lat="44.4638455" lon="11.1700792"><ele>151.0</ele><time>2026-04-11T15:24:00.654Z</time></trkpt><trkpt lat="44.4637743" lon="11.1700506"><ele>151.5</ele><time>2026-04-11T15:24:05.654Z</time></trkpt><trkpt lat="44.46369" lon="11.1700546"><ele>152.0</ele><time>2026-04-11T15:24:07.654Z</time></trkpt><trkpt lat="44.4636181" lon="11.1700568"><ele>154.6</ele><time>2026-04-11T15:24:08.653Z</time></trkpt><trkpt lat="44.4635355" lon="11.1700486"><ele>157.2</ele><time>2026-04-11T15:24:09.653Z</time></trkpt><trkpt lat="44.4634173" lon="11.1700288"><ele>159.8</ele><time>2026-04-11T15:24:10.654Z</time></trkpt><trkpt lat="44.463322" lon="11.1700014"><ele>162.4</ele><time>2026-04-11T15:24:11.654Z</time></trkpt><trkpt lat="44.463174" lon="11.1700075"><ele>165.0</ele><time>2026-04-11T15:24:12.653Z</time></trkpt><trkpt lat="44.463033" lon="11.1699656"><ele>166.5</ele><time>2026-04-11T15:24:13.654Z</time></trkpt><trkpt lat="44.4629263" lon="11.1699781"><ele>168.0</ele><time>2026-04-11T15:24:14.654Z</time></trkpt><trkpt lat="44.4628351" lon="11.1700346"><ele>169.5</ele><time>2026-04-11T15:24:15.654Z</time></trkpt><trkpt lat="44.4627603" lon="11.1700807"><ele>171.0</ele><time>2026-04-11T15:24:16.654Z</time></trkpt><trkpt lat="44.4626848" lon="11.1700971"><ele>172.5</ele><time>2026-04-11T15:24:17.654Z</time></trkpt><trkpt lat="44.4626222" lon="11.1701102"><ele>174.0</ele><time>2026-04-11T15:24:18.654Z</time></trkpt><trkpt lat="44.4625203" lon="11.1701592"><ele>174.0</ele><time>2026-04-11T15:24:20.654Z</time></trkpt><trkpt lat="44.4625069" lon="11.1700587"><ele>174.0</ele><time>2026-04-11T15:24:24.653Z</time></trkpt><trkpt lat="44.4625463" lon="11.1699078"><ele>174.0</ele><time>2026-04-11T15:24:26.654Z</time></trkpt><trkpt lat="44.4625736" lon="11.1698047"><ele>174.0</ele><time>2026-04-11T15:24:27.654Z</time></trkpt><trkpt lat="44.4626042" lon="11.1696979"><ele>174.0</ele><time>2026-04-11T15:24:28.654Z</time></trkpt><trkpt lat="44.4626476" lon="11.1695823"><ele>174.0</ele><time>2026-04-11T15:24:29.654Z</time></trkpt><trkpt lat="44.4626839" lon="11.1694712"><ele>176.79999999999998</ele><time>2026-04-11T15:24:30.653Z</time></trkpt><trkpt lat="44.4627558" lon="11.169414"><ele>179.6</ele><time>2026-04-11T15:24:31.654Z</time></trkpt><trkpt lat="44.462872" lon="11.1693676"><ele>182.4</ele><time>2026-04-11T15:24:32.654Z</time></trkpt><trkpt lat="44.4629899" lon="11.1693557"><ele>185.2</ele><time>2026-04-11T15:24:33.654Z</time></trkpt><trkpt lat="44.4631009" lon="11.1693132"><ele>188.0</ele><time>2026-04-11T15:24:34.654Z</time></trkpt><trkpt lat="44.463191" lon="11.169264"><ele>188.0</ele><time>2026-04-11T15:24:35.654Z</time></trkpt><trkpt lat="44.4632617" lon="11.1691791"><ele>188.0</ele><time>2026-04-11T15:24:36.654Z</time></trkpt><trkpt lat="44.4633158" lon="11.1690575"><ele>188.0</ele><time>2026-04-11T15:24:37.654Z</time></trkpt><trkpt lat="44.4633705" lon="11.1689004"><ele>188.0</ele><time>2026-04-11T15:24:38.653Z</time></trkpt><trkpt lat="44.4634222" lon="11.1687046"><ele>194.0</ele><time>2026-04-11T15:24:39.654Z</time></trkpt><trkpt lat="44.4634831" lon="11.1685001"><ele>200.0</ele><time>2026-04-11T15:24:40.654Z</time></trkpt><trkpt lat="44.4635536" lon="11.1682772"><ele>206.0</ele><time>2026-04-11T15:24:41.654Z</time></trkpt><trkpt lat="44.4636193" lon="11.1680545"><ele>207.33333333333334</ele><time>2026-04-11T15:24:42.653Z</time></trkpt><trkpt lat="44.4636843" lon="11.1678417"><ele>208.66666666666669</ele><time>2026-04-11T15:24:43.654Z</time></trkpt><trkpt lat="44.4637489" lon="11.1676473"><ele>210.0</ele><time>2026-04-11T15:24:44.654Z</time></trkpt><trkpt lat="44.4638168" lon="11.1674575"><ele>213.6</ele><time>2026-04-11T15:24:45.654Z</time></trkpt><trkpt lat="44.4638745" lon="11.1673068"><ele>217.2</ele><time>2026-04-11T15:24:46.654Z</time></trkpt><trkpt lat="44.4639209" lon="11.1671893"><ele>220.8</ele><time>2026-04-11T15:24:47.653Z</time></trkpt><trkpt lat="44.4639741" lon="11.1670757"><ele>224.4</ele><time>2026-04-11T15:24:48.654Z</time></trkpt><trkpt lat="44.4640584" lon="11.1670439"><ele>228.0</ele><time>2026-04-11T15:24:49.654Z</time></trkpt><trkpt lat="44.4641269" lon="11.1670057"><ele>228.0</ele><time>2026-04-11T15:24:50.654Z</time></trkpt><trkpt lat="44.4642048" lon="11.1670077"><ele>228.0</ele><time>2026-04-11T15:24:51.654Z</time></trkpt><trkpt lat="44.4642889" lon="11.167026"><ele>228.0</ele><time>2026-04-11T15:24:52.653Z</time></trkpt><trkpt lat="44.4643535" lon="11.1670182"><ele>228.0</ele><time>2026-04-11T15:24:53.654Z</time></trkpt><trkpt lat="44.4644277" lon="11.1670194"><ele>228.0</ele><time>2026-04-11T15:24:54.653Z</time></trkpt><trkpt lat="44.4645471" lon="11.1670327"><ele>228.0</ele><time>2026-04-11T15:24:56.653Z</time></trkpt><trkpt lat="44.4646137" lon="11.1670332"><ele>227.66666666666666</ele><time>2026-04-11T15:24:57.654Z</time></trkpt><trkpt lat="44.4646825" lon="11.1670157"><ele>227.33333333333331</ele><time>2026-04-11T15:24:58.654Z</time></trkpt><trkpt lat="44.4647646" lon="11.166986"><ele>227.0</ele><time>2026-04-11T15:24:59.654Z</time></trkpt><trkpt lat="44.4648391" lon="11.1669556"><ele>226.66666666666666</ele><time>2026-04-11T15:25:00.654Z</time></trkpt><trkpt lat="44.4649102" lon="11.1669247"><ele>226.33333333333331</ele><time>2026-04-11T15:25:01.654Z</time></trkpt><trkpt lat="44.4649857" lon="11.166905"><ele>226.0</ele><time>2026-04-11T15:25:02.654Z</time></trkpt><trkpt lat="44.4650547" lon="11.1668992"><ele>225.99999999999997</ele><time>2026-04-11T15:25:03.654Z</time></trkpt><trkpt lat="44.465137" lon="11.166894"><ele>226.0</ele><time>2026-04-11T15:25:04.654Z</time></trkpt><trkpt lat="44.4652215" lon="11.1668718"><ele>226.0</ele><time>2026-04-11T15:25:05.654Z</time></trkpt><trkpt lat="44.4652995" lon="11.1668251"><ele>226.0</ele><time>2026-04-11T15:25:06.653Z</time></trkpt><trkpt lat="44.4653625" lon="11.1667706"><ele>225.99999999999997</ele><time>2026-04-11T15:25:07.654Z</time></trkpt><trkpt lat="44.4654349" lon="11.166705"><ele>226.0</ele><time>2026-04-11T15:25:08.654Z</time></trkpt><trkpt lat="44.465513" lon="11.1666368"><ele>224.60000000000002</ele><time>2026-04-11T15:25:09.653Z</time></trkpt><trkpt lat="44.4656021" lon="11.1665637"><ele>223.20000000000002</ele><time>2026-04-11T15:25:10.653Z</time></trkpt><trkpt lat="44.4656935" lon="11.1664758"><ele>221.79999999999998</ele><time>2026-04-11T15:25:11.654Z</time></trkpt><trkpt lat="44.4657795" lon="11.1663761"><ele>220.39999999999998</ele><time>2026-04-11T15:25:12.654Z</time></trkpt><trkpt lat="44.4658637" lon="11.1662704"><ele>219.0</ele><time>2026-04-11T15:25:13.654Z</time></trkpt><trkpt lat="44.465931" lon="11.1661465"><ele>223.79999999999998</ele><time>2026-04-11T15:25:14.654Z</time></trkpt><trkpt lat="44.4659979" lon="11.1660234"><ele>228.59999999999997</ele><time>2026-04-11T15:25:15.653Z</time></trkpt><trkpt lat="44.4660612" lon="11.1659165"><ele>233.4</ele><time>2026-04-11T15:25:16.654Z</time></trkpt><trkpt lat="44.4661652" lon="11.1658403"><ele>238.2</ele><time>2026-04-11T15:25:17.653Z</time></trkpt><trkpt lat="44.4662745" lon="11.1657732"><ele>243.0</ele><time>2026-04-11T15:25:18.654Z</time></trkpt><trkpt lat="44.4664023" lon="11.1658167"><ele>243.8</ele><time>2026-04-11T15:25:19.653Z</time></trkpt><trkpt lat="44.4665065" lon="11.165829"><ele>244.60000000000002</ele><time>2026-04-11T15:25:20.653Z</time></trkpt><trkpt lat="44.4666099" lon="11.1658633"><ele>245.39999999999998</ele><time>2026-04-11T15:25:21.654Z</time></trkpt><trkpt lat="44.4666316" lon="11.1659812"><ele>246.2</ele><time>2026-04-11T15:25:22.654Z</time></trkpt><trkpt lat="44.4667028" lon="11.1660964"><ele>247.0</ele><time>2026-04-11T15:25:23.654Z</time></trkpt><trkpt lat="44.4667846" lon="11.1662293"><ele>247.0</ele><time>2026-04-11T15:25:24.654Z</time></trkpt><trkpt lat="44.4668773" lon="11.1663313"><ele>247.0</ele><time>2026-04-11T15:25:25.654Z</time></trkpt><trkpt lat="44.4669731" lon="11.1663968"><ele>247.0</ele><time>2026-04-11T15:25:26.654Z</time></trkpt><trkpt lat="44.4670974" lon="11.1664536"><ele>247.0</ele><time>2026-04-11T15:25:27.653Z</time></trkpt><trkpt lat="44.4671829" lon="11.1664768"><ele>247.0</ele><time>2026-04-11T15:25:28.653Z</time></trkpt><trkpt lat="44.4672608" lon="11.1664766"><ele>247.16666666666666</ele><time>2026-04-11T15:25:29.654Z</time></trkpt><trkpt lat="44.467324" lon="11.1665013"><ele>247.33333333333331</ele><time>2026-04-11T15:25:30.654Z</time></trkpt><trkpt lat="44.46737" lon="11.1666045"><ele>247.5</ele><time>2026-04-11T15:25:31.653Z</time></trkpt><trkpt lat="44.4674548" lon="11.166707"><ele>247.66666666666669</ele><time>2026-04-11T15:25:33.654Z</time></trkpt><trkpt lat="44.4675334" lon="11.1667749"><ele>247.83333333333334</ele><time>2026-04-11T15:25:35.654Z</time></trkpt><trkpt lat="44.4675551" lon="11.1666494"><ele>248.0</ele><time>2026-04-11T15:25:37.654Z</time></trkpt><trkpt lat="44.4675459" lon="11.166547"><ele>249.75</ele><time>2026-04-11T15:25:38.654Z</time></trkpt><trkpt lat="44.4675469" lon="11.1664157"><ele>251.5</ele><time>2026-04-11T15:25:39.654Z</time></trkpt><trkpt lat="44.4675828" lon="11.1662603"><ele>253.25</ele><time>2026-04-11T15:25:40.654Z</time></trkpt><trkpt lat="44.4676055" lon="11.1660999"><ele>255.0</ele><time>2026-04-11T15:25:41.654Z</time></trkpt><trkpt lat="44.4676458" lon="11.1659235"><ele>258.0</ele><time>2026-04-11T15:25:42.654Z</time></trkpt><trkpt lat="44.4676889" lon="11.1656868"><ele>261.0</ele><time>2026-04-11T15:25:43.653Z</time></trkpt><trkpt lat="44.4677266" lon="11.1654604"><ele>264.0</ele><time>2026-04-11T15:25:44.653Z</time></trkpt><trkpt lat="44.4677674" lon="11.1652257"><ele>264.0</ele><time>2026-04-11T15:25:45.654Z</time></trkpt><trkpt lat="44.4677881" lon="11.1650592"><ele>264.0</ele><time>2026-04-11T15:25:46.654Z</time></trkpt><trkpt lat="44.4678174" lon="11.16484"><ele>264.0</ele><time>2026-04-11T15:25:47.654Z</time></trkpt><trkpt lat="44.4678488" lon="11.1646687"><ele>264.0</ele><time>2026-04-11T15:25:48.654Z</time></trkpt><trkpt lat="44.4678868" lon="11.1645002"><ele>266.4</ele><time>2026-04-11T15:25:49.654Z</time></trkpt><trkpt lat="44.4679157" lon="11.1643503"><ele>268.79999999999995</ele><time>2026-04-11T15:25:50.653Z</time></trkpt><trkpt lat="44.4679139" lon="11.1642407"><ele>271.20000000000005</ele><time>2026-04-11T15:25:51.654Z</time></trkpt><trkpt lat="44.4678908" lon="11.1640879"><ele>273.6</ele><time>2026-04-11T15:25:52.654Z</time></trkpt><trkpt lat="44.467842" lon="11.1639508"><ele>276.0</ele><time>2026-04-11T15:25:53.653Z</time></trkpt><trkpt lat="44.4677678" lon="11.1638192"><ele>275.75</ele><time>2026-04-11T15:25:54.654Z</time></trkpt><trkpt lat="44.4676871" lon="11.1636758"><ele>275.5</ele><time>2026-04-11T15:25:55.654Z</time></trkpt><trkpt lat="44.4675937" lon="11.163487"><ele>275.25</ele><time>2026-04-11T15:25:56.654Z</time></trkpt><trkpt lat="44.4674969" lon="11.1633173"><ele>275.0</ele><time>2026-04-11T15:25:57.654Z</time></trkpt><trkpt lat="44.4673965" lon="11.1631392"><ele>275.0</ele><time>2026-04-11T15:25:58.654Z</time></trkpt><trkpt lat="44.4673004" lon="11.1629692"><ele>275.0</ele><time>2026-04-11T15:25:59.653Z</time></trkpt><trkpt lat="44.4672078" lon="11.1627982"><ele>275.0</ele><time>2026-04-11T15:26:00.654Z</time></trkpt><trkpt lat="44.4670917" lon="11.1625856"><ele>282.6666666666667</ele><time>2026-04-11T15:26:01.653Z</time></trkpt><trkpt lat="44.4669982" lon="11.1624141"><ele>290.3333333333333</ele><time>2026-04-11T15:26:02.654Z</time></trkpt><trkpt lat="44.466907" lon="11.1622449"><ele>298.0</ele><time>2026-04-11T15:26:03.654Z</time></trkpt><trkpt lat="44.4668171" lon="11.1620685"><ele>298.0</ele><time>2026-04-11T15:26:04.654Z</time></trkpt><trkpt lat="44.4667241" lon="11.1619026"><ele>298.0</ele><time>2026-04-11T15:26:05.654Z</time></trkpt><trkpt lat="44.4666301" lon="11.1617259"><ele>298.0</ele><time>2026-04-11T15:26:06.654Z</time></trkpt><trkpt lat="44.4665362" lon="11.1615342"><ele>294.3333333333333</ele><time>2026-04-11T15:26:07.653Z</time></trkpt><trkpt lat="44.4664498" lon="11.1613631"><ele>290.6666666666667</ele><time>2026-04-11T15:26:08.654Z</time></trkpt><trkpt lat="44.466355" lon="11.1611785"><ele>287.0</ele><time>2026-04-11T15:26:09.653Z</time></trkpt><trkpt lat="44.4662622" lon="11.1609955"><ele>291.33333333333337</ele><time>2026-04-11T15:26:10.654Z</time></trkpt><trkpt lat="44.4661603" lon="11.1608338"><ele>295.6666666666667</ele><time>2026-04-11T15:26:11.654Z</time></trkpt><trkpt lat="44.4660555" lon="11.160667"><ele>300.0</ele><time>2026-04-11T15:26:12.653Z</time></trkpt><trkpt lat="44.4659503" lon="11.1605007"><ele>300.0</ele><time>2026-04-11T15:26:13.654Z</time></trkpt><trkpt lat="44.4658533" lon="11.1603336"><ele>300.0</ele><time>2026-04-11T15:26:14.654Z</time></trkpt><trkpt lat="44.4657643" lon="11.1601679"><ele>300.0</ele><time>2026-04-11T15:26:15.654Z</time></trkpt><trkpt lat="44.4656779" lon="11.1600043"><ele>300.0</ele><time>2026-04-11T15:26:16.653Z</time></trkpt><trkpt lat="44.4655864" lon="11.1598448"><ele>300.5</ele><time>2026-04-11T15:26:17.654Z</time></trkpt><trkpt lat="44.4655035" lon="11.1597002"><ele>301.0</ele><time>2026-04-11T15:26:18.654Z</time></trkpt><trkpt lat="44.4654167" lon="11.1595683"><ele>301.5</ele><time>2026-04-11T15:26:19.653Z</time></trkpt><trkpt lat="44.4653274" lon="11.159459"><ele>302.0</ele><time>2026-04-11T15:26:20.654Z</time></trkpt><trkpt lat="44.4652453" lon="11.1593312"><ele>302.0</ele><time>2026-04-11T15:26:21.654Z</time></trkpt><trkpt lat="44.4651935" lon="11.1592183"><ele>302.0</ele><time>2026-04-11T15:26:22.653Z</time></trkpt><trkpt lat="44.4651736" lon="11.1590586"><ele>302.0</ele><time>2026-04-11T15:26:23.654Z</time></trkpt><trkpt lat="44.4651493" lon="11.158915"><ele>302.0</ele><time>2026-04-11T15:26:24.654Z</time></trkpt><trkpt lat="44.4651458" lon="11.15876"><ele>302.0</ele><time>2026-04-11T15:26:25.653Z</time></trkpt><trkpt lat="44.4653306" lon="11.1586914"><ele>302.25</ele><time>2026-04-11T15:26:26.653Z</time></trkpt><trkpt lat="44.4653989" lon="11.1585533"><ele>302.5</ele><time>2026-04-11T15:26:27.653Z</time></trkpt><trkpt lat="44.4654423" lon="11.1584006"><ele>302.75</ele><time>2026-04-11T15:26:28.654Z</time></trkpt><trkpt lat="44.4654857" lon="11.1582343"><ele>303.0</ele><time>2026-04-11T15:26:29.654Z</time></trkpt><trkpt lat="44.4655285" lon="11.158032"><ele>303.0</ele><time>2026-04-11T15:26:30.654Z</time></trkpt><trkpt lat="44.4655635" lon="11.1578345"><ele>303.0</ele><time>2026-04-11T15:26:31.654Z</time></trkpt><trkpt lat="44.4655783" lon="11.1575687"><ele>303.0</ele><time>2026-04-11T15:26:32.653Z</time></trkpt><trkpt lat="44.4655442" lon="11.1573717"><ele>302.3333333333333</ele><time>2026-04-11T15:26:33.654Z</time></trkpt><trkpt lat="44.4654969" lon="11.1572007"><ele>301.66666666666663</ele><time>2026-04-11T15:26:34.654Z</time></trkpt><trkpt lat="44.46538" lon="11.1570354"><ele>301.0</ele><time>2026-04-11T15:26:35.654Z</time></trkpt><trkpt lat="44.4653031" lon="11.1568496"><ele>310.0</ele><time>2026-04-11T15:26:36.653Z</time></trkpt><trkpt lat="44.4652399" lon="11.1566623"><ele>319.0</ele><time>2026-04-11T15:26:37.654Z</time></trkpt><trkpt lat="44.465192" lon="11.1564681"><ele>328.0</ele><time>2026-04-11T15:26:38.654Z</time></trkpt><trkpt lat="44.4652035" lon="11.156222"><ele>328.0</ele><time>2026-04-11T15:26:39.653Z</time></trkpt><trkpt lat="44.4652172" lon="11.1560023"><ele>328.0</ele><time>2026-04-11T15:26:40.654Z</time></trkpt><trkpt lat="44.4652262" lon="11.1558022"><ele>328.0</ele><time>2026-04-11T15:26:41.654Z</time></trkpt><trkpt lat="44.4652442" lon="11.1555865"><ele>330.66666666666663</ele><time>2026-04-11T15:26:42.654Z</time></trkpt><trkpt lat="44.4652752" lon="11.1553713"><ele>333.3333333333333</ele><time>2026-04-11T15:26:43.654Z</time></trkpt><trkpt lat="44.4653389" lon="11.1551533"><ele>336.0</ele><time>2026-04-11T15:26:44.654Z</time></trkpt><trkpt lat="44.4654058" lon="11.1549668"><ele>335.0</ele><time>2026-04-11T15:26:45.654Z</time></trkpt><trkpt lat="44.4654574" lon="11.1547931"><ele>334.0</ele><time>2026-04-11T15:26:46.653Z</time></trkpt><trkpt lat="44.4655039" lon="11.1546436"><ele>333.0</ele><time>2026-04-11T15:26:47.654Z</time></trkpt><trkpt lat="44.4655419" lon="11.1545276"><ele>332.0</ele><time>2026-04-11T15:26:48.654Z</time></trkpt><trkpt lat="44.4655549" lon="11.1544025"><ele>331.0</ele><time>2026-04-11T15:26:49.654Z</time></trkpt><trkpt lat="44.4655599" lon="11.1542766"><ele>331.0</ele><time>2026-04-11T15:26:50.654Z</time></trkpt><trkpt lat="44.4655163" lon="11.1541942"><ele>331.0</ele><time>2026-04-11T15:26:51.654Z</time></trkpt><trkpt lat="44.4654159" lon="11.1540483"><ele>331.0</ele><time>2026-04-11T15:26:52.654Z</time></trkpt><trkpt lat="44.4653819" lon="11.1539093"><ele>331.0</ele><time>2026-04-11T15:26:53.654Z</time></trkpt><trkpt lat="44.4653388" lon="11.1537521"><ele>331.0</ele><time>2026-04-11T15:26:54.654Z</time></trkpt><trkpt lat="44.4652867" lon="11.1536025"><ele>330.75</ele><time>2026-04-11T15:26:55.653Z</time></trkpt><trkpt lat="44.4652153" lon="11.1534819"><ele>330.5</ele><time>2026-04-11T15:26:56.654Z</time></trkpt><trkpt lat="44.465109" lon="11.1533874"><ele>330.25</ele><time>2026-04-11T15:26:57.654Z</time></trkpt><trkpt lat="44.4649258" lon="11.1532391"><ele>330.0</ele><time>2026-04-11T15:26:58.654Z</time></trkpt><trkpt lat="44.4647713" lon="11.1530877"><ele>326.3333333333333</ele><time>2026-04-11T15:26:59.654Z</time></trkpt><trkpt lat="44.464613" lon="11.152937"><ele>322.66666666666663</ele><time>2026-04-11T15:27:00.654Z</time></trkpt><trkpt lat="44.464458" lon="11.1527998"><ele>319.0</ele><time>2026-04-11T15:27:01.654Z</time></trkpt><trkpt lat="44.4643072" lon="11.1526547"><ele>319.0</ele><time>2026-04-11T15:27:02.653Z</time></trkpt><trkpt lat="44.4641612" lon="11.1525104"><ele>319.0</ele><time>2026-04-11T15:27:03.654Z</time></trkpt><trkpt lat="44.4640225" lon="11.1523556"><ele>319.0</ele><time>2026-04-11T15:27:04.654Z</time></trkpt><trkpt lat="44.4638902" lon="11.1521595"><ele>321.66666666666663</ele><time>2026-04-11T15:27:05.654Z</time></trkpt><trkpt lat="44.4637619" lon="11.1519596"><ele>324.3333333333333</ele><time>2026-04-11T15:27:06.654Z</time></trkpt><trkpt lat="44.4636705" lon="11.1517584"><ele>327.0</ele><time>2026-04-11T15:27:07.654Z</time></trkpt><trkpt lat="44.4635699" lon="11.1515295"><ele>327.0</ele><time>2026-04-11T15:27:08.653Z</time></trkpt><trkpt lat="44.4634933" lon="11.1513174"><ele>327.0</ele><time>2026-04-11T15:27:09.653Z</time></trkpt><trkpt lat="44.4634097" lon="11.1511203"><ele>327.0</ele><time>2026-04-11T15:27:10.654Z</time></trkpt><trkpt lat="44.4633167" lon="11.1509422"><ele>327.0</ele><time>2026-04-11T15:27:11.654Z</time></trkpt><trkpt lat="44.4632128" lon="11.1508542"><ele>327.0</ele><time>2026-04-11T15:27:12.654Z</time></trkpt><trkpt lat="44.4631252" lon="11.1507485"><ele>327.0</ele><time>2026-04-11T15:27:13.654Z</time></trkpt><trkpt lat="44.4630404" lon="11.150637"><ele>327.0</ele><time>2026-04-11T15:27:14.653Z</time></trkpt><trkpt lat="44.4629793" lon="11.1505162"><ele>334.25</ele><time>2026-04-11T15:27:15.654Z</time></trkpt><trkpt lat="44.4629368" lon="11.1503946"><ele>341.5</ele><time>2026-04-11T15:27:16.654Z</time></trkpt><trkpt lat="44.4629122" lon="11.1502945"><ele>348.75</ele><time>2026-04-11T15:27:17.653Z</time></trkpt><trkpt lat="44.4628953" lon="11.1501526"><ele>356.0</ele><time>2026-04-11T15:27:18.653Z</time></trkpt><trkpt lat="44.4628743" lon="11.1498932"><ele>355.0</ele><time>2026-04-11T15:27:20.654Z</time></trkpt><trkpt lat="44.4628748" lon="11.1497363"><ele>354.0</ele><time>2026-04-11T15:27:21.654Z</time></trkpt><trkpt lat="44.4628843" lon="11.1495506"><ele>353.0</ele><time>2026-04-11T15:27:22.653Z</time></trkpt><trkpt lat="44.4628902" lon="11.1494117"><ele>352.0</ele><time>2026-04-11T15:27:23.654Z</time></trkpt><trkpt lat="44.4628958" lon="11.1492149"><ele>350.25</ele><time>2026-04-11T15:27:24.654Z</time></trkpt><trkpt lat="44.4628889" lon="11.1490264"><ele>348.5</ele><time>2026-04-11T15:27:25.654Z</time></trkpt><trkpt lat="44.4628803" lon="11.1488575"><ele>346.75</ele><time>2026-04-11T15:27:26.654Z</time></trkpt><trkpt lat="44.4628828" lon="11.148697"><ele>345.0</ele><time>2026-04-11T15:27:27.654Z</time></trkpt><trkpt lat="44.4628837" lon="11.1485071"><ele>345.0</ele><time>2026-04-11T15:27:28.654Z</time></trkpt><trkpt lat="44.4629331" lon="11.1483636"><ele>345.0</ele><time>2026-04-11T15:27:29.654Z</time></trkpt><trkpt lat="44.4629622" lon="11.1482028"><ele>345.0</ele><time>2026-04-11T15:27:30.654Z</time></trkpt><trkpt lat="44.4630065" lon="11.1480601"><ele>345.0</ele><time>2026-04-11T15:27:31.654Z</time></trkpt><trkpt lat="44.463121" lon="11.1479148"><ele>347.0</ele><time>2026-04-11T15:27:32.654Z</time></trkpt><trkpt lat="44.4632348" lon="11.1477695"><ele>349.0</ele><time>2026-04-11T15:27:33.654Z</time></trkpt><trkpt lat="44.463321" lon="11.1476091"><ele>351.0</ele><time>2026-04-11T15:27:34.654Z</time></trkpt><trkpt lat="44.4634022" lon="11.147462"><ele>353.0</ele><time>2026-04-11T15:27:35.653Z</time></trkpt><trkpt lat="44.4634892" lon="11.1473175"><ele>353.0</ele><time>2026-04-11T15:27:36.654Z</time></trkpt><trkpt lat="44.4635987" lon="11.1471948"><ele>353.0</ele><time>2026-04-11T15:27:37.654Z</time></trkpt><trkpt lat="44.4636819" lon="11.1470579"><ele>353.0</ele><time>2026-04-11T15:27:38.654Z</time></trkpt><trkpt lat="44.4638311" lon="11.1469413"><ele>353.0</ele><time>2026-04-11T15:27:39.654Z</time></trkpt><trkpt lat="44.4639217" lon="11.1468455"><ele>352.59999999999997</ele><time>2026-04-11T15:27:40.654Z</time></trkpt><trkpt lat="44.4639997" lon="11.1467594"><ele>352.2</ele><time>2026-04-11T15:27:41.654Z</time></trkpt><trkpt lat="44.4640687" lon="11.1466622"><ele>351.8</ele><time>2026-04-11T15:27:42.654Z</time></trkpt><trkpt lat="44.4641889" lon="11.1465714"><ele>351.4</ele><time>2026-04-11T15:27:43.654Z</time></trkpt><trkpt lat="44.4642598" lon="11.146497"><ele>351.0</ele><time>2026-04-11T15:27:44.654Z</time></trkpt><trkpt lat="44.4643494" lon="11.1464281"><ele>351.0</ele><time>2026-04-11T15:27:45.654Z</time></trkpt><trkpt lat="44.4644393" lon="11.1463554"><ele>351.0</ele><time>2026-04-11T15:27:46.654Z</time></trkpt><trkpt lat="44.4645301" lon="11.1462842"><ele>351.0</ele><time>2026-04-11T15:27:47.654Z</time></trkpt><trkpt lat="44.4645947" lon="11.1462002"><ele>351.0</ele><time>2026-04-11T15:27:48.654Z</time></trkpt><trkpt lat="44.4646446" lon="11.1460945"><ele>351.0</ele><time>2026-04-11T15:27:49.654Z</time></trkpt><trkpt lat="44.4646693" lon="11.1459469"><ele>352.0</ele><time>2026-04-11T15:27:50.653Z</time></trkpt><trkpt lat="44.4646843" lon="11.1457724"><ele>353.0</ele><time>2026-04-11T15:27:51.654Z</time></trkpt><trkpt lat="44.4646884" lon="11.1456248"><ele>354.0</ele><time>2026-04-11T15:27:52.653Z</time></trkpt><trkpt lat="44.4646843" lon="11.1454535"><ele>355.0</ele><time>2026-04-11T15:27:53.654Z</time></trkpt><trkpt lat="44.4646724" lon="11.1452687"><ele>355.25</ele><time>2026-04-11T15:27:54.654Z</time></trkpt><trkpt lat="44.4646603" lon="11.1450788"><ele>355.5</ele><time>2026-04-11T15:27:55.654Z</time></trkpt><trkpt lat="44.4646641" lon="11.1449036"><ele>355.75</ele><time>2026-04-11T15:27:56.653Z</time></trkpt><trkpt lat="44.4646843" lon="11.1447459"><ele>356.0</ele><time>2026-04-11T15:27:57.654Z</time></trkpt><trkpt lat="44.4646829" lon="11.1445968"><ele>355.20000000000005</ele><time>2026-04-11T15:27:58.654Z</time></trkpt><trkpt lat="44.4646785" lon="11.1444568"><ele>354.40000000000003</ele><time>2026-04-11T15:27:59.653Z</time></trkpt><trkpt lat="44.4646013" lon="11.1443114"><ele>353.6</ele><time>2026-04-11T15:28:01.654Z</time></trkpt><trkpt lat="44.4645295" lon="11.1442301"><ele>352.8</ele><time>2026-04-11T15:28:03.654Z</time></trkpt><trkpt lat="44.4645017" lon="11.1441109"><ele>352.0</ele><time>2026-04-11T15:28:07.653Z</time></trkpt><trkpt lat="44.4644661" lon="11.1440039"><ele>352.0</ele><time>2026-04-11T15:28:09.654Z</time></trkpt><trkpt lat="44.4644852" lon="11.1438566"><ele>352.0</ele><time>2026-04-11T15:28:11.654Z</time></trkpt><trkpt lat="44.4644739" lon="11.1437505"><ele>352.0</ele><time>2026-04-11T15:28:12.654Z</time></trkpt><trkpt lat="44.4644569" lon="11.1436637"><ele>352.0</ele><time>2026-04-11T15:28:13.654Z</time></trkpt><trkpt lat="44.4644536" lon="11.1435667"><ele>352.0</ele><time>2026-04-11T15:28:14.654Z</time></trkpt><trkpt lat="44.4644178" lon="11.1434298"><ele>352.0</ele><time>2026-04-11T15:28:15.654Z</time></trkpt><trkpt lat="44.4643782" lon="11.143271"><ele>352.0</ele><time>2026-04-11T15:28:16.654Z</time></trkpt><trkpt lat="44.464343" lon="11.1430895"><ele>352.0</ele><time>2026-04-11T15:28:17.654Z</time></trkpt><trkpt lat="44.4643006" lon="11.1428933"><ele>352.0</ele><time>2026-04-11T15:28:18.653Z</time></trkpt><trkpt lat="44.4642564" lon="11.1427028"><ele>352.0</ele><time>2026-04-11T15:28:19.654Z</time></trkpt><trkpt lat="44.4642054" lon="11.1424469"><ele>347.66666666666663</ele><time>2026-04-11T15:28:20.654Z</time></trkpt><trkpt lat="44.4641655" lon="11.1422039"><ele>343.3333333333333</ele><time>2026-04-11T15:28:21.654Z</time></trkpt><trkpt lat="44.4641303" lon="11.1419918"><ele>339.0</ele><time>2026-04-11T15:28:22.654Z</time></trkpt><trkpt lat="44.4640588" lon="11.1417809"><ele>339.0</ele><time>2026-04-11T15:28:23.654Z</time></trkpt><trkpt lat="44.4639858" lon="11.1415995"><ele>339.0</ele><time>2026-04-11T15:28:24.653Z</time></trkpt><trkpt lat="44.4638961" lon="11.1414898"><ele>339.0</ele><time>2026-04-11T15:28:25.653Z</time></trkpt><trkpt lat="44.4638211" lon="11.1413632"><ele>339.0</ele><time>2026-04-11T15:28:26.654Z</time></trkpt><trkpt lat="44.4637496" lon="11.1412223"><ele>337.1666666666667</ele><time>2026-04-11T15:28:27.654Z</time></trkpt><trkpt lat="44.4636991" lon="11.1410957"><ele>335.3333333333333</ele><time>2026-04-11T15:28:28.654Z</time></trkpt><trkpt lat="44.4637229" lon="11.1409734"><ele>333.5</ele><time>2026-04-11T15:28:29.654Z</time></trkpt><trkpt lat="44.4637523" lon="11.1408894"><ele>331.66666666666663</ele><time>2026-04-11T15:28:30.654Z</time></trkpt><trkpt lat="44.4638033" lon="11.1407953"><ele>329.8333333333333</ele><time>2026-04-11T15:28:31.654Z</time></trkpt><trkpt lat="44.4638704" lon="11.1407001"><ele>328.0</ele><time>2026-04-11T15:28:32.654Z</time></trkpt><trkpt lat="44.4639535" lon="11.1406118"><ele>324.79999999999995</ele><time>2026-04-11T15:28:33.654Z</time></trkpt><trkpt lat="44.4640465" lon="11.1405203"><ele>321.59999999999997</ele><time>2026-04-11T15:28:34.653Z</time></trkpt><trkpt lat="44.4641271" lon="11.1404427"><ele>318.4</ele><time>2026-04-11T15:28:35.654Z</time></trkpt><trkpt lat="44.4642173" lon="11.1403935"><ele>315.2</ele><time>2026-04-11T15:28:36.654Z</time></trkpt><trkpt lat="44.4642872" lon="11.140367"><ele>312.0</ele><time>2026-04-11T15:28:37.654Z</time></trkpt><trkpt lat="44.4643333" lon="11.1402827"><ele>312.0</ele><time>2026-04-11T15:28:38.654Z</time></trkpt><trkpt lat="44.4643792" lon="11.1401986"><ele>312.0</ele><time>2026-04-11T15:28:39.654Z</time></trkpt><trkpt lat="44.4644417" lon="11.1401092"><ele>312.0</ele><time>2026-04-11T15:28:41.654Z</time></trkpt><trkpt lat="44.4643777" lon="11.1402207"><ele>312.0</ele><time>2026-04-11T15:28:57.654Z</time></trkpt><trkpt lat="44.4643263" lon="11.1402956"><ele>312.0</ele><time>2026-04-11T15:28:59.653Z</time></trkpt><trkpt lat="44.4642447" lon="11.1403434"><ele>312.0</ele><time>2026-04-11T15:29:00.653Z</time></trkpt><trkpt lat="44.4641604" lon="11.1403896"><ele>312.0</ele><time>2026-04-11T15:29:01.654Z</time></trkpt><trkpt lat="44.4640941" lon="11.1404136"><ele>312.0</ele><time>2026-04-11T15:29:02.653Z</time></trkpt><trkpt lat="44.4639843" lon="11.1404149"><ele>312.0</ele><time>2026-04-11T15:29:03.654Z</time></trkpt><trkpt lat="44.4639086" lon="11.140439"><ele>312.0</ele><time>2026-04-11T15:29:04.654Z</time></trkpt><trkpt lat="44.4638336" lon="11.1404708"><ele>312.0</ele><time>2026-04-11T15:29:05.654Z</time></trkpt><trkpt lat="44.4637466" lon="11.1405077"><ele>312.0</ele><time>2026-04-11T15:29:06.654Z</time></trkpt><trkpt lat="44.463671" lon="11.1405443"><ele>311.8333333333333</ele><time>2026-04-11T15:29:07.654Z</time></trkpt><trkpt lat="44.4635917" lon="11.1405912"><ele>311.6666666666667</ele><time>2026-04-11T15:29:08.654Z</time></trkpt><trkpt lat="44.4635144" lon="11.1406423"><ele>311.5</ele><time>2026-04-11T15:29:09.654Z</time></trkpt><trkpt lat="44.463438" lon="11.1406988"><ele>311.33333333333337</ele><time>2026-04-11T15:29:10.653Z</time></trkpt><trkpt lat="44.4633723" lon="11.1407591"><ele>311.1666666666667</ele><time>2026-04-11T15:29:11.654Z</time></trkpt><trkpt lat="44.463318" lon="11.1408208"><ele>311.0</ele><time>2026-04-11T15:29:12.653Z</time></trkpt><trkpt lat="44.4632591" lon="11.1408536"><ele>311.0</ele><time>2026-04-11T15:29:13.654Z</time></trkpt><trkpt lat="44.4631996" lon="11.1408122"><ele>311.0</ele><time>2026-04-11T15:29:15.653Z</time></trkpt><trkpt lat="44.4631769" lon="11.1407173"><ele>311.0</ele><time>2026-04-11T15:29:18.654Z</time></trkpt><trkpt lat="44.4630941" lon="11.1406918"><ele>311.0</ele><time>2026-04-11T15:29:20.654Z</time></trkpt><trkpt lat="44.4629556" lon="11.1407528"><ele>311.0</ele><time>2026-04-11T15:29:23.654Z</time></trkpt><trkpt lat="44.4628552" lon="11.1407643"><ele>306.6666666666667</ele><time>2026-04-11T15:29:25.654Z</time></trkpt><trkpt lat="44.4627495" lon="11.1407265"><ele>302.33333333333337</ele><time>2026-04-11T15:29:27.653Z</time></trkpt><trkpt lat="44.4626671" lon="11.140691"><ele>298.0</ele><time>2026-04-11T15:29:29.654Z</time></trkpt><trkpt lat="44.4626048" lon="11.1406349"><ele>293.6666666666667</ele><time>2026-04-11T15:29:31.654Z</time></trkpt><trkpt lat="44.462538" lon="11.1406161"><ele>289.3333333333333</ele><time>2026-04-11T15:29:33.653Z</time></trkpt><trkpt lat="44.462444" lon="11.140583"><ele>285.0</ele><time>2026-04-11T15:29:36.654Z</time></trkpt><trkpt lat="44.4623876" lon="11.140498"><ele>283.5</ele><time>2026-04-11T15:29:38.654Z</time></trkpt><trkpt lat="44.4623344" lon="11.1404266"><ele>282.0</ele><time>2026-04-11T15:29:40.654Z</time></trkpt><trkpt lat="44.4622714" lon="11.140407"><ele>280.5</ele><time>2026-04-11T15:29:42.654Z</time></trkpt><trkpt lat="44.4621484" lon="11.1404407"><ele>279.0</ele><time>2026-04-11T15:29:44.654Z</time></trkpt><trkpt lat="44.4620797" lon="11.1404355"><ele>277.5</ele><time>2026-04-11T15:29:45.654Z</time></trkpt><trkpt lat="44.4620161" lon="11.1404145"><ele>276.0</ele><time>2026-04-11T15:29:46.654Z</time></trkpt><trkpt lat="44.461921" lon="11.1403178"><ele>276.0</ele><time>2026-04-11T15:29:48.654Z</time></trkpt><trkpt lat="44.4618457" lon="11.1402164"><ele>276.0</ele><time>2026-04-11T15:29:50.653Z</time></trkpt><trkpt lat="44.4618753" lon="11.1400896"><ele>276.0</ele><time>2026-04-11T15:29:52.654Z</time></trkpt><trkpt lat="44.4618583" lon="11.1399087"><ele>276.0</ele><time>2026-04-11T15:29:54.654Z</time></trkpt><trkpt lat="44.4618242" lon="11.139814"><ele>276.0</ele><time>2026-04-11T15:29:55.654Z</time></trkpt><trkpt lat="44.4617613" lon="11.1397251"><ele>274.2</ele><time>2026-04-11T15:29:56.654Z</time></trkpt><trkpt lat="44.4616856" lon="11.1396295"><ele>272.40000000000003</ele><time>2026-04-11T15:29:57.654Z</time></trkpt><trkpt lat="44.4616266" lon="11.1395208"><ele>270.6</ele><time>2026-04-11T15:29:58.654Z</time></trkpt><trkpt lat="44.4615709" lon="11.1394136"><ele>268.8</ele><time>2026-04-11T15:29:59.654Z</time></trkpt><trkpt lat="44.4615096" lon="11.1393069"><ele>267.0</ele><time>2026-04-11T15:30:00.654Z</time></trkpt><trkpt lat="44.4614383" lon="11.1391755"><ele>267.0</ele><time>2026-04-11T15:30:01.653Z</time></trkpt><trkpt lat="44.4613759" lon="11.139074"><ele>267.0</ele><time>2026-04-11T15:30:02.654Z</time></trkpt><trkpt lat="44.4613247" lon="11.139011"><ele>267.0</ele><time>2026-04-11T15:30:03.654Z</time></trkpt><trkpt lat="44.4612864" lon="11.1389377"><ele>267.0</ele><time>2026-04-11T15:30:10.654Z</time></trkpt><trkpt lat="44.4612396" lon="11.1388464"><ele>267.0</ele><time>2026-04-11T15:30:12.654Z</time></trkpt><trkpt lat="44.4611324" lon="11.1387332"><ele>267.0</ele><time>2026-04-11T15:30:14.654Z</time></trkpt><trkpt lat="44.461059" lon="11.1386588"><ele>266.8</ele><time>2026-04-11T15:30:15.653Z</time></trkpt><trkpt lat="44.4609862" lon="11.1385651"><ele>266.6</ele><time>2026-04-11T15:30:16.653Z</time></trkpt><trkpt lat="44.4609204" lon="11.1384479"><ele>266.40000000000003</ele><time>2026-04-11T15:30:17.654Z</time></trkpt><trkpt lat="44.4608453" lon="11.1383242"><ele>266.2</ele><time>2026-04-11T15:30:18.653Z</time></trkpt><trkpt lat="44.4607586" lon="11.1382167"><ele>266.0</ele><time>2026-04-11T15:30:19.654Z</time></trkpt><trkpt lat="44.4606628" lon="11.1381228"><ele>266.0</ele><time>2026-04-11T15:30:20.654Z</time></trkpt><trkpt lat="44.4605621" lon="11.1380409"><ele>266.0</ele><time>2026-04-11T15:30:21.654Z</time></trkpt><trkpt lat="44.4604719" lon="11.1379714"><ele>266.0</ele><time>2026-04-11T15:30:22.654Z</time></trkpt><trkpt lat="44.4603887" lon="11.1379091"><ele>266.0</ele><time>2026-04-11T15:30:23.654Z</time></trkpt><trkpt lat="44.4603056" lon="11.1378532"><ele>266.0</ele><time>2026-04-11T15:30:24.654Z</time></trkpt><trkpt lat="44.4602362" lon="11.1378149"><ele>269.8</ele><time>2026-04-11T15:30:25.653Z</time></trkpt><trkpt lat="44.4601187" lon="11.1377415"><ele>273.6</ele><time>2026-04-11T15:30:27.653Z</time></trkpt><trkpt lat="44.4600125" lon="11.1376475"><ele>277.4</ele><time>2026-04-11T15:30:29.654Z</time></trkpt><trkpt lat="44.4599639" lon="11.1375846"><ele>281.2</ele><time>2026-04-11T15:30:30.654Z</time></trkpt><trkpt lat="44.4599193" lon="11.1375154"><ele>285.0</ele><time>2026-04-11T15:30:31.654Z</time></trkpt><trkpt lat="44.4598669" lon="11.1374332"><ele>285.1666666666667</ele><time>2026-04-11T15:30:32.654Z</time></trkpt><trkpt lat="44.4598214" lon="11.1373521"><ele>285.3333333333333</ele><time>2026-04-11T15:30:33.653Z</time></trkpt><trkpt lat="44.4597725" lon="11.1372627"><ele>285.5</ele><time>2026-04-11T15:30:34.654Z</time></trkpt><trkpt lat="44.459721" lon="11.1371733"><ele>285.66666666666663</ele><time>2026-04-11T15:30:35.653Z</time></trkpt><trkpt lat="44.4596634" lon="11.137079"><ele>285.8333333333333</ele><time>2026-04-11T15:30:36.654Z</time></trkpt><trkpt lat="44.4595945" lon="11.1369981"><ele>286.0</ele><time>2026-04-11T15:30:37.654Z</time></trkpt><trkpt lat="44.4595126" lon="11.1369268"><ele>284.8</ele><time>2026-04-11T15:30:38.654Z</time></trkpt><trkpt lat="44.4594267" lon="11.1368891"><ele>283.6</ele><time>2026-04-11T15:30:39.654Z</time></trkpt><trkpt lat="44.4592996" lon="11.1368957"><ele>282.4</ele><time>2026-04-11T15:30:41.654Z</time></trkpt><trkpt lat="44.4592227" lon="11.1368747"><ele>281.2</ele><time>2026-04-11T15:30:43.654Z</time></trkpt><trkpt lat="44.4591514" lon="11.1368784"><ele>280.0</ele><time>2026-04-11T15:30:46.654Z</time></trkpt><trkpt lat="44.4590071" lon="11.1369306"><ele>280.0</ele><time>2026-04-11T15:30:48.654Z</time></trkpt><trkpt lat="44.458899" lon="11.1369422"><ele>280.0</ele><time>2026-04-11T15:30:49.654Z</time></trkpt><trkpt lat="44.4587856" lon="11.1369611"><ele>280.0</ele><time>2026-04-11T15:30:50.654Z</time></trkpt><trkpt lat="44.4586537" lon="11.1369806"><ele>280.0</ele><time>2026-04-11T15:30:51.654Z</time></trkpt><trkpt lat="44.4585237" lon="11.1370028"><ele>281.5</ele><time>2026-04-11T15:30:52.654Z</time></trkpt><trkpt lat="44.4584016" lon="11.1370035"><ele>283.0</ele><time>2026-04-11T15:30:53.654Z</time></trkpt><trkpt lat="44.458286" lon="11.1369703"><ele>284.5</ele><time>2026-04-11T15:30:54.654Z</time></trkpt><trkpt lat="44.4581783" lon="11.1369118"><ele>286.0</ele><time>2026-04-11T15:30:55.654Z</time></trkpt><trkpt lat="44.4580814" lon="11.1367954"><ele>286.0</ele><time>2026-04-11T15:30:56.654Z</time></trkpt><trkpt lat="44.4579975" lon="11.136641"><ele>286.0</ele><time>2026-04-11T15:30:57.654Z</time></trkpt><trkpt lat="44.4579243" lon="11.1364888"><ele>286.0</ele><time>2026-04-11T15:30:58.654Z</time></trkpt><trkpt lat="44.4578522" lon="11.1363505"><ele>286.0</ele><time>2026-04-11T15:30:59.653Z</time></trkpt><trkpt lat="44.4577884" lon="11.1362119"><ele>287.0</ele><time>2026-04-11T15:31:00.654Z</time></trkpt><trkpt lat="44.4577351" lon="11.136081"><ele>288.0</ele><time>2026-04-11T15:31:01.654Z</time></trkpt><trkpt lat="44.4576915" lon="11.1359509"><ele>289.0</ele><time>2026-04-11T15:31:02.654Z</time></trkpt><trkpt lat="44.4576561" lon="11.1358261"><ele>290.0</ele><time>2026-04-11T15:31:03.654Z</time></trkpt><trkpt lat="44.4576207" lon="11.1357072"><ele>291.0</ele><time>2026-04-11T15:31:04.654Z</time></trkpt><trkpt lat="44.4575818" lon="11.1356025"><ele>291.5</ele><time>2026-04-11T15:31:05.654Z</time></trkpt><trkpt lat="44.4575369" lon="11.1355156"><ele>292.0</ele><time>2026-04-11T15:31:06.654Z</time></trkpt><trkpt lat="44.4574986" lon="11.1354388"><ele>292.5</ele><time>2026-04-11T15:31:07.654Z</time></trkpt><trkpt lat="44.4574271" lon="11.1353057"><ele>293.0</ele><time>2026-04-11T15:31:09.654Z</time></trkpt><trkpt lat="44.4573833" lon="11.1352362"><ele>293.5</ele><time>2026-04-11T15:31:10.654Z</time></trkpt><trkpt lat="44.4573435" lon="11.1351538"><ele>294.0</ele><time>2026-04-11T15:31:11.654Z</time></trkpt><trkpt lat="44.4573031" lon="11.1350699"><ele>294.0</ele><time>2026-04-11T15:31:12.654Z</time></trkpt><trkpt lat="44.4572328" lon="11.1349277"><ele>294.0</ele><time>2026-04-11T15:31:14.654Z</time></trkpt><trkpt lat="44.4571755" lon="11.134846"><ele>294.0</ele><time>2026-04-11T15:31:16.654Z</time></trkpt><trkpt lat="44.4572058" lon="11.1349301"><ele>294.0</ele><time>2026-04-11T15:31:20.654Z</time></trkpt><trkpt lat="44.4572593" lon="11.1350285"><ele>294.0</ele><time>2026-04-11T15:31:22.654Z</time></trkpt><trkpt lat="44.4572969" lon="11.1351008"><ele>294.0</ele><time>2026-04-11T15:31:23.654Z</time></trkpt><trkpt lat="44.4573612" lon="11.1352271"><ele>294.0</ele><time>2026-04-11T15:31:25.654Z</time></trkpt><trkpt lat="44.4574168" lon="11.1353221"><ele>294.0</ele><time>2026-04-11T15:31:27.654Z</time></trkpt><trkpt lat="44.4574747" lon="11.1354249"><ele>294.0</ele><time>2026-04-11T15:31:29.654Z</time></trkpt><trkpt lat="44.4575256" lon="11.1355275"><ele>294.0</ele><time>2026-04-11T15:31:30.653Z</time></trkpt><trkpt lat="44.457578" lon="11.135648"><ele>294.0</ele><time>2026-04-11T15:31:31.654Z</time></trkpt><trkpt lat="44.4576217" lon="11.1357841"><ele>293.25</ele><time>2026-04-11T15:31:32.654Z</time></trkpt><trkpt lat="44.457662" lon="11.1359394"><ele>292.5</ele><time>2026-04-11T15:31:33.654Z</time></trkpt><trkpt lat="44.4577156" lon="11.1360933"><ele>291.75</ele><time>2026-04-11T15:31:34.654Z</time></trkpt><trkpt lat="44.4577784" lon="11.1362456"><ele>291.0</ele><time>2026-04-11T15:31:35.654Z</time></trkpt><trkpt lat="44.4578391" lon="11.1364032"><ele>291.0</ele><time>2026-04-11T15:31:36.654Z</time></trkpt><trkpt lat="44.4579115" lon="11.1365498"><ele>291.0</ele><time>2026-04-11T15:31:37.654Z</time></trkpt><trkpt lat="44.4579821" lon="11.1366903"><ele>291.0</ele><time>2026-04-11T15:31:38.654Z</time></trkpt><trkpt lat="44.458055" lon="11.1368246"><ele>291.0</ele><time>2026-04-11T15:31:39.654Z</time></trkpt><trkpt lat="44.4581364" lon="11.1369301"><ele>289.75</ele><time>2026-04-11T15:31:40.653Z</time></trkpt><trkpt lat="44.4582407" lon="11.137007"><ele>288.5</ele><time>2026-04-11T15:31:41.654Z</time></trkpt><trkpt lat="44.4583559" lon="11.1370412"><ele>287.25</ele><time>2026-04-11T15:31:42.654Z</time></trkpt><trkpt lat="44.4584787" lon="11.1370397"><ele>286.0</ele><time>2026-04-11T15:31:43.653Z</time></trkpt><trkpt lat="44.4586015" lon="11.1370099"><ele>286.0</ele><time>2026-04-11T15:31:44.654Z</time></trkpt><trkpt lat="44.4587285" lon="11.1369984"><ele>286.0</ele><time>2026-04-11T15:31:45.654Z</time></trkpt><trkpt lat="44.4588373" lon="11.1369833"><ele>286.0</ele><time>2026-04-11T15:31:46.654Z</time></trkpt><trkpt lat="44.4589386" lon="11.1369656"><ele>286.0</ele><time>2026-04-11T15:31:47.653Z</time></trkpt><trkpt lat="44.4590318" lon="11.1369575"><ele>286.0</ele><time>2026-04-11T15:31:48.654Z</time></trkpt><trkpt lat="44.4591012" lon="11.1369429"><ele>286.0</ele><time>2026-04-11T15:31:49.654Z</time></trkpt><trkpt lat="44.4591653" lon="11.136872"><ele>286.0</ele><time>2026-04-11T15:31:51.654Z</time></trkpt><trkpt lat="44.4590918" lon="11.1367943"><ele>286.0</ele><time>2026-04-11T15:31:54.654Z</time></trkpt><trkpt lat="44.4589817" lon="11.1367594"><ele>286.0</ele><time>2026-04-11T15:31:56.654Z</time></trkpt><trkpt lat="44.4587525" lon="11.1365885"><ele>283.6</ele><time>2026-04-11T15:31:58.654Z</time></trkpt><trkpt lat="44.4586467" lon="11.1365489"><ele>281.20000000000005</ele><time>2026-04-11T15:31:59.654Z</time></trkpt><trkpt lat="44.4585728" lon="11.1365135"><ele>278.79999999999995</ele><time>2026-04-11T15:32:00.654Z</time></trkpt><trkpt lat="44.4585108" lon="11.1364891"><ele>276.4</ele><time>2026-04-11T15:32:01.654Z</time></trkpt><trkpt lat="44.4583893" lon="11.1364204"><ele>274.0</ele><time>2026-04-11T15:32:02.654Z</time></trkpt><trkpt lat="44.4583029" lon="11.1363617"><ele>274.0</ele><time>2026-04-11T15:32:03.654Z</time></trkpt><trkpt lat="44.4582111" lon="11.1362881"><ele>274.0</ele><time>2026-04-11T15:32:04.654Z</time></trkpt><trkpt lat="44.458199" lon="11.1361393"><ele>274.0</ele><time>2026-04-11T15:32:05.654Z</time></trkpt><trkpt lat="44.4581858" lon="11.1359287"><ele>274.0</ele><time>2026-04-11T15:32:06.654Z</time></trkpt><trkpt lat="44.4581536" lon="11.1356972"><ele>273.0</ele><time>2026-04-11T15:32:07.654Z</time></trkpt><trkpt lat="44.4581564" lon="11.1355182"><ele>272.0</ele><time>2026-04-11T15:32:08.654Z</time></trkpt><trkpt lat="44.4581751" lon="11.1353949"><ele>271.0</ele><time>2026-04-11T15:32:09.654Z</time></trkpt><trkpt lat="44.4582174" lon="11.135197"><ele>270.0</ele><time>2026-04-11T15:32:10.654Z</time></trkpt><trkpt lat="44.4582662" lon="11.1350396"><ele>272.5</ele><time>2026-04-11T15:32:11.654Z</time></trkpt><trkpt lat="44.4583253" lon="11.1348773"><ele>275.0</ele><time>2026-04-11T15:32:12.654Z</time></trkpt><trkpt lat="44.4583828" lon="11.1347112"><ele>277.5</ele><time>2026-04-11T15:32:13.654Z</time></trkpt><trkpt lat="44.4584419" lon="11.1345576"><ele>280.0</ele><time>2026-04-11T15:32:14.654Z</time></trkpt><trkpt lat="44.4585379" lon="11.134337"><ele>280.0</ele><time>2026-04-11T15:32:15.654Z</time></trkpt><trkpt lat="44.4586046" lon="11.1341904"><ele>280.0</ele><time>2026-04-11T15:32:16.654Z</time></trkpt><trkpt lat="44.458692" lon="11.1340704"><ele>280.0</ele><time>2026-04-11T15:32:17.654Z</time></trkpt><trkpt lat="44.458784" lon="11.1339472"><ele>280.0</ele><time>2026-04-11T15:32:18.654Z</time></trkpt><trkpt lat="44.4588976" lon="11.1338317"><ele>276.6</ele><time>2026-04-11T15:32:19.654Z</time></trkpt><trkpt lat="44.4590103" lon="11.1337679"><ele>273.2</ele><time>2026-04-11T15:32:20.653Z</time></trkpt><trkpt lat="44.4590723" lon="11.1336891"><ele>269.8</ele><time>2026-04-11T15:32:21.654Z</time></trkpt><trkpt lat="44.4591462" lon="11.1335845"><ele>266.4</ele><time>2026-04-11T15:32:22.654Z</time></trkpt><trkpt lat="44.4591894" lon="11.1334714"><ele>263.0</ele><time>2026-04-11T15:32:23.654Z</time></trkpt><trkpt lat="44.4592358" lon="11.1333555"><ele>260.0</ele><time>2026-04-11T15:32:24.654Z</time></trkpt><trkpt lat="44.4592422" lon="11.1332199"><ele>257.0</ele><time>2026-04-11T15:32:25.654Z</time></trkpt><trkpt lat="44.4591807" lon="11.1329697"><ele>254.0</ele><time>2026-04-11T15:32:26.654Z</time></trkpt><trkpt lat="44.4591746" lon="11.1327944"><ele>251.0</ele><time>2026-04-11T15:32:27.653Z</time></trkpt><trkpt lat="44.4591455" lon="11.1325986"><ele>251.0</ele><time>2026-04-11T15:32:28.654Z</time></trkpt><trkpt lat="44.4591041" lon="11.1324188"><ele>251.0</ele><time>2026-04-11T15:32:29.654Z</time></trkpt><trkpt lat="44.4590715" lon="11.132249"><ele>251.0</ele><time>2026-04-11T15:32:30.654Z</time></trkpt><trkpt lat="44.459044" lon="11.1321458"><ele>251.0</ele><time>2026-04-11T15:32:31.654Z</time></trkpt><trkpt lat="44.4590266" lon="11.1319849"><ele>249.0</ele><time>2026-04-11T15:32:32.654Z</time></trkpt><trkpt lat="44.4590134" lon="11.1318188"><ele>247.0</ele><time>2026-04-11T15:32:33.654Z</time></trkpt><trkpt lat="44.4590064" lon="11.1316662"><ele>245.0</ele><time>2026-04-11T15:32:34.654Z</time></trkpt><trkpt lat="44.4590286" lon="11.1313512"><ele>245.0</ele><time>2026-04-11T15:32:36.654Z</time></trkpt><trkpt lat="44.4590618" lon="11.1311896"><ele>245.0</ele><time>2026-04-11T15:32:37.654Z</time></trkpt><trkpt lat="44.4591011" lon="11.131032"><ele>245.0</ele><time>2026-04-11T15:32:38.654Z</time></trkpt><trkpt lat="44.45915" lon="11.1308512"><ele>245.0</ele><time>2026-04-11T15:32:39.654Z</time></trkpt><trkpt lat="44.4592002" lon="11.1306631"><ele>244.5</ele><time>2026-04-11T15:32:40.654Z</time></trkpt><trkpt lat="44.4592437" lon="11.1304827"><ele>244.0</ele><time>2026-04-11T15:32:41.654Z</time></trkpt><trkpt lat="44.4592875" lon="11.1303082"><ele>243.5</ele><time>2026-04-11T15:32:42.654Z</time></trkpt><trkpt lat="44.4593313" lon="11.1301131"><ele>243.0</ele><time>2026-04-11T15:32:43.654Z</time></trkpt><trkpt lat="44.4593719" lon="11.1299197"><ele>242.25</ele><time>2026-04-11T15:32:44.654Z</time></trkpt><trkpt lat="44.4594084" lon="11.1297489"><ele>241.5</ele><time>2026-04-11T15:32:45.654Z</time></trkpt><trkpt lat="44.4594302" lon="11.129621"><ele>240.75</ele><time>2026-04-11T15:32:46.654Z</time></trkpt><trkpt lat="44.4594581" lon="11.1294515"><ele>240.0</ele><time>2026-04-11T15:32:47.654Z</time></trkpt><trkpt lat="44.4594627" lon="11.1292896"><ele>240.0</ele><time>2026-04-11T15:32:48.654Z</time></trkpt><trkpt lat="44.4594579" lon="11.1291332"><ele>240.0</ele><time>2026-04-11T15:32:49.654Z</time></trkpt><trkpt lat="44.4594551" lon="11.1289749"><ele>240.0</ele><time>2026-04-11T15:32:50.654Z</time></trkpt><trkpt lat="44.4594615" lon="11.1288369"><ele>240.0</ele><time>2026-04-11T15:32:51.654Z</time></trkpt><trkpt lat="44.4594706" lon="11.1287205"><ele>240.0</ele><time>2026-04-11T15:32:52.654Z</time></trkpt><trkpt lat="44.4594815" lon="11.128615"><ele>239.0</ele><time>2026-04-11T15:32:53.654Z</time></trkpt><trkpt lat="44.4595189" lon="11.1284887"><ele>238.0</ele><time>2026-04-11T15:32:54.654Z</time></trkpt><trkpt lat="44.459551" lon="11.1283723"><ele>237.0</ele><time>2026-04-11T15:32:55.654Z</time></trkpt><trkpt lat="44.4595848" lon="11.1282407"><ele>236.0</ele><time>2026-04-11T15:32:56.654Z</time></trkpt><trkpt lat="44.4596059" lon="11.1281417"><ele>235.0</ele><time>2026-04-11T15:32:57.654Z</time></trkpt><trkpt lat="44.4596144" lon="11.128053"><ele>234.0</ele><time>2026-04-11T15:32:58.654Z</time></trkpt><trkpt lat="44.4596035" lon="11.1279313"><ele>233.66666666666666</ele><time>2026-04-11T15:32:59.654Z</time></trkpt><trkpt lat="44.459585" lon="11.1278321"><ele>233.33333333333331</ele><time>2026-04-11T15:33:00.653Z</time></trkpt><trkpt lat="44.459579" lon="11.1277377"><ele>233.0</ele><time>2026-04-11T15:33:01.654Z</time></trkpt><trkpt lat="44.4595592" lon="11.1275974"><ele>232.66666666666666</ele><time>2026-04-11T15:33:03.654Z</time></trkpt><trkpt lat="44.4595332" lon="11.1275104"><ele>232.33333333333331</ele><time>2026-04-11T15:33:08.654Z</time></trkpt><trkpt lat="44.459526" lon="11.1273704"><ele>232.0</ele><time>2026-04-11T15:33:10.654Z</time></trkpt><trkpt lat="44.45953" lon="11.1272744"><ele>230.83333333333331</ele><time>2026-04-11T15:33:11.653Z</time></trkpt><trkpt lat="44.4595374" lon="11.1271791"><ele>229.66666666666666</ele><time>2026-04-11T15:33:12.654Z</time></trkpt><trkpt lat="44.4595398" lon="11.1270743"><ele>228.5</ele><time>2026-04-11T15:33:13.654Z</time></trkpt><trkpt lat="44.4595534" lon="11.1269586"><ele>227.33333333333331</ele><time>2026-04-11T15:33:14.654Z</time></trkpt><trkpt lat="44.4595616" lon="11.1268203"><ele>226.16666666666666</ele><time>2026-04-11T15:33:15.653Z</time></trkpt><trkpt lat="44.4595579" lon="11.1267056"><ele>225.0</ele><time>2026-04-11T15:33:16.654Z</time></trkpt><trkpt lat="44.459545" lon="11.1266103"><ele>224.0</ele><time>2026-04-11T15:33:17.654Z</time></trkpt><trkpt lat="44.4595275" lon="11.1265171"><ele>223.0</ele><time>2026-04-11T15:33:18.653Z</time></trkpt><trkpt lat="44.4595372" lon="11.1264236"><ele>222.0</ele><time>2026-04-11T15:33:20.654Z</time></trkpt><trkpt lat="44.459567" lon="11.1263432"><ele>221.0</ele><time>2026-04-11T15:33:21.654Z</time></trkpt><trkpt lat="44.4596203" lon="11.1262523"><ele>220.0</ele><time>2026-04-11T15:33:22.653Z</time></trkpt><trkpt lat="44.4596948" lon="11.126139"><ele>219.0</ele><time>2026-04-11T15:33:23.654Z</time></trkpt><trkpt lat="44.4597688" lon="11.1260183"><ele>219.0</ele><time>2026-04-11T15:33:24.654Z</time></trkpt><trkpt lat="44.4598384" lon="11.1258901"><ele>219.0</ele><time>2026-04-11T15:33:25.654Z</time></trkpt><trkpt lat="44.4599112" lon="11.1257577"><ele>219.0</ele><time>2026-04-11T15:33:26.654Z</time></trkpt><trkpt lat="44.4599859" lon="11.1256343"><ele>219.0</ele><time>2026-04-11T15:33:27.653Z</time></trkpt><trkpt lat="44.4600632" lon="11.1255037"><ele>215.5</ele><time>2026-04-11T15:33:28.654Z</time></trkpt><trkpt lat="44.4601346" lon="11.1253723"><ele>212.0</ele><time>2026-04-11T15:33:29.654Z</time></trkpt><trkpt lat="44.4602069" lon="11.1252419"><ele>208.5</ele><time>2026-04-11T15:33:30.654Z</time></trkpt><trkpt lat="44.460281" lon="11.1251188"><ele>205.0</ele><time>2026-04-11T15:33:31.654Z</time></trkpt><trkpt lat="44.4603521" lon="11.1249992"><ele>203.0</ele><time>2026-04-11T15:33:32.654Z</time></trkpt><trkpt lat="44.4604193" lon="11.1248826"><ele>201.0</ele><time>2026-04-11T15:33:33.654Z</time></trkpt><trkpt lat="44.4604856" lon="11.1247683"><ele>199.0</ele><time>2026-04-11T15:33:34.654Z</time></trkpt><trkpt lat="44.4605419" lon="11.1246598"><ele>197.0</ele><time>2026-04-11T15:33:35.653Z</time></trkpt><trkpt lat="44.4605825" lon="11.1245692"><ele>195.0</ele><time>2026-04-11T15:33:36.653Z</time></trkpt><trkpt lat="44.4606049" lon="11.1244311"><ele>195.0</ele><time>2026-04-11T15:33:38.654Z</time></trkpt><trkpt lat="44.4605781" lon="11.1242679"><ele>195.0</ele><time>2026-04-11T15:33:40.654Z</time></trkpt><trkpt lat="44.4605898" lon="11.1241596"><ele>195.0</ele><time>2026-04-11T15:33:41.654Z</time></trkpt><trkpt lat="44.4606022" lon="11.1240347"><ele>195.0</ele><time>2026-04-11T15:33:42.654Z</time></trkpt><trkpt lat="44.4606146" lon="11.1239058"><ele>195.0</ele><time>2026-04-11T15:33:43.654Z</time></trkpt><trkpt lat="44.4606242" lon="11.123771"><ele>192.6</ele><time>2026-04-11T15:33:44.653Z</time></trkpt><trkpt lat="44.4606348" lon="11.1236409"><ele>190.2</ele><time>2026-04-11T15:33:45.654Z</time></trkpt><trkpt lat="44.4606465" lon="11.1235032"><ele>187.8</ele><time>2026-04-11T15:33:46.653Z</time></trkpt><trkpt lat="44.4606551" lon="11.1233753"><ele>185.4</ele><time>2026-04-11T15:33:47.654Z</time></trkpt><trkpt lat="44.4606657" lon="11.1232563"><ele>183.0</ele><time>2026-04-11T15:33:48.653Z</time></trkpt><trkpt lat="44.4606911" lon="11.1231334"><ele>179.60000000000002</ele><time>2026-04-11T15:33:49.654Z</time></trkpt><trkpt lat="44.4607257" lon="11.1230217"><ele>176.20000000000002</ele><time>2026-04-11T15:33:50.654Z</time></trkpt><trkpt lat="44.4607769" lon="11.1229252"><ele>172.8</ele><time>2026-04-11T15:33:51.653Z</time></trkpt><trkpt lat="44.4608361" lon="11.1228299"><ele>169.4</ele><time>2026-04-11T15:33:52.654Z</time></trkpt><trkpt lat="44.4609106" lon="11.1227562"><ele>166.0</ele><time>2026-04-11T15:33:53.654Z</time></trkpt><trkpt lat="44.4609934" lon="11.1226845"><ele>166.0</ele><time>2026-04-11T15:33:54.654Z</time></trkpt><trkpt lat="44.4610783" lon="11.1226185"><ele>166.0</ele><time>2026-04-11T15:33:55.654Z</time></trkpt><trkpt lat="44.4611646" lon="11.1225405"><ele>166.0</ele><time>2026-04-11T15:33:56.654Z</time></trkpt><trkpt lat="44.4612626" lon="11.122464"><ele>166.0</ele><time>2026-04-11T15:33:57.653Z</time></trkpt><trkpt lat="44.4613635" lon="11.1223881"><ele>166.0</ele><time>2026-04-11T15:33:58.654Z</time></trkpt><trkpt lat="44.461464" lon="11.1223081"><ele>161.75</ele><time>2026-04-11T15:33:59.654Z</time></trkpt><trkpt lat="44.4615664" lon="11.1222214"><ele>157.5</ele><time>2026-04-11T15:34:00.654Z</time></trkpt><trkpt lat="44.4616801" lon="11.1221555"><ele>153.25</ele><time>2026-04-11T15:34:01.654Z</time></trkpt><trkpt lat="44.4617794" lon="11.1220863"><ele>149.0</ele><time>2026-04-11T15:34:02.654Z</time></trkpt><trkpt lat="44.4618831" lon="11.1220217"><ele>149.0</ele><time>2026-04-11T15:34:03.653Z</time></trkpt><trkpt lat="44.4619815" lon="11.1219571"><ele>149.0</ele><time>2026-04-11T15:34:04.654Z</time></trkpt><trkpt lat="44.4620657" lon="11.121913"><ele>149.0</ele><time>2026-04-11T15:34:05.653Z</time></trkpt><trkpt lat="44.4621436" lon="11.1218553"><ele>149.0</ele><time>2026-04-11T15:34:06.654Z</time></trkpt><trkpt lat="44.4622049" lon="11.121784"><ele>149.0</ele><time>2026-04-11T15:34:07.654Z</time></trkpt><trkpt lat="44.4622551" lon="11.1216928"><ele>149.0</ele><time>2026-04-11T15:34:08.654Z</time></trkpt><trkpt lat="44.4622944" lon="11.1216072"><ele>146.66666666666666</ele><time>2026-04-11T15:34:09.654Z</time></trkpt><trkpt lat="44.4623297" lon="11.1214987"><ele>144.33333333333331</ele><time>2026-04-11T15:34:11.653Z</time></trkpt><trkpt lat="44.4623589" lon="11.1213936"><ele>142.0</ele><time>2026-04-11T15:34:15.654Z</time></trkpt><trkpt lat="44.4624303" lon="11.121406"><ele>139.66666666666666</ele><time>2026-04-11T15:34:24.654Z</time></trkpt><trkpt lat="44.4625246" lon="11.1214466"><ele>137.33333333333334</ele><time>2026-04-11T15:34:26.654Z</time></trkpt><trkpt lat="44.4625988" lon="11.1214555"><ele>135.0</ele><time>2026-04-11T15:34:27.654Z</time></trkpt><trkpt lat="44.4626682" lon="11.1214444"><ele>135.0</ele><time>2026-04-11T15:34:28.654Z</time></trkpt><trkpt lat="44.4627536" lon="11.1214254"><ele>135.0</ele><time>2026-04-11T15:34:29.654Z</time></trkpt><trkpt lat="44.4628373" lon="11.1214081"><ele>135.0</ele><time>2026-04-11T15:34:30.654Z</time></trkpt><trkpt lat="44.4629373" lon="11.1213702"><ele>135.0</ele><time>2026-04-11T15:34:31.653Z</time></trkpt><trkpt lat="44.4630352" lon="11.1213234"><ele>135.0</ele><time>2026-04-11T15:34:32.653Z</time></trkpt><trkpt lat="44.4631537" lon="11.1212707"><ele>135.0</ele><time>2026-04-11T15:34:33.654Z</time></trkpt><trkpt lat="44.4632704" lon="11.1212196"><ele>135.0</ele><time>2026-04-11T15:34:34.653Z</time></trkpt><trkpt lat="44.4634004" lon="11.1211638"><ele>135.0</ele><time>2026-04-11T15:34:35.654Z</time></trkpt><trkpt lat="44.4635369" lon="11.1211288"><ele>135.0</ele><time>2026-04-11T15:34:36.654Z</time></trkpt><trkpt lat="44.4636864" lon="11.1211256"><ele>133.66666666666666</ele><time>2026-04-11T15:34:37.654Z</time></trkpt><trkpt lat="44.4638409" lon="11.1211558"><ele>132.33333333333331</ele><time>2026-04-11T15:34:38.654Z</time></trkpt><trkpt lat="44.4640079" lon="11.1212089"><ele>131.0</ele><time>2026-04-11T15:34:39.654Z</time></trkpt><trkpt lat="44.4641789" lon="11.1212648"><ele>131.0</ele><time>2026-04-11T15:34:40.654Z</time></trkpt><trkpt lat="44.464353" lon="11.1213194"><ele>131.0</ele><time>2026-04-11T15:34:41.653Z</time></trkpt><trkpt lat="44.4645287" lon="11.1213676"><ele>131.0</ele><time>2026-04-11T15:34:42.654Z</time></trkpt><trkpt lat="44.4647058" lon="11.1214215"><ele>131.0</ele><time>2026-04-11T15:34:43.653Z</time></trkpt><trkpt lat="44.464878" lon="11.1214749"><ele>131.0</ele><time>2026-04-11T15:34:44.654Z</time></trkpt><trkpt lat="44.4650503" lon="11.1215245"><ele>131.0</ele><time>2026-04-11T15:34:45.654Z</time></trkpt><trkpt lat="44.4652146" lon="11.1215752"><ele>132.66666666666666</ele><time>2026-04-11T15:34:46.653Z</time></trkpt><trkpt lat="44.4653757" lon="11.1216263"><ele>134.33333333333334</ele><time>2026-04-11T15:34:47.654Z</time></trkpt><trkpt lat="44.4655378" lon="11.1216733"><ele>136.0</ele><time>2026-04-11T15:34:48.653Z</time></trkpt><trkpt lat="44.4657053" lon="11.1217075"><ele>136.66666666666669</ele><time>2026-04-11T15:34:49.654Z</time></trkpt><trkpt lat="44.4658746" lon="11.1217323"><ele>137.33333333333334</ele><time>2026-04-11T15:34:50.653Z</time></trkpt><trkpt lat="44.4660437" lon="11.1217265"><ele>138.0</ele><time>2026-04-11T15:34:51.653Z</time></trkpt><trkpt lat="44.4662164" lon="11.1217003"><ele>138.0</ele><time>2026-04-11T15:34:52.654Z</time></trkpt><trkpt lat="44.4663909" lon="11.1216748"><ele>138.0</ele><time>2026-04-11T15:34:53.654Z</time></trkpt><trkpt lat="44.4665505" lon="11.1216499"><ele>138.0</ele><time>2026-04-11T15:34:54.654Z</time></trkpt><trkpt lat="44.4666984" lon="11.1216305"><ele>138.0</ele><time>2026-04-11T15:34:55.654Z</time></trkpt><trkpt lat="44.4668314" lon="11.1216114"><ele>138.0</ele><time>2026-04-11T15:34:56.653Z</time></trkpt><trkpt lat="44.4669617" lon="11.1215815"><ele>138.0</ele><time>2026-04-11T15:34:57.654Z</time></trkpt><trkpt lat="44.4670808" lon="11.1215146"><ele>138.0</ele><time>2026-04-11T15:34:58.654Z</time></trkpt><trkpt lat="44.4671714" lon="11.1213963"><ele>136.0</ele><time>2026-04-11T15:34:59.654Z</time></trkpt><trkpt lat="44.467237" lon="11.1212295"><ele>134.0</ele><time>2026-04-11T15:35:00.654Z</time></trkpt><trkpt lat="44.4672759" lon="11.1210233"><ele>132.0</ele><time>2026-04-11T15:35:01.654Z</time></trkpt><trkpt lat="44.4673042" lon="11.1207938"><ele>131.33333333333334</ele><time>2026-04-11T15:35:02.654Z</time></trkpt><trkpt lat="44.4673436" lon="11.1205399"><ele>130.66666666666669</ele><time>2026-04-11T15:35:03.653Z</time></trkpt><trkpt lat="44.4673832" lon="11.1202867"><ele>130.0</ele><time>2026-04-11T15:35:04.654Z</time></trkpt><trkpt lat="44.4674208" lon="11.1200319"><ele>129.33333333333334</ele><time>2026-04-11T15:35:05.654Z</time></trkpt><trkpt lat="44.4674551" lon="11.119788"><ele>128.66666666666666</ele><time>2026-04-11T15:35:06.654Z</time></trkpt><trkpt lat="44.4674885" lon="11.1195557"><ele>128.0</ele><time>2026-04-11T15:35:07.654Z</time></trkpt><trkpt lat="44.4675188" lon="11.1193338"><ele>128.0</ele><time>2026-04-11T15:35:08.654Z</time></trkpt><trkpt lat="44.4675528" lon="11.1191278"><ele>128.0</ele><time>2026-04-11T15:35:09.653Z</time></trkpt><trkpt lat="44.4675852" lon="11.1189383"><ele>128.0</ele><time>2026-04-11T15:35:10.654Z</time></trkpt><trkpt lat="44.4676304" lon="11.1187685"><ele>128.0</ele><time>2026-04-11T15:35:11.653Z</time></trkpt><trkpt lat="44.4676973" lon="11.1186299"><ele>127.75</ele><time>2026-04-11T15:35:12.654Z</time></trkpt><trkpt lat="44.4677947" lon="11.1185299"><ele>127.5</ele><time>2026-04-11T15:35:13.654Z</time></trkpt><trkpt lat="44.4679107" lon="11.1184644"><ele>127.25</ele><time>2026-04-11T15:35:14.654Z</time></trkpt><trkpt lat="44.4680417" lon="11.1184433"><ele>127.0</ele><time>2026-04-11T15:35:15.654Z</time></trkpt><trkpt lat="44.468284" lon="11.1184084"><ele>127.0</ele><time>2026-04-11T15:35:17.654Z</time></trkpt><trkpt lat="44.4683873" lon="11.1183835"><ele>126.99999999999999</ele><time>2026-04-11T15:35:18.654Z</time></trkpt><trkpt lat="44.468484" lon="11.1183559"><ele>126.99999999999999</ele><time>2026-04-11T15:35:19.653Z</time></trkpt><trkpt lat="44.4685648" lon="11.1183356"><ele>127.0</ele><time>2026-04-11T15:35:20.654Z</time></trkpt><trkpt lat="44.4686287" lon="11.1182982"><ele>127.0</ele><time>2026-04-11T15:35:21.654Z</time></trkpt><trkpt lat="44.4686648" lon="11.1181637"><ele>127.00000000000001</ele><time>2026-04-11T15:35:23.654Z</time></trkpt><trkpt lat="44.4686532" lon="11.1180673"><ele>127.0</ele><time>2026-04-11T15:35:24.654Z</time></trkpt><trkpt lat="44.4686472" lon="11.1179699"><ele>127.0</ele><time>2026-04-11T15:35:25.654Z</time></trkpt><trkpt lat="44.4686333" lon="11.11786"><ele>127.0</ele><time>2026-04-11T15:35:26.654Z</time></trkpt><trkpt lat="44.4686173" lon="11.1177477"><ele>127.00000000000001</ele><time>2026-04-11T15:35:27.653Z</time></trkpt><trkpt lat="44.4685906" lon="11.1176393"><ele>127.0</ele><time>2026-04-11T15:35:28.654Z</time></trkpt><trkpt lat="44.4685363" lon="11.1175307"><ele>127.0</ele><time>2026-04-11T15:35:29.654Z</time></trkpt><trkpt lat="44.4684726" lon="11.1174158"><ele>127.0</ele><time>2026-04-11T15:35:30.653Z</time></trkpt><trkpt lat="44.4684105" lon="11.1172878"><ele>127.0</ele><time>2026-04-11T15:35:31.654Z</time></trkpt><trkpt lat="44.4683532" lon="11.1171434"><ele>127.0</ele><time>2026-04-11T15:35:32.653Z</time></trkpt><trkpt lat="44.4682976" lon="11.1169857"><ele>127.0</ele><time>2026-04-11T15:35:33.654Z</time></trkpt><trkpt lat="44.4682399" lon="11.1168211"><ele>127.0</ele><time>2026-04-11T15:35:34.653Z</time></trkpt><trkpt lat="44.4681839" lon="11.1166534"><ele>127.0</ele><time>2026-04-11T15:35:35.654Z</time></trkpt><trkpt lat="44.4681289" lon="11.1164759"><ele>127.0</ele><time>2026-04-11T15:35:36.653Z</time></trkpt><trkpt lat="44.4680734" lon="11.1163069"><ele>127.25</ele><time>2026-04-11T15:35:37.654Z</time></trkpt><trkpt lat="44.468022" lon="11.1161427"><ele>127.5</ele><time>2026-04-11T15:35:38.654Z</time></trkpt><trkpt lat="44.4679923" lon="11.1159815"><ele>127.75</ele><time>2026-04-11T15:35:39.654Z</time></trkpt><trkpt lat="44.4679893" lon="11.1158213"><ele>128.0</ele><time>2026-04-11T15:35:40.653Z</time></trkpt><trkpt lat="44.4680142" lon="11.1156655"><ele>129.25</ele><time>2026-04-11T15:35:41.654Z</time></trkpt><trkpt lat="44.4680679" lon="11.1155062"><ele>130.5</ele><time>2026-04-11T15:35:42.653Z</time></trkpt><trkpt lat="44.468126" lon="11.1153416"><ele>131.75</ele><time>2026-04-11T15:35:43.653Z</time></trkpt><trkpt lat="44.4681782" lon="11.1151702"><ele>133.0</ele><time>2026-04-11T15:35:44.654Z</time></trkpt><trkpt lat="44.4682127" lon="11.1150212"><ele>133.4</ele><time>2026-04-11T15:35:45.654Z</time></trkpt><trkpt lat="44.4682301" lon="11.1148581"><ele>133.8</ele><time>2026-04-11T15:35:46.654Z</time></trkpt><trkpt lat="44.4682139" lon="11.1146954"><ele>134.2</ele><time>2026-04-11T15:35:47.653Z</time></trkpt><trkpt lat="44.468196" lon="11.1145592"><ele>134.6</ele><time>2026-04-11T15:35:48.654Z</time></trkpt><trkpt lat="44.4681658" lon="11.1144501"><ele>135.0</ele><time>2026-04-11T15:35:49.653Z</time></trkpt><trkpt lat="44.4681232" lon="11.1143677"><ele>135.0</ele><time>2026-04-11T15:35:50.654Z</time></trkpt><trkpt lat="44.4680441" lon="11.1143075"><ele>135.0</ele><time>2026-04-11T15:35:51.654Z</time></trkpt><trkpt lat="44.4679597" lon="11.1142722"><ele>135.0</ele><time>2026-04-11T15:35:52.654Z</time></trkpt><trkpt lat="44.4678739" lon="11.1142866"><ele>135.0</ele><time>2026-04-11T15:35:53.654Z</time></trkpt><trkpt lat="44.467782" lon="11.1142387"><ele>135.0</ele><time>2026-04-11T15:35:54.654Z</time></trkpt><trkpt lat="44.4676907" lon="11.1141657"><ele>135.75</ele><time>2026-04-11T15:35:55.653Z</time></trkpt><trkpt lat="44.467616" lon="11.1140587"><ele>136.5</ele><time>2026-04-11T15:35:56.653Z</time></trkpt><trkpt lat="44.4675616" lon="11.1139309"><ele>137.25</ele><time>2026-04-11T15:35:57.654Z</time></trkpt><trkpt lat="44.4674913" lon="11.1137936"><ele>138.0</ele><time>2026-04-11T15:35:58.654Z</time></trkpt><trkpt lat="44.4674189" lon="11.1136441"><ele>138.0</ele><time>2026-04-11T15:35:59.654Z</time></trkpt><trkpt lat="44.4673451" lon="11.1134862"><ele>138.0</ele><time>2026-04-11T15:36:00.654Z</time></trkpt><trkpt lat="44.4672687" lon="11.1133227"><ele>138.0</ele><time>2026-04-11T15:36:01.653Z</time></trkpt><trkpt lat="44.4671904" lon="11.1131571"><ele>138.0</ele><time>2026-04-11T15:36:02.654Z</time></trkpt><trkpt lat="44.4671118" lon="11.1129938"><ele>138.25</ele><time>2026-04-11T15:36:03.654Z</time></trkpt><trkpt lat="44.4670358" lon="11.1128335"><ele>138.5</ele><time>2026-04-11T15:36:04.654Z</time></trkpt><trkpt lat="44.466965" lon="11.1126814"><ele>138.75</ele><time>2026-04-11T15:36:05.654Z</time></trkpt><trkpt lat="44.4669001" lon="11.1125381"><ele>139.0</ele><time>2026-04-11T15:36:06.653Z</time></trkpt><trkpt lat="44.4668367" lon="11.1124029"><ele>139.2</ele><time>2026-04-11T15:36:07.653Z</time></trkpt><trkpt lat="44.4667763" lon="11.1122739"><ele>139.4</ele><time>2026-04-11T15:36:08.653Z</time></trkpt><trkpt lat="44.4667241" lon="11.1121566"><ele>139.6</ele><time>2026-04-11T15:36:09.654Z</time></trkpt><trkpt lat="44.4666734" lon="11.1120445"><ele>139.8</ele><time>2026-04-11T15:36:10.653Z</time></trkpt><trkpt lat="44.4666297" lon="11.1119374"><ele>140.0</ele><time>2026-04-11T15:36:11.654Z</time></trkpt><trkpt lat="44.4665832" lon="11.1118439"><ele>140.0</ele><time>2026-04-11T15:36:12.654Z</time></trkpt><trkpt lat="44.4665486" lon="11.1117609"><ele>140.0</ele><time>2026-04-11T15:36:13.654Z</time></trkpt><trkpt lat="44.4665103" lon="11.1116897"><ele>140.0</ele><time>2026-04-11T15:36:15.654Z</time></trkpt><trkpt lat="44.4664494" lon="11.1116615"><ele>140.0</ele><time>2026-04-11T15:36:20.654Z</time></trkpt><trkpt lat="44.4663544" lon="11.1117631"><ele>140.0</ele><time>2026-04-11T15:36:22.654Z</time></trkpt><trkpt lat="44.4662907" lon="11.1118452"><ele>140.0</ele><time>2026-04-11T15:36:23.654Z</time></trkpt><trkpt lat="44.4662107" lon="11.1119136"><ele>141.5</ele><time>2026-04-11T15:36:24.653Z</time></trkpt><trkpt lat="44.4661095" lon="11.1119954"><ele>143.0</ele><time>2026-04-11T15:36:25.653Z</time></trkpt><trkpt lat="44.4659774" lon="11.1120991"><ele>144.5</ele><time>2026-04-11T15:36:26.653Z</time></trkpt><trkpt lat="44.4658558" lon="11.1121907"><ele>146.0</ele><time>2026-04-11T15:36:27.654Z</time></trkpt><trkpt lat="44.4657226" lon="11.1123064"><ele>146.0</ele><time>2026-04-11T15:36:28.654Z</time></trkpt><trkpt lat="44.4655919" lon="11.1124348"><ele>146.0</ele><time>2026-04-11T15:36:29.654Z</time></trkpt><trkpt lat="44.4654674" lon="11.1125661"><ele>146.0</ele><time>2026-04-11T15:36:30.654Z</time></trkpt><trkpt lat="44.465336" lon="11.1127038"><ele>146.0</ele><time>2026-04-11T15:36:31.654Z</time></trkpt><trkpt lat="44.4652109" lon="11.1128341"><ele>146.0</ele><time>2026-04-11T15:36:32.654Z</time></trkpt><trkpt lat="44.4650894" lon="11.1129648"><ele>146.0</ele><time>2026-04-11T15:36:33.654Z</time></trkpt><trkpt lat="44.4649731" lon="11.1130971"><ele>146.0</ele><time>2026-04-11T15:36:34.654Z</time></trkpt><trkpt lat="44.4648615" lon="11.1132173"><ele>146.0</ele><time>2026-04-11T15:36:35.654Z</time></trkpt><trkpt lat="44.4647481" lon="11.1133331"><ele>146.0</ele><time>2026-04-11T15:36:36.654Z</time></trkpt><trkpt lat="44.4646334" lon="11.1134538"><ele>146.0</ele><time>2026-04-11T15:36:37.654Z</time></trkpt><trkpt lat="44.4645325" lon="11.1135735"><ele>145.5</ele><time>2026-04-11T15:36:38.654Z</time></trkpt><trkpt lat="44.4644303" lon="11.1136902"><ele>145.0</ele><time>2026-04-11T15:36:39.654Z</time></trkpt><trkpt lat="44.4643298" lon="11.1138155"><ele>144.5</ele><time>2026-04-11T15:36:40.654Z</time></trkpt><trkpt lat="44.4642434" lon="11.1139366"><ele>144.0</ele><time>2026-04-11T15:36:41.654Z</time></trkpt><trkpt lat="44.4641602" lon="11.1140535"><ele>143.6</ele><time>2026-04-11T15:36:42.654Z</time></trkpt><trkpt lat="44.4640782" lon="11.1141631"><ele>143.2</ele><time>2026-04-11T15:36:43.653Z</time></trkpt><trkpt lat="44.4639967" lon="11.1142696"><ele>142.79999999999998</ele><time>2026-04-11T15:36:44.653Z</time></trkpt><trkpt lat="44.4639141" lon="11.1143711"><ele>142.4</ele><time>2026-04-11T15:36:45.654Z</time></trkpt><trkpt lat="44.4638387" lon="11.1144718"><ele>142.0</ele><time>2026-04-11T15:36:46.654Z</time></trkpt><trkpt lat="44.4637721" lon="11.1145707"><ele>141.79999999999998</ele><time>2026-04-11T15:36:47.653Z</time></trkpt><trkpt lat="44.4637162" lon="11.1146573"><ele>141.6</ele><time>2026-04-11T15:36:48.654Z</time></trkpt><trkpt lat="44.4636643" lon="11.1147172"><ele>141.39999999999998</ele><time>2026-04-11T15:36:49.654Z</time></trkpt><trkpt lat="44.4635931" lon="11.1146427"><ele>141.2</ele><time>2026-04-11T15:36:52.654Z</time></trkpt><trkpt lat="44.463614" lon="11.1143878"><ele>141.0</ele><time>2026-04-11T15:36:54.653Z</time></trkpt><trkpt lat="44.4636348" lon="11.1141957"><ele>142.66666666666666</ele><time>2026-04-11T15:36:55.654Z</time></trkpt><trkpt lat="44.4636602" lon="11.1139706"><ele>144.33333333333331</ele><time>2026-04-11T15:36:56.654Z</time></trkpt><trkpt lat="44.4636787" lon="11.1137621"><ele>146.0</ele><time>2026-04-11T15:36:57.654Z</time></trkpt><trkpt lat="44.4636938" lon="11.1135614"><ele>146.0</ele><time>2026-04-11T15:36:58.654Z</time></trkpt><trkpt lat="44.4636956" lon="11.1133603"><ele>146.0</ele><time>2026-04-11T15:36:59.654Z</time></trkpt><trkpt lat="44.4636908" lon="11.1131927"><ele>146.0</ele><time>2026-04-11T15:37:00.654Z</time></trkpt><trkpt lat="44.4636786" lon="11.113079"><ele>146.0</ele><time>2026-04-11T15:37:01.654Z</time></trkpt><trkpt lat="44.4636635" lon="11.1129878"><ele>146.0</ele><time>2026-04-11T15:37:02.654Z</time></trkpt><trkpt lat="44.4636468" lon="11.1128785"><ele>147.0</ele><time>2026-04-11T15:37:03.653Z</time></trkpt><trkpt lat="44.4636278" lon="11.1127545"><ele>148.0</ele><time>2026-04-11T15:37:04.654Z</time></trkpt><trkpt lat="44.4636098" lon="11.1126197"><ele>149.0</ele><time>2026-04-11T15:37:05.654Z</time></trkpt><trkpt lat="44.4635927" lon="11.1124687"><ele>150.0</ele><time>2026-04-11T15:37:06.654Z</time></trkpt><trkpt lat="44.4635879" lon="11.1123061"><ele>151.0</ele><time>2026-04-11T15:37:07.654Z</time></trkpt><trkpt lat="44.4636108" lon="11.1121036"><ele>154.0</ele><time>2026-04-11T15:37:08.654Z</time></trkpt><trkpt lat="44.4636441" lon="11.1119022"><ele>157.0</ele><time>2026-04-11T15:37:09.653Z</time></trkpt><trkpt lat="44.4636947" lon="11.1116799"><ele>160.0</ele><time>2026-04-11T15:37:10.654Z</time></trkpt><trkpt lat="44.4637453" lon="11.1114474"><ele>163.5</ele><time>2026-04-11T15:37:11.653Z</time></trkpt><trkpt lat="44.4637841" lon="11.1112489"><ele>167.0</ele><time>2026-04-11T15:37:12.653Z</time></trkpt><trkpt lat="44.4638237" lon="11.1110835"><ele>170.5</ele><time>2026-04-11T15:37:13.654Z</time></trkpt><trkpt lat="44.4638522" lon="11.1109469"><ele>174.0</ele><time>2026-04-11T15:37:14.654Z</time></trkpt><trkpt lat="44.4638568" lon="11.1108266"><ele>176.6</ele><time>2026-04-11T15:37:15.654Z</time></trkpt><trkpt lat="44.4638369" lon="11.1107402"><ele>179.2</ele><time>2026-04-11T15:37:16.654Z</time></trkpt><trkpt lat="44.4637419" lon="11.1106921"><ele>181.79999999999998</ele><time>2026-04-11T15:37:17.654Z</time></trkpt><trkpt lat="44.4636681" lon="11.1106294"><ele>184.39999999999998</ele><time>2026-04-11T15:37:18.654Z</time></trkpt><trkpt lat="44.4635717" lon="11.110564"><ele>187.0</ele><time>2026-04-11T15:37:19.654Z</time></trkpt><trkpt lat="44.4634809" lon="11.1104612"><ele>187.0</ele><time>2026-04-11T15:37:20.654Z</time></trkpt><trkpt lat="44.4633751" lon="11.1103571"><ele>187.0</ele><time>2026-04-11T15:37:21.654Z</time></trkpt><trkpt lat="44.4632384" lon="11.1102284"><ele>187.0</ele><time>2026-04-11T15:37:22.654Z</time></trkpt><trkpt lat="44.463117" lon="11.1101004"><ele>187.0</ele><time>2026-04-11T15:37:23.653Z</time></trkpt><trkpt lat="44.4629922" lon="11.109968"><ele>188.25</ele><time>2026-04-11T15:37:24.654Z</time></trkpt><trkpt lat="44.4628835" lon="11.1098426"><ele>189.5</ele><time>2026-04-11T15:37:25.654Z</time></trkpt><trkpt lat="44.4627649" lon="11.1097422"><ele>190.75</ele><time>2026-04-11T15:37:26.654Z</time></trkpt><trkpt lat="44.4626634" lon="11.1096406"><ele>192.0</ele><time>2026-04-11T15:37:27.654Z</time></trkpt><trkpt lat="44.4625664" lon="11.1095539"><ele>192.0</ele><time>2026-04-11T15:37:28.653Z</time></trkpt><trkpt lat="44.462494" lon="11.1094866"><ele>192.0</ele><time>2026-04-11T15:37:29.654Z</time></trkpt><trkpt lat="44.4624379" lon="11.1094322"><ele>192.0</ele><time>2026-04-11T15:37:30.654Z</time></trkpt><trkpt lat="44.4623465" lon="11.1093391"><ele>192.0</ele><time>2026-04-11T15:37:32.654Z</time></trkpt><trkpt lat="44.4622372" lon="11.1092904"><ele>192.0</ele><time>2026-04-11T15:37:34.654Z</time></trkpt><trkpt lat="44.462173" lon="11.1092879"><ele>192.0</ele><time>2026-04-11T15:37:35.654Z</time></trkpt><trkpt lat="44.4620752" lon="11.109285"><ele>193.25</ele><time>2026-04-11T15:37:36.654Z</time></trkpt><trkpt lat="44.4619545" lon="11.109293"><ele>194.5</ele><time>2026-04-11T15:37:37.653Z</time></trkpt><trkpt lat="44.4618071" lon="11.1093032"><ele>195.75</ele><time>2026-04-11T15:37:38.654Z</time></trkpt><trkpt lat="44.4616504" lon="11.1093109"><ele>197.0</ele><time>2026-04-11T15:37:39.654Z</time></trkpt><trkpt lat="44.4614991" lon="11.1093317"><ele>197.0</ele><time>2026-04-11T15:37:40.654Z</time></trkpt><trkpt lat="44.4613475" lon="11.1093582"><ele>197.0</ele><time>2026-04-11T15:37:41.654Z</time></trkpt><trkpt lat="44.4612062" lon="11.1093829"><ele>197.0</ele><time>2026-04-11T15:37:42.653Z</time></trkpt><trkpt lat="44.4610649" lon="11.109409"><ele>197.0</ele><time>2026-04-11T15:37:43.654Z</time></trkpt><trkpt lat="44.4609323" lon="11.1094379"><ele>198.25</ele><time>2026-04-11T15:37:44.654Z</time></trkpt><trkpt lat="44.4608074" lon="11.1094822"><ele>199.5</ele><time>2026-04-11T15:37:45.654Z</time></trkpt><trkpt lat="44.4606796" lon="11.1095258"><ele>200.75</ele><time>2026-04-11T15:37:46.654Z</time></trkpt><trkpt lat="44.4605553" lon="11.109589"><ele>202.0</ele><time>2026-04-11T15:37:47.654Z</time></trkpt><trkpt lat="44.4604317" lon="11.109632"><ele>206.25</ele><time>2026-04-11T15:37:48.654Z</time></trkpt><trkpt lat="44.4603178" lon="11.1096748"><ele>210.5</ele><time>2026-04-11T15:37:49.654Z</time></trkpt><trkpt lat="44.460195" lon="11.1097029"><ele>214.75</ele><time>2026-04-11T15:37:50.654Z</time></trkpt><trkpt lat="44.4600668" lon="11.1097307"><ele>219.0</ele><time>2026-04-11T15:37:51.654Z</time></trkpt><trkpt lat="44.459916" lon="11.109816"><ele>219.0</ele><time>2026-04-11T15:37:52.653Z</time></trkpt><trkpt lat="44.4597562" lon="11.1098923"><ele>219.0</ele><time>2026-04-11T15:37:53.653Z</time></trkpt><trkpt lat="44.4596069" lon="11.1099741"><ele>219.0</ele><time>2026-04-11T15:37:54.654Z</time></trkpt><trkpt lat="44.4594507" lon="11.110053"><ele>219.0</ele><time>2026-04-11T15:37:55.653Z</time></trkpt><trkpt lat="44.4593335" lon="11.1101175"><ele>218.99999999999997</ele><time>2026-04-11T15:37:56.654Z</time></trkpt><trkpt lat="44.4592478" lon="11.1101962"><ele>218.99999999999997</ele><time>2026-04-11T15:37:57.654Z</time></trkpt><trkpt lat="44.4591562" lon="11.1102528"><ele>219.0</ele><time>2026-04-11T15:37:58.654Z</time></trkpt><trkpt lat="44.459092" lon="11.1102934"><ele>219.0</ele><time>2026-04-11T15:37:59.654Z</time></trkpt><trkpt lat="44.4590109" lon="11.1102965"><ele>219.0</ele><time>2026-04-11T15:38:00.654Z</time></trkpt><trkpt lat="44.4588995" lon="11.1102714"><ele>219.0</ele><time>2026-04-11T15:38:01.654Z</time></trkpt><trkpt lat="44.4587958" lon="11.1102507"><ele>219.0</ele><time>2026-04-11T15:38:02.654Z</time></trkpt><trkpt lat="44.4586793" lon="11.110257"><ele>219.0</ele><time>2026-04-11T15:38:03.654Z</time></trkpt><trkpt lat="44.4585248" lon="11.1102174"><ele>218.2</ele><time>2026-04-11T15:38:04.654Z</time></trkpt><trkpt lat="44.4584122" lon="11.1102013"><ele>217.39999999999998</ele><time>2026-04-11T15:38:05.654Z</time></trkpt><trkpt lat="44.4583175" lon="11.1101981"><ele>216.6</ele><time>2026-04-11T15:38:06.654Z</time></trkpt><trkpt lat="44.4582228" lon="11.1101853"><ele>215.8</ele><time>2026-04-11T15:38:07.653Z</time></trkpt><trkpt lat="44.458149" lon="11.1101441"><ele>215.0</ele><time>2026-04-11T15:38:08.653Z</time></trkpt><trkpt lat="44.4580788" lon="11.1100957"><ele>215.0</ele><time>2026-04-11T15:38:09.654Z</time></trkpt><trkpt lat="44.4580126" lon="11.1100029"><ele>215.0</ele><time>2026-04-11T15:38:10.654Z</time></trkpt><trkpt lat="44.4579796" lon="11.1099249"><ele>215.0</ele><time>2026-04-11T15:38:11.653Z</time></trkpt><trkpt lat="44.4579158" lon="11.1098082"><ele>215.0</ele><time>2026-04-11T15:38:12.654Z</time></trkpt><trkpt lat="44.4578308" lon="11.1097005"><ele>215.0</ele><time>2026-04-11T15:38:13.653Z</time></trkpt><trkpt lat="44.4577259" lon="11.109598"><ele>212.5</ele><time>2026-04-11T15:38:14.653Z</time></trkpt><trkpt lat="44.4576122" lon="11.1095112"><ele>210.0</ele><time>2026-04-11T15:38:15.654Z</time></trkpt><trkpt lat="44.4574906" lon="11.1094394"><ele>207.5</ele><time>2026-04-11T15:38:16.654Z</time></trkpt><trkpt lat="44.4573573" lon="11.1093826"><ele>205.0</ele><time>2026-04-11T15:38:17.654Z</time></trkpt><trkpt lat="44.4572175" lon="11.1093213"><ele>204.5</ele><time>2026-04-11T15:38:18.654Z</time></trkpt><trkpt lat="44.457083" lon="11.1092636"><ele>204.0</ele><time>2026-04-11T15:38:19.654Z</time></trkpt><trkpt lat="44.4569481" lon="11.1092109"><ele>203.5</ele><time>2026-04-11T15:38:20.653Z</time></trkpt><trkpt lat="44.4568127" lon="11.1091551"><ele>203.0</ele><time>2026-04-11T15:38:21.653Z</time></trkpt><trkpt lat="44.4566897" lon="11.1091084"><ele>202.4</ele><time>2026-04-11T15:38:22.653Z</time></trkpt><trkpt lat="44.4565749" lon="11.1090653"><ele>201.8</ele><time>2026-04-11T15:38:23.654Z</time></trkpt><trkpt lat="44.4564691" lon="11.1090242"><ele>201.2</ele><time>2026-04-11T15:38:24.654Z</time></trkpt><trkpt lat="44.456373" lon="11.1089919"><ele>200.6</ele><time>2026-04-11T15:38:25.654Z</time></trkpt><trkpt lat="44.4562894" lon="11.1089538"><ele>200.0</ele><time>2026-04-11T15:38:26.654Z</time></trkpt><trkpt lat="44.456178" lon="11.1088755"><ele>200.00000000000003</ele><time>2026-04-11T15:38:28.654Z</time></trkpt><trkpt lat="44.4561127" lon="11.1088529"><ele>200.0</ele><time>2026-04-11T15:38:29.654Z</time></trkpt><trkpt lat="44.4560376" lon="11.1088424"><ele>200.0</ele><time>2026-04-11T15:38:30.653Z</time></trkpt><trkpt lat="44.4559668" lon="11.1088172"><ele>200.0</ele><time>2026-04-11T15:38:31.654Z</time></trkpt><trkpt lat="44.4558958" lon="11.1087892"><ele>200.00000000000003</ele><time>2026-04-11T15:38:32.654Z</time></trkpt><trkpt lat="44.455785" lon="11.1087693"><ele>200.0</ele><time>2026-04-11T15:38:34.654Z</time></trkpt><trkpt lat="44.4556647" lon="11.1087631"><ele>200.00000000000003</ele><time>2026-04-11T15:38:36.654Z</time></trkpt><trkpt lat="44.4555999" lon="11.1087597"><ele>200.0</ele><time>2026-04-11T15:38:37.654Z</time></trkpt><trkpt lat="44.4555205" lon="11.1087526"><ele>200.0</ele><time>2026-04-11T15:38:38.654Z</time></trkpt><trkpt lat="44.4554293" lon="11.1087272"><ele>200.0</ele><time>2026-04-11T15:38:39.654Z</time></trkpt><trkpt lat="44.4553373" lon="11.1086983"><ele>200.00000000000003</ele><time>2026-04-11T15:38:40.654Z</time></trkpt><trkpt lat="44.4552276" lon="11.1086499"><ele>200.0</ele><time>2026-04-11T15:38:41.654Z</time></trkpt><trkpt lat="44.4551184" lon="11.1085959"><ele>200.5</ele><time>2026-04-11T15:38:42.653Z</time></trkpt><trkpt lat="44.4550041" lon="11.1085438"><ele>201.0</ele><time>2026-04-11T15:38:43.654Z</time></trkpt><trkpt lat="44.4548899" lon="11.1084936"><ele>201.5</ele><time>2026-04-11T15:38:44.653Z</time></trkpt><trkpt lat="44.4547795" lon="11.1084355"><ele>202.0</ele><time>2026-04-11T15:38:45.654Z</time></trkpt><trkpt lat="44.4546674" lon="11.1083701"><ele>202.0</ele><time>2026-04-11T15:38:46.654Z</time></trkpt><trkpt lat="44.4545569" lon="11.1082945"><ele>202.0</ele><time>2026-04-11T15:38:47.654Z</time></trkpt><trkpt lat="44.4544482" lon="11.1082216"><ele>202.0</ele><time>2026-04-11T15:38:48.654Z</time></trkpt><trkpt lat="44.4543347" lon="11.1081577"><ele>202.0</ele><time>2026-04-11T15:38:49.654Z</time></trkpt><trkpt lat="44.4542239" lon="11.1081054"><ele>202.0</ele><time>2026-04-11T15:38:50.653Z</time></trkpt><trkpt lat="44.4541079" lon="11.1080743"><ele>202.0</ele><time>2026-04-11T15:38:51.654Z</time></trkpt><trkpt lat="44.4539898" lon="11.10807"><ele>202.0</ele><time>2026-04-11T15:38:52.654Z</time></trkpt><trkpt lat="44.4538675" lon="11.1080565"><ele>202.0</ele><time>2026-04-11T15:38:53.654Z</time></trkpt><trkpt lat="44.4537464" lon="11.1080405"><ele>205.5</ele><time>2026-04-11T15:38:54.653Z</time></trkpt><trkpt lat="44.4536221" lon="11.1080282"><ele>209.0</ele><time>2026-04-11T15:38:55.654Z</time></trkpt><trkpt lat="44.4534995" lon="11.1080238"><ele>212.5</ele><time>2026-04-11T15:38:56.654Z</time></trkpt><trkpt lat="44.4533777" lon="11.108016"><ele>216.0</ele><time>2026-04-11T15:38:57.654Z</time></trkpt><trkpt lat="44.4532514" lon="11.1080081"><ele>216.0</ele><time>2026-04-11T15:38:58.654Z</time></trkpt><trkpt lat="44.453131" lon="11.1080039"><ele>216.00000000000003</ele><time>2026-04-11T15:38:59.654Z</time></trkpt><trkpt lat="44.4530159" lon="11.1079972"><ele>216.00000000000003</ele><time>2026-04-11T15:39:00.654Z</time></trkpt><trkpt lat="44.4529092" lon="11.1079711"><ele>216.0</ele><time>2026-04-11T15:39:01.654Z</time></trkpt><trkpt lat="44.4528082" lon="11.1079356"><ele>216.0</ele><time>2026-04-11T15:39:02.654Z</time></trkpt><trkpt lat="44.4527021" lon="11.1079117"><ele>215.25</ele><time>2026-04-11T15:39:03.653Z</time></trkpt><trkpt lat="44.4525859" lon="11.107891"><ele>214.5</ele><time>2026-04-11T15:39:04.654Z</time></trkpt><trkpt lat="44.4524765" lon="11.1078708"><ele>213.75</ele><time>2026-04-11T15:39:05.654Z</time></trkpt><trkpt lat="44.4523627" lon="11.10785"><ele>213.0</ele><time>2026-04-11T15:39:06.654Z</time></trkpt><trkpt lat="44.4522509" lon="11.1078335"><ele>213.0</ele><time>2026-04-11T15:39:07.654Z</time></trkpt><trkpt lat="44.4521329" lon="11.1078132"><ele>213.0</ele><time>2026-04-11T15:39:08.654Z</time></trkpt><trkpt lat="44.4520155" lon="11.1077979"><ele>213.0</ele><time>2026-04-11T15:39:09.654Z</time></trkpt><trkpt lat="44.4518959" lon="11.1077807"><ele>213.0</ele><time>2026-04-11T15:39:10.654Z</time></trkpt><trkpt lat="44.4517686" lon="11.1077572"><ele>214.2</ele><time>2026-04-11T15:39:11.654Z</time></trkpt><trkpt lat="44.4516448" lon="11.1077366"><ele>215.4</ele><time>2026-04-11T15:39:12.654Z</time></trkpt><trkpt lat="44.4515249" lon="11.1077147"><ele>216.59999999999997</ele><time>2026-04-11T15:39:13.654Z</time></trkpt><trkpt lat="44.451425" lon="11.1077005"><ele>217.79999999999998</ele><time>2026-04-11T15:39:14.653Z</time></trkpt><trkpt lat="44.4513246" lon="11.1076827"><ele>219.0</ele><time>2026-04-11T15:39:15.653Z</time></trkpt><trkpt lat="44.4512234" lon="11.1076625"><ele>219.75</ele><time>2026-04-11T15:39:16.654Z</time></trkpt><trkpt lat="44.4511178" lon="11.107632"><ele>220.5</ele><time>2026-04-11T15:39:17.654Z</time></trkpt><trkpt lat="44.4510006" lon="11.1075969"><ele>221.25</ele><time>2026-04-11T15:39:18.654Z</time></trkpt><trkpt lat="44.4508727" lon="11.1075463"><ele>222.0</ele><time>2026-04-11T15:39:19.654Z</time></trkpt><trkpt lat="44.4507322" lon="11.1074749"><ele>224.0</ele><time>2026-04-11T15:39:20.653Z</time></trkpt><trkpt lat="44.4505822" lon="11.1073965"><ele>226.0</ele><time>2026-04-11T15:39:21.654Z</time></trkpt><trkpt lat="44.4504167" lon="11.1073328"><ele>228.0</ele><time>2026-04-11T15:39:22.654Z</time></trkpt><trkpt lat="44.4502565" lon="11.1072884"><ele>228.0</ele><time>2026-04-11T15:39:23.654Z</time></trkpt><trkpt lat="44.4500976" lon="11.1072434"><ele>228.0</ele><time>2026-04-11T15:39:24.654Z</time></trkpt><trkpt lat="44.4499535" lon="11.1072085"><ele>228.0</ele><time>2026-04-11T15:39:25.654Z</time></trkpt><trkpt lat="44.4498183" lon="11.1071989"><ele>228.0</ele><time>2026-04-11T15:39:26.654Z</time></trkpt><trkpt lat="44.4497083" lon="11.1072112"><ele>228.0</ele><time>2026-04-11T15:39:27.654Z</time></trkpt><trkpt lat="44.4496165" lon="11.1072455"><ele>228.0</ele><time>2026-04-11T15:39:28.654Z</time></trkpt><trkpt lat="44.449527" lon="11.107309"><ele>228.0</ele><time>2026-04-11T15:39:29.653Z</time></trkpt><trkpt lat="44.4494437" lon="11.1073696"><ele>228.0</ele><time>2026-04-11T15:39:30.653Z</time></trkpt><trkpt lat="44.4493532" lon="11.1073898"><ele>228.0</ele><time>2026-04-11T15:39:31.654Z</time></trkpt><trkpt lat="44.4492497" lon="11.107382"><ele>228.0</ele><time>2026-04-11T15:39:32.653Z</time></trkpt><trkpt lat="44.4491312" lon="11.1073535"><ele>228.0</ele><time>2026-04-11T15:39:33.654Z</time></trkpt><trkpt lat="44.4490012" lon="11.1073154"><ele>228.0</ele><time>2026-04-11T15:39:34.653Z</time></trkpt><trkpt lat="44.4488632" lon="11.1072643"><ele>228.0</ele><time>2026-04-11T15:39:35.654Z</time></trkpt><trkpt lat="44.4487187" lon="11.1072139"><ele>228.0</ele><time>2026-04-11T15:39:36.653Z</time></trkpt><trkpt lat="44.448568" lon="11.1071611"><ele>228.0</ele><time>2026-04-11T15:39:37.654Z</time></trkpt><trkpt lat="44.4484193" lon="11.1071319"><ele>228.0</ele><time>2026-04-11T15:39:38.654Z</time></trkpt><trkpt lat="44.4482597" lon="11.1071195"><ele>228.0</ele><time>2026-04-11T15:39:39.654Z</time></trkpt><trkpt lat="44.4480953" lon="11.1071241"><ele>228.0</ele><time>2026-04-11T15:39:40.654Z</time></trkpt><trkpt lat="44.4479337" lon="11.1071257"><ele>228.0</ele><time>2026-04-11T15:39:41.654Z</time></trkpt><trkpt lat="44.4477705" lon="11.1071295"><ele>230.0</ele><time>2026-04-11T15:39:42.654Z</time></trkpt><trkpt lat="44.4476183" lon="11.1071348"><ele>232.0</ele><time>2026-04-11T15:39:43.654Z</time></trkpt><trkpt lat="44.4474785" lon="11.1071476"><ele>234.0</ele><time>2026-04-11T15:39:44.654Z</time></trkpt><trkpt lat="44.447345" lon="11.1071542"><ele>236.0</ele><time>2026-04-11T15:39:45.654Z</time></trkpt><trkpt lat="44.4472237" lon="11.1071517"><ele>237.33333333333334</ele><time>2026-04-11T15:39:46.654Z</time></trkpt><trkpt lat="44.4471241" lon="11.1071395"><ele>238.66666666666669</ele><time>2026-04-11T15:39:47.654Z</time></trkpt><trkpt lat="44.4470372" lon="11.1071142"><ele>240.0</ele><time>2026-04-11T15:39:48.654Z</time></trkpt><trkpt lat="44.4469576" lon="11.1070775"><ele>241.33333333333331</ele><time>2026-04-11T15:39:49.654Z</time></trkpt><trkpt lat="44.446882" lon="11.1070404"><ele>242.66666666666666</ele><time>2026-04-11T15:39:50.653Z</time></trkpt><trkpt lat="44.4467984" lon="11.1069961"><ele>244.0</ele><time>2026-04-11T15:39:51.654Z</time></trkpt><trkpt lat="44.4467257" lon="11.1069412"><ele>244.0</ele><time>2026-04-11T15:39:52.654Z</time></trkpt><trkpt lat="44.4466315" lon="11.1068641"><ele>244.0</ele><time>2026-04-11T15:39:53.654Z</time></trkpt><trkpt lat="44.4465112" lon="11.1067695"><ele>244.0</ele><time>2026-04-11T15:39:54.654Z</time></trkpt><trkpt lat="44.4464017" lon="11.1066917"><ele>244.0</ele><time>2026-04-11T15:39:55.654Z</time></trkpt><trkpt lat="44.4463252" lon="11.1066308"><ele>245.33333333333331</ele><time>2026-04-11T15:39:56.654Z</time></trkpt><trkpt lat="44.4462506" lon="11.106581"><ele>246.66666666666666</ele><time>2026-04-11T15:39:57.654Z</time></trkpt><trkpt lat="44.4461832" lon="11.1065639"><ele>248.0</ele><time>2026-04-11T15:39:58.654Z</time></trkpt><trkpt lat="44.446116" lon="11.1065507"><ele>249.33333333333331</ele><time>2026-04-11T15:39:59.654Z</time></trkpt><trkpt lat="44.4459949" lon="11.1065089"><ele>250.66666666666666</ele><time>2026-04-11T15:40:01.654Z</time></trkpt><trkpt lat="44.4459293" lon="11.1064835"><ele>252.0</ele><time>2026-04-11T15:40:02.654Z</time></trkpt><trkpt lat="44.445828" lon="11.1064426"><ele>252.0</ele><time>2026-04-11T15:40:04.654Z</time></trkpt><trkpt lat="44.4457685" lon="11.1064069"><ele>252.0</ele><time>2026-04-11T15:40:05.654Z</time></trkpt><trkpt lat="44.4456652" lon="11.1062997"><ele>252.0</ele><time>2026-04-11T15:40:07.654Z</time></trkpt><trkpt lat="44.4456212" lon="11.1062243"><ele>252.0</ele><time>2026-04-11T15:40:08.654Z</time></trkpt><trkpt lat="44.4455724" lon="11.106154"><ele>252.0</ele><time>2026-04-11T15:40:09.654Z</time></trkpt><trkpt lat="44.4455049" lon="11.1060636"><ele>252.0</ele><time>2026-04-11T15:40:10.653Z</time></trkpt><trkpt lat="44.4454188" lon="11.1059993"><ele>256.4</ele><time>2026-04-11T15:40:11.654Z</time></trkpt><trkpt lat="44.4452845" lon="11.105913"><ele>260.79999999999995</ele><time>2026-04-11T15:40:13.654Z</time></trkpt><trkpt lat="44.4452176" lon="11.1058776"><ele>265.2</ele><time>2026-04-11T15:40:14.653Z</time></trkpt><trkpt lat="44.4451106" lon="11.1058073"><ele>269.59999999999997</ele><time>2026-04-11T15:40:15.654Z</time></trkpt><trkpt lat="44.4450137" lon="11.1057667"><ele>274.0</ele><time>2026-04-11T15:40:17.654Z</time></trkpt><trkpt lat="44.4449273" lon="11.1057713"><ele>274.0</ele><time>2026-04-11T15:40:19.654Z</time></trkpt><trkpt lat="44.444848" lon="11.1058005"><ele>274.0</ele><time>2026-04-11T15:40:21.654Z</time></trkpt><trkpt lat="44.4447636" lon="11.1058829"><ele>274.0</ele><time>2026-04-11T15:40:22.654Z</time></trkpt><trkpt lat="44.4446908" lon="11.1059792"><ele>274.0</ele><time>2026-04-11T15:40:24.654Z</time></trkpt><trkpt lat="44.4446288" lon="11.1060774"><ele>274.0</ele><time>2026-04-11T15:40:26.654Z</time></trkpt><trkpt lat="44.4445447" lon="11.1061406"><ele>272.16666666666663</ele><time>2026-04-11T15:40:28.653Z</time></trkpt><trkpt lat="44.4444783" lon="11.1061816"><ele>270.3333333333333</ele><time>2026-04-11T15:40:29.654Z</time></trkpt><trkpt lat="44.4444058" lon="11.1062502"><ele>268.5</ele><time>2026-04-11T15:40:30.653Z</time></trkpt><trkpt lat="44.4443361" lon="11.1063368"><ele>266.6666666666667</ele><time>2026-04-11T15:40:31.654Z</time></trkpt><trkpt lat="44.4442617" lon="11.1064176"><ele>264.83333333333337</ele><time>2026-04-11T15:40:32.653Z</time></trkpt><trkpt lat="44.444179" lon="11.1064835"><ele>263.0</ele><time>2026-04-11T15:40:33.654Z</time></trkpt><trkpt lat="44.444108" lon="11.10657"><ele>263.83333333333337</ele><time>2026-04-11T15:40:34.654Z</time></trkpt><trkpt lat="44.4440304" lon="11.1066278"><ele>264.6666666666667</ele><time>2026-04-11T15:40:35.653Z</time></trkpt><trkpt lat="44.4439558" lon="11.1066614"><ele>265.5</ele><time>2026-04-11T15:40:36.653Z</time></trkpt><trkpt lat="44.4438798" lon="11.106694"><ele>266.3333333333333</ele><time>2026-04-11T15:40:37.653Z</time></trkpt><trkpt lat="44.4438003" lon="11.1067326"><ele>267.16666666666663</ele><time>2026-04-11T15:40:38.654Z</time></trkpt><trkpt lat="44.4436931" lon="11.1068014"><ele>268.0</ele><time>2026-04-11T15:40:40.654Z</time></trkpt><trkpt lat="44.4435846" lon="11.1068542"><ele>268.0</ele><time>2026-04-11T15:40:42.654Z</time></trkpt><trkpt lat="44.4434715" lon="11.1068921"><ele>268.0</ele><time>2026-04-11T15:40:44.654Z</time></trkpt><trkpt lat="44.4434006" lon="11.1069167"><ele>268.0</ele><time>2026-04-11T15:40:45.653Z</time></trkpt><trkpt lat="44.4433377" lon="11.1069217"><ele>268.0</ele><time>2026-04-11T15:40:46.654Z</time></trkpt><trkpt lat="44.4432135" lon="11.1068628"><ele>268.0</ele><time>2026-04-11T15:40:48.654Z</time></trkpt><trkpt lat="44.4431424" lon="11.1068337"><ele>268.0</ele><time>2026-04-11T15:40:49.654Z</time></trkpt><trkpt lat="44.4430608" lon="11.1068184"><ele>268.0</ele><time>2026-04-11T15:40:50.653Z</time></trkpt><trkpt lat="44.4429787" lon="11.1068047"><ele>268.0</ele><time>2026-04-11T15:40:51.654Z</time></trkpt><trkpt lat="44.4428942" lon="11.1067778"><ele>268.0</ele><time>2026-04-11T15:40:52.653Z</time></trkpt><trkpt lat="44.4428052" lon="11.1067588"><ele>268.0</ele><time>2026-04-11T15:40:53.653Z</time></trkpt><trkpt lat="44.4427169" lon="11.1067496"><ele>268.0</ele><time>2026-04-11T15:40:54.654Z</time></trkpt><trkpt lat="44.4426262" lon="11.1067256"><ele>267.0</ele><time>2026-04-11T15:40:55.654Z</time></trkpt><trkpt lat="44.4425389" lon="11.1067164"><ele>266.0</ele><time>2026-04-11T15:40:56.654Z</time></trkpt><trkpt lat="44.4424413" lon="11.1066931"><ele>265.0</ele><time>2026-04-11T15:40:57.654Z</time></trkpt><trkpt lat="44.4423774" lon="11.1067265"><ele>264.0</ele><time>2026-04-11T15:40:58.653Z</time></trkpt><trkpt lat="44.4422847" lon="11.1067436"><ele>263.0</ele><time>2026-04-11T15:40:59.653Z</time></trkpt><trkpt lat="44.4421193" lon="11.1067727"><ele>262.0</ele><time>2026-04-11T15:41:00.654Z</time></trkpt><trkpt lat="44.4420297" lon="11.1068779"><ele>261.0</ele><time>2026-04-11T15:41:01.654Z</time></trkpt><trkpt lat="44.4419362" lon="11.1069488"><ele>260.0</ele><time>2026-04-11T15:41:02.653Z</time></trkpt><trkpt lat="44.4418429" lon="11.1070044"><ele>259.0</ele><time>2026-04-11T15:41:03.653Z</time></trkpt><trkpt lat="44.4416569" lon="11.1071267"><ele>259.0</ele><time>2026-04-11T15:41:05.654Z</time></trkpt><trkpt lat="44.4415684" lon="11.1071769"><ele>259.0</ele><time>2026-04-11T15:41:06.654Z</time></trkpt><trkpt lat="44.4414666" lon="11.1072342"><ele>259.0</ele><time>2026-04-11T15:41:07.654Z</time></trkpt><trkpt lat="44.4413548" lon="11.1073066"><ele>259.0</ele><time>2026-04-11T15:41:08.654Z</time></trkpt><trkpt lat="44.4412506" lon="11.1073606"><ele>259.0</ele><time>2026-04-11T15:41:09.654Z</time></trkpt><trkpt lat="44.4411406" lon="11.1074256"><ele>256.4</ele><time>2026-04-11T15:41:10.653Z</time></trkpt><trkpt lat="44.4410467" lon="11.1074793"><ele>253.79999999999998</ele><time>2026-04-11T15:41:11.653Z</time></trkpt><trkpt lat="44.4409444" lon="11.1075357"><ele>251.20000000000002</ele><time>2026-04-11T15:41:12.653Z</time></trkpt><trkpt lat="44.4408856" lon="11.1076303"><ele>248.60000000000002</ele><time>2026-04-11T15:41:14.654Z</time></trkpt><trkpt lat="44.4407836" lon="11.1076704"><ele>246.0</ele><time>2026-04-11T15:41:15.653Z</time></trkpt><trkpt lat="44.4407057" lon="11.1076686"><ele>246.0</ele><time>2026-04-11T15:41:16.654Z</time></trkpt><trkpt lat="44.4405661" lon="11.1075629"><ele>246.00000000000003</ele><time>2026-04-11T15:41:17.653Z</time></trkpt><trkpt lat="44.4404867" lon="11.1075522"><ele>246.00000000000003</ele><time>2026-04-11T15:41:18.654Z</time></trkpt><trkpt lat="44.4403953" lon="11.1075464"><ele>246.0</ele><time>2026-04-11T15:41:19.653Z</time></trkpt><trkpt lat="44.4402779" lon="11.1075277"><ele>246.0</ele><time>2026-04-11T15:41:20.654Z</time></trkpt><trkpt lat="44.4401662" lon="11.1075069"><ele>246.20000000000002</ele><time>2026-04-11T15:41:21.653Z</time></trkpt><trkpt lat="44.4400446" lon="11.1074902"><ele>246.40000000000003</ele><time>2026-04-11T15:41:22.653Z</time></trkpt><trkpt lat="44.4399412" lon="11.107499"><ele>246.6</ele><time>2026-04-11T15:41:23.653Z</time></trkpt><trkpt lat="44.439823" lon="11.1074879"><ele>246.8</ele><time>2026-04-11T15:41:24.654Z</time></trkpt><trkpt lat="44.4397183" lon="11.1074894"><ele>247.0</ele><time>2026-04-11T15:41:25.654Z</time></trkpt><trkpt lat="44.439616" lon="11.1075508"><ele>247.75</ele><time>2026-04-11T15:41:26.653Z</time></trkpt><trkpt lat="44.4395064" lon="11.1076062"><ele>248.5</ele><time>2026-04-11T15:41:27.654Z</time></trkpt><trkpt lat="44.4393639" lon="11.1076428"><ele>249.25</ele><time>2026-04-11T15:41:28.654Z</time></trkpt><trkpt lat="44.4392329" lon="11.1076734"><ele>250.0</ele><time>2026-04-11T15:41:29.654Z</time></trkpt><trkpt lat="44.439113" lon="11.1077182"><ele>250.0</ele><time>2026-04-11T15:41:30.654Z</time></trkpt><trkpt lat="44.4389944" lon="11.1077726"><ele>250.0</ele><time>2026-04-11T15:41:31.654Z</time></trkpt><trkpt lat="44.4388832" lon="11.1078129"><ele>250.0</ele><time>2026-04-11T15:41:32.654Z</time></trkpt><trkpt lat="44.4387921" lon="11.1078539"><ele>250.0</ele><time>2026-04-11T15:41:33.654Z</time></trkpt><trkpt lat="44.4386975" lon="11.1078931"><ele>250.0</ele><time>2026-04-11T15:41:34.654Z</time></trkpt><trkpt lat="44.438605" lon="11.1079192"><ele>248.16666666666666</ele><time>2026-04-11T15:41:35.653Z</time></trkpt><trkpt lat="44.438527" lon="11.1079487"><ele>246.33333333333331</ele><time>2026-04-11T15:41:36.654Z</time></trkpt><trkpt lat="44.4384331" lon="11.1080189"><ele>244.5</ele><time>2026-04-11T15:41:37.654Z</time></trkpt><trkpt lat="44.4383595" lon="11.1080605"><ele>242.66666666666669</ele><time>2026-04-11T15:41:38.654Z</time></trkpt><trkpt lat="44.4383045" lon="11.1081049"><ele>240.83333333333334</ele><time>2026-04-11T15:41:40.654Z</time></trkpt><trkpt lat="44.4382451" lon="11.1081558"><ele>239.0</ele><time>2026-04-11T15:41:42.653Z</time></trkpt><trkpt lat="44.4381649" lon="11.1082049"><ele>239.0</ele><time>2026-04-11T15:41:44.654Z</time></trkpt><trkpt lat="44.4380463" lon="11.1082213"><ele>238.99999999999997</ele><time>2026-04-11T15:41:46.654Z</time></trkpt><trkpt lat="44.4379795" lon="11.1082336"><ele>238.99999999999997</ele><time>2026-04-11T15:41:47.654Z</time></trkpt><trkpt lat="44.437891" lon="11.1082108"><ele>239.0</ele><time>2026-04-11T15:41:48.654Z</time></trkpt><trkpt lat="44.4378109" lon="11.1081978"><ele>239.0</ele><time>2026-04-11T15:41:49.654Z</time></trkpt><trkpt lat="44.4376998" lon="11.1082066"><ele>238.33333333333334</ele><time>2026-04-11T15:41:51.654Z</time></trkpt><trkpt lat="44.4376237" lon="11.1081858"><ele>237.66666666666669</ele><time>2026-04-11T15:41:52.654Z</time></trkpt><trkpt lat="44.4375471" lon="11.1081705"><ele>237.0</ele><time>2026-04-11T15:41:53.653Z</time></trkpt><trkpt lat="44.4374765" lon="11.1081631"><ele>236.33333333333331</ele><time>2026-04-11T15:41:54.654Z</time></trkpt><trkpt lat="44.4373991" lon="11.1081575"><ele>235.66666666666666</ele><time>2026-04-11T15:41:55.654Z</time></trkpt><trkpt lat="44.4373129" lon="11.108138"><ele>235.0</ele><time>2026-04-11T15:41:56.654Z</time></trkpt><trkpt lat="44.4372331" lon="11.108132"><ele>235.0</ele><time>2026-04-11T15:41:57.654Z</time></trkpt><trkpt lat="44.4371411" lon="11.1081202"><ele>235.0</ele><time>2026-04-11T15:41:58.654Z</time></trkpt><trkpt lat="44.4370469" lon="11.1080913"><ele>235.0</ele><time>2026-04-11T15:41:59.654Z</time></trkpt><trkpt lat="44.4369482" lon="11.1080726"><ele>235.0</ele><time>2026-04-11T15:42:00.653Z</time></trkpt><trkpt lat="44.4368575" lon="11.1080569"><ele>235.0</ele><time>2026-04-11T15:42:01.654Z</time></trkpt><trkpt lat="44.4367389" lon="11.1080271"><ele>234.4</ele><time>2026-04-11T15:42:02.654Z</time></trkpt><trkpt lat="44.4366534" lon="11.1080533"><ele>233.8</ele><time>2026-04-11T15:42:03.654Z</time></trkpt><trkpt lat="44.4365558" lon="11.1081029"><ele>233.2</ele><time>2026-04-11T15:42:04.654Z</time></trkpt><trkpt lat="44.4364775" lon="11.1081565"><ele>232.6</ele><time>2026-04-11T15:42:05.654Z</time></trkpt><trkpt lat="44.436389" lon="11.1081941"><ele>232.0</ele><time>2026-04-11T15:42:06.654Z</time></trkpt><trkpt lat="44.4363021" lon="11.1081836"><ele>232.2</ele><time>2026-04-11T15:42:07.654Z</time></trkpt><trkpt lat="44.4362165" lon="11.1081561"><ele>232.39999999999998</ele><time>2026-04-11T15:42:09.654Z</time></trkpt><trkpt lat="44.436142" lon="11.1081948"><ele>232.60000000000002</ele><time>2026-04-11T15:42:12.654Z</time></trkpt><trkpt lat="44.4360382" lon="11.108301"><ele>232.8</ele><time>2026-04-11T15:42:14.654Z</time></trkpt><trkpt lat="44.435982" lon="11.1083683"><ele>233.0</ele><time>2026-04-11T15:42:15.653Z</time></trkpt><trkpt lat="44.435918" lon="11.108436"><ele>233.00000000000003</ele><time>2026-04-11T15:42:16.654Z</time></trkpt><trkpt lat="44.4358547" lon="11.1084985"><ele>233.0</ele><time>2026-04-11T15:42:17.654Z</time></trkpt><trkpt lat="44.4357952" lon="11.1085573"><ele>233.0</ele><time>2026-04-11T15:42:18.654Z</time></trkpt><trkpt lat="44.4357396" lon="11.10861"><ele>233.0</ele><time>2026-04-11T15:42:19.654Z</time></trkpt><trkpt lat="44.4356835" lon="11.1086597"><ele>233.00000000000003</ele><time>2026-04-11T15:42:20.654Z</time></trkpt><trkpt lat="44.4356291" lon="11.1087197"><ele>233.0</ele><time>2026-04-11T15:42:21.654Z</time></trkpt><trkpt lat="44.435589" lon="11.108874"><ele>233.00000000000003</ele><time>2026-04-11T15:42:23.653Z</time></trkpt><trkpt lat="44.4355947" lon="11.1090376"><ele>233.0</ele><time>2026-04-11T15:42:25.653Z</time></trkpt><trkpt lat="44.4355913" lon="11.109131"><ele>233.0</ele><time>2026-04-11T15:42:26.654Z</time></trkpt><trkpt lat="44.4355743" lon="11.1092223"><ele>233.0</ele><time>2026-04-11T15:42:27.654Z</time></trkpt><trkpt lat="44.4355432" lon="11.1093191"><ele>233.00000000000003</ele><time>2026-04-11T15:42:28.654Z</time></trkpt><trkpt lat="44.4354946" lon="11.1094132"><ele>233.0</ele><time>2026-04-11T15:42:29.653Z</time></trkpt><trkpt lat="44.4354331" lon="11.1095117"><ele>232.2</ele><time>2026-04-11T15:42:30.654Z</time></trkpt><trkpt lat="44.435364" lon="11.1096214"><ele>231.4</ele><time>2026-04-11T15:42:31.654Z</time></trkpt><trkpt lat="44.4353076" lon="11.1097305"><ele>230.59999999999997</ele><time>2026-04-11T15:42:32.654Z</time></trkpt><trkpt lat="44.4352448" lon="11.1098505"><ele>229.79999999999998</ele><time>2026-04-11T15:42:33.654Z</time></trkpt><trkpt lat="44.4351945" lon="11.1099685"><ele>229.0</ele><time>2026-04-11T15:42:34.653Z</time></trkpt><trkpt lat="44.435159" lon="11.110097"><ele>227.79999999999998</ele><time>2026-04-11T15:42:35.653Z</time></trkpt><trkpt lat="44.4351512" lon="11.1102401"><ele>226.59999999999997</ele><time>2026-04-11T15:42:36.654Z</time></trkpt><trkpt lat="44.4351691" lon="11.1103832"><ele>225.4</ele><time>2026-04-11T15:42:37.654Z</time></trkpt><trkpt lat="44.4352254" lon="11.1105098"><ele>224.2</ele><time>2026-04-11T15:42:38.654Z</time></trkpt><trkpt lat="44.4353203" lon="11.1106216"><ele>223.0</ele><time>2026-04-11T15:42:39.654Z</time></trkpt><trkpt lat="44.4354403" lon="11.1106871"><ele>220.75</ele><time>2026-04-11T15:42:40.654Z</time></trkpt><trkpt lat="44.4355685" lon="11.1107004"><ele>218.5</ele><time>2026-04-11T15:42:41.654Z</time></trkpt><trkpt lat="44.4356952" lon="11.1107147"><ele>216.25</ele><time>2026-04-11T15:42:42.654Z</time></trkpt><trkpt lat="44.4358191" lon="11.1107259"><ele>214.0</ele><time>2026-04-11T15:42:43.653Z</time></trkpt><trkpt lat="44.4359384" lon="11.1107342"><ele>212.79999999999998</ele><time>2026-04-11T15:42:44.654Z</time></trkpt><trkpt lat="44.4360482" lon="11.1107633"><ele>211.59999999999997</ele><time>2026-04-11T15:42:45.654Z</time></trkpt><trkpt lat="44.4361587" lon="11.1108079"><ele>210.4</ele><time>2026-04-11T15:42:46.654Z</time></trkpt><trkpt lat="44.4362343" lon="11.1109013"><ele>209.2</ele><time>2026-04-11T15:42:47.653Z</time></trkpt><trkpt lat="44.4363038" lon="11.1110306"><ele>208.0</ele><time>2026-04-11T15:42:48.654Z</time></trkpt><trkpt lat="44.4363547" lon="11.1111776"><ele>207.0</ele><time>2026-04-11T15:42:49.654Z</time></trkpt><trkpt lat="44.4363879" lon="11.1113405"><ele>206.0</ele><time>2026-04-11T15:42:50.654Z</time></trkpt><trkpt lat="44.4364087" lon="11.1115089"><ele>205.0</ele><time>2026-04-11T15:42:51.653Z</time></trkpt><trkpt lat="44.4364092" lon="11.1116892"><ele>204.0</ele><time>2026-04-11T15:42:52.654Z</time></trkpt><trkpt lat="44.4363798" lon="11.1118651"><ele>204.25</ele><time>2026-04-11T15:42:53.654Z</time></trkpt><trkpt lat="44.4363191" lon="11.1120244"><ele>204.5</ele><time>2026-04-11T15:42:54.654Z</time></trkpt><trkpt lat="44.4362253" lon="11.1121578"><ele>204.75</ele><time>2026-04-11T15:42:55.653Z</time></trkpt><trkpt lat="44.4361164" lon="11.1122763"><ele>205.0</ele><time>2026-04-11T15:42:56.654Z</time></trkpt><trkpt lat="44.4359672" lon="11.1123644"><ele>202.0</ele><time>2026-04-11T15:42:57.653Z</time></trkpt><trkpt lat="44.4358269" lon="11.1124607"><ele>199.0</ele><time>2026-04-11T15:42:58.654Z</time></trkpt><trkpt lat="44.4356916" lon="11.1125534"><ele>196.0</ele><time>2026-04-11T15:42:59.654Z</time></trkpt><trkpt lat="44.4355622" lon="11.1126683"><ele>196.5</ele><time>2026-04-11T15:43:00.654Z</time></trkpt><trkpt lat="44.4354657" lon="11.1127963"><ele>197.0</ele><time>2026-04-11T15:43:01.653Z</time></trkpt><trkpt lat="44.4354409" lon="11.1129694"><ele>197.5</ele><time>2026-04-11T15:43:02.653Z</time></trkpt><trkpt lat="44.4354295" lon="11.1131303"><ele>198.0</ele><time>2026-04-11T15:43:03.654Z</time></trkpt><trkpt lat="44.4354446" lon="11.1133031"><ele>195.0</ele><time>2026-04-11T15:43:04.654Z</time></trkpt><trkpt lat="44.4354896" lon="11.1134526"><ele>192.0</ele><time>2026-04-11T15:43:05.654Z</time></trkpt><trkpt lat="44.4355734" lon="11.113581"><ele>189.0</ele><time>2026-04-11T15:43:06.654Z</time></trkpt><trkpt lat="44.4356805" lon="11.1136744"><ele>186.0</ele><time>2026-04-11T15:43:07.654Z</time></trkpt><trkpt lat="44.4358169" lon="11.1137045"><ele>186.0</ele><time>2026-04-11T15:43:08.654Z</time></trkpt><trkpt lat="44.4359589" lon="11.113711"><ele>186.0</ele><time>2026-04-11T15:43:09.654Z</time></trkpt><trkpt lat="44.4361164" lon="11.1137256"><ele>186.0</ele><time>2026-04-11T15:43:10.654Z</time></trkpt><trkpt lat="44.4362809" lon="11.1137335"><ele>184.33333333333334</ele><time>2026-04-11T15:43:11.654Z</time></trkpt><trkpt lat="44.4364507" lon="11.1137478"><ele>182.66666666666669</ele><time>2026-04-11T15:43:12.654Z</time></trkpt><trkpt lat="44.4366159" lon="11.1137555"><ele>181.0</ele><time>2026-04-11T15:43:13.654Z</time></trkpt><trkpt lat="44.4367802" lon="11.1137661"><ele>181.0</ele><time>2026-04-11T15:43:14.654Z</time></trkpt><trkpt lat="44.4369458" lon="11.1137484"><ele>181.0</ele><time>2026-04-11T15:43:15.653Z</time></trkpt><trkpt lat="44.4370889" lon="11.1136993"><ele>181.0</ele><time>2026-04-11T15:43:16.654Z</time></trkpt><trkpt lat="44.4372191" lon="11.113621"><ele>178.75</ele><time>2026-04-11T15:43:17.654Z</time></trkpt><trkpt lat="44.4373395" lon="11.1135505"><ele>176.5</ele><time>2026-04-11T15:43:18.654Z</time></trkpt><trkpt lat="44.4374438" lon="11.1135381"><ele>174.25</ele><time>2026-04-11T15:43:19.653Z</time></trkpt><trkpt lat="44.4375632" lon="11.1135273"><ele>172.0</ele><time>2026-04-11T15:43:20.654Z</time></trkpt><trkpt lat="44.4376632" lon="11.1135295"><ele>172.0</ele><time>2026-04-11T15:43:21.654Z</time></trkpt><trkpt lat="44.437747" lon="11.1135672"><ele>172.0</ele><time>2026-04-11T15:43:22.654Z</time></trkpt><trkpt lat="44.4378037" lon="11.1136698"><ele>172.0</ele><time>2026-04-11T15:43:23.653Z</time></trkpt><trkpt lat="44.4378334" lon="11.1138334"><ele>172.0</ele><time>2026-04-11T15:43:24.653Z</time></trkpt><trkpt lat="44.4377412" lon="11.1141999"><ele>170.75</ele><time>2026-04-11T15:43:25.654Z</time></trkpt><trkpt lat="44.4377656" lon="11.114391"><ele>169.5</ele><time>2026-04-11T15:43:26.654Z</time></trkpt><trkpt lat="44.4377838" lon="11.1145874"><ele>168.25</ele><time>2026-04-11T15:43:27.654Z</time></trkpt><trkpt lat="44.4378081" lon="11.1147634"><ele>167.0</ele><time>2026-04-11T15:43:28.654Z</time></trkpt><trkpt lat="44.4378348" lon="11.1149337"><ele>166.8</ele><time>2026-04-11T15:43:29.654Z</time></trkpt><trkpt lat="44.4378587" lon="11.1150912"><ele>166.6</ele><time>2026-04-11T15:43:30.654Z</time></trkpt><trkpt lat="44.4378809" lon="11.1152388"><ele>166.4</ele><time>2026-04-11T15:43:31.654Z</time></trkpt><trkpt lat="44.4379011" lon="11.115366"><ele>166.20000000000002</ele><time>2026-04-11T15:43:32.653Z</time></trkpt><trkpt lat="44.4379165" lon="11.1154812"><ele>166.0</ele><time>2026-04-11T15:43:33.654Z</time></trkpt><trkpt lat="44.4379291" lon="11.1155879"><ele>166.0</ele><time>2026-04-11T15:43:34.654Z</time></trkpt><trkpt lat="44.4379376" lon="11.1156861"><ele>166.0</ele><time>2026-04-11T15:43:35.653Z</time></trkpt><trkpt lat="44.4379477" lon="11.115849"><ele>166.0</ele><time>2026-04-11T15:43:37.653Z</time></trkpt><trkpt lat="44.4379031" lon="11.1159362"><ele>166.0</ele><time>2026-04-11T15:43:39.654Z</time></trkpt><trkpt lat="44.4378224" lon="11.1159692"><ele>166.0</ele><time>2026-04-11T15:43:49.653Z</time></trkpt><trkpt lat="44.4377551" lon="11.1159779"><ele>166.0</ele><time>2026-04-11T15:43:51.654Z</time></trkpt><trkpt lat="44.4376804" lon="11.1159591"><ele>165.8</ele><time>2026-04-11T15:43:53.654Z</time></trkpt><trkpt lat="44.4375739" lon="11.1158878"><ele>165.60000000000002</ele><time>2026-04-11T15:43:54.654Z</time></trkpt><trkpt lat="44.4375031" lon="11.1158337"><ele>165.4</ele><time>2026-04-11T15:43:55.653Z</time></trkpt><trkpt lat="44.4374301" lon="11.1158196"><ele>165.2</ele><time>2026-04-11T15:43:57.654Z</time></trkpt><trkpt lat="44.4373335" lon="11.1158548"><ele>165.0</ele><time>2026-04-11T15:43:59.654Z</time></trkpt><trkpt lat="44.4372536" lon="11.115895"><ele>165.0</ele><time>2026-04-11T15:44:01.653Z</time></trkpt><trkpt lat="44.437186" lon="11.1159022"><ele>165.0</ele><time>2026-04-11T15:44:02.654Z</time></trkpt><trkpt lat="44.4370659" lon="11.1159335"><ele>165.0</ele><time>2026-04-11T15:44:03.654Z</time></trkpt><trkpt lat="44.4370043" lon="11.115962"><ele>165.0</ele><time>2026-04-11T15:44:06.653Z</time></trkpt><trkpt lat="44.4369373" lon="11.1159048"><ele>165.0</ele><time>2026-04-11T15:44:08.654Z</time></trkpt><trkpt lat="44.4368495" lon="11.1159225"><ele>165.0</ele><time>2026-04-11T15:44:10.654Z</time></trkpt><trkpt lat="44.4367789" lon="11.1159383"><ele>165.2</ele><time>2026-04-11T15:44:11.654Z</time></trkpt><trkpt lat="44.4366762" lon="11.1159387"><ele>165.4</ele><time>2026-04-11T15:44:12.654Z</time></trkpt><trkpt lat="44.4365973" lon="11.1159471"><ele>165.60000000000002</ele><time>2026-04-11T15:44:13.653Z</time></trkpt><trkpt lat="44.4364789" lon="11.1158796"><ele>165.8</ele><time>2026-04-11T15:44:14.654Z</time></trkpt><trkpt lat="44.4363885" lon="11.1158254"><ele>166.0</ele><time>2026-04-11T15:44:15.654Z</time></trkpt><trkpt lat="44.436321" lon="11.115832"><ele>166.0</ele><time>2026-04-11T15:44:16.653Z</time></trkpt><trkpt lat="44.4362191" lon="11.1158171"><ele>166.0</ele><time>2026-04-11T15:44:18.654Z</time></trkpt><trkpt lat="44.4361436" lon="11.1157945"><ele>166.0</ele><time>2026-04-11T15:44:19.654Z</time></trkpt><trkpt lat="44.4360507" lon="11.115787"><ele>166.0</ele><time>2026-04-11T15:44:21.653Z</time></trkpt><trkpt lat="44.4359883" lon="11.1157739"><ele>166.0</ele><time>2026-04-11T15:44:22.654Z</time></trkpt><trkpt lat="44.4358918" lon="11.1158514"><ele>166.0</ele><time>2026-04-11T15:44:24.654Z</time></trkpt><trkpt lat="44.4357769" lon="11.1158214"><ele>166.0</ele><time>2026-04-11T15:44:25.654Z</time></trkpt><trkpt lat="44.4356978" lon="11.115845"><ele>166.0</ele><time>2026-04-11T15:44:26.653Z</time></trkpt><trkpt lat="44.4356099" lon="11.1158757"><ele>166.0</ele><time>2026-04-11T15:44:28.654Z</time></trkpt><trkpt lat="44.4355094" lon="11.1158711"><ele>166.0</ele><time>2026-04-11T15:44:32.654Z</time></trkpt><trkpt lat="44.4353967" lon="11.1158602"><ele>166.0</ele><time>2026-04-11T15:44:34.654Z</time></trkpt><trkpt lat="44.4352295" lon="11.1158107"><ele>166.4</ele><time>2026-04-11T15:44:36.654Z</time></trkpt><trkpt lat="44.4351477" lon="11.1157979"><ele>166.8</ele><time>2026-04-11T15:44:37.654Z</time></trkpt><trkpt lat="44.435076" lon="11.1157919"><ele>167.20000000000002</ele><time>2026-04-11T15:44:38.654Z</time></trkpt><trkpt lat="44.4350095" lon="11.1157744"><ele>167.60000000000002</ele><time>2026-04-11T15:44:39.654Z</time></trkpt><trkpt lat="44.4348754" lon="11.1157119"><ele>168.0</ele><time>2026-04-11T15:44:40.653Z</time></trkpt><trkpt lat="44.434779" lon="11.1156892"><ele>168.4</ele><time>2026-04-11T15:44:41.654Z</time></trkpt><trkpt lat="44.4346777" lon="11.1156778"><ele>168.8</ele><time>2026-04-11T15:44:42.654Z</time></trkpt><trkpt lat="44.4345704" lon="11.115654"><ele>169.2</ele><time>2026-04-11T15:44:43.654Z</time></trkpt><trkpt lat="44.4345046" lon="11.1156538"><ele>169.6</ele><time>2026-04-11T15:44:44.654Z</time></trkpt><trkpt lat="44.4344018" lon="11.115636"><ele>170.0</ele><time>2026-04-11T15:44:45.654Z</time></trkpt><trkpt lat="44.4343225" lon="11.1156147"><ele>170.16666666666666</ele><time>2026-04-11T15:44:46.654Z</time></trkpt><trkpt lat="44.4342358" lon="11.1155824"><ele>170.33333333333331</ele><time>2026-04-11T15:44:48.654Z</time></trkpt><trkpt lat="44.4341645" lon="11.1155527"><ele>170.5</ele><time>2026-04-11T15:44:49.654Z</time></trkpt><trkpt lat="44.4340828" lon="11.1155217"><ele>170.66666666666666</ele><time>2026-04-11T15:44:50.653Z</time></trkpt><trkpt lat="44.434019" lon="11.115505"><ele>170.83333333333334</ele><time>2026-04-11T15:44:51.654Z</time></trkpt><trkpt lat="44.4339398" lon="11.1154732"><ele>171.0</ele><time>2026-04-11T15:44:52.654Z</time></trkpt><trkpt lat="44.4337949" lon="11.1154553"><ele>171.0</ele><time>2026-04-11T15:44:54.653Z</time></trkpt><trkpt lat="44.433704" lon="11.1154271"><ele>171.0</ele><time>2026-04-11T15:44:55.654Z</time></trkpt><trkpt lat="44.4336152" lon="11.1153987"><ele>171.0</ele><time>2026-04-11T15:44:56.654Z</time></trkpt><trkpt lat="44.4335351" lon="11.1153769"><ele>171.0</ele><time>2026-04-11T15:44:57.654Z</time></trkpt><trkpt lat="44.4334571" lon="11.115374"><ele>171.0</ele><time>2026-04-11T15:44:58.654Z</time></trkpt><trkpt lat="44.4333738" lon="11.1153613"><ele>171.0</ele><time>2026-04-11T15:44:59.654Z</time></trkpt><trkpt lat="44.433297" lon="11.1153573"><ele>171.0</ele><time>2026-04-11T15:45:00.654Z</time></trkpt><trkpt lat="44.4332199" lon="11.1153495"><ele>171.0</ele><time>2026-04-11T15:45:01.653Z</time></trkpt><trkpt lat="44.4331483" lon="11.1153361"><ele>171.0</ele><time>2026-04-11T15:45:02.654Z</time></trkpt><trkpt lat="44.4330728" lon="11.1153196"><ele>171.0</ele><time>2026-04-11T15:45:03.654Z</time></trkpt><trkpt lat="44.4329961" lon="11.1153112"><ele>171.0</ele><time>2026-04-11T15:45:04.654Z</time></trkpt><trkpt lat="44.4329152" lon="11.1153111"><ele>171.0</ele><time>2026-04-11T15:45:05.654Z</time></trkpt><trkpt lat="44.432838" lon="11.1153049"><ele>171.33333333333334</ele><time>2026-04-11T15:45:06.654Z</time></trkpt><trkpt lat="44.4327609" lon="11.1152955"><ele>171.66666666666666</ele><time>2026-04-11T15:45:07.654Z</time></trkpt><trkpt lat="44.4326899" lon="11.1153019"><ele>172.0</ele><time>2026-04-11T15:45:08.654Z</time></trkpt><trkpt lat="44.4326084" lon="11.1152913"><ele>172.33333333333331</ele><time>2026-04-11T15:45:09.654Z</time></trkpt><trkpt lat="44.4325343" lon="11.1152658"><ele>172.66666666666666</ele><time>2026-04-11T15:45:10.654Z</time></trkpt><trkpt lat="44.4324566" lon="11.1152587"><ele>173.0</ele><time>2026-04-11T15:45:11.653Z</time></trkpt><trkpt lat="44.4323849" lon="11.1152423"><ele>173.0</ele><time>2026-04-11T15:45:12.654Z</time></trkpt><trkpt lat="44.4323127" lon="11.1152332"><ele>173.0</ele><time>2026-04-11T15:45:13.654Z</time></trkpt><trkpt lat="44.4322424" lon="11.1152217"><ele>173.0</ele><time>2026-04-11T15:45:14.654Z</time></trkpt><trkpt lat="44.4321537" lon="11.1152443"><ele>173.0</ele><time>2026-04-11T15:45:16.654Z</time></trkpt><trkpt lat="44.4321092" lon="11.1153129"><ele>173.0</ele><time>2026-04-11T15:45:19.654Z</time></trkpt><trkpt lat="44.432036" lon="11.1153002"><ele>173.0</ele><time>2026-04-11T15:45:21.653Z</time></trkpt><trkpt lat="44.4319765" lon="11.1152586"><ele>173.0</ele><time>2026-04-11T15:45:23.654Z</time></trkpt><trkpt lat="44.4318644" lon="11.115265"><ele>173.4</ele><time>2026-04-11T15:45:25.654Z</time></trkpt><trkpt lat="44.4317518" lon="11.1152564"><ele>173.8</ele><time>2026-04-11T15:45:27.654Z</time></trkpt><trkpt lat="44.4316747" lon="11.1152691"><ele>174.2</ele><time>2026-04-11T15:45:28.653Z</time></trkpt><trkpt lat="44.431568" lon="11.1152397"><ele>174.6</ele><time>2026-04-11T15:45:29.653Z</time></trkpt><trkpt lat="44.4314462" lon="11.1151628"><ele>175.0</ele><time>2026-04-11T15:45:30.653Z</time></trkpt><trkpt lat="44.4313618" lon="11.1151389"><ele>174.8</ele><time>2026-04-11T15:45:31.654Z</time></trkpt><trkpt lat="44.4312693" lon="11.115093"><ele>174.6</ele><time>2026-04-11T15:45:32.654Z</time></trkpt><trkpt lat="44.4311687" lon="11.1150372"><ele>174.39999999999998</ele><time>2026-04-11T15:45:33.653Z</time></trkpt><trkpt lat="44.4311034" lon="11.1151"><ele>174.2</ele><time>2026-04-11T15:45:34.654Z</time></trkpt><trkpt lat="44.4309946" lon="11.1150684"><ele>174.0</ele><time>2026-04-11T15:45:36.654Z</time></trkpt><trkpt lat="44.4309353" lon="11.1150343"><ele>174.0</ele><time>2026-04-11T15:45:37.653Z</time></trkpt><trkpt lat="44.4308678" lon="11.1150149"><ele>174.0</ele><time>2026-04-11T15:45:38.654Z</time></trkpt><trkpt lat="44.430786" lon="11.1150046"><ele>174.0</ele><time>2026-04-11T15:45:39.654Z</time></trkpt><trkpt lat="44.4306946" lon="11.1149589"><ele>174.0</ele><time>2026-04-11T15:45:41.654Z</time></trkpt><trkpt lat="44.4305963" lon="11.1148954"><ele>174.0</ele><time>2026-04-11T15:45:43.654Z</time></trkpt><trkpt lat="44.4304799" lon="11.1149469"><ele>174.6</ele><time>2026-04-11T15:45:45.654Z</time></trkpt><trkpt lat="44.4304104" lon="11.114977"><ele>175.2</ele><time>2026-04-11T15:45:46.653Z</time></trkpt><trkpt lat="44.4303243" lon="11.114987"><ele>175.79999999999998</ele><time>2026-04-11T15:45:47.654Z</time></trkpt><trkpt lat="44.4302219" lon="11.1149811"><ele>176.39999999999998</ele><time>2026-04-11T15:45:48.654Z</time></trkpt><trkpt lat="44.4301142" lon="11.1149555"><ele>177.0</ele><time>2026-04-11T15:45:49.654Z</time></trkpt><trkpt lat="44.4300316" lon="11.1149387"><ele>177.0</ele><time>2026-04-11T15:45:50.653Z</time></trkpt><trkpt lat="44.4299692" lon="11.1149174"><ele>177.0</ele><time>2026-04-11T15:45:51.654Z</time></trkpt><trkpt lat="44.4298711" lon="11.1148692"><ele>177.0</ele><time>2026-04-11T15:45:53.654Z</time></trkpt><trkpt lat="44.4298089" lon="11.1148881"><ele>177.0</ele><time>2026-04-11T15:45:56.653Z</time></trkpt><trkpt lat="44.4297429" lon="11.1149265"><ele>177.0</ele><time>2026-04-11T15:45:58.654Z</time></trkpt><trkpt lat="44.4296595" lon="11.1149022"><ele>177.0</ele><time>2026-04-11T15:46:00.653Z</time></trkpt><trkpt lat="44.4295082" lon="11.1148451"><ele>177.0</ele><time>2026-04-11T15:46:02.654Z</time></trkpt><trkpt lat="44.4294102" lon="11.1148959"><ele>177.0</ele><time>2026-04-11T15:46:05.654Z</time></trkpt><trkpt lat="44.4293467" lon="11.1149025"><ele>177.0</ele><time>2026-04-11T15:46:07.653Z</time></trkpt><trkpt lat="44.4292224" lon="11.1149031"><ele>177.0</ele><time>2026-04-11T15:46:09.654Z</time></trkpt><trkpt lat="44.429115" lon="11.1149467"><ele>177.0</ele><time>2026-04-11T15:46:11.654Z</time></trkpt><trkpt lat="44.4290047" lon="11.1149933"><ele>177.0</ele><time>2026-04-11T15:46:13.654Z</time></trkpt><trkpt lat="44.4289217" lon="11.1150139"><ele>177.0</ele><time>2026-04-11T15:46:14.653Z</time></trkpt><trkpt lat="44.4288221" lon="11.1149938"><ele>177.0</ele><time>2026-04-11T15:46:15.653Z</time></trkpt><trkpt lat="44.4287169" lon="11.1149751"><ele>177.0</ele><time>2026-04-11T15:46:16.653Z</time></trkpt><trkpt lat="44.4286422" lon="11.1149271"><ele>177.0</ele><time>2026-04-11T15:46:17.654Z</time></trkpt><trkpt lat="44.4285602" lon="11.1148528"><ele>177.0</ele><time>2026-04-11T15:46:18.654Z</time></trkpt><trkpt lat="44.4284089" lon="11.1147439"><ele>177.0</ele><time>2026-04-11T15:46:19.653Z</time></trkpt><trkpt lat="44.4283024" lon="11.1146111"><ele>177.0</ele><time>2026-04-11T15:46:20.654Z</time></trkpt><trkpt lat="44.42822" lon="11.11449"><ele>177.0</ele><time>2026-04-11T15:46:22.653Z</time></trkpt><trkpt lat="44.4281547" lon="11.1144375"><ele>177.0</ele><time>2026-04-11T15:46:23.654Z</time></trkpt><trkpt lat="44.4280705" lon="11.1144154"><ele>177.0</ele><time>2026-04-11T15:46:25.654Z</time></trkpt><trkpt lat="44.4280018" lon="11.114472"><ele>177.0</ele><time>2026-04-11T15:46:27.654Z</time></trkpt><trkpt lat="44.4279104" lon="11.1144784"><ele>177.0</ele><time>2026-04-11T15:46:29.654Z</time></trkpt><trkpt lat="44.4277661" lon="11.1144243"><ele>177.0</ele><time>2026-04-11T15:46:31.654Z</time></trkpt><trkpt lat="44.4276744" lon="11.1143983"><ele>176.66666666666666</ele><time>2026-04-11T15:46:32.653Z</time></trkpt><trkpt lat="44.4275864" lon="11.1143928"><ele>176.33333333333334</ele><time>2026-04-11T15:46:33.654Z</time></trkpt><trkpt lat="44.4274876" lon="11.1143162"><ele>176.0</ele><time>2026-04-11T15:46:35.654Z</time></trkpt><trkpt lat="44.4274245" lon="11.1142815"><ele>175.66666666666669</ele><time>2026-04-11T15:46:36.654Z</time></trkpt><trkpt lat="44.4273597" lon="11.1142324"><ele>175.33333333333334</ele><time>2026-04-11T15:46:37.654Z</time></trkpt><trkpt lat="44.4272856" lon="11.1141964"><ele>175.0</ele><time>2026-04-11T15:46:38.654Z</time></trkpt><trkpt lat="44.4272325" lon="11.1141483"><ele>175.6</ele><time>2026-04-11T15:46:39.653Z</time></trkpt><trkpt lat="44.4271718" lon="11.1140647"><ele>176.2</ele><time>2026-04-11T15:46:40.654Z</time></trkpt><trkpt lat="44.427115" lon="11.1139508"><ele>176.8</ele><time>2026-04-11T15:46:41.654Z</time></trkpt><trkpt lat="44.4270567" lon="11.1138457"><ele>177.4</ele><time>2026-04-11T15:46:42.654Z</time></trkpt><trkpt lat="44.4269884" lon="11.1137335"><ele>178.0</ele><time>2026-04-11T15:46:43.653Z</time></trkpt><trkpt lat="44.426916" lon="11.1136347"><ele>178.0</ele><time>2026-04-11T15:46:44.654Z</time></trkpt><trkpt lat="44.4268579" lon="11.1135317"><ele>178.0</ele><time>2026-04-11T15:46:45.653Z</time></trkpt><trkpt lat="44.4268038" lon="11.1134339"><ele>178.0</ele><time>2026-04-11T15:46:46.653Z</time></trkpt><trkpt lat="44.4267935" lon="11.1133047"><ele>178.0</ele><time>2026-04-11T15:46:49.654Z</time></trkpt><trkpt lat="44.4267396" lon="11.1132393"><ele>178.0</ele><time>2026-04-11T15:46:51.654Z</time></trkpt><trkpt lat="44.4267079" lon="11.1131342"><ele>178.0</ele><time>2026-04-11T15:46:54.654Z</time></trkpt><trkpt lat="44.4266671" lon="11.1130476"><ele>178.0</ele><time>2026-04-11T15:46:56.654Z</time></trkpt><trkpt lat="44.4266186" lon="11.1129622"><ele>178.0</ele><time>2026-04-11T15:46:58.654Z</time></trkpt><trkpt lat="44.4265784" lon="11.1128875"><ele>178.0</ele><time>2026-04-11T15:47:03.654Z</time></trkpt><trkpt lat="44.4265485" lon="11.1127705"><ele>178.0</ele><time>2026-04-11T15:47:05.654Z</time></trkpt><trkpt lat="44.4264534" lon="11.1126551"><ele>178.0</ele><time>2026-04-11T15:47:07.653Z</time></trkpt><trkpt lat="44.4263709" lon="11.1125688"><ele>178.75</ele><time>2026-04-11T15:47:08.654Z</time></trkpt><trkpt lat="44.4262664" lon="11.1124007"><ele>179.5</ele><time>2026-04-11T15:47:09.654Z</time></trkpt><trkpt lat="44.4261695" lon="11.1122571"><ele>180.25</ele><time>2026-04-11T15:47:10.654Z</time></trkpt><trkpt lat="44.4260794" lon="11.1121232"><ele>181.0</ele><time>2026-04-11T15:47:11.654Z</time></trkpt><trkpt lat="44.4259962" lon="11.1119992"><ele>181.0</ele><time>2026-04-11T15:47:12.654Z</time></trkpt><trkpt lat="44.4259201" lon="11.111891"><ele>181.0</ele><time>2026-04-11T15:47:13.654Z</time></trkpt><trkpt lat="44.4258561" lon="11.1117666"><ele>181.0</ele><time>2026-04-11T15:47:14.653Z</time></trkpt><trkpt lat="44.4258076" lon="11.1116442"><ele>181.0</ele><time>2026-04-11T15:47:15.654Z</time></trkpt><trkpt lat="44.4257436" lon="11.1115212"><ele>181.0</ele><time>2026-04-11T15:47:16.654Z</time></trkpt><trkpt lat="44.4256632" lon="11.1114075"><ele>181.0</ele><time>2026-04-11T15:47:17.654Z</time></trkpt><trkpt lat="44.4255795" lon="11.1113084"><ele>181.0</ele><time>2026-04-11T15:47:18.653Z</time></trkpt><trkpt lat="44.4254803" lon="11.1111855"><ele>181.0</ele><time>2026-04-11T15:47:19.653Z</time></trkpt><trkpt lat="44.4253866" lon="11.1110581"><ele>181.0</ele><time>2026-04-11T15:47:20.654Z</time></trkpt><trkpt lat="44.4252901" lon="11.1109419"><ele>181.0</ele><time>2026-04-11T15:47:21.654Z</time></trkpt><trkpt lat="44.4252049" lon="11.1108328"><ele>181.0</ele><time>2026-04-11T15:47:22.654Z</time></trkpt><trkpt lat="44.4251159" lon="11.1107502"><ele>181.0</ele><time>2026-04-11T15:47:23.654Z</time></trkpt><trkpt lat="44.425052" lon="11.1106681"><ele>181.0</ele><time>2026-04-11T15:47:24.654Z</time></trkpt><trkpt lat="44.4249907" lon="11.1105997"><ele>181.0</ele><time>2026-04-11T15:47:25.654Z</time></trkpt><trkpt lat="44.4249429" lon="11.1105393"><ele>181.4</ele><time>2026-04-11T15:47:26.654Z</time></trkpt><trkpt lat="44.4248566" lon="11.1104298"><ele>181.8</ele><time>2026-04-11T15:47:28.654Z</time></trkpt><trkpt lat="44.4248062" lon="11.1103531"><ele>182.20000000000002</ele><time>2026-04-11T15:47:32.654Z</time></trkpt><trkpt lat="44.424756" lon="11.1101756"><ele>182.60000000000002</ele><time>2026-04-11T15:47:34.654Z</time></trkpt><trkpt lat="44.4246807" lon="11.1101105"><ele>183.0</ele><time>2026-04-11T15:47:36.654Z</time></trkpt><trkpt lat="44.4246136" lon="11.1100412"><ele>183.5</ele><time>2026-04-11T15:47:38.654Z</time></trkpt><trkpt lat="44.4245435" lon="11.1099429"><ele>184.0</ele><time>2026-04-11T15:47:41.654Z</time></trkpt><trkpt lat="44.4244885" lon="11.1098756"><ele>184.5</ele><time>2026-04-11T15:47:43.654Z</time></trkpt><trkpt lat="44.4243718" lon="11.1097743"><ele>185.0</ele><time>2026-04-11T15:47:46.654Z</time></trkpt><trkpt lat="44.4243207" lon="11.1097062"><ele>185.5</ele><time>2026-04-11T15:47:47.654Z</time></trkpt><trkpt lat="44.4242593" lon="11.1096813"><ele>186.0</ele><time>2026-04-11T15:47:49.654Z</time></trkpt><trkpt lat="44.4242321" lon="11.1095988"><ele>186.16666666666666</ele><time>2026-04-11T15:47:52.654Z</time></trkpt><trkpt lat="44.4241613" lon="11.109527"><ele>186.33333333333334</ele><time>2026-04-11T15:47:54.653Z</time></trkpt><trkpt lat="44.4240944" lon="11.1095471"><ele>186.5</ele><time>2026-04-11T15:47:59.654Z</time></trkpt><trkpt lat="44.424065" lon="11.1094529"><ele>186.66666666666669</ele><time>2026-04-11T15:48:02.654Z</time></trkpt><trkpt lat="44.4240073" lon="11.1094123"><ele>186.83333333333334</ele><time>2026-04-11T15:48:04.654Z</time></trkpt><trkpt lat="44.4239282" lon="11.109364"><ele>187.0</ele><time>2026-04-11T15:48:06.654Z</time></trkpt><trkpt lat="44.4238236" lon="11.1091954"><ele>187.0</ele><time>2026-04-11T15:48:08.654Z</time></trkpt><trkpt lat="44.4237623" lon="11.1090899"><ele>187.0</ele><time>2026-04-11T15:48:09.654Z</time></trkpt><trkpt lat="44.4237127" lon="11.1090315"><ele>187.0</ele><time>2026-04-11T15:48:10.654Z</time></trkpt><trkpt lat="44.4236199" lon="11.1089418"><ele>187.0</ele><time>2026-04-11T15:48:11.654Z</time></trkpt><trkpt lat="44.4235281" lon="11.1088166"><ele>187.0</ele><time>2026-04-11T15:48:14.653Z</time></trkpt><trkpt lat="44.4234524" lon="11.1087396"><ele>187.0</ele><time>2026-04-11T15:48:16.654Z</time></trkpt><trkpt lat="44.4233791" lon="11.1086577"><ele>187.0</ele><time>2026-04-11T15:48:17.654Z</time></trkpt><trkpt lat="44.4233071" lon="11.1085695"><ele>187.0</ele><time>2026-04-11T15:48:18.654Z</time></trkpt><trkpt lat="44.4232072" lon="11.1084428"><ele>187.0</ele><time>2026-04-11T15:48:20.654Z</time></trkpt><trkpt lat="44.4231087" lon="11.1083648"><ele>187.0</ele><time>2026-04-11T15:48:22.654Z</time></trkpt><trkpt lat="44.4230242" lon="11.1082575"><ele>187.2</ele><time>2026-04-11T15:48:24.654Z</time></trkpt><trkpt lat="44.4229511" lon="11.1081813"><ele>187.39999999999998</ele><time>2026-04-11T15:48:26.654Z</time></trkpt><trkpt lat="44.4228648" lon="11.1081171"><ele>187.60000000000002</ele><time>2026-04-11T15:48:28.654Z</time></trkpt><trkpt lat="44.4227984" lon="11.1080568"><ele>187.8</ele><time>2026-04-11T15:48:30.654Z</time></trkpt><trkpt lat="44.4227215" lon="11.1080723"><ele>188.0</ele><time>2026-04-11T15:48:34.653Z</time></trkpt><trkpt lat="44.4226067" lon="11.1078941"><ele>188.0</ele><time>2026-04-11T15:48:37.654Z</time></trkpt><trkpt lat="44.4225541" lon="11.1078275"><ele>188.0</ele><time>2026-04-11T15:48:38.654Z</time></trkpt><trkpt lat="44.4224565" lon="11.1077183"><ele>188.0</ele><time>2026-04-11T15:48:40.654Z</time></trkpt><trkpt lat="44.4224101" lon="11.1076582"><ele>188.0</ele><time>2026-04-11T15:48:41.653Z</time></trkpt><trkpt lat="44.4222764" lon="11.1074994"><ele>188.0</ele><time>2026-04-11T15:48:43.654Z</time></trkpt><trkpt lat="44.4222038" lon="11.1074877"><ele>188.4</ele><time>2026-04-11T15:48:45.654Z</time></trkpt><trkpt lat="44.4221129" lon="11.1073931"><ele>188.8</ele><time>2026-04-11T15:48:47.654Z</time></trkpt><trkpt lat="44.4220633" lon="11.1073102"><ele>189.2</ele><time>2026-04-11T15:48:48.653Z</time></trkpt><trkpt lat="44.421986" lon="11.107257"><ele>189.6</ele><time>2026-04-11T15:48:50.653Z</time></trkpt><trkpt lat="44.4219208" lon="11.1071513"><ele>190.0</ele><time>2026-04-11T15:48:52.653Z</time></trkpt><trkpt lat="44.421851" lon="11.1070936"><ele>190.0</ele><time>2026-04-11T15:48:55.654Z</time></trkpt><trkpt lat="44.4217605" lon="11.1070305"><ele>190.0</ele><time>2026-04-11T15:48:57.654Z</time></trkpt><trkpt lat="44.4216884" lon="11.1069705"><ele>190.0</ele><time>2026-04-11T15:48:59.654Z</time></trkpt><trkpt lat="44.4216175" lon="11.1069282"><ele>190.0</ele><time>2026-04-11T15:49:03.654Z</time></trkpt><trkpt lat="44.421577" lon="11.1068333"><ele>190.0</ele><time>2026-04-11T15:49:06.654Z</time></trkpt><trkpt lat="44.4215194" lon="11.1067684"><ele>190.0</ele><time>2026-04-11T15:49:08.654Z</time></trkpt><trkpt lat="44.4214056" lon="11.1066457"><ele>190.0</ele><time>2026-04-11T15:49:10.653Z</time></trkpt><trkpt lat="44.4213361" lon="11.1065933"><ele>190.0</ele><time>2026-04-11T15:49:11.654Z</time></trkpt><trkpt lat="44.4212398" lon="11.1065284"><ele>190.0</ele><time>2026-04-11T15:49:13.654Z</time></trkpt><trkpt lat="44.4211603" lon="11.1064566"><ele>190.0</ele><time>2026-04-11T15:49:15.654Z</time></trkpt><trkpt lat="44.4210861" lon="11.106411"><ele>190.0</ele><time>2026-04-11T15:49:18.654Z</time></trkpt><trkpt lat="44.4210073" lon="11.1063498"><ele>190.0</ele><time>2026-04-11T15:49:21.654Z</time></trkpt><trkpt lat="44.420951" lon="11.106306"><ele>190.0</ele><time>2026-04-11T15:49:22.654Z</time></trkpt><trkpt lat="44.4208888" lon="11.1062466"><ele>190.0</ele><time>2026-04-11T15:49:24.654Z</time></trkpt><trkpt lat="44.4207638" lon="11.1061709"><ele>190.0</ele><time>2026-04-11T15:49:26.654Z</time></trkpt><trkpt lat="44.4206561" lon="11.1060849"><ele>190.0</ele><time>2026-04-11T15:49:27.654Z</time></trkpt><trkpt lat="44.4205717" lon="11.1060163"><ele>190.0</ele><time>2026-04-11T15:49:28.654Z</time></trkpt><trkpt lat="44.4204907" lon="11.1059556"><ele>190.0</ele><time>2026-04-11T15:49:30.654Z</time></trkpt><trkpt lat="44.4203967" lon="11.1058983"><ele>190.0</ele><time>2026-04-11T15:49:34.654Z</time></trkpt><trkpt lat="44.4203079" lon="11.1058219"><ele>190.0</ele><time>2026-04-11T15:49:35.654Z</time></trkpt><trkpt lat="44.4202105" lon="11.1057473"><ele>190.0</ele><time>2026-04-11T15:49:36.654Z</time></trkpt><trkpt lat="44.4201434" lon="11.1057231"><ele>190.2</ele><time>2026-04-11T15:49:37.654Z</time></trkpt><trkpt lat="44.4200762" lon="11.1056739"><ele>190.4</ele><time>2026-04-11T15:49:38.654Z</time></trkpt><trkpt lat="44.4199698" lon="11.1055747"><ele>190.60000000000002</ele><time>2026-04-11T15:49:39.654Z</time></trkpt><trkpt lat="44.4198951" lon="11.1055106"><ele>190.8</ele><time>2026-04-11T15:49:40.653Z</time></trkpt><trkpt lat="44.4197863" lon="11.1054049"><ele>191.0</ele><time>2026-04-11T15:49:41.654Z</time></trkpt><trkpt lat="44.4196697" lon="11.1053483"><ele>191.33333333333331</ele><time>2026-04-11T15:49:43.654Z</time></trkpt><trkpt lat="44.4195836" lon="11.1053112"><ele>191.66666666666666</ele><time>2026-04-11T15:49:45.654Z</time></trkpt><trkpt lat="44.4195156" lon="11.105276"><ele>192.0</ele><time>2026-04-11T15:49:46.654Z</time></trkpt><trkpt lat="44.419416" lon="11.1052149"><ele>192.33333333333331</ele><time>2026-04-11T15:49:47.653Z</time></trkpt><trkpt lat="44.4193528" lon="11.1051809"><ele>192.66666666666666</ele><time>2026-04-11T15:49:48.654Z</time></trkpt><trkpt lat="44.419255" lon="11.1051139"><ele>193.0</ele><time>2026-04-11T15:49:49.653Z</time></trkpt><trkpt lat="44.4191801" lon="11.1050514"><ele>192.99999999999997</ele><time>2026-04-11T15:49:50.654Z</time></trkpt><trkpt lat="44.4190995" lon="11.1050161"><ele>193.0</ele><time>2026-04-11T15:49:52.654Z</time></trkpt><trkpt lat="44.4190261" lon="11.1049676"><ele>193.0</ele><time>2026-04-11T15:49:54.654Z</time></trkpt><trkpt lat="44.418919" lon="11.1049259"><ele>193.0</ele><time>2026-04-11T15:49:56.654Z</time></trkpt><trkpt lat="44.4188445" lon="11.1048961"><ele>192.99999999999997</ele><time>2026-04-11T15:49:58.654Z</time></trkpt><trkpt lat="44.4187593" lon="11.1048508"><ele>193.0</ele><time>2026-04-11T15:50:01.653Z</time></trkpt><trkpt lat="44.4186543" lon="11.1047841"><ele>193.2</ele><time>2026-04-11T15:50:02.654Z</time></trkpt><trkpt lat="44.418578" lon="11.104751"><ele>193.4</ele><time>2026-04-11T15:50:04.654Z</time></trkpt><trkpt lat="44.4184845" lon="11.1046937"><ele>193.6</ele><time>2026-04-11T15:50:05.654Z</time></trkpt><trkpt lat="44.4183846" lon="11.1046619"><ele>193.79999999999998</ele><time>2026-04-11T15:50:07.653Z</time></trkpt><trkpt lat="44.4183091" lon="11.1045967"><ele>194.0</ele><time>2026-04-11T15:50:10.654Z</time></trkpt><trkpt lat="44.4182184" lon="11.104549"><ele>194.00000000000003</ele><time>2026-04-11T15:50:12.654Z</time></trkpt><trkpt lat="44.4180902" lon="11.1044416"><ele>194.0</ele><time>2026-04-11T15:50:14.654Z</time></trkpt><trkpt lat="44.4180254" lon="11.1043897"><ele>194.0</ele><time>2026-04-11T15:50:15.654Z</time></trkpt><trkpt lat="44.4179638" lon="11.1043477"><ele>194.0</ele><time>2026-04-11T15:50:17.654Z</time></trkpt><trkpt lat="44.4178844" lon="11.1043236"><ele>194.00000000000003</ele><time>2026-04-11T15:50:20.654Z</time></trkpt><trkpt lat="44.4178302" lon="11.1042705"><ele>194.0</ele><time>2026-04-11T15:50:22.654Z</time></trkpt><trkpt lat="44.41777" lon="11.1042334"><ele>194.16666666666669</ele><time>2026-04-11T15:50:25.654Z</time></trkpt><trkpt lat="44.417706" lon="11.1041431"><ele>194.33333333333334</ele><time>2026-04-11T15:50:29.653Z</time></trkpt><trkpt lat="44.4176607" lon="11.1040737"><ele>194.5</ele><time>2026-04-11T15:50:31.654Z</time></trkpt><trkpt lat="44.4175965" lon="11.1041533"><ele>194.66666666666669</ele><time>2026-04-11T15:50:35.654Z</time></trkpt><trkpt lat="44.4175191" lon="11.104124"><ele>194.83333333333334</ele><time>2026-04-11T15:50:38.654Z</time></trkpt><trkpt lat="44.41744" lon="11.1040903"><ele>195.0</ele><time>2026-04-11T15:50:41.654Z</time></trkpt><trkpt lat="44.4173303" lon="11.1040669"><ele>195.0</ele><time>2026-04-11T15:50:43.653Z</time></trkpt><trkpt lat="44.4172539" lon="11.104043"><ele>195.0</ele><time>2026-04-11T15:50:45.653Z</time></trkpt><trkpt lat="44.4171828" lon="11.1040282"><ele>195.0</ele><time>2026-04-11T15:50:48.654Z</time></trkpt><trkpt lat="44.4171139" lon="11.1039866"><ele>195.0</ele><time>2026-04-11T15:50:51.654Z</time></trkpt><trkpt lat="44.4170374" lon="11.1039282"><ele>195.0</ele><time>2026-04-11T15:50:55.654Z</time></trkpt><trkpt lat="44.4169741" lon="11.1039014"><ele>195.0</ele><time>2026-04-11T15:50:57.654Z</time></trkpt><trkpt lat="44.4168962" lon="11.1038877"><ele>195.5</ele><time>2026-04-11T15:50:59.654Z</time></trkpt><trkpt lat="44.4168279" lon="11.1038445"><ele>196.0</ele><time>2026-04-11T15:51:02.653Z</time></trkpt><trkpt lat="44.4167659" lon="11.103754"><ele>196.5</ele><time>2026-04-11T15:51:06.654Z</time></trkpt><trkpt lat="44.4167204" lon="11.1036892"><ele>197.0</ele><time>2026-04-11T15:51:41.653Z</time></trkpt><trkpt lat="44.4166544" lon="11.1036787"><ele>197.5</ele><time>2026-04-11T15:52:21.654Z</time></trkpt><trkpt lat="44.4165775" lon="11.1036385"><ele>198.0</ele><time>2026-04-11T15:52:25.654Z</time></trkpt><trkpt lat="44.4164991" lon="11.1036054"><ele>198.0</ele><time>2026-04-11T15:52:28.654Z</time></trkpt><trkpt lat="44.4164298" lon="11.10354"><ele>198.0</ele><time>2026-04-11T15:52:32.654Z</time></trkpt><trkpt lat="44.4163496" lon="11.1035055"><ele>198.0</ele><time>2026-04-11T15:52:35.654Z</time></trkpt><trkpt lat="44.4162669" lon="11.1034831"><ele>198.0</ele><time>2026-04-11T15:52:39.654Z</time></trkpt><trkpt lat="44.4162239" lon="11.1033839"><ele>198.0</ele><time>2026-04-11T15:52:43.654Z</time></trkpt><trkpt lat="44.4161614" lon="11.1033975"><ele>198.0</ele><time>2026-04-11T15:52:46.654Z</time></trkpt><trkpt lat="44.4160854" lon="11.1033635"><ele>198.0</ele><time>2026-04-11T15:52:49.654Z</time></trkpt><trkpt lat="44.4159676" lon="11.1032646"><ele>198.0</ele><time>2026-04-11T15:52:51.654Z</time></trkpt><trkpt lat="44.4158843" lon="11.1031879"><ele>198.0</ele><time>2026-04-11T15:52:52.653Z</time></trkpt><trkpt lat="44.4157994" lon="11.1030891"><ele>198.0</ele><time>2026-04-11T15:52:53.653Z</time></trkpt><trkpt lat="44.4157121" lon="11.1029972"><ele>198.4</ele><time>2026-04-11T15:52:54.654Z</time></trkpt><trkpt lat="44.4156272" lon="11.1029625"><ele>198.8</ele><time>2026-04-11T15:52:56.653Z</time></trkpt><trkpt lat="44.4155142" lon="11.102891"><ele>199.2</ele><time>2026-04-11T15:52:58.654Z</time></trkpt><trkpt lat="44.4154507" lon="11.1028237"><ele>199.6</ele><time>2026-04-11T15:52:59.653Z</time></trkpt><trkpt lat="44.4153667" lon="11.1027338"><ele>200.0</ele><time>2026-04-11T15:53:01.654Z</time></trkpt><trkpt lat="44.4153197" lon="11.1026656"><ele>200.00000000000003</ele><time>2026-04-11T15:53:02.654Z</time></trkpt><trkpt lat="44.4152697" lon="11.102568"><ele>200.0</ele><time>2026-04-11T15:53:04.654Z</time></trkpt><trkpt lat="44.4152154" lon="11.1024728"><ele>200.0</ele><time>2026-04-11T15:53:07.654Z</time></trkpt><trkpt lat="44.4152077" lon="11.1023731"><ele>200.0</ele><time>2026-04-11T15:53:10.654Z</time></trkpt><trkpt lat="44.4152144" lon="11.1022797"><ele>200.00000000000003</ele><time>2026-04-11T15:53:13.654Z</time></trkpt><trkpt lat="44.4151991" lon="11.1021937"><ele>200.0</ele><time>2026-04-11T15:53:15.654Z</time></trkpt><trkpt lat="44.4152176" lon="11.1020716"><ele>200.0</ele><time>2026-04-11T15:53:17.654Z</time></trkpt><trkpt lat="44.4152767" lon="11.1019979"><ele>200.0</ele><time>2026-04-11T15:53:18.654Z</time></trkpt><trkpt lat="44.4153059" lon="11.1019023"><ele>200.0</ele><time>2026-04-11T15:53:19.654Z</time></trkpt><trkpt lat="44.415364" lon="11.1017745"><ele>200.0</ele><time>2026-04-11T15:53:21.654Z</time></trkpt><trkpt lat="44.4153092" lon="11.1016225"><ele>200.0</ele><time>2026-04-11T15:53:23.654Z</time></trkpt><trkpt lat="44.4152525" lon="11.1015324"><ele>199.75</ele><time>2026-04-11T15:53:24.654Z</time></trkpt><trkpt lat="44.415177" lon="11.1014218"><ele>199.5</ele><time>2026-04-11T15:53:25.654Z</time></trkpt><trkpt lat="44.4151011" lon="11.101305"><ele>199.25</ele><time>2026-04-11T15:53:26.653Z</time></trkpt><trkpt lat="44.4149939" lon="11.1011896"><ele>199.0</ele><time>2026-04-11T15:53:27.654Z</time></trkpt><trkpt lat="44.4148808" lon="11.101053"><ele>199.0</ele><time>2026-04-11T15:53:28.654Z</time></trkpt><trkpt lat="44.4147754" lon="11.1009149"><ele>199.0</ele><time>2026-04-11T15:53:29.654Z</time></trkpt><trkpt lat="44.4146769" lon="11.1007835"><ele>199.0</ele><time>2026-04-11T15:53:30.654Z</time></trkpt><trkpt lat="44.4145858" lon="11.1006685"><ele>199.0</ele><time>2026-04-11T15:53:31.653Z</time></trkpt><trkpt lat="44.4145037" lon="11.1005651"><ele>199.66666666666666</ele><time>2026-04-11T15:53:32.653Z</time></trkpt><trkpt lat="44.414432" lon="11.1004624"><ele>200.33333333333331</ele><time>2026-04-11T15:53:33.653Z</time></trkpt><trkpt lat="44.4143626" lon="11.1003858"><ele>201.0</ele><time>2026-04-11T15:53:34.654Z</time></trkpt><trkpt lat="44.41431" lon="11.1003325"><ele>201.66666666666669</ele><time>2026-04-11T15:53:35.654Z</time></trkpt><trkpt lat="44.414316" lon="11.1002255"><ele>202.33333333333334</ele><time>2026-04-11T15:53:38.654Z</time></trkpt><trkpt lat="44.4143231" lon="11.1001282"><ele>203.0</ele><time>2026-04-11T15:53:40.653Z</time></trkpt><trkpt lat="44.4143746" lon="11.1000099"><ele>203.00000000000003</ele><time>2026-04-11T15:53:42.654Z</time></trkpt><trkpt lat="44.4144143" lon="11.0999351"><ele>203.0</ele><time>2026-04-11T15:53:44.654Z</time></trkpt><trkpt lat="44.4144591" lon="11.0998691"><ele>203.0</ele><time>2026-04-11T15:54:14.654Z</time></trkpt><trkpt lat="44.4145128" lon="11.0997475"><ele>203.0</ele><time>2026-04-11T15:54:16.654Z</time></trkpt><trkpt lat="44.4145548" lon="11.0996625"><ele>203.00000000000003</ele><time>2026-04-11T15:54:17.653Z</time></trkpt><trkpt lat="44.414611" lon="11.0995706"><ele>203.0</ele><time>2026-04-11T15:54:18.653Z</time></trkpt><trkpt lat="44.4146785" lon="11.0994756"><ele>204.60000000000002</ele><time>2026-04-11T15:54:19.653Z</time></trkpt><trkpt lat="44.4147539" lon="11.0993819"><ele>206.20000000000002</ele><time>2026-04-11T15:54:20.654Z</time></trkpt><trkpt lat="44.4148345" lon="11.09929"><ele>207.8</ele><time>2026-04-11T15:54:21.654Z</time></trkpt><trkpt lat="44.4149204" lon="11.0992092"><ele>209.4</ele><time>2026-04-11T15:54:22.654Z</time></trkpt><trkpt lat="44.4150091" lon="11.0991358"><ele>211.0</ele><time>2026-04-11T15:54:23.654Z</time></trkpt><trkpt lat="44.4150973" lon="11.0990687"><ele>212.20000000000002</ele><time>2026-04-11T15:54:24.653Z</time></trkpt><trkpt lat="44.4151842" lon="11.0989956"><ele>213.4</ele><time>2026-04-11T15:54:25.654Z</time></trkpt><trkpt lat="44.415263" lon="11.0989108"><ele>214.6</ele><time>2026-04-11T15:54:26.654Z</time></trkpt><trkpt lat="44.4153326" lon="11.0988205"><ele>215.8</ele><time>2026-04-11T15:54:27.654Z</time></trkpt><trkpt lat="44.4153937" lon="11.0987236"><ele>217.0</ele><time>2026-04-11T15:54:28.654Z</time></trkpt><trkpt lat="44.4154318" lon="11.0986302"><ele>217.0</ele><time>2026-04-11T15:54:29.654Z</time></trkpt><trkpt lat="44.4154845" lon="11.0985238"><ele>217.0</ele><time>2026-04-11T15:54:30.654Z</time></trkpt><trkpt lat="44.4155266" lon="11.0984101"><ele>217.0</ele><time>2026-04-11T15:54:31.654Z</time></trkpt><trkpt lat="44.4155716" lon="11.098294"><ele>217.0</ele><time>2026-04-11T15:54:32.653Z</time></trkpt><trkpt lat="44.4156217" lon="11.0981872"><ele>217.0</ele><time>2026-04-11T15:54:33.654Z</time></trkpt><trkpt lat="44.4156671" lon="11.098084"><ele>218.83333333333331</ele><time>2026-04-11T15:54:34.654Z</time></trkpt><trkpt lat="44.4157127" lon="11.0979811"><ele>220.66666666666666</ele><time>2026-04-11T15:54:35.654Z</time></trkpt><trkpt lat="44.415755" lon="11.0978792"><ele>222.5</ele><time>2026-04-11T15:54:36.653Z</time></trkpt><trkpt lat="44.4158006" lon="11.0977826"><ele>224.33333333333331</ele><time>2026-04-11T15:54:37.654Z</time></trkpt><trkpt lat="44.4158463" lon="11.0976852"><ele>226.16666666666666</ele><time>2026-04-11T15:54:38.654Z</time></trkpt><trkpt lat="44.4158858" lon="11.0975901"><ele>228.0</ele><time>2026-04-11T15:54:39.654Z</time></trkpt><trkpt lat="44.4159179" lon="11.097506"><ele>228.4</ele><time>2026-04-11T15:54:40.654Z</time></trkpt><trkpt lat="44.415965" lon="11.0974096"><ele>228.8</ele><time>2026-04-11T15:54:42.654Z</time></trkpt><trkpt lat="44.4159251" lon="11.0972896"><ele>229.2</ele><time>2026-04-11T15:54:46.653Z</time></trkpt><trkpt lat="44.4158735" lon="11.0972334"><ele>229.6</ele><time>2026-04-11T15:54:47.653Z</time></trkpt><trkpt lat="44.4157963" lon="11.0971439"><ele>230.0</ele><time>2026-04-11T15:54:48.654Z</time></trkpt><trkpt lat="44.4156958" lon="11.097049"><ele>230.0</ele><time>2026-04-11T15:54:49.653Z</time></trkpt><trkpt lat="44.4155992" lon="11.0969481"><ele>230.0</ele><time>2026-04-11T15:54:50.654Z</time></trkpt><trkpt lat="44.4154971" lon="11.0968476"><ele>230.0</ele><time>2026-04-11T15:54:51.654Z</time></trkpt><trkpt lat="44.4153932" lon="11.0967441"><ele>230.0</ele><time>2026-04-11T15:54:52.654Z</time></trkpt><trkpt lat="44.4152852" lon="11.0966308"><ele>230.0</ele><time>2026-04-11T15:54:53.654Z</time></trkpt><trkpt lat="44.4151697" lon="11.0965106"><ele>230.0</ele><time>2026-04-11T15:54:54.653Z</time></trkpt><trkpt lat="44.415055" lon="11.0963925"><ele>230.0</ele><time>2026-04-11T15:54:55.654Z</time></trkpt><trkpt lat="44.4149365" lon="11.0962782"><ele>230.0</ele><time>2026-04-11T15:54:56.653Z</time></trkpt><trkpt lat="44.414813" lon="11.0961573"><ele>230.0</ele><time>2026-04-11T15:54:57.654Z</time></trkpt><trkpt lat="44.4146814" lon="11.0960492"><ele>230.0</ele><time>2026-04-11T15:54:58.654Z</time></trkpt><trkpt lat="44.4145532" lon="11.095917"><ele>230.0</ele><time>2026-04-11T15:54:59.654Z</time></trkpt><trkpt lat="44.4144285" lon="11.0957889"><ele>230.33333333333334</ele><time>2026-04-11T15:55:00.654Z</time></trkpt><trkpt lat="44.4143024" lon="11.0956507"><ele>230.66666666666669</ele><time>2026-04-11T15:55:01.654Z</time></trkpt><trkpt lat="44.4141745" lon="11.0955112"><ele>231.0</ele><time>2026-04-11T15:55:02.653Z</time></trkpt><trkpt lat="44.4140492" lon="11.0953588"><ele>231.0</ele><time>2026-04-11T15:55:03.653Z</time></trkpt><trkpt lat="44.4139254" lon="11.095199"><ele>231.0</ele><time>2026-04-11T15:55:04.654Z</time></trkpt><trkpt lat="44.4138025" lon="11.0950377"><ele>231.0</ele><time>2026-04-11T15:55:05.654Z</time></trkpt><trkpt lat="44.4136779" lon="11.0948809"><ele>230.66666666666669</ele><time>2026-04-11T15:55:06.654Z</time></trkpt><trkpt lat="44.4135498" lon="11.0947175"><ele>230.33333333333334</ele><time>2026-04-11T15:55:07.654Z</time></trkpt><trkpt lat="44.4134324" lon="11.0945665"><ele>230.0</ele><time>2026-04-11T15:55:08.654Z</time></trkpt><trkpt lat="44.4133116" lon="11.0944179"><ele>230.0</ele><time>2026-04-11T15:55:09.654Z</time></trkpt><trkpt lat="44.4131952" lon="11.0942743"><ele>230.0</ele><time>2026-04-11T15:55:10.653Z</time></trkpt><trkpt lat="44.4130782" lon="11.0941335"><ele>230.0</ele><time>2026-04-11T15:55:11.654Z</time></trkpt><trkpt lat="44.412964" lon="11.0940046"><ele>232.0</ele><time>2026-04-11T15:55:12.654Z</time></trkpt><trkpt lat="44.4128339" lon="11.0938793"><ele>234.0</ele><time>2026-04-11T15:55:13.654Z</time></trkpt><trkpt lat="44.4127036" lon="11.0937635"><ele>236.0</ele><time>2026-04-11T15:55:14.654Z</time></trkpt><trkpt lat="44.4125703" lon="11.0936436"><ele>236.0</ele><time>2026-04-11T15:55:15.654Z</time></trkpt><trkpt lat="44.4124317" lon="11.0935062"><ele>236.0</ele><time>2026-04-11T15:55:16.654Z</time></trkpt><trkpt lat="44.4122962" lon="11.0933741"><ele>236.0</ele><time>2026-04-11T15:55:17.654Z</time></trkpt><trkpt lat="44.4121672" lon="11.0932471"><ele>234.0</ele><time>2026-04-11T15:55:18.654Z</time></trkpt><trkpt lat="44.4120352" lon="11.0931069"><ele>232.0</ele><time>2026-04-11T15:55:19.654Z</time></trkpt><trkpt lat="44.4118976" lon="11.0929637"><ele>230.0</ele><time>2026-04-11T15:55:20.654Z</time></trkpt><trkpt lat="44.411756" lon="11.0928182"><ele>230.0</ele><time>2026-04-11T15:55:21.654Z</time></trkpt><trkpt lat="44.411614" lon="11.0926721"><ele>230.0</ele><time>2026-04-11T15:55:22.653Z</time></trkpt><trkpt lat="44.4114755" lon="11.0925213"><ele>230.0</ele><time>2026-04-11T15:55:23.654Z</time></trkpt><trkpt lat="44.4113359" lon="11.0923707"><ele>227.66666666666669</ele><time>2026-04-11T15:55:24.653Z</time></trkpt><trkpt lat="44.4111945" lon="11.0922224"><ele>225.33333333333331</ele><time>2026-04-11T15:55:25.654Z</time></trkpt><trkpt lat="44.4110612" lon="11.0920739"><ele>223.0</ele><time>2026-04-11T15:55:26.653Z</time></trkpt><trkpt lat="44.4109266" lon="11.0919192"><ele>223.0</ele><time>2026-04-11T15:55:27.654Z</time></trkpt><trkpt lat="44.4107969" lon="11.0917727"><ele>223.0</ele><time>2026-04-11T15:55:28.653Z</time></trkpt><trkpt lat="44.4106629" lon="11.0916193"><ele>223.0</ele><time>2026-04-11T15:55:29.654Z</time></trkpt><trkpt lat="44.4105303" lon="11.091463"><ele>223.0</ele><time>2026-04-11T15:55:30.653Z</time></trkpt><trkpt lat="44.4103975" lon="11.0913135"><ele>223.0</ele><time>2026-04-11T15:55:31.654Z</time></trkpt><trkpt lat="44.4102609" lon="11.0911569"><ele>223.0</ele><time>2026-04-11T15:55:32.654Z</time></trkpt><trkpt lat="44.4101283" lon="11.0910018"><ele>223.0</ele><time>2026-04-11T15:55:33.654Z</time></trkpt><trkpt lat="44.4099975" lon="11.0908456"><ele>223.0</ele><time>2026-04-11T15:55:34.653Z</time></trkpt><trkpt lat="44.4098628" lon="11.0906887"><ele>223.0</ele><time>2026-04-11T15:55:35.654Z</time></trkpt><trkpt lat="44.4097224" lon="11.0905383"><ele>221.33333333333331</ele><time>2026-04-11T15:55:36.654Z</time></trkpt><trkpt lat="44.40958" lon="11.0903996"><ele>219.66666666666669</ele><time>2026-04-11T15:55:37.654Z</time></trkpt><trkpt lat="44.4094363" lon="11.0902673"><ele>218.0</ele><time>2026-04-11T15:55:38.653Z</time></trkpt><trkpt lat="44.4092946" lon="11.090141"><ele>218.0</ele><time>2026-04-11T15:55:39.654Z</time></trkpt><trkpt lat="44.4091522" lon="11.0900125"><ele>218.0</ele><time>2026-04-11T15:55:40.654Z</time></trkpt><trkpt lat="44.4090115" lon="11.0898852"><ele>218.0</ele><time>2026-04-11T15:55:41.654Z</time></trkpt><trkpt lat="44.4088713" lon="11.0897583"><ele>219.33333333333334</ele><time>2026-04-11T15:55:42.654Z</time></trkpt><trkpt lat="44.4087306" lon="11.0896288"><ele>220.66666666666669</ele><time>2026-04-11T15:55:43.654Z</time></trkpt><trkpt lat="44.4085949" lon="11.0895013"><ele>222.0</ele><time>2026-04-11T15:55:44.654Z</time></trkpt><trkpt lat="44.4084619" lon="11.0893733"><ele>222.0</ele><time>2026-04-11T15:55:45.654Z</time></trkpt><trkpt lat="44.4083317" lon="11.0892477"><ele>222.0</ele><time>2026-04-11T15:55:46.654Z</time></trkpt><trkpt lat="44.4082017" lon="11.0891232"><ele>222.0</ele><time>2026-04-11T15:55:47.654Z</time></trkpt><trkpt lat="44.4080734" lon="11.0890028"><ele>222.33333333333331</ele><time>2026-04-11T15:55:48.654Z</time></trkpt><trkpt lat="44.4079481" lon="11.0888779"><ele>222.66666666666666</ele><time>2026-04-11T15:55:49.654Z</time></trkpt><trkpt lat="44.4078251" lon="11.088748"><ele>223.0</ele><time>2026-04-11T15:55:50.654Z</time></trkpt><trkpt lat="44.4077051" lon="11.0886094"><ele>223.0</ele><time>2026-04-11T15:55:51.654Z</time></trkpt><trkpt lat="44.4075874" lon="11.0884563"><ele>223.0</ele><time>2026-04-11T15:55:52.654Z</time></trkpt><trkpt lat="44.4074693" lon="11.0882973"><ele>223.0</ele><time>2026-04-11T15:55:53.654Z</time></trkpt><trkpt lat="44.4073533" lon="11.0881341"><ele>223.0</ele><time>2026-04-11T15:55:54.654Z</time></trkpt><trkpt lat="44.4072375" lon="11.0879677"><ele>223.0</ele><time>2026-04-11T15:55:55.654Z</time></trkpt><trkpt lat="44.407122" lon="11.0878044"><ele>223.0</ele><time>2026-04-11T15:55:56.654Z</time></trkpt><trkpt lat="44.4070056" lon="11.0876396"><ele>223.0</ele><time>2026-04-11T15:55:57.654Z</time></trkpt><trkpt lat="44.4068863" lon="11.0874739"><ele>223.0</ele><time>2026-04-11T15:55:58.654Z</time></trkpt><trkpt lat="44.4067702" lon="11.0873046"><ele>223.0</ele><time>2026-04-11T15:55:59.654Z</time></trkpt><trkpt lat="44.4066567" lon="11.0871351"><ele>223.0</ele><time>2026-04-11T15:56:00.654Z</time></trkpt><trkpt lat="44.4065395" lon="11.0869688"><ele>223.0</ele><time>2026-04-11T15:56:01.654Z</time></trkpt><trkpt lat="44.4064264" lon="11.0868032"><ele>223.0</ele><time>2026-04-11T15:56:02.654Z</time></trkpt><trkpt lat="44.4063149" lon="11.086639"><ele>224.0</ele><time>2026-04-11T15:56:03.654Z</time></trkpt><trkpt lat="44.4062059" lon="11.086468"><ele>225.0</ele><time>2026-04-11T15:56:04.653Z</time></trkpt><trkpt lat="44.4061014" lon="11.0862924"><ele>226.0</ele><time>2026-04-11T15:56:05.653Z</time></trkpt><trkpt lat="44.4059994" lon="11.0861168"><ele>226.0</ele><time>2026-04-11T15:56:06.654Z</time></trkpt><trkpt lat="44.4058981" lon="11.0859421"><ele>226.0</ele><time>2026-04-11T15:56:07.654Z</time></trkpt><trkpt lat="44.4057963" lon="11.085767"><ele>226.0</ele><time>2026-04-11T15:56:08.653Z</time></trkpt><trkpt lat="44.4056972" lon="11.0855878"><ele>226.66666666666666</ele><time>2026-04-11T15:56:09.654Z</time></trkpt><trkpt lat="44.4055969" lon="11.0854104"><ele>227.33333333333331</ele><time>2026-04-11T15:56:10.653Z</time></trkpt><trkpt lat="44.4054983" lon="11.085233"><ele>228.0</ele><time>2026-04-11T15:56:11.653Z</time></trkpt><trkpt lat="44.4053984" lon="11.085056"><ele>229.33333333333331</ele><time>2026-04-11T15:56:12.654Z</time></trkpt><trkpt lat="44.4052999" lon="11.0848804"><ele>230.66666666666666</ele><time>2026-04-11T15:56:13.654Z</time></trkpt><trkpt lat="44.405202" lon="11.0847031"><ele>232.0</ele><time>2026-04-11T15:56:14.654Z</time></trkpt><trkpt lat="44.4051008" lon="11.0845249"><ele>232.0</ele><time>2026-04-11T15:56:15.654Z</time></trkpt><trkpt lat="44.404999" lon="11.0843449"><ele>232.0</ele><time>2026-04-11T15:56:16.653Z</time></trkpt><trkpt lat="44.4048986" lon="11.0841613"><ele>232.0</ele><time>2026-04-11T15:56:17.654Z</time></trkpt><trkpt lat="44.4047972" lon="11.0839843"><ele>232.0</ele><time>2026-04-11T15:56:18.653Z</time></trkpt><trkpt lat="44.4046958" lon="11.0838073"><ele>232.0</ele><time>2026-04-11T15:56:19.654Z</time></trkpt><trkpt lat="44.4045942" lon="11.0836266"><ele>232.0</ele><time>2026-04-11T15:56:20.654Z</time></trkpt><trkpt lat="44.4044915" lon="11.083444"><ele>232.0</ele><time>2026-04-11T15:56:21.654Z</time></trkpt><trkpt lat="44.4043886" lon="11.0832642"><ele>232.0</ele><time>2026-04-11T15:56:22.654Z</time></trkpt><trkpt lat="44.4042791" lon="11.0830889"><ele>232.0</ele><time>2026-04-11T15:56:23.654Z</time></trkpt><trkpt lat="44.4041642" lon="11.0829235"><ele>232.66666666666666</ele><time>2026-04-11T15:56:24.654Z</time></trkpt><trkpt lat="44.4040404" lon="11.0827725"><ele>233.33333333333331</ele><time>2026-04-11T15:56:25.654Z</time></trkpt><trkpt lat="44.403909" lon="11.0826359"><ele>234.0</ele><time>2026-04-11T15:56:26.654Z</time></trkpt><trkpt lat="44.403774" lon="11.0825066"><ele>235.33333333333331</ele><time>2026-04-11T15:56:27.654Z</time></trkpt><trkpt lat="44.4036387" lon="11.0823807"><ele>236.66666666666666</ele><time>2026-04-11T15:56:28.654Z</time></trkpt><trkpt lat="44.4035102" lon="11.0822557"><ele>238.0</ele><time>2026-04-11T15:56:29.654Z</time></trkpt><trkpt lat="44.4033815" lon="11.0821364"><ele>238.0</ele><time>2026-04-11T15:56:30.654Z</time></trkpt><trkpt lat="44.403258" lon="11.0820167"><ele>238.0</ele><time>2026-04-11T15:56:31.654Z</time></trkpt><trkpt lat="44.4031413" lon="11.0818977"><ele>238.0</ele><time>2026-04-11T15:56:32.654Z</time></trkpt><trkpt lat="44.4030232" lon="11.0817881"><ele>238.0</ele><time>2026-04-11T15:56:33.654Z</time></trkpt><trkpt lat="44.4029076" lon="11.0816762"><ele>239.5</ele><time>2026-04-11T15:56:34.653Z</time></trkpt><trkpt lat="44.4027897" lon="11.0815645"><ele>241.0</ele><time>2026-04-11T15:56:35.653Z</time></trkpt><trkpt lat="44.4026656" lon="11.0814535"><ele>242.5</ele><time>2026-04-11T15:56:36.654Z</time></trkpt><trkpt lat="44.4025394" lon="11.0813403"><ele>244.0</ele><time>2026-04-11T15:56:37.654Z</time></trkpt><trkpt lat="44.4024157" lon="11.0812285"><ele>244.0</ele><time>2026-04-11T15:56:38.654Z</time></trkpt><trkpt lat="44.4022976" lon="11.0811148"><ele>244.0</ele><time>2026-04-11T15:56:39.654Z</time></trkpt><trkpt lat="44.4021782" lon="11.0810017"><ele>244.0</ele><time>2026-04-11T15:56:40.654Z</time></trkpt><trkpt lat="44.4020551" lon="11.08089"><ele>244.0</ele><time>2026-04-11T15:56:41.654Z</time></trkpt><trkpt lat="44.4019314" lon="11.0807746"><ele>243.33333333333331</ele><time>2026-04-11T15:56:42.654Z</time></trkpt><trkpt lat="44.4018066" lon="11.0806601"><ele>242.66666666666669</ele><time>2026-04-11T15:56:43.654Z</time></trkpt><trkpt lat="44.4016815" lon="11.0805406"><ele>242.0</ele><time>2026-04-11T15:56:44.654Z</time></trkpt><trkpt lat="44.4015537" lon="11.0804224"><ele>242.0</ele><time>2026-04-11T15:56:45.654Z</time></trkpt><trkpt lat="44.4014262" lon="11.0803027"><ele>242.0</ele><time>2026-04-11T15:56:46.654Z</time></trkpt><trkpt lat="44.4013011" lon="11.0801832"><ele>242.0</ele><time>2026-04-11T15:56:47.654Z</time></trkpt><trkpt lat="44.4011772" lon="11.0800595"><ele>244.0</ele><time>2026-04-11T15:56:48.654Z</time></trkpt><trkpt lat="44.4010532" lon="11.0799329"><ele>246.0</ele><time>2026-04-11T15:56:49.653Z</time></trkpt><trkpt lat="44.4009305" lon="11.0797977"><ele>248.0</ele><time>2026-04-11T15:56:50.654Z</time></trkpt><trkpt lat="44.400814" lon="11.0796499"><ele>248.0</ele><time>2026-04-11T15:56:51.654Z</time></trkpt><trkpt lat="44.4007079" lon="11.0794973"><ele>248.0</ele><time>2026-04-11T15:56:52.654Z</time></trkpt><trkpt lat="44.4006076" lon="11.0793407"><ele>248.0</ele><time>2026-04-11T15:56:53.654Z</time></trkpt><trkpt lat="44.4005093" lon="11.0791818"><ele>247.0</ele><time>2026-04-11T15:56:54.654Z</time></trkpt><trkpt lat="44.4004095" lon="11.079018"><ele>246.0</ele><time>2026-04-11T15:56:55.654Z</time></trkpt><trkpt lat="44.4003095" lon="11.0788521"><ele>245.0</ele><time>2026-04-11T15:56:56.654Z</time></trkpt><trkpt lat="44.400207" lon="11.0786903"><ele>245.0</ele><time>2026-04-11T15:56:57.654Z</time></trkpt><trkpt lat="44.4001048" lon="11.0785355"><ele>245.0</ele><time>2026-04-11T15:56:58.654Z</time></trkpt><trkpt lat="44.3999931" lon="11.0783857"><ele>245.0</ele><time>2026-04-11T15:56:59.654Z</time></trkpt><trkpt lat="44.3999" lon="11.0782451"><ele>245.0</ele><time>2026-04-11T15:57:00.654Z</time></trkpt><trkpt lat="44.3998214" lon="11.0781102"><ele>245.0</ele><time>2026-04-11T15:57:01.653Z</time></trkpt><trkpt lat="44.3997468" lon="11.0779834"><ele>245.0</ele><time>2026-04-11T15:57:02.654Z</time></trkpt><trkpt lat="44.3996854" lon="11.0778634"><ele>245.0</ele><time>2026-04-11T15:57:03.653Z</time></trkpt><trkpt lat="44.3996229" lon="11.0777569"><ele>245.0</ele><time>2026-04-11T15:57:04.654Z</time></trkpt><trkpt lat="44.3995645" lon="11.0776607"><ele>245.0</ele><time>2026-04-11T15:57:05.653Z</time></trkpt><trkpt lat="44.3995115" lon="11.0775744"><ele>245.0</ele><time>2026-04-11T15:57:06.654Z</time></trkpt><trkpt lat="44.399463" lon="11.0775032"><ele>245.0</ele><time>2026-04-11T15:57:07.654Z</time></trkpt><trkpt lat="44.399405" lon="11.077406"><ele>245.0</ele><time>2026-04-11T15:57:09.653Z</time></trkpt><trkpt lat="44.3993823" lon="11.0773065"><ele>245.0</ele><time>2026-04-11T15:58:07.654Z</time></trkpt><trkpt lat="44.3993697" lon="11.0771318"><ele>245.0</ele><time>2026-04-11T15:58:09.654Z</time></trkpt><trkpt lat="44.3993741" lon="11.0769951"><ele>246.00000000000003</ele><time>2026-04-11T15:58:10.653Z</time></trkpt><trkpt lat="44.3993722" lon="11.0768684"><ele>247.0</ele><time>2026-04-11T15:58:11.653Z</time></trkpt><trkpt lat="44.3993692" lon="11.0767504"><ele>248.0</ele><time>2026-04-11T15:58:12.654Z</time></trkpt><trkpt lat="44.3993591" lon="11.0766412"><ele>249.0</ele><time>2026-04-11T15:58:13.654Z</time></trkpt><trkpt lat="44.3993493" lon="11.07655"><ele>250.00000000000003</ele><time>2026-04-11T15:58:14.654Z</time></trkpt><trkpt lat="44.3993403" lon="11.0764432"><ele>251.0</ele><time>2026-04-11T15:58:16.654Z</time></trkpt><trkpt lat="44.3992965" lon="11.0763619"><ele>251.00000000000003</ele><time>2026-04-11T16:07:59.654Z</time></trkpt><trkpt lat="44.3993131" lon="11.0764483"><ele>251.0</ele><time>2026-04-11T16:08:03.654Z</time></trkpt><trkpt lat="44.399346" lon="11.0765913"><ele>251.0</ele><time>2026-04-11T16:08:05.654Z</time></trkpt><trkpt lat="44.3993546" lon="11.0767369"><ele>251.0</ele><time>2026-04-11T16:08:07.654Z</time></trkpt><trkpt lat="44.3993534" lon="11.0768623"><ele>251.00000000000003</ele><time>2026-04-11T16:08:09.653Z</time></trkpt><trkpt lat="44.3993566" lon="11.0769741"><ele>251.0</ele><time>2026-04-11T16:08:11.654Z</time></trkpt><trkpt lat="44.3993561" lon="11.077083"><ele>251.00000000000003</ele><time>2026-04-11T16:08:13.654Z</time></trkpt><trkpt lat="44.3993633" lon="11.077224"><ele>251.0</ele><time>2026-04-11T16:08:16.653Z</time></trkpt><trkpt lat="44.3993834" lon="11.0773376"><ele>251.0</ele><time>2026-04-11T16:08:18.654Z</time></trkpt><trkpt lat="44.399338" lon="11.0774167"><ele>251.0</ele><time>2026-04-11T16:08:20.654Z</time></trkpt><trkpt lat="44.3992282" lon="11.0773978"><ele>251.00000000000003</ele><time>2026-04-11T16:08:22.654Z</time></trkpt><trkpt lat="44.3991517" lon="11.0773645"><ele>251.0</ele><time>2026-04-11T16:08:23.654Z</time></trkpt><trkpt lat="44.3990718" lon="11.0773214"><ele>251.0</ele><time>2026-04-11T16:08:24.654Z</time></trkpt><trkpt lat="44.3989711" lon="11.0772745"><ele>251.0</ele><time>2026-04-11T16:08:25.653Z</time></trkpt><trkpt lat="44.3988667" lon="11.0772276"><ele>251.0</ele><time>2026-04-11T16:08:26.654Z</time></trkpt><trkpt lat="44.3987543" lon="11.0771759"><ele>251.0</ele><time>2026-04-11T16:08:27.654Z</time></trkpt><trkpt lat="44.3986304" lon="11.077116"><ele>251.75</ele><time>2026-04-11T16:08:28.654Z</time></trkpt><trkpt lat="44.3985017" lon="11.0770518"><ele>252.5</ele><time>2026-04-11T16:08:29.654Z</time></trkpt><trkpt lat="44.3983807" lon="11.0769882"><ele>253.25</ele><time>2026-04-11T16:08:30.654Z</time></trkpt><trkpt lat="44.3982643" lon="11.0769288"><ele>254.0</ele><time>2026-04-11T16:08:31.654Z</time></trkpt><trkpt lat="44.3981537" lon="11.0768757"><ele>254.0</ele><time>2026-04-11T16:08:32.653Z</time></trkpt><trkpt lat="44.3980484" lon="11.0768232"><ele>253.99999999999997</ele><time>2026-04-11T16:08:33.654Z</time></trkpt><trkpt lat="44.3979451" lon="11.0767723"><ele>253.99999999999997</ele><time>2026-04-11T16:08:34.654Z</time></trkpt><trkpt lat="44.3978434" lon="11.0767191"><ele>254.0</ele><time>2026-04-11T16:08:35.654Z</time></trkpt><trkpt lat="44.3977484" lon="11.0766642"><ele>254.0</ele><time>2026-04-11T16:08:36.654Z</time></trkpt><trkpt lat="44.3976419" lon="11.0766017"><ele>255.25</ele><time>2026-04-11T16:08:37.654Z</time></trkpt><trkpt lat="44.3975476" lon="11.0765324"><ele>256.5</ele><time>2026-04-11T16:08:38.654Z</time></trkpt><trkpt lat="44.39745" lon="11.0764478"><ele>257.75</ele><time>2026-04-11T16:08:39.653Z</time></trkpt><trkpt lat="44.3973586" lon="11.0763426"><ele>259.0</ele><time>2026-04-11T16:08:40.654Z</time></trkpt><trkpt lat="44.3972737" lon="11.0762103"><ele>259.0</ele><time>2026-04-11T16:08:41.654Z</time></trkpt><trkpt lat="44.3972" lon="11.0760547"><ele>259.0</ele><time>2026-04-11T16:08:42.654Z</time></trkpt><trkpt lat="44.3971385" lon="11.075896"><ele>259.0</ele><time>2026-04-11T16:08:43.653Z</time></trkpt><trkpt lat="44.397074" lon="11.0757176"><ele>259.0</ele><time>2026-04-11T16:08:44.654Z</time></trkpt><trkpt lat="44.3969951" lon="11.0755415"><ele>258.59999999999997</ele><time>2026-04-11T16:08:45.654Z</time></trkpt><trkpt lat="44.3969118" lon="11.0754006"><ele>258.2</ele><time>2026-04-11T16:08:46.654Z</time></trkpt><trkpt lat="44.3968383" lon="11.0752928"><ele>257.79999999999995</ele><time>2026-04-11T16:08:47.654Z</time></trkpt><trkpt lat="44.3967718" lon="11.0752185"><ele>257.4</ele><time>2026-04-11T16:08:48.654Z</time></trkpt><trkpt lat="44.3967114" lon="11.0751807"><ele>257.0</ele><time>2026-04-11T16:08:49.654Z</time></trkpt><trkpt lat="44.3966083" lon="11.0752316"><ele>257.0</ele><time>2026-04-11T16:08:51.654Z</time></trkpt><trkpt lat="44.3965248" lon="11.0753682"><ele>257.0</ele><time>2026-04-11T16:08:53.654Z</time></trkpt><trkpt lat="44.3964817" lon="11.0754332"><ele>257.0</ele><time>2026-04-11T16:08:54.654Z</time></trkpt><trkpt lat="44.3964103" lon="11.0755034"><ele>257.0</ele><time>2026-04-11T16:08:56.653Z</time></trkpt><trkpt lat="44.3963441" lon="11.0755911"><ele>257.0</ele><time>2026-04-11T16:08:58.654Z</time></trkpt><trkpt lat="44.3963021" lon="11.075659"><ele>257.0</ele><time>2026-04-11T16:08:59.653Z</time></trkpt><trkpt lat="44.3962393" lon="11.0757409"><ele>255.33333333333334</ele><time>2026-04-11T16:09:00.654Z</time></trkpt><trkpt lat="44.3961728" lon="11.0758301"><ele>253.66666666666669</ele><time>2026-04-11T16:09:01.653Z</time></trkpt><trkpt lat="44.3961083" lon="11.07591"><ele>252.0</ele><time>2026-04-11T16:09:02.654Z</time></trkpt><trkpt lat="44.3960487" lon="11.0759816"><ele>250.33333333333331</ele><time>2026-04-11T16:09:03.654Z</time></trkpt><trkpt lat="44.3959891" lon="11.0760559"><ele>248.66666666666666</ele><time>2026-04-11T16:09:04.654Z</time></trkpt><trkpt lat="44.3959326" lon="11.0761276"><ele>247.0</ele><time>2026-04-11T16:09:05.654Z</time></trkpt><trkpt lat="44.3958725" lon="11.0761972"><ele>246.99999999999997</ele><time>2026-04-11T16:09:06.654Z</time></trkpt><trkpt lat="44.3957984" lon="11.0762575"><ele>247.0</ele><time>2026-04-11T16:09:07.654Z</time></trkpt><trkpt lat="44.3957085" lon="11.0763054"><ele>247.0</ele><time>2026-04-11T16:09:08.654Z</time></trkpt><trkpt lat="44.3956213" lon="11.0763392"><ele>247.0</ele><time>2026-04-11T16:09:09.653Z</time></trkpt><trkpt lat="44.3955396" lon="11.0763484"><ele>246.99999999999997</ele><time>2026-04-11T16:09:10.653Z</time></trkpt><trkpt lat="44.3954641" lon="11.0763504"><ele>247.0</ele><time>2026-04-11T16:09:11.654Z</time></trkpt><trkpt lat="44.3953881" lon="11.0763398"><ele>247.0</ele><time>2026-04-11T16:09:13.653Z</time></trkpt><trkpt lat="44.3953052" lon="11.0763432"><ele>247.0</ele><time>2026-04-11T16:09:29.654Z</time></trkpt><trkpt lat="44.3954165" lon="11.0763752"><ele>247.0</ele><time>2026-04-11T16:09:36.654Z</time></trkpt><trkpt lat="44.3954876" lon="11.0764008"><ele>247.0</ele><time>2026-04-11T16:09:37.654Z</time></trkpt><trkpt lat="44.3955734" lon="11.0764062"><ele>247.0</ele><time>2026-04-11T16:09:38.654Z</time></trkpt><trkpt lat="44.3956671" lon="11.076387"><ele>247.0</ele><time>2026-04-11T16:09:39.653Z</time></trkpt><trkpt lat="44.3957605" lon="11.0763413"><ele>247.0</ele><time>2026-04-11T16:09:40.654Z</time></trkpt><trkpt lat="44.395849" lon="11.0762721"><ele>247.0</ele><time>2026-04-11T16:09:41.653Z</time></trkpt><trkpt lat="44.3959343" lon="11.0761794"><ele>247.0</ele><time>2026-04-11T16:09:42.654Z</time></trkpt><trkpt lat="44.3960175" lon="11.0760727"><ele>247.0</ele><time>2026-04-11T16:09:43.653Z</time></trkpt><trkpt lat="44.3960959" lon="11.0759711"><ele>246.99999999999997</ele><time>2026-04-11T16:09:44.654Z</time></trkpt><trkpt lat="44.3961688" lon="11.0758802"><ele>247.0</ele><time>2026-04-11T16:09:45.654Z</time></trkpt><trkpt lat="44.3962373" lon="11.0757948"><ele>247.0</ele><time>2026-04-11T16:09:46.653Z</time></trkpt><trkpt lat="44.3963053" lon="11.0757164"><ele>247.0</ele><time>2026-04-11T16:09:47.654Z</time></trkpt><trkpt lat="44.3963687" lon="11.0756424"><ele>246.99999999999997</ele><time>2026-04-11T16:09:48.653Z</time></trkpt><trkpt lat="44.3964272" lon="11.0755677"><ele>247.0</ele><time>2026-04-11T16:09:49.654Z</time></trkpt><trkpt lat="44.3964838" lon="11.0754963"><ele>248.66666666666666</ele><time>2026-04-11T16:09:50.653Z</time></trkpt><trkpt lat="44.396539" lon="11.0754323"><ele>250.33333333333331</ele><time>2026-04-11T16:09:51.653Z</time></trkpt><trkpt lat="44.3966339" lon="11.075336"><ele>252.0</ele><time>2026-04-11T16:09:53.653Z</time></trkpt><trkpt lat="44.396699" lon="11.0752575"><ele>253.66666666666669</ele><time>2026-04-11T16:09:55.654Z</time></trkpt><trkpt lat="44.3966678" lon="11.0751296"><ele>255.33333333333334</ele><time>2026-04-11T16:09:57.654Z</time></trkpt><trkpt lat="44.3966213" lon="11.0750623"><ele>257.0</ele><time>2026-04-11T16:09:58.654Z</time></trkpt><trkpt lat="44.3965329" lon="11.074969"><ele>257.0</ele><time>2026-04-11T16:09:59.654Z</time></trkpt><trkpt lat="44.3964173" lon="11.0748445"><ele>257.0</ele><time>2026-04-11T16:10:00.654Z</time></trkpt><trkpt lat="44.3962914" lon="11.0747066"><ele>257.0</ele><time>2026-04-11T16:10:01.653Z</time></trkpt><trkpt lat="44.396158" lon="11.0745775"><ele>257.0</ele><time>2026-04-11T16:10:02.654Z</time></trkpt><trkpt lat="44.3960258" lon="11.0744716"><ele>257.0</ele><time>2026-04-11T16:10:03.654Z</time></trkpt><trkpt lat="44.3958878" lon="11.0743978"><ele>257.0</ele><time>2026-04-11T16:10:04.654Z</time></trkpt><trkpt lat="44.3957282" lon="11.0743552"><ele>257.0</ele><time>2026-04-11T16:10:05.653Z</time></trkpt><trkpt lat="44.3955491" lon="11.0742949"><ele>257.0</ele><time>2026-04-11T16:10:06.654Z</time></trkpt><trkpt lat="44.3953684" lon="11.0741968"><ele>257.0</ele><time>2026-04-11T16:10:07.654Z</time></trkpt><trkpt lat="44.3951949" lon="11.0740743"><ele>256.0</ele><time>2026-04-11T16:10:08.654Z</time></trkpt><trkpt lat="44.3950311" lon="11.0739538"><ele>255.0</ele><time>2026-04-11T16:10:09.654Z</time></trkpt><trkpt lat="44.3948794" lon="11.0738428"><ele>254.0</ele><time>2026-04-11T16:10:10.654Z</time></trkpt><trkpt lat="44.3947329" lon="11.0737376"><ele>252.66666666666669</ele><time>2026-04-11T16:10:11.654Z</time></trkpt><trkpt lat="44.3945837" lon="11.0736316"><ele>251.33333333333331</ele><time>2026-04-11T16:10:12.654Z</time></trkpt><trkpt lat="44.3944441" lon="11.0735285"><ele>250.0</ele><time>2026-04-11T16:10:13.654Z</time></trkpt><trkpt lat="44.3943081" lon="11.073425"><ele>250.0</ele><time>2026-04-11T16:10:14.654Z</time></trkpt><trkpt lat="44.3941753" lon="11.0733248"><ele>250.0</ele><time>2026-04-11T16:10:15.654Z</time></trkpt><trkpt lat="44.394038" lon="11.0732253"><ele>250.0</ele><time>2026-04-11T16:10:16.654Z</time></trkpt><trkpt lat="44.3939019" lon="11.073122"><ele>251.75</ele><time>2026-04-11T16:10:17.653Z</time></trkpt><trkpt lat="44.39377" lon="11.073019"><ele>253.5</ele><time>2026-04-11T16:10:18.654Z</time></trkpt><trkpt lat="44.3936389" lon="11.0729187"><ele>255.25</ele><time>2026-04-11T16:10:19.654Z</time></trkpt><trkpt lat="44.3935107" lon="11.0728205"><ele>257.0</ele><time>2026-04-11T16:10:20.654Z</time></trkpt><trkpt lat="44.3933845" lon="11.072727"><ele>257.0</ele><time>2026-04-11T16:10:21.654Z</time></trkpt><trkpt lat="44.3932557" lon="11.0726287"><ele>257.0</ele><time>2026-04-11T16:10:22.653Z</time></trkpt><trkpt lat="44.3931275" lon="11.0725272"><ele>257.0</ele><time>2026-04-11T16:10:23.654Z</time></trkpt><trkpt lat="44.3929975" lon="11.0724307"><ele>257.0</ele><time>2026-04-11T16:10:24.654Z</time></trkpt><trkpt lat="44.3928682" lon="11.0723477"><ele>257.5</ele><time>2026-04-11T16:10:25.654Z</time></trkpt><trkpt lat="44.392737" lon="11.0722867"><ele>258.0</ele><time>2026-04-11T16:10:26.654Z</time></trkpt><trkpt lat="44.3926113" lon="11.0722317"><ele>258.5</ele><time>2026-04-11T16:10:27.654Z</time></trkpt><trkpt lat="44.3924842" lon="11.0721782"><ele>259.0</ele><time>2026-04-11T16:10:28.653Z</time></trkpt><trkpt lat="44.3923602" lon="11.0721352"><ele>259.0</ele><time>2026-04-11T16:10:29.653Z</time></trkpt><trkpt lat="44.3922303" lon="11.072094"><ele>259.0</ele><time>2026-04-11T16:10:30.654Z</time></trkpt><trkpt lat="44.392109" lon="11.0720556"><ele>259.0</ele><time>2026-04-11T16:10:31.654Z</time></trkpt><trkpt lat="44.391983" lon="11.0720145"><ele>259.0</ele><time>2026-04-11T16:10:32.654Z</time></trkpt><trkpt lat="44.3918564" lon="11.0719735"><ele>258.5</ele><time>2026-04-11T16:10:33.654Z</time></trkpt><trkpt lat="44.3917368" lon="11.07193"><ele>258.0</ele><time>2026-04-11T16:10:34.654Z</time></trkpt><trkpt lat="44.3916306" lon="11.0718916"><ele>257.5</ele><time>2026-04-11T16:10:35.654Z</time></trkpt><trkpt lat="44.3915203" lon="11.0718541"><ele>257.0</ele><time>2026-04-11T16:10:36.654Z</time></trkpt><trkpt lat="44.3914156" lon="11.0718221"><ele>257.2</ele><time>2026-04-11T16:10:37.654Z</time></trkpt><trkpt lat="44.391315" lon="11.0717907"><ele>257.4</ele><time>2026-04-11T16:10:38.654Z</time></trkpt><trkpt lat="44.3912125" lon="11.0717586"><ele>257.6</ele><time>2026-04-11T16:10:39.654Z</time></trkpt><trkpt lat="44.3911193" lon="11.0717262"><ele>257.8</ele><time>2026-04-11T16:10:40.654Z</time></trkpt><trkpt lat="44.3910198" lon="11.0716981"><ele>258.0</ele><time>2026-04-11T16:10:41.654Z</time></trkpt><trkpt lat="44.3909228" lon="11.0716668"><ele>258.0</ele><time>2026-04-11T16:10:42.653Z</time></trkpt><trkpt lat="44.3908259" lon="11.0716345"><ele>258.0</ele><time>2026-04-11T16:10:43.654Z</time></trkpt><trkpt lat="44.3907242" lon="11.0716019"><ele>258.0</ele><time>2026-04-11T16:10:44.653Z</time></trkpt><trkpt lat="44.3906153" lon="11.0715745"><ele>258.0</ele><time>2026-04-11T16:10:45.654Z</time></trkpt><trkpt lat="44.3905015" lon="11.0715461"><ele>258.0</ele><time>2026-04-11T16:10:46.653Z</time></trkpt><trkpt lat="44.3903868" lon="11.0715183"><ele>259.0</ele><time>2026-04-11T16:10:47.654Z</time></trkpt><trkpt lat="44.3902631" lon="11.0714872"><ele>260.0</ele><time>2026-04-11T16:10:48.654Z</time></trkpt><trkpt lat="44.3901397" lon="11.0714556"><ele>261.0</ele><time>2026-04-11T16:10:49.654Z</time></trkpt><trkpt lat="44.3900115" lon="11.0714212"><ele>262.0</ele><time>2026-04-11T16:10:50.654Z</time></trkpt><trkpt lat="44.389885" lon="11.0713881"><ele>262.0</ele><time>2026-04-11T16:10:51.654Z</time></trkpt><trkpt lat="44.3897654" lon="11.0713566"><ele>262.0</ele><time>2026-04-11T16:10:52.654Z</time></trkpt><trkpt lat="44.3896548" lon="11.0713268"><ele>262.0</ele><time>2026-04-11T16:10:53.654Z</time></trkpt><trkpt lat="44.389542" lon="11.0712945"><ele>262.0</ele><time>2026-04-11T16:10:54.653Z</time></trkpt><trkpt lat="44.3894315" lon="11.0712608"><ele>262.4</ele><time>2026-04-11T16:10:55.654Z</time></trkpt><trkpt lat="44.3893294" lon="11.0712319"><ele>262.79999999999995</ele><time>2026-04-11T16:10:56.654Z</time></trkpt><trkpt lat="44.3892302" lon="11.0712069"><ele>263.2</ele><time>2026-04-11T16:10:57.654Z</time></trkpt><trkpt lat="44.3891393" lon="11.0712"><ele>263.59999999999997</ele><time>2026-04-11T16:10:58.654Z</time></trkpt><trkpt lat="44.3890607" lon="11.0712271"><ele>264.0</ele><time>2026-04-11T16:10:59.653Z</time></trkpt><trkpt lat="44.3889924" lon="11.0713033"><ele>264.0</ele><time>2026-04-11T16:11:00.654Z</time></trkpt><trkpt lat="44.3889465" lon="11.0714057"><ele>264.0</ele><time>2026-04-11T16:11:01.654Z</time></trkpt><trkpt lat="44.3889328" lon="11.0715326"><ele>264.0</ele><time>2026-04-11T16:11:02.653Z</time></trkpt><trkpt lat="44.3889312" lon="11.071685"><ele>264.0</ele><time>2026-04-11T16:11:03.653Z</time></trkpt><trkpt lat="44.3889379" lon="11.0718429"><ele>264.0</ele><time>2026-04-11T16:11:04.654Z</time></trkpt><trkpt lat="44.3889473" lon="11.0719811"><ele>263.6666666666667</ele><time>2026-04-11T16:11:05.654Z</time></trkpt><trkpt lat="44.3889595" lon="11.0721032"><ele>263.3333333333333</ele><time>2026-04-11T16:11:06.654Z</time></trkpt><trkpt lat="44.3889677" lon="11.0722139"><ele>263.0</ele><time>2026-04-11T16:11:07.654Z</time></trkpt><trkpt lat="44.3889768" lon="11.0723143"><ele>262.66666666666663</ele><time>2026-04-11T16:11:08.653Z</time></trkpt><trkpt lat="44.3889876" lon="11.0724042"><ele>262.3333333333333</ele><time>2026-04-11T16:11:09.654Z</time></trkpt><trkpt lat="44.3889881" lon="11.0725717"><ele>262.0</ele><time>2026-04-11T16:11:11.654Z</time></trkpt><trkpt lat="44.3889465" lon="11.0727304"><ele>262.0</ele><time>2026-04-11T16:11:13.654Z</time></trkpt><trkpt lat="44.3889113" lon="11.072812"><ele>262.0</ele><time>2026-04-11T16:11:14.654Z</time></trkpt><trkpt lat="44.3888433" lon="11.0729073"><ele>262.0</ele><time>2026-04-11T16:11:15.654Z</time></trkpt><trkpt lat="44.3887585" lon="11.0729927"><ele>262.0</ele><time>2026-04-11T16:11:16.654Z</time></trkpt><trkpt lat="44.3886664" lon="11.0730587"><ele>262.0</ele><time>2026-04-11T16:11:17.654Z</time></trkpt><trkpt lat="44.3885596" lon="11.0731227"><ele>262.25</ele><time>2026-04-11T16:11:18.654Z</time></trkpt><trkpt lat="44.3884459" lon="11.0731735"><ele>262.5</ele><time>2026-04-11T16:11:19.654Z</time></trkpt><trkpt lat="44.3883205" lon="11.0732065"><ele>262.75</ele><time>2026-04-11T16:11:20.654Z</time></trkpt><trkpt lat="44.3882005" lon="11.073229"><ele>263.0</ele><time>2026-04-11T16:11:21.654Z</time></trkpt><trkpt lat="44.3880849" lon="11.0732396"><ele>263.2</ele><time>2026-04-11T16:11:22.653Z</time></trkpt><trkpt lat="44.3879696" lon="11.0732448"><ele>263.4</ele><time>2026-04-11T16:11:23.654Z</time></trkpt><trkpt lat="44.3878601" lon="11.0732586"><ele>263.59999999999997</ele><time>2026-04-11T16:11:24.654Z</time></trkpt><trkpt lat="44.3877564" lon="11.0732722"><ele>263.8</ele><time>2026-04-11T16:11:25.654Z</time></trkpt><trkpt lat="44.387659" lon="11.0732818"><ele>264.0</ele><time>2026-04-11T16:11:26.654Z</time></trkpt><trkpt lat="44.3875524" lon="11.073292"><ele>264.4</ele><time>2026-04-11T16:11:27.654Z</time></trkpt><trkpt lat="44.3874524" lon="11.073306"><ele>264.79999999999995</ele><time>2026-04-11T16:11:28.653Z</time></trkpt><trkpt lat="44.3873496" lon="11.0733179"><ele>265.20000000000005</ele><time>2026-04-11T16:11:29.654Z</time></trkpt><trkpt lat="44.3872446" lon="11.0733339"><ele>265.6</ele><time>2026-04-11T16:11:30.654Z</time></trkpt><trkpt lat="44.3871348" lon="11.0733501"><ele>266.0</ele><time>2026-04-11T16:11:31.654Z</time></trkpt><trkpt lat="44.3870053" lon="11.0733697"><ele>266.25</ele><time>2026-04-11T16:11:32.654Z</time></trkpt><trkpt lat="44.3868599" lon="11.0733878"><ele>266.5</ele><time>2026-04-11T16:11:33.654Z</time></trkpt><trkpt lat="44.3867242" lon="11.0734033"><ele>266.75</ele><time>2026-04-11T16:11:34.654Z</time></trkpt><trkpt lat="44.3866003" lon="11.0734212"><ele>267.0</ele><time>2026-04-11T16:11:35.653Z</time></trkpt><trkpt lat="44.3864883" lon="11.0734349"><ele>267.0</ele><time>2026-04-11T16:11:36.654Z</time></trkpt><trkpt lat="44.3863806" lon="11.0734432"><ele>267.0</ele><time>2026-04-11T16:11:37.654Z</time></trkpt><trkpt lat="44.3862792" lon="11.0734564"><ele>267.0</ele><time>2026-04-11T16:11:38.654Z</time></trkpt><trkpt lat="44.386173" lon="11.0734691"><ele>267.0</ele><time>2026-04-11T16:11:39.653Z</time></trkpt><trkpt lat="44.3860672" lon="11.0734789"><ele>267.0</ele><time>2026-04-11T16:11:40.654Z</time></trkpt><trkpt lat="44.3859482" lon="11.0734866"><ele>267.25</ele><time>2026-04-11T16:11:41.654Z</time></trkpt><trkpt lat="44.385813" lon="11.0735032"><ele>267.5</ele><time>2026-04-11T16:11:42.654Z</time></trkpt><trkpt lat="44.3856654" lon="11.0735255"><ele>267.75</ele><time>2026-04-11T16:11:43.653Z</time></trkpt><trkpt lat="44.3855292" lon="11.0735395"><ele>268.0</ele><time>2026-04-11T16:11:44.654Z</time></trkpt><trkpt lat="44.3854016" lon="11.0735465"><ele>268.66666666666663</ele><time>2026-04-11T16:11:45.654Z</time></trkpt><trkpt lat="44.3851561" lon="11.0735775"><ele>269.3333333333333</ele><time>2026-04-11T16:11:47.654Z</time></trkpt><trkpt lat="44.3850431" lon="11.0735885"><ele>270.0</ele><time>2026-04-11T16:11:48.654Z</time></trkpt><trkpt lat="44.3849424" lon="11.073601"><ele>270.0</ele><time>2026-04-11T16:11:49.654Z</time></trkpt><trkpt lat="44.3848454" lon="11.07361"><ele>270.0</ele><time>2026-04-11T16:11:50.653Z</time></trkpt><trkpt lat="44.3847473" lon="11.0736191"><ele>270.0</ele><time>2026-04-11T16:11:51.654Z</time></trkpt><trkpt lat="44.3846467" lon="11.0736293"><ele>270.0</ele><time>2026-04-11T16:11:52.654Z</time></trkpt><trkpt lat="44.3845455" lon="11.0736398"><ele>270.0</ele><time>2026-04-11T16:11:53.654Z</time></trkpt><trkpt lat="44.384448" lon="11.0736498"><ele>270.2</ele><time>2026-04-11T16:11:54.654Z</time></trkpt><trkpt lat="44.3843491" lon="11.0736561"><ele>270.4</ele><time>2026-04-11T16:11:55.654Z</time></trkpt><trkpt lat="44.3842505" lon="11.0736693"><ele>270.6</ele><time>2026-04-11T16:11:56.654Z</time></trkpt><trkpt lat="44.3841561" lon="11.0736776"><ele>270.8</ele><time>2026-04-11T16:11:57.654Z</time></trkpt><trkpt lat="44.3840462" lon="11.0736841"><ele>271.0</ele><time>2026-04-11T16:11:58.654Z</time></trkpt><trkpt lat="44.3839275" lon="11.0736873"><ele>271.6</ele><time>2026-04-11T16:11:59.654Z</time></trkpt><trkpt lat="44.3838037" lon="11.0736896"><ele>272.20000000000005</ele><time>2026-04-11T16:12:00.654Z</time></trkpt><trkpt lat="44.383694" lon="11.073681"><ele>272.79999999999995</ele><time>2026-04-11T16:12:01.654Z</time></trkpt><trkpt lat="44.3835844" lon="11.0736661"><ele>273.4</ele><time>2026-04-11T16:12:02.654Z</time></trkpt><trkpt lat="44.3834895" lon="11.0736512"><ele>274.0</ele><time>2026-04-11T16:12:03.654Z</time></trkpt><trkpt lat="44.383394" lon="11.0736372"><ele>274.0</ele><time>2026-04-11T16:12:04.653Z</time></trkpt><trkpt lat="44.383306" lon="11.073621"><ele>274.0</ele><time>2026-04-11T16:12:05.654Z</time></trkpt><trkpt lat="44.3832252" lon="11.0735997"><ele>274.0</ele><time>2026-04-11T16:12:06.654Z</time></trkpt><trkpt lat="44.3831573" lon="11.073579"><ele>274.0</ele><time>2026-04-11T16:12:07.654Z</time></trkpt><trkpt lat="44.3830894" lon="11.0735591"><ele>274.0</ele><time>2026-04-11T16:12:08.654Z</time></trkpt><trkpt lat="44.3830142" lon="11.0735335"><ele>274.0</ele><time>2026-04-11T16:12:09.654Z</time></trkpt><trkpt lat="44.3829227" lon="11.0735057"><ele>274.75</ele><time>2026-04-11T16:12:10.653Z</time></trkpt><trkpt lat="44.3828146" lon="11.0734641"><ele>275.5</ele><time>2026-04-11T16:12:11.654Z</time></trkpt><trkpt lat="44.3826954" lon="11.0734118"><ele>276.25</ele><time>2026-04-11T16:12:12.654Z</time></trkpt><trkpt lat="44.3825703" lon="11.0733463"><ele>277.0</ele><time>2026-04-11T16:12:13.654Z</time></trkpt><trkpt lat="44.3824442" lon="11.0732728"><ele>276.75</ele><time>2026-04-11T16:12:14.654Z</time></trkpt><trkpt lat="44.3823186" lon="11.0731935"><ele>276.5</ele><time>2026-04-11T16:12:15.654Z</time></trkpt><trkpt lat="44.3821886" lon="11.0731101"><ele>276.25</ele><time>2026-04-11T16:12:16.654Z</time></trkpt><trkpt lat="44.3820561" lon="11.0730219"><ele>276.0</ele><time>2026-04-11T16:12:17.654Z</time></trkpt><trkpt lat="44.3819201" lon="11.0729313"><ele>276.0</ele><time>2026-04-11T16:12:18.653Z</time></trkpt><trkpt lat="44.3817794" lon="11.0728412"><ele>276.0</ele><time>2026-04-11T16:12:19.654Z</time></trkpt><trkpt lat="44.3816289" lon="11.072743"><ele>276.0</ele><time>2026-04-11T16:12:20.653Z</time></trkpt><trkpt lat="44.3814663" lon="11.0726385"><ele>276.6666666666667</ele><time>2026-04-11T16:12:21.653Z</time></trkpt><trkpt lat="44.3812976" lon="11.0725272"><ele>277.33333333333337</ele><time>2026-04-11T16:12:22.654Z</time></trkpt><trkpt lat="44.3811273" lon="11.0724146"><ele>278.0</ele><time>2026-04-11T16:12:23.654Z</time></trkpt><trkpt lat="44.3809596" lon="11.0723057"><ele>278.0</ele><time>2026-04-11T16:12:24.654Z</time></trkpt><trkpt lat="44.3807982" lon="11.0722049"><ele>278.0</ele><time>2026-04-11T16:12:25.654Z</time></trkpt><trkpt lat="44.380641" lon="11.0720998"><ele>278.0</ele><time>2026-04-11T16:12:26.654Z</time></trkpt><trkpt lat="44.3804977" lon="11.0720045"><ele>279.6666666666667</ele><time>2026-04-11T16:12:27.654Z</time></trkpt><trkpt lat="44.380355" lon="11.0719087"><ele>281.3333333333333</ele><time>2026-04-11T16:12:28.653Z</time></trkpt><trkpt lat="44.3802165" lon="11.0718179"><ele>283.0</ele><time>2026-04-11T16:12:29.654Z</time></trkpt><trkpt lat="44.3800743" lon="11.0717284"><ele>283.0</ele><time>2026-04-11T16:12:30.654Z</time></trkpt><trkpt lat="44.3799307" lon="11.0716384"><ele>283.0</ele><time>2026-04-11T16:12:31.654Z</time></trkpt><trkpt lat="44.3797943" lon="11.0715483"><ele>283.0</ele><time>2026-04-11T16:12:32.654Z</time></trkpt><trkpt lat="44.3796665" lon="11.071459"><ele>282.75</ele><time>2026-04-11T16:12:33.654Z</time></trkpt><trkpt lat="44.37954" lon="11.071369"><ele>282.5</ele><time>2026-04-11T16:12:34.654Z</time></trkpt><trkpt lat="44.3794096" lon="11.0712713"><ele>282.25</ele><time>2026-04-11T16:12:35.654Z</time></trkpt><trkpt lat="44.3792968" lon="11.0711726"><ele>282.0</ele><time>2026-04-11T16:12:36.654Z</time></trkpt><trkpt lat="44.379183" lon="11.0710826"><ele>282.0</ele><time>2026-04-11T16:12:37.654Z</time></trkpt><trkpt lat="44.3790735" lon="11.0709908"><ele>282.0</ele><time>2026-04-11T16:12:38.653Z</time></trkpt><trkpt lat="44.3789632" lon="11.0708931"><ele>282.0</ele><time>2026-04-11T16:12:39.653Z</time></trkpt><trkpt lat="44.3788584" lon="11.0707901"><ele>282.0</ele><time>2026-04-11T16:12:40.653Z</time></trkpt><trkpt lat="44.3787506" lon="11.0706799"><ele>283.3333333333333</ele><time>2026-04-11T16:12:41.654Z</time></trkpt><trkpt lat="44.3786332" lon="11.070562"><ele>284.66666666666663</ele><time>2026-04-11T16:12:42.654Z</time></trkpt><trkpt lat="44.3785103" lon="11.0704401"><ele>286.0</ele><time>2026-04-11T16:12:43.654Z</time></trkpt><trkpt lat="44.3783818" lon="11.0703088"><ele>286.0</ele><time>2026-04-11T16:12:44.654Z</time></trkpt><trkpt lat="44.378237" lon="11.0701744"><ele>286.0</ele><time>2026-04-11T16:12:45.654Z</time></trkpt><trkpt lat="44.3781077" lon="11.0700503"><ele>286.0</ele><time>2026-04-11T16:12:46.654Z</time></trkpt><trkpt lat="44.3779927" lon="11.0699336"><ele>287.75</ele><time>2026-04-11T16:12:47.654Z</time></trkpt><trkpt lat="44.3778853" lon="11.069826"><ele>289.5</ele><time>2026-04-11T16:12:48.654Z</time></trkpt><trkpt lat="44.3777878" lon="11.0697256"><ele>291.25</ele><time>2026-04-11T16:12:49.654Z</time></trkpt><trkpt lat="44.3776989" lon="11.0696282"><ele>293.0</ele><time>2026-04-11T16:12:50.654Z</time></trkpt><trkpt lat="44.377608" lon="11.06954"><ele>293.0</ele><time>2026-04-11T16:12:51.653Z</time></trkpt><trkpt lat="44.377517" lon="11.0694352"><ele>293.0</ele><time>2026-04-11T16:12:52.654Z</time></trkpt><trkpt lat="44.3774199" lon="11.0693351"><ele>293.0</ele><time>2026-04-11T16:12:53.654Z</time></trkpt><trkpt lat="44.3773139" lon="11.0692259"><ele>293.0</ele><time>2026-04-11T16:12:54.654Z</time></trkpt><trkpt lat="44.3772073" lon="11.0691124"><ele>292.75</ele><time>2026-04-11T16:12:55.654Z</time></trkpt><trkpt lat="44.3770996" lon="11.069002"><ele>292.5</ele><time>2026-04-11T16:12:56.654Z</time></trkpt><trkpt lat="44.3769889" lon="11.0688882"><ele>292.25</ele><time>2026-04-11T16:12:57.653Z</time></trkpt><trkpt lat="44.3768787" lon="11.0687881"><ele>292.0</ele><time>2026-04-11T16:12:58.654Z</time></trkpt><trkpt lat="44.3767714" lon="11.0686782"><ele>292.0</ele><time>2026-04-11T16:12:59.654Z</time></trkpt><trkpt lat="44.3766697" lon="11.0685751"><ele>292.0</ele><time>2026-04-11T16:13:00.654Z</time></trkpt><trkpt lat="44.3765733" lon="11.0684764"><ele>292.0</ele><time>2026-04-11T16:13:01.653Z</time></trkpt><trkpt lat="44.3764838" lon="11.0683871"><ele>292.0</ele><time>2026-04-11T16:13:02.654Z</time></trkpt><trkpt lat="44.3763963" lon="11.0682998"><ele>293.0</ele><time>2026-04-11T16:13:03.654Z</time></trkpt><trkpt lat="44.376318" lon="11.0682196"><ele>294.0</ele><time>2026-04-11T16:13:04.654Z</time></trkpt><trkpt lat="44.3762513" lon="11.0681481"><ele>295.0</ele><time>2026-04-11T16:13:05.654Z</time></trkpt><trkpt lat="44.3761895" lon="11.0680794"><ele>296.0</ele><time>2026-04-11T16:13:06.654Z</time></trkpt><trkpt lat="44.3761392" lon="11.0680198"><ele>297.0</ele><time>2026-04-11T16:13:07.654Z</time></trkpt><trkpt lat="44.3760335" lon="11.0679237"><ele>297.0</ele><time>2026-04-11T16:13:09.654Z</time></trkpt><trkpt lat="44.37596" lon="11.0678427"><ele>297.0</ele><time>2026-04-11T16:13:11.654Z</time></trkpt><trkpt lat="44.3758824" lon="11.0677796"><ele>297.0</ele><time>2026-04-11T16:13:13.654Z</time></trkpt><trkpt lat="44.37578" lon="11.0676927"><ele>297.0</ele><time>2026-04-11T16:13:15.654Z</time></trkpt><trkpt lat="44.3756943" lon="11.0675794"><ele>297.0</ele><time>2026-04-11T16:13:17.654Z</time></trkpt><trkpt lat="44.3756285" lon="11.067488"><ele>297.3333333333333</ele><time>2026-04-11T16:13:19.654Z</time></trkpt><trkpt lat="44.3755805" lon="11.067425"><ele>297.6666666666667</ele><time>2026-04-11T16:13:21.653Z</time></trkpt><trkpt lat="44.3755165" lon="11.0673703"><ele>298.0</ele><time>2026-04-11T16:13:25.654Z</time></trkpt><trkpt lat="44.3754201" lon="11.0673289"><ele>298.33333333333337</ele><time>2026-04-11T16:13:28.654Z</time></trkpt><trkpt lat="44.375348" lon="11.0672877"><ele>298.6666666666667</ele><time>2026-04-11T16:13:30.654Z</time></trkpt><trkpt lat="44.3752626" lon="11.0672641"><ele>299.0</ele><time>2026-04-11T16:13:33.654Z</time></trkpt><trkpt lat="44.3751963" lon="11.0672545"><ele>299.0</ele><time>2026-04-11T16:13:36.654Z</time></trkpt><trkpt lat="44.375134" lon="11.0672679"><ele>299.0</ele><time>2026-04-11T16:13:38.654Z</time></trkpt><trkpt lat="44.3750534" lon="11.067274"><ele>299.0</ele><time>2026-04-11T16:13:40.654Z</time></trkpt><trkpt lat="44.3749493" lon="11.0672698"><ele>299.0</ele><time>2026-04-11T16:13:42.653Z</time></trkpt><trkpt lat="44.3748223" lon="11.067259"><ele>299.0</ele><time>2026-04-11T16:13:44.653Z</time></trkpt><trkpt lat="44.3746984" lon="11.0672503"><ele>298.57142857142856</ele><time>2026-04-11T16:13:46.654Z</time></trkpt><trkpt lat="44.3746344" lon="11.0672501"><ele>298.14285714285717</ele><time>2026-04-11T16:13:47.653Z</time></trkpt><trkpt lat="44.3745653" lon="11.0672476"><ele>297.7142857142857</ele><time>2026-04-11T16:13:48.654Z</time></trkpt><trkpt lat="44.3744991" lon="11.0672509"><ele>297.2857142857143</ele><time>2026-04-11T16:13:49.654Z</time></trkpt><trkpt lat="44.3744317" lon="11.0672523"><ele>296.85714285714283</ele><time>2026-04-11T16:13:50.654Z</time></trkpt><trkpt lat="44.3743639" lon="11.0672504"><ele>296.42857142857144</ele><time>2026-04-11T16:13:51.653Z</time></trkpt><trkpt lat="44.3742896" lon="11.0672464"><ele>296.0</ele><time>2026-04-11T16:13:52.654Z</time></trkpt><trkpt lat="44.3742221" lon="11.0672466"><ele>296.0</ele><time>2026-04-11T16:13:53.653Z</time></trkpt><trkpt lat="44.3741498" lon="11.0672474"><ele>296.0</ele><time>2026-04-11T16:13:54.654Z</time></trkpt><trkpt lat="44.3740834" lon="11.0672546"><ele>296.0</ele><time>2026-04-11T16:13:55.654Z</time></trkpt><trkpt lat="44.3740103" lon="11.067268"><ele>296.0</ele><time>2026-04-11T16:13:56.654Z</time></trkpt><trkpt lat="44.3739258" lon="11.0672735"><ele>296.0</ele><time>2026-04-11T16:13:57.654Z</time></trkpt><trkpt lat="44.3738408" lon="11.0672799"><ele>296.0</ele><time>2026-04-11T16:13:58.654Z</time></trkpt><trkpt lat="44.37376" lon="11.0672886"><ele>296.1666666666667</ele><time>2026-04-11T16:13:59.654Z</time></trkpt><trkpt lat="44.3736853" lon="11.0672958"><ele>296.33333333333337</ele><time>2026-04-11T16:14:00.653Z</time></trkpt><trkpt lat="44.3736085" lon="11.0672999"><ele>296.5</ele><time>2026-04-11T16:14:01.654Z</time></trkpt><trkpt lat="44.3735248" lon="11.0673007"><ele>296.6666666666667</ele><time>2026-04-11T16:14:02.654Z</time></trkpt><trkpt lat="44.3734361" lon="11.0673162"><ele>296.8333333333333</ele><time>2026-04-11T16:14:03.654Z</time></trkpt><trkpt lat="44.3733525" lon="11.0673562"><ele>297.0</ele><time>2026-04-11T16:14:04.654Z</time></trkpt><trkpt lat="44.3732771" lon="11.0674143"><ele>298.1666666666667</ele><time>2026-04-11T16:14:05.654Z</time></trkpt><trkpt lat="44.3732152" lon="11.0674622"><ele>299.3333333333333</ele><time>2026-04-11T16:14:06.654Z</time></trkpt><trkpt lat="44.3731303" lon="11.0675088"><ele>300.5</ele><time>2026-04-11T16:14:08.653Z</time></trkpt><trkpt lat="44.3730669" lon="11.0675525"><ele>301.66666666666663</ele><time>2026-04-11T16:14:19.654Z</time></trkpt><trkpt lat="44.3729881" lon="11.0675714"><ele>302.8333333333333</ele><time>2026-04-11T16:16:37.654Z</time></trkpt><trkpt lat="44.3728927" lon="11.0674767"><ele>304.0</ele><time>2026-04-11T16:16:40.654Z</time></trkpt><trkpt lat="44.3728148" lon="11.0673811"><ele>304.0</ele><time>2026-04-11T16:16:42.654Z</time></trkpt><trkpt lat="44.3727642" lon="11.0673216"><ele>304.0</ele><time>2026-04-11T16:16:43.654Z</time></trkpt><trkpt lat="44.3726925" lon="11.0672366"><ele>304.0</ele><time>2026-04-11T16:16:44.654Z</time></trkpt><trkpt lat="44.3726177" lon="11.0671561"><ele>304.0</ele><time>2026-04-11T16:16:45.654Z</time></trkpt><trkpt lat="44.3725373" lon="11.0670623"><ele>304.0</ele><time>2026-04-11T16:16:46.653Z</time></trkpt><trkpt lat="44.3724407" lon="11.0669732"><ele>304.0</ele><time>2026-04-11T16:16:47.654Z</time></trkpt><trkpt lat="44.3723708" lon="11.0668824"><ele>304.0</ele><time>2026-04-11T16:16:48.654Z</time></trkpt><trkpt lat="44.3722893" lon="11.0667795"><ele>304.0</ele><time>2026-04-11T16:16:49.654Z</time></trkpt><trkpt lat="44.3721875" lon="11.0666642"><ele>304.0</ele><time>2026-04-11T16:16:50.654Z</time></trkpt><trkpt lat="44.3720987" lon="11.0665503"><ele>308.25</ele><time>2026-04-11T16:16:51.654Z</time></trkpt><trkpt lat="44.3719685" lon="11.0664659"><ele>312.5</ele><time>2026-04-11T16:16:52.654Z</time></trkpt><trkpt lat="44.371854" lon="11.0664021"><ele>316.75</ele><time>2026-04-11T16:16:53.654Z</time></trkpt><trkpt lat="44.371732" lon="11.0663459"><ele>321.0</ele><time>2026-04-11T16:16:54.654Z</time></trkpt><trkpt lat="44.3716307" lon="11.0663054"><ele>321.0</ele><time>2026-04-11T16:16:55.653Z</time></trkpt><trkpt lat="44.3715271" lon="11.0662433"><ele>321.0</ele><time>2026-04-11T16:16:56.654Z</time></trkpt><trkpt lat="44.3714365" lon="11.0662272"><ele>321.0</ele><time>2026-04-11T16:16:57.653Z</time></trkpt><trkpt lat="44.3713779" lon="11.0661471"><ele>321.0</ele><time>2026-04-11T16:16:58.653Z</time></trkpt><trkpt lat="44.371304" lon="11.066155"><ele>321.0</ele><time>2026-04-11T16:16:59.654Z</time></trkpt><trkpt lat="44.3712298" lon="11.0661877"><ele>321.0</ele><time>2026-04-11T16:17:00.653Z</time></trkpt><trkpt lat="44.3711655" lon="11.0662256"><ele>326.0</ele><time>2026-04-11T16:17:01.654Z</time></trkpt><trkpt lat="44.3711031" lon="11.0662631"><ele>331.0</ele><time>2026-04-11T16:17:02.653Z</time></trkpt><trkpt lat="44.3710393" lon="11.0662735"><ele>336.0</ele><time>2026-04-11T16:17:03.654Z</time></trkpt><trkpt lat="44.370974" lon="11.0662127"><ele>341.0</ele><time>2026-04-11T16:17:04.654Z</time></trkpt><trkpt lat="44.3708141" lon="11.0661305"><ele>346.0</ele><time>2026-04-11T16:17:06.654Z</time></trkpt><trkpt lat="44.3707442" lon="11.066122"><ele>346.0</ele><time>2026-04-11T16:17:07.654Z</time></trkpt><trkpt lat="44.3706748" lon="11.0661332"><ele>346.0</ele><time>2026-04-11T16:17:08.653Z</time></trkpt><trkpt lat="44.3706002" lon="11.0661615"><ele>346.0</ele><time>2026-04-11T16:17:09.653Z</time></trkpt><trkpt lat="44.3705437" lon="11.0662234"><ele>346.0</ele><time>2026-04-11T16:17:10.653Z</time></trkpt><trkpt lat="44.3704973" lon="11.0662951"><ele>346.0</ele><time>2026-04-11T16:17:11.653Z</time></trkpt><trkpt lat="44.3704111" lon="11.0664518"><ele>346.0</ele><time>2026-04-11T16:17:13.654Z</time></trkpt><trkpt lat="44.3703747" lon="11.0665487"><ele>350.3333333333333</ele><time>2026-04-11T16:17:14.653Z</time></trkpt><trkpt lat="44.3703823" lon="11.0666821"><ele>354.66666666666663</ele><time>2026-04-11T16:17:16.654Z</time></trkpt><trkpt lat="44.3704682" lon="11.0666887"><ele>359.0</ele><time>2026-04-11T16:17:19.654Z</time></trkpt><trkpt lat="44.3705593" lon="11.0666947"><ele>363.3333333333333</ele><time>2026-04-11T16:17:21.654Z</time></trkpt><trkpt lat="44.3706164" lon="11.0667426"><ele>367.6666666666667</ele><time>2026-04-11T16:17:22.653Z</time></trkpt><trkpt lat="44.370684" lon="11.0668064"><ele>372.0</ele><time>2026-04-11T16:17:23.654Z</time></trkpt><trkpt lat="44.3707643" lon="11.0669254"><ele>372.0</ele><time>2026-04-11T16:17:24.653Z</time></trkpt><trkpt lat="44.3708301" lon="11.0669962"><ele>372.0</ele><time>2026-04-11T16:17:25.653Z</time></trkpt><trkpt lat="44.3709122" lon="11.0671335"><ele>372.0</ele><time>2026-04-11T16:17:27.654Z</time></trkpt><trkpt lat="44.3709634" lon="11.0672459"><ele>372.0</ele><time>2026-04-11T16:17:28.653Z</time></trkpt><trkpt lat="44.3709931" lon="11.0673505"><ele>372.0</ele><time>2026-04-11T16:17:29.654Z</time></trkpt><trkpt lat="44.3709997" lon="11.0674417"><ele>372.0</ele><time>2026-04-11T16:17:30.653Z</time></trkpt><trkpt lat="44.3709826" lon="11.0675372"><ele>372.0</ele><time>2026-04-11T16:17:32.654Z</time></trkpt><trkpt lat="44.3709165" lon="11.0675553"><ele>372.0</ele><time>2026-04-11T16:17:34.654Z</time></trkpt><trkpt lat="44.3708768" lon="11.0674686"><ele>372.0</ele><time>2026-04-11T16:17:35.654Z</time></trkpt><trkpt lat="44.3707948" lon="11.067409"><ele>372.0</ele><time>2026-04-11T16:17:37.654Z</time></trkpt><trkpt lat="44.3707251" lon="11.0674201"><ele>372.0</ele><time>2026-04-11T16:17:38.654Z</time></trkpt><trkpt lat="44.3706769" lon="11.0675334"><ele>375.8</ele><time>2026-04-11T16:17:39.653Z</time></trkpt><trkpt lat="44.3705743" lon="11.0676241"><ele>379.6</ele><time>2026-04-11T16:17:40.654Z</time></trkpt><trkpt lat="44.370502" lon="11.06771"><ele>383.40000000000003</ele><time>2026-04-11T16:17:41.654Z</time></trkpt><trkpt lat="44.3704146" lon="11.0677979"><ele>387.20000000000005</ele><time>2026-04-11T16:17:42.654Z</time></trkpt><trkpt lat="44.3703337" lon="11.0678562"><ele>391.0</ele><time>2026-04-11T16:17:43.654Z</time></trkpt><trkpt lat="44.3702499" lon="11.0679102"><ele>392.83333333333337</ele><time>2026-04-11T16:17:44.654Z</time></trkpt><trkpt lat="44.3701615" lon="11.0679564"><ele>394.6666666666667</ele><time>2026-04-11T16:17:45.654Z</time></trkpt><trkpt lat="44.3700924" lon="11.0680056"><ele>396.5</ele><time>2026-04-11T16:17:46.654Z</time></trkpt><trkpt lat="44.3700072" lon="11.0680738"><ele>398.33333333333337</ele><time>2026-04-11T16:17:47.654Z</time></trkpt><trkpt lat="44.3699372" lon="11.0681285"><ele>400.1666666666667</ele><time>2026-04-11T16:17:48.654Z</time></trkpt><trkpt lat="44.369877" lon="11.0681989"><ele>402.0</ele><time>2026-04-11T16:17:49.654Z</time></trkpt><trkpt lat="44.3698095" lon="11.0682333"><ele>402.0</ele><time>2026-04-11T16:17:50.654Z</time></trkpt><trkpt lat="44.3697155" lon="11.0682704"><ele>402.0</ele><time>2026-04-11T16:17:51.654Z</time></trkpt><trkpt lat="44.3696214" lon="11.0682909"><ele>402.0</ele><time>2026-04-11T16:17:52.654Z</time></trkpt><trkpt lat="44.36954" lon="11.0683121"><ele>402.0</ele><time>2026-04-11T16:17:53.653Z</time></trkpt><trkpt lat="44.3694781" lon="11.0683587"><ele>402.0</ele><time>2026-04-11T16:17:54.654Z</time></trkpt><trkpt lat="44.3694137" lon="11.0684448"><ele>402.0</ele><time>2026-04-11T16:17:56.654Z</time></trkpt><trkpt lat="44.3693763" lon="11.0686061"><ele>406.8</ele><time>2026-04-11T16:17:58.654Z</time></trkpt><trkpt lat="44.3693635" lon="11.0687052"><ele>411.6</ele><time>2026-04-11T16:17:59.654Z</time></trkpt><trkpt lat="44.3693254" lon="11.0687997"><ele>416.40000000000003</ele><time>2026-04-11T16:18:00.654Z</time></trkpt><trkpt lat="44.369279" lon="11.0689067"><ele>421.20000000000005</ele><time>2026-04-11T16:18:01.653Z</time></trkpt><trkpt lat="44.3691799" lon="11.0689795"><ele>426.0</ele><time>2026-04-11T16:18:02.654Z</time></trkpt><trkpt lat="44.3690924" lon="11.0690518"><ele>426.5</ele><time>2026-04-11T16:18:03.654Z</time></trkpt><trkpt lat="44.3690014" lon="11.069137"><ele>427.0</ele><time>2026-04-11T16:18:04.654Z</time></trkpt><trkpt lat="44.3689037" lon="11.0692318"><ele>427.5</ele><time>2026-04-11T16:18:05.654Z</time></trkpt><trkpt lat="44.3687987" lon="11.0693262"><ele>428.0</ele><time>2026-04-11T16:18:06.654Z</time></trkpt><trkpt lat="44.3687126" lon="11.0694192"><ele>431.59999999999997</ele><time>2026-04-11T16:18:07.654Z</time></trkpt><trkpt lat="44.3686138" lon="11.0695143"><ele>435.19999999999993</ele><time>2026-04-11T16:18:08.654Z</time></trkpt><trkpt lat="44.368531" lon="11.0696028"><ele>438.8</ele><time>2026-04-11T16:18:09.654Z</time></trkpt><trkpt lat="44.3684391" lon="11.0696588"><ele>442.4</ele><time>2026-04-11T16:18:10.654Z</time></trkpt><trkpt lat="44.3683525" lon="11.0697157"><ele>446.0</ele><time>2026-04-11T16:18:11.654Z</time></trkpt><trkpt lat="44.3682792" lon="11.0697571"><ele>445.99999999999994</ele><time>2026-04-11T16:18:12.654Z</time></trkpt><trkpt lat="44.3682007" lon="11.0697987"><ele>446.0</ele><time>2026-04-11T16:18:13.653Z</time></trkpt><trkpt lat="44.3681265" lon="11.069824"><ele>446.0</ele><time>2026-04-11T16:18:14.654Z</time></trkpt><trkpt lat="44.3680622" lon="11.0698456"><ele>446.0</ele><time>2026-04-11T16:18:15.654Z</time></trkpt><trkpt lat="44.3679451" lon="11.0698972"><ele>445.99999999999994</ele><time>2026-04-11T16:18:17.653Z</time></trkpt><trkpt lat="44.3678828" lon="11.0699303"><ele>446.0</ele><time>2026-04-11T16:18:19.654Z</time></trkpt><trkpt lat="44.3677773" lon="11.069942"><ele>447.49999999999994</ele><time>2026-04-11T16:22:15.654Z</time></trkpt><trkpt lat="44.3676933" lon="11.0699147"><ele>449.0</ele><time>2026-04-11T16:22:17.654Z</time></trkpt><trkpt lat="44.3676083" lon="11.069886"><ele>450.5</ele><time>2026-04-11T16:22:19.653Z</time></trkpt><trkpt lat="44.3675221" lon="11.06987"><ele>452.0</ele><time>2026-04-11T16:22:21.654Z</time></trkpt><trkpt lat="44.3674401" lon="11.069848"><ele>453.49999999999994</ele><time>2026-04-11T16:22:23.654Z</time></trkpt><trkpt lat="44.3673636" lon="11.0698286"><ele>455.0</ele><time>2026-04-11T16:22:25.654Z</time></trkpt><trkpt lat="44.3672776" lon="11.0698023"><ele>457.99999999999994</ele><time>2026-04-11T16:22:27.654Z</time></trkpt><trkpt lat="44.3671903" lon="11.0697593"><ele>461.0</ele><time>2026-04-11T16:22:29.654Z</time></trkpt><trkpt lat="44.3671079" lon="11.0697341"><ele>464.0</ele><time>2026-04-11T16:22:31.654Z</time></trkpt><trkpt lat="44.3670288" lon="11.0697081"><ele>467.0</ele><time>2026-04-11T16:22:33.654Z</time></trkpt><trkpt lat="44.3669519" lon="11.0696767"><ele>469.99999999999994</ele><time>2026-04-11T16:22:35.654Z</time></trkpt><trkpt lat="44.36687" lon="11.0696435"><ele>473.0</ele><time>2026-04-11T16:22:37.654Z</time></trkpt><trkpt lat="44.366794" lon="11.0696308"><ele>472.99999999999994</ele><time>2026-04-11T16:22:39.654Z</time></trkpt><trkpt lat="44.3667136" lon="11.0696683"><ele>473.0</ele><time>2026-04-11T16:22:42.654Z</time></trkpt><trkpt lat="44.3666497" lon="11.0697527"><ele>473.0</ele><time>2026-04-11T16:22:54.654Z</time></trkpt><trkpt lat="44.366579" lon="11.0698486"><ele>473.0</ele><time>2026-04-11T16:22:56.653Z</time></trkpt><trkpt lat="44.3665505" lon="11.0699484"><ele>472.99999999999994</ele><time>2026-04-11T16:22:57.653Z</time></trkpt><trkpt lat="44.3665323" lon="11.0700346"><ele>473.0</ele><time>2026-04-11T16:22:58.654Z</time></trkpt><trkpt lat="44.3664982" lon="11.0701951"><ele>471.79999999999995</ele><time>2026-04-11T16:23:00.654Z</time></trkpt><trkpt lat="44.3663925" lon="11.0703317"><ele>470.59999999999997</ele><time>2026-04-11T16:23:02.654Z</time></trkpt><trkpt lat="44.3663418" lon="11.0704164"><ele>469.40000000000003</ele><time>2026-04-11T16:23:03.654Z</time></trkpt><trkpt lat="44.3662857" lon="11.0705447"><ele>468.20000000000005</ele><time>2026-04-11T16:23:04.653Z</time></trkpt><trkpt lat="44.3662382" lon="11.0706628"><ele>467.0</ele><time>2026-04-11T16:23:05.653Z</time></trkpt><trkpt lat="44.3661944" lon="11.0707606"><ele>470.20000000000005</ele><time>2026-04-11T16:23:06.653Z</time></trkpt><trkpt lat="44.3661495" lon="11.0708364"><ele>473.40000000000003</ele><time>2026-04-11T16:23:07.653Z</time></trkpt><trkpt lat="44.3660995" lon="11.0709159"><ele>476.59999999999997</ele><time>2026-04-11T16:23:08.654Z</time></trkpt><trkpt lat="44.3660419" lon="11.071005"><ele>479.79999999999995</ele><time>2026-04-11T16:23:09.653Z</time></trkpt><trkpt lat="44.3659169" lon="11.071107"><ele>483.0</ele><time>2026-04-11T16:23:10.654Z</time></trkpt><trkpt lat="44.3658353" lon="11.0711762"><ele>483.0</ele><time>2026-04-11T16:23:11.653Z</time></trkpt><trkpt lat="44.3657099" lon="11.0712597"><ele>482.99999999999994</ele><time>2026-04-11T16:23:13.654Z</time></trkpt><trkpt lat="44.3656499" lon="11.0713094"><ele>482.99999999999994</ele><time>2026-04-11T16:23:14.653Z</time></trkpt><trkpt lat="44.3655744" lon="11.0713869"><ele>483.0</ele><time>2026-04-11T16:23:15.653Z</time></trkpt><trkpt lat="44.3654509" lon="11.0714944"><ele>483.0</ele><time>2026-04-11T16:23:17.654Z</time></trkpt><trkpt lat="44.3653717" lon="11.0715604"><ele>483.79999999999995</ele><time>2026-04-11T16:23:18.653Z</time></trkpt><trkpt lat="44.3652834" lon="11.0716488"><ele>484.59999999999997</ele><time>2026-04-11T16:23:20.653Z</time></trkpt><trkpt lat="44.3652192" lon="11.0717671"><ele>485.40000000000003</ele><time>2026-04-11T16:23:22.654Z</time></trkpt><trkpt lat="44.3651482" lon="11.0718837"><ele>486.20000000000005</ele><time>2026-04-11T16:23:24.654Z</time></trkpt><trkpt lat="44.3650753" lon="11.0719222"><ele>487.0</ele><time>2026-04-11T16:23:26.654Z</time></trkpt><trkpt lat="44.3649519" lon="11.0719515"><ele>487.0</ele><time>2026-04-11T16:23:28.653Z</time></trkpt><trkpt lat="44.3648817" lon="11.0719506"><ele>487.00000000000006</ele><time>2026-04-11T16:23:29.654Z</time></trkpt><trkpt lat="44.3648169" lon="11.0719684"><ele>487.00000000000006</ele><time>2026-04-11T16:23:30.654Z</time></trkpt><trkpt lat="44.3646909" lon="11.0719968"><ele>487.0</ele><time>2026-04-11T16:23:32.654Z</time></trkpt><trkpt lat="44.3645334" lon="11.0720244"><ele>487.0</ele><time>2026-04-11T16:23:34.654Z</time></trkpt><trkpt lat="44.3644103" lon="11.0720329"><ele>490.40000000000003</ele><time>2026-04-11T16:23:36.654Z</time></trkpt><trkpt lat="44.3643318" lon="11.072031"><ele>493.80000000000007</ele><time>2026-04-11T16:23:37.654Z</time></trkpt><trkpt lat="44.3642662" lon="11.0720169"><ele>497.2</ele><time>2026-04-11T16:23:38.654Z</time></trkpt><trkpt lat="44.3641993" lon="11.0719827"><ele>500.6</ele><time>2026-04-11T16:23:39.653Z</time></trkpt><trkpt lat="44.3641174" lon="11.0718969"><ele>504.0</ele><time>2026-04-11T16:23:41.654Z</time></trkpt><trkpt lat="44.3640318" lon="11.0717194"><ele>504.0</ele><time>2026-04-11T16:23:43.654Z</time></trkpt><trkpt lat="44.3639799" lon="11.0716164"><ele>504.0</ele><time>2026-04-11T16:23:44.654Z</time></trkpt><trkpt lat="44.3639338" lon="11.0715339"><ele>504.0</ele><time>2026-04-11T16:23:45.653Z</time></trkpt><trkpt lat="44.3638647" lon="11.0713983"><ele>504.0</ele><time>2026-04-11T16:23:46.654Z</time></trkpt><trkpt lat="44.3638349" lon="11.071272"><ele>504.0</ele><time>2026-04-11T16:23:47.654Z</time></trkpt><trkpt lat="44.3637951" lon="11.0711355"><ele>504.79999999999995</ele><time>2026-04-11T16:23:48.654Z</time></trkpt><trkpt lat="44.3637577" lon="11.0710101"><ele>505.59999999999997</ele><time>2026-04-11T16:23:49.653Z</time></trkpt><trkpt lat="44.3637048" lon="11.070868"><ele>506.4</ele><time>2026-04-11T16:23:50.653Z</time></trkpt><trkpt lat="44.3636596" lon="11.0707179"><ele>507.2</ele><time>2026-04-11T16:23:51.654Z</time></trkpt><trkpt lat="44.3636267" lon="11.070557"><ele>508.0</ele><time>2026-04-11T16:23:52.654Z</time></trkpt><trkpt lat="44.3635835" lon="11.0703975"><ele>511.4</ele><time>2026-04-11T16:23:53.654Z</time></trkpt><trkpt lat="44.3635678" lon="11.0702407"><ele>514.8</ele><time>2026-04-11T16:23:54.653Z</time></trkpt><trkpt lat="44.3635426" lon="11.0700889"><ele>518.2</ele><time>2026-04-11T16:23:55.654Z</time></trkpt><trkpt lat="44.3635336" lon="11.0699473"><ele>521.6</ele><time>2026-04-11T16:23:56.653Z</time></trkpt><trkpt lat="44.3635335" lon="11.0698034"><ele>525.0</ele><time>2026-04-11T16:23:57.654Z</time></trkpt><trkpt lat="44.3635331" lon="11.0696648"><ele>526.8</ele><time>2026-04-11T16:23:58.654Z</time></trkpt><trkpt lat="44.363535" lon="11.0695463"><ele>528.6</ele><time>2026-04-11T16:23:59.654Z</time></trkpt><trkpt lat="44.3635349" lon="11.0694493"><ele>530.4</ele><time>2026-04-11T16:24:00.654Z</time></trkpt><trkpt lat="44.3635146" lon="11.0693192"><ele>532.2</ele><time>2026-04-11T16:24:02.653Z</time></trkpt><trkpt lat="44.3634258" lon="11.0692641"><ele>534.0</ele><time>2026-04-11T16:24:04.653Z</time></trkpt><trkpt lat="44.3632959" lon="11.0692276"><ele>534.0</ele><time>2026-04-11T16:24:06.654Z</time></trkpt><trkpt lat="44.3631773" lon="11.0692073"><ele>534.0</ele><time>2026-04-11T16:24:08.654Z</time></trkpt><trkpt lat="44.3630697" lon="11.0691993"><ele>534.0</ele><time>2026-04-11T16:24:10.653Z</time></trkpt><trkpt lat="44.3629483" lon="11.0691699"><ele>534.0</ele><time>2026-04-11T16:24:12.654Z</time></trkpt><trkpt lat="44.3628725" lon="11.0691289"><ele>534.0</ele><time>2026-04-11T16:24:13.654Z</time></trkpt><trkpt lat="44.3628011" lon="11.0690904"><ele>533.3333333333334</ele><time>2026-04-11T16:24:14.654Z</time></trkpt><trkpt lat="44.3627387" lon="11.0690605"><ele>532.6666666666666</ele><time>2026-04-11T16:24:15.654Z</time></trkpt><trkpt lat="44.3626821" lon="11.0690213"><ele>532.0</ele><time>2026-04-11T16:24:16.654Z</time></trkpt><trkpt lat="44.3625788" lon="11.0689492"><ele>531.3333333333333</ele><time>2026-04-11T16:24:18.654Z</time></trkpt><trkpt lat="44.3625252" lon="11.0688989"><ele>530.6666666666666</ele><time>2026-04-11T16:24:19.654Z</time></trkpt><trkpt lat="44.3624561" lon="11.0688399"><ele>530.0</ele><time>2026-04-11T16:24:20.654Z</time></trkpt><trkpt lat="44.3623731" lon="11.0687774"><ele>530.0</ele><time>2026-04-11T16:24:21.654Z</time></trkpt><trkpt lat="44.3622785" lon="11.0687015"><ele>530.0</ele><time>2026-04-11T16:24:22.654Z</time></trkpt><trkpt lat="44.3621807" lon="11.0686206"><ele>530.0</ele><time>2026-04-11T16:24:23.654Z</time></trkpt><trkpt lat="44.3620956" lon="11.0685404"><ele>530.0</ele><time>2026-04-11T16:24:24.654Z</time></trkpt><trkpt lat="44.3620184" lon="11.0684672"><ele>530.0</ele><time>2026-04-11T16:24:25.653Z</time></trkpt><trkpt lat="44.3619434" lon="11.0684004"><ele>530.3333333333333</ele><time>2026-04-11T16:24:26.654Z</time></trkpt><trkpt lat="44.361877" lon="11.0683363"><ele>530.6666666666666</ele><time>2026-04-11T16:24:27.653Z</time></trkpt><trkpt lat="44.3618001" lon="11.068284"><ele>531.0</ele><time>2026-04-11T16:24:28.654Z</time></trkpt><trkpt lat="44.3617275" lon="11.0682594"><ele>531.3333333333334</ele><time>2026-04-11T16:24:29.653Z</time></trkpt><trkpt lat="44.3615988" lon="11.0682317"><ele>531.6666666666667</ele><time>2026-04-11T16:24:31.654Z</time></trkpt><trkpt lat="44.361533" lon="11.0682106"><ele>532.0</ele><time>2026-04-11T16:24:32.654Z</time></trkpt><trkpt lat="44.3614445" lon="11.0681892"><ele>533.8000000000001</ele><time>2026-04-11T16:24:33.654Z</time></trkpt><trkpt lat="44.3613515" lon="11.0681694"><ele>535.6</ele><time>2026-04-11T16:24:34.654Z</time></trkpt><trkpt lat="44.3612542" lon="11.068159"><ele>537.4000000000001</ele><time>2026-04-11T16:24:35.653Z</time></trkpt><trkpt lat="44.3611507" lon="11.0681629"><ele>539.2</ele><time>2026-04-11T16:24:36.654Z</time></trkpt><trkpt lat="44.3610449" lon="11.0681793"><ele>541.0</ele><time>2026-04-11T16:24:37.654Z</time></trkpt><trkpt lat="44.3609378" lon="11.0682221"><ele>541.0</ele><time>2026-04-11T16:24:38.653Z</time></trkpt><trkpt lat="44.3608224" lon="11.0682593"><ele>541.0</ele><time>2026-04-11T16:24:39.654Z</time></trkpt><trkpt lat="44.3606987" lon="11.0682907"><ele>541.0</ele><time>2026-04-11T16:24:40.653Z</time></trkpt><trkpt lat="44.360569" lon="11.0683087"><ele>541.0</ele><time>2026-04-11T16:24:41.654Z</time></trkpt><trkpt lat="44.3604347" lon="11.0683284"><ele>542.5</ele><time>2026-04-11T16:24:42.654Z</time></trkpt><trkpt lat="44.3602988" lon="11.0683517"><ele>544.0</ele><time>2026-04-11T16:24:43.654Z</time></trkpt><trkpt lat="44.3601631" lon="11.0683901"><ele>545.5</ele><time>2026-04-11T16:24:44.654Z</time></trkpt><trkpt lat="44.3600415" lon="11.0684263"><ele>547.0</ele><time>2026-04-11T16:24:45.653Z</time></trkpt><trkpt lat="44.3599271" lon="11.0684683"><ele>547.0</ele><time>2026-04-11T16:24:46.654Z</time></trkpt><trkpt lat="44.3598112" lon="11.068507"><ele>547.0</ele><time>2026-04-11T16:24:47.653Z</time></trkpt><trkpt lat="44.3596902" lon="11.0685486"><ele>547.0</ele><time>2026-04-11T16:24:48.654Z</time></trkpt><trkpt lat="44.3595646" lon="11.0685939"><ele>547.0</ele><time>2026-04-11T16:24:49.654Z</time></trkpt><trkpt lat="44.3594404" lon="11.0686384"><ele>547.25</ele><time>2026-04-11T16:24:50.653Z</time></trkpt><trkpt lat="44.3593155" lon="11.0687015"><ele>547.5</ele><time>2026-04-11T16:24:51.654Z</time></trkpt><trkpt lat="44.3591849" lon="11.0687785"><ele>547.75</ele><time>2026-04-11T16:24:52.653Z</time></trkpt><trkpt lat="44.3590498" lon="11.0688709"><ele>548.0</ele><time>2026-04-11T16:24:53.654Z</time></trkpt><trkpt lat="44.3589111" lon="11.0689663"><ele>546.3333333333333</ele><time>2026-04-11T16:24:54.654Z</time></trkpt><trkpt lat="44.358764" lon="11.0690687"><ele>544.6666666666666</ele><time>2026-04-11T16:24:55.654Z</time></trkpt><trkpt lat="44.3586157" lon="11.069154"><ele>543.0</ele><time>2026-04-11T16:24:56.654Z</time></trkpt><trkpt lat="44.3584761" lon="11.0692313"><ele>543.0</ele><time>2026-04-11T16:24:57.654Z</time></trkpt><trkpt lat="44.3583387" lon="11.0693041"><ele>543.0</ele><time>2026-04-11T16:24:58.654Z</time></trkpt><trkpt lat="44.3582084" lon="11.069392"><ele>543.0</ele><time>2026-04-11T16:24:59.654Z</time></trkpt><trkpt lat="44.3580903" lon="11.0695114"><ele>543.0</ele><time>2026-04-11T16:25:00.654Z</time></trkpt><trkpt lat="44.3579808" lon="11.0696245"><ele>543.1666666666666</ele><time>2026-04-11T16:25:01.654Z</time></trkpt><trkpt lat="44.3579133" lon="11.0697166"><ele>543.3333333333334</ele><time>2026-04-11T16:25:02.654Z</time></trkpt><trkpt lat="44.3579752" lon="11.0697813"><ele>543.5</ele><time>2026-04-11T16:25:04.654Z</time></trkpt><trkpt lat="44.3579396" lon="11.0699014"><ele>543.6666666666667</ele><time>2026-04-11T16:25:05.653Z</time></trkpt><trkpt lat="44.3579146" lon="11.0699993"><ele>543.8333333333334</ele><time>2026-04-11T16:25:06.654Z</time></trkpt><trkpt lat="44.3578898" lon="11.0701039"><ele>544.0</ele><time>2026-04-11T16:25:07.654Z</time></trkpt><trkpt lat="44.3578568" lon="11.0702209"><ele>544.0</ele><time>2026-04-11T16:25:08.654Z</time></trkpt><trkpt lat="44.3578227" lon="11.0703313"><ele>544.0</ele><time>2026-04-11T16:25:09.654Z</time></trkpt><trkpt lat="44.3577733" lon="11.0704474"><ele>544.0</ele><time>2026-04-11T16:25:10.654Z</time></trkpt><trkpt lat="44.357721" lon="11.0705393"><ele>544.0</ele><time>2026-04-11T16:25:11.654Z</time></trkpt><trkpt lat="44.3576719" lon="11.0706231"><ele>544.0</ele><time>2026-04-11T16:25:12.654Z</time></trkpt><trkpt lat="44.3576264" lon="11.0707021"><ele>544.0</ele><time>2026-04-11T16:25:13.654Z</time></trkpt><trkpt lat="44.3575844" lon="11.0707844"><ele>543.3333333333334</ele><time>2026-04-11T16:25:14.653Z</time></trkpt><trkpt lat="44.3575198" lon="11.0709008"><ele>542.6666666666667</ele><time>2026-04-11T16:25:16.654Z</time></trkpt><trkpt lat="44.3574707" lon="11.070995"><ele>542.0</ele><time>2026-04-11T16:26:06.654Z</time></trkpt><trkpt lat="44.3575151" lon="11.0711052"><ele>541.3333333333334</ele><time>2026-04-11T16:26:09.654Z</time></trkpt><trkpt lat="44.3575478" lon="11.071193"><ele>540.6666666666666</ele><time>2026-04-11T16:26:10.654Z</time></trkpt><trkpt lat="44.3575817" lon="11.0712946"><ele>540.0</ele><time>2026-04-11T16:26:11.654Z</time></trkpt><trkpt lat="44.3576242" lon="11.0714078"><ele>540.0</ele><time>2026-04-11T16:26:12.654Z</time></trkpt><trkpt lat="44.3576675" lon="11.0715251"><ele>540.0</ele><time>2026-04-11T16:26:13.653Z</time></trkpt><trkpt lat="44.3577147" lon="11.0716553"><ele>540.0</ele><time>2026-04-11T16:26:14.654Z</time></trkpt><trkpt lat="44.3577581" lon="11.071779"><ele>540.0</ele><time>2026-04-11T16:26:15.654Z</time></trkpt><trkpt lat="44.357799" lon="11.071903"><ele>540.0</ele><time>2026-04-11T16:26:16.654Z</time></trkpt><trkpt lat="44.3578391" lon="11.0720131"><ele>539.1666666666666</ele><time>2026-04-11T16:26:17.654Z</time></trkpt><trkpt lat="44.3578835" lon="11.0721027"><ele>538.3333333333334</ele><time>2026-04-11T16:26:18.654Z</time></trkpt><trkpt lat="44.3579365" lon="11.0721586"><ele>537.5</ele><time>2026-04-11T16:26:19.654Z</time></trkpt><trkpt lat="44.3580565" lon="11.0721436"><ele>536.6666666666667</ele><time>2026-04-11T16:26:21.653Z</time></trkpt><trkpt lat="44.3580901" lon="11.0720544"><ele>535.8333333333334</ele><time>2026-04-11T16:26:22.654Z</time></trkpt><trkpt lat="44.3581092" lon="11.0719607"><ele>535.0</ele><time>2026-04-11T16:26:23.653Z</time></trkpt><trkpt lat="44.3581421" lon="11.0718762"><ele>532.6666666666667</ele><time>2026-04-11T16:26:24.654Z</time></trkpt><trkpt lat="44.3582197" lon="11.0718248"><ele>530.3333333333334</ele><time>2026-04-11T16:26:26.654Z</time></trkpt><trkpt lat="44.3582384" lon="11.0719131"><ele>528.0</ele><time>2026-04-11T16:26:27.654Z</time></trkpt><trkpt lat="44.3582401" lon="11.072012"><ele>525.6666666666666</ele><time>2026-04-11T16:26:28.654Z</time></trkpt><trkpt lat="44.358217" lon="11.0721584"><ele>523.3333333333333</ele><time>2026-04-11T16:26:29.654Z</time></trkpt><trkpt lat="44.3582012" lon="11.0722809"><ele>521.0</ele><time>2026-04-11T16:26:30.654Z</time></trkpt><trkpt lat="44.3581787" lon="11.0724055"><ele>520.1666666666666</ele><time>2026-04-11T16:26:31.654Z</time></trkpt><trkpt lat="44.3581439" lon="11.0725331"><ele>519.3333333333333</ele><time>2026-04-11T16:26:32.654Z</time></trkpt><trkpt lat="44.3580977" lon="11.0726332"><ele>518.5</ele><time>2026-04-11T16:26:33.654Z</time></trkpt><trkpt lat="44.3580301" lon="11.0727069"><ele>517.6666666666666</ele><time>2026-04-11T16:26:34.654Z</time></trkpt><trkpt lat="44.3579578" lon="11.0727439"><ele>516.8333333333334</ele><time>2026-04-11T16:26:35.654Z</time></trkpt><trkpt lat="44.3578828" lon="11.072778"><ele>516.0</ele><time>2026-04-11T16:26:36.654Z</time></trkpt><trkpt lat="44.3578141" lon="11.0728382"><ele>516.2</ele><time>2026-04-11T16:26:37.653Z</time></trkpt><trkpt lat="44.3577509" lon="11.072912"><ele>516.4000000000001</ele><time>2026-04-11T16:26:38.654Z</time></trkpt><trkpt lat="44.3577195" lon="11.0730096"><ele>516.6</ele><time>2026-04-11T16:26:39.654Z</time></trkpt><trkpt lat="44.3577266" lon="11.0731166"><ele>516.8000000000001</ele><time>2026-04-11T16:26:40.654Z</time></trkpt><trkpt lat="44.3577769" lon="11.0732496"><ele>517.0</ele><time>2026-04-11T16:26:41.654Z</time></trkpt><trkpt lat="44.357854" lon="11.073396"><ele>517.0</ele><time>2026-04-11T16:26:42.653Z</time></trkpt><trkpt lat="44.3579167" lon="11.0735884"><ele>517.0</ele><time>2026-04-11T16:26:43.654Z</time></trkpt><trkpt lat="44.3579462" lon="11.0738049"><ele>517.0</ele><time>2026-04-11T16:26:44.654Z</time></trkpt><trkpt lat="44.3579543" lon="11.0740092"><ele>515.5</ele><time>2026-04-11T16:26:45.654Z</time></trkpt><trkpt lat="44.3579572" lon="11.0742092"><ele>514.0</ele><time>2026-04-11T16:26:46.654Z</time></trkpt><trkpt lat="44.3579543" lon="11.0743977"><ele>512.5</ele><time>2026-04-11T16:26:47.654Z</time></trkpt><trkpt lat="44.3579375" lon="11.0745746"><ele>511.0</ele><time>2026-04-11T16:26:48.654Z</time></trkpt><trkpt lat="44.3579116" lon="11.0747415"><ele>511.0</ele><time>2026-04-11T16:26:49.654Z</time></trkpt><trkpt lat="44.3578819" lon="11.0749039"><ele>511.0</ele><time>2026-04-11T16:26:50.653Z</time></trkpt><trkpt lat="44.3578424" lon="11.07505"><ele>511.0</ele><time>2026-04-11T16:26:51.654Z</time></trkpt><trkpt lat="44.3577803" lon="11.0751798"><ele>511.0</ele><time>2026-04-11T16:26:52.654Z</time></trkpt><trkpt lat="44.3576943" lon="11.0752688"><ele>510.4</ele><time>2026-04-11T16:26:53.654Z</time></trkpt><trkpt lat="44.3576111" lon="11.0753395"><ele>509.8</ele><time>2026-04-11T16:26:54.654Z</time></trkpt><trkpt lat="44.3575502" lon="11.0754166"><ele>509.19999999999993</ele><time>2026-04-11T16:26:55.654Z</time></trkpt><trkpt lat="44.3575244" lon="11.0755073"><ele>508.59999999999997</ele><time>2026-04-11T16:26:56.654Z</time></trkpt><trkpt lat="44.3575979" lon="11.0756371"><ele>508.0</ele><time>2026-04-11T16:26:58.654Z</time></trkpt><trkpt lat="44.3576944" lon="11.0756645"><ele>508.0</ele><time>2026-04-11T16:26:59.653Z</time></trkpt><trkpt lat="44.3577996" lon="11.0756953"><ele>507.99999999999994</ele><time>2026-04-11T16:27:00.653Z</time></trkpt><trkpt lat="44.3579042" lon="11.0757425"><ele>507.99999999999994</ele><time>2026-04-11T16:27:01.654Z</time></trkpt><trkpt lat="44.3579993" lon="11.0758088"><ele>508.0</ele><time>2026-04-11T16:27:02.654Z</time></trkpt><trkpt lat="44.3580824" lon="11.0758815"><ele>508.0</ele><time>2026-04-11T16:27:03.654Z</time></trkpt><trkpt lat="44.3581627" lon="11.0759461"><ele>506.25</ele><time>2026-04-11T16:27:04.654Z</time></trkpt><trkpt lat="44.3582431" lon="11.0759914"><ele>504.5</ele><time>2026-04-11T16:27:05.653Z</time></trkpt><trkpt lat="44.3583459" lon="11.0760111"><ele>502.75</ele><time>2026-04-11T16:27:06.654Z</time></trkpt><trkpt lat="44.3584702" lon="11.0760072"><ele>501.0</ele><time>2026-04-11T16:27:07.654Z</time></trkpt><trkpt lat="44.3586095" lon="11.0759863"><ele>501.0</ele><time>2026-04-11T16:27:08.654Z</time></trkpt><trkpt lat="44.3587562" lon="11.0759576"><ele>501.0</ele><time>2026-04-11T16:27:09.654Z</time></trkpt><trkpt lat="44.3589023" lon="11.0759275"><ele>501.0</ele><time>2026-04-11T16:27:10.654Z</time></trkpt><trkpt lat="44.3590527" lon="11.07589"><ele>501.0</ele><time>2026-04-11T16:27:11.653Z</time></trkpt><trkpt lat="44.3591962" lon="11.075849"><ele>498.75</ele><time>2026-04-11T16:27:12.653Z</time></trkpt><trkpt lat="44.3593388" lon="11.0758007"><ele>496.5</ele><time>2026-04-11T16:27:13.654Z</time></trkpt><trkpt lat="44.359478" lon="11.0757668"><ele>494.25</ele><time>2026-04-11T16:27:14.654Z</time></trkpt><trkpt lat="44.3596188" lon="11.0757484"><ele>492.0</ele><time>2026-04-11T16:27:15.653Z</time></trkpt><trkpt lat="44.3597593" lon="11.075751"><ele>490.25</ele><time>2026-04-11T16:27:16.654Z</time></trkpt><trkpt lat="44.3598957" lon="11.0757761"><ele>488.5</ele><time>2026-04-11T16:27:17.654Z</time></trkpt><trkpt lat="44.3600245" lon="11.0758141"><ele>486.75</ele><time>2026-04-11T16:27:18.654Z</time></trkpt><trkpt lat="44.3601476" lon="11.0758558"><ele>485.0</ele><time>2026-04-11T16:27:19.654Z</time></trkpt><trkpt lat="44.3602556" lon="11.0759035"><ele>484.99999999999994</ele><time>2026-04-11T16:27:20.654Z</time></trkpt><trkpt lat="44.3603526" lon="11.075954"><ele>485.0</ele><time>2026-04-11T16:27:21.653Z</time></trkpt><trkpt lat="44.3604355" lon="11.0760215"><ele>485.0</ele><time>2026-04-11T16:27:22.654Z</time></trkpt><trkpt lat="44.3605016" lon="11.0760883"><ele>485.0</ele><time>2026-04-11T16:27:23.654Z</time></trkpt><trkpt lat="44.3605588" lon="11.0761281"><ele>484.99999999999994</ele><time>2026-04-11T16:27:24.654Z</time></trkpt><trkpt lat="44.360649" lon="11.0761335"><ele>485.0</ele><time>2026-04-11T16:27:26.654Z</time></trkpt><trkpt lat="44.3607318" lon="11.0761274"><ele>483.8333333333333</ele><time>2026-04-11T16:27:28.653Z</time></trkpt><trkpt lat="44.3608377" lon="11.0761095"><ele>482.66666666666663</ele><time>2026-04-11T16:27:30.654Z</time></trkpt><trkpt lat="44.3609037" lon="11.0761166"><ele>481.5</ele><time>2026-04-11T16:27:31.654Z</time></trkpt><trkpt lat="44.3609741" lon="11.0761214"><ele>480.33333333333337</ele><time>2026-04-11T16:27:32.654Z</time></trkpt><trkpt lat="44.361047" lon="11.0761305"><ele>479.1666666666667</ele><time>2026-04-11T16:27:33.654Z</time></trkpt><trkpt lat="44.3611372" lon="11.0761374"><ele>478.0</ele><time>2026-04-11T16:27:34.654Z</time></trkpt><trkpt lat="44.3612303" lon="11.0761388"><ele>478.00000000000006</ele><time>2026-04-11T16:27:35.654Z</time></trkpt><trkpt lat="44.361321" lon="11.076138"><ele>478.0</ele><time>2026-04-11T16:27:36.654Z</time></trkpt><trkpt lat="44.361411" lon="11.0761281"><ele>478.0</ele><time>2026-04-11T16:27:37.654Z</time></trkpt><trkpt lat="44.3614949" lon="11.0761144"><ele>478.0</ele><time>2026-04-11T16:27:38.654Z</time></trkpt><trkpt lat="44.3615767" lon="11.0760954"><ele>478.00000000000006</ele><time>2026-04-11T16:27:39.654Z</time></trkpt><trkpt lat="44.3616536" lon="11.0760683"><ele>478.0</ele><time>2026-04-11T16:27:40.654Z</time></trkpt><trkpt lat="44.3617274" lon="11.0760401"><ele>476.00000000000006</ele><time>2026-04-11T16:27:41.653Z</time></trkpt><trkpt lat="44.361808" lon="11.0760302"><ele>474.0</ele><time>2026-04-11T16:27:42.653Z</time></trkpt><trkpt lat="44.3618904" lon="11.076035"><ele>472.0</ele><time>2026-04-11T16:27:43.654Z</time></trkpt><trkpt lat="44.361992" lon="11.0760406"><ele>470.0</ele><time>2026-04-11T16:27:44.654Z</time></trkpt><trkpt lat="44.3620783" lon="11.0760484"><ele>468.00000000000006</ele><time>2026-04-11T16:27:45.654Z</time></trkpt><trkpt lat="44.3621699" lon="11.0760626"><ele>466.0</ele><time>2026-04-11T16:27:46.654Z</time></trkpt><trkpt lat="44.3622592" lon="11.0760922"><ele>464.83333333333337</ele><time>2026-04-11T16:27:47.654Z</time></trkpt><trkpt lat="44.3623445" lon="11.0761333"><ele>463.6666666666667</ele><time>2026-04-11T16:27:48.653Z</time></trkpt><trkpt lat="44.3624145" lon="11.0761808"><ele>462.5</ele><time>2026-04-11T16:27:49.654Z</time></trkpt><trkpt lat="44.3624831" lon="11.0762203"><ele>461.33333333333337</ele><time>2026-04-11T16:27:50.654Z</time></trkpt><trkpt lat="44.362549" lon="11.0762336"><ele>460.1666666666667</ele><time>2026-04-11T16:27:51.654Z</time></trkpt><trkpt lat="44.3626275" lon="11.0762262"><ele>459.0</ele><time>2026-04-11T16:27:52.654Z</time></trkpt><trkpt lat="44.3627063" lon="11.0762037"><ele>459.0</ele><time>2026-04-11T16:27:53.654Z</time></trkpt><trkpt lat="44.3627867" lon="11.0761676"><ele>459.0</ele><time>2026-04-11T16:27:54.654Z</time></trkpt><trkpt lat="44.3628592" lon="11.0761126"><ele>459.0</ele><time>2026-04-11T16:27:55.654Z</time></trkpt><trkpt lat="44.3629396" lon="11.076049"><ele>459.0</ele><time>2026-04-11T16:27:56.654Z</time></trkpt><trkpt lat="44.3630112" lon="11.0759722"><ele>459.0</ele><time>2026-04-11T16:27:57.654Z</time></trkpt><trkpt lat="44.3630775" lon="11.0758944"><ele>459.0</ele><time>2026-04-11T16:27:58.654Z</time></trkpt><trkpt lat="44.3631395" lon="11.0758222"><ele>457.1666666666667</ele><time>2026-04-11T16:27:59.654Z</time></trkpt><trkpt lat="44.3632121" lon="11.0757965"><ele>455.33333333333337</ele><time>2026-04-11T16:28:00.654Z</time></trkpt><trkpt lat="44.3632833" lon="11.0757857"><ele>453.5</ele><time>2026-04-11T16:28:01.654Z</time></trkpt><trkpt lat="44.3633821" lon="11.075811"><ele>451.6666666666667</ele><time>2026-04-11T16:28:03.654Z</time></trkpt><trkpt lat="44.3634312" lon="11.0759033"><ele>449.83333333333337</ele><time>2026-04-11T16:28:05.654Z</time></trkpt><trkpt lat="44.3634234" lon="11.0759938"><ele>448.0</ele><time>2026-04-11T16:28:06.654Z</time></trkpt><trkpt lat="44.3634036" lon="11.0761111"><ele>448.00000000000006</ele><time>2026-04-11T16:28:07.653Z</time></trkpt><trkpt lat="44.3633832" lon="11.0762351"><ele>448.0</ele><time>2026-04-11T16:28:08.654Z</time></trkpt><trkpt lat="44.3633611" lon="11.0763588"><ele>448.0</ele><time>2026-04-11T16:28:09.654Z</time></trkpt><trkpt lat="44.3633556" lon="11.0764709"><ele>448.0</ele><time>2026-04-11T16:28:10.654Z</time></trkpt><trkpt lat="44.3633533" lon="11.0765873"><ele>448.00000000000006</ele><time>2026-04-11T16:28:11.654Z</time></trkpt><trkpt lat="44.3633505" lon="11.0767051"><ele>448.0</ele><time>2026-04-11T16:28:12.654Z</time></trkpt><trkpt lat="44.3633448" lon="11.076819"><ele>447.6666666666667</ele><time>2026-04-11T16:28:13.654Z</time></trkpt><trkpt lat="44.3633284" lon="11.0769358"><ele>447.33333333333337</ele><time>2026-04-11T16:28:14.654Z</time></trkpt><trkpt lat="44.3633037" lon="11.0770526"><ele>447.0</ele><time>2026-04-11T16:28:15.654Z</time></trkpt><trkpt lat="44.3632695" lon="11.0771665"><ele>446.66666666666663</ele><time>2026-04-11T16:28:16.654Z</time></trkpt><trkpt lat="44.3632163" lon="11.0772739"><ele>446.3333333333333</ele><time>2026-04-11T16:28:17.654Z</time></trkpt><trkpt lat="44.3631544" lon="11.0773702"><ele>446.0</ele><time>2026-04-11T16:28:18.653Z</time></trkpt><trkpt lat="44.3630844" lon="11.0774806"><ele>445.20000000000005</ele><time>2026-04-11T16:28:19.654Z</time></trkpt><trkpt lat="44.3630198" lon="11.0775953"><ele>444.40000000000003</ele><time>2026-04-11T16:28:20.654Z</time></trkpt><trkpt lat="44.3629525" lon="11.077705"><ele>443.6</ele><time>2026-04-11T16:28:21.653Z</time></trkpt><trkpt lat="44.3628842" lon="11.0778076"><ele>442.8</ele><time>2026-04-11T16:28:22.654Z</time></trkpt><trkpt lat="44.3628314" lon="11.0778853"><ele>442.0</ele><time>2026-04-11T16:28:23.654Z</time></trkpt><trkpt lat="44.3627735" lon="11.0779543"><ele>442.0</ele><time>2026-04-11T16:28:24.654Z</time></trkpt><trkpt lat="44.362721" lon="11.0780243"><ele>442.00000000000006</ele><time>2026-04-11T16:28:25.654Z</time></trkpt><trkpt lat="44.3626979" lon="11.078176"><ele>442.00000000000006</ele><time>2026-04-11T16:28:27.653Z</time></trkpt><trkpt lat="44.3627478" lon="11.0783403"><ele>442.0</ele><time>2026-04-11T16:28:29.654Z</time></trkpt><trkpt lat="44.3628003" lon="11.0784227"><ele>442.0</ele><time>2026-04-11T16:28:30.654Z</time></trkpt><trkpt lat="44.362866" lon="11.0785012"><ele>441.50000000000006</ele><time>2026-04-11T16:28:31.654Z</time></trkpt><trkpt lat="44.3629394" lon="11.0785705"><ele>441.0</ele><time>2026-04-11T16:28:32.654Z</time></trkpt><trkpt lat="44.3630134" lon="11.0786191"><ele>440.5</ele><time>2026-04-11T16:28:33.654Z</time></trkpt><trkpt lat="44.3630963" lon="11.078614"><ele>440.0</ele><time>2026-04-11T16:28:34.654Z</time></trkpt><trkpt lat="44.3631847" lon="11.078588"><ele>439.50000000000006</ele><time>2026-04-11T16:28:35.654Z</time></trkpt><trkpt lat="44.3632686" lon="11.0785527"><ele>439.0</ele><time>2026-04-11T16:28:36.654Z</time></trkpt><trkpt lat="44.36336" lon="11.0785225"><ele>436.83333333333337</ele><time>2026-04-11T16:28:37.654Z</time></trkpt><trkpt lat="44.363448" lon="11.078518"><ele>434.6666666666667</ele><time>2026-04-11T16:28:38.654Z</time></trkpt><trkpt lat="44.3635365" lon="11.0785307"><ele>432.5</ele><time>2026-04-11T16:28:39.653Z</time></trkpt><trkpt lat="44.3636234" lon="11.0785678"><ele>430.33333333333337</ele><time>2026-04-11T16:28:40.654Z</time></trkpt><trkpt lat="44.3636982" lon="11.0786083"><ele>428.1666666666667</ele><time>2026-04-11T16:28:41.654Z</time></trkpt><trkpt lat="44.3637743" lon="11.0786501"><ele>426.0</ele><time>2026-04-11T16:28:42.653Z</time></trkpt><trkpt lat="44.3638453" lon="11.0787107"><ele>423.5</ele><time>2026-04-11T16:28:43.654Z</time></trkpt><trkpt lat="44.3639226" lon="11.0787933"><ele>421.0</ele><time>2026-04-11T16:28:44.654Z</time></trkpt><trkpt lat="44.364012" lon="11.0789083"><ele>418.5</ele><time>2026-04-11T16:28:45.654Z</time></trkpt><trkpt lat="44.3641135" lon="11.0790292"><ele>416.0</ele><time>2026-04-11T16:28:46.654Z</time></trkpt><trkpt lat="44.3642207" lon="11.0791465"><ele>415.99999999999994</ele><time>2026-04-11T16:28:47.654Z</time></trkpt><trkpt lat="44.364313" lon="11.0792499"><ele>416.0</ele><time>2026-04-11T16:28:48.653Z</time></trkpt><trkpt lat="44.3643897" lon="11.0793395"><ele>416.0</ele><time>2026-04-11T16:28:49.654Z</time></trkpt><trkpt lat="44.3644399" lon="11.0794027"><ele>416.0</ele><time>2026-04-11T16:28:50.654Z</time></trkpt><trkpt lat="44.364485" lon="11.0794715"><ele>415.99999999999994</ele><time>2026-04-11T16:28:53.654Z</time></trkpt><trkpt lat="44.3644302" lon="11.0794036"><ele>416.0</ele><time>2026-04-11T16:29:03.653Z</time></trkpt><trkpt lat="44.3643946" lon="11.0793225"><ele>415.99999999999994</ele><time>2026-04-11T16:29:09.654Z</time></trkpt><trkpt lat="44.3644806" lon="11.0792959"><ele>416.0</ele><time>2026-04-11T16:29:13.654Z</time></trkpt><trkpt lat="44.3645593" lon="11.0792832"><ele>416.0</ele><time>2026-04-11T16:29:15.654Z</time></trkpt><trkpt lat="44.3646225" lon="11.0792172"><ele>416.0</ele><time>2026-04-11T16:29:17.653Z</time></trkpt><trkpt lat="44.364675" lon="11.0791588"><ele>415.99999999999994</ele><time>2026-04-11T16:29:18.654Z</time></trkpt><trkpt lat="44.3647417" lon="11.0790583"><ele>416.0</ele><time>2026-04-11T16:29:20.654Z</time></trkpt><trkpt lat="44.3648178" lon="11.0789853"><ele>413.25</ele><time>2026-04-11T16:29:21.654Z</time></trkpt><trkpt lat="44.3648834" lon="11.0789674"><ele>410.5</ele><time>2026-04-11T16:29:22.654Z</time></trkpt><trkpt lat="44.3649428" lon="11.0788805"><ele>407.75</ele><time>2026-04-11T16:29:23.654Z</time></trkpt><trkpt lat="44.3651147" lon="11.0789057"><ele>405.0</ele><time>2026-04-11T16:29:24.653Z</time></trkpt><trkpt lat="44.3652427" lon="11.0788777"><ele>405.0</ele><time>2026-04-11T16:29:25.654Z</time></trkpt><trkpt lat="44.3653401" lon="11.0788687"><ele>405.0</ele><time>2026-04-11T16:29:26.654Z</time></trkpt><trkpt lat="44.3654607" lon="11.0788971"><ele>405.0</ele><time>2026-04-11T16:29:27.654Z</time></trkpt><trkpt lat="44.3655857" lon="11.0789049"><ele>405.0</ele><time>2026-04-11T16:29:29.654Z</time></trkpt><trkpt lat="44.3656816" lon="11.0789142"><ele>405.0</ele><time>2026-04-11T16:29:30.654Z</time></trkpt><trkpt lat="44.3657699" lon="11.0788852"><ele>404.4</ele><time>2026-04-11T16:29:32.654Z</time></trkpt><trkpt lat="44.3658852" lon="11.0788253"><ele>403.8</ele><time>2026-04-11T16:29:35.653Z</time></trkpt><trkpt lat="44.3659565" lon="11.0787888"><ele>403.20000000000005</ele><time>2026-04-11T16:29:38.654Z</time></trkpt><trkpt lat="44.3660214" lon="11.0787664"><ele>402.6</ele><time>2026-04-11T16:29:39.654Z</time></trkpt><trkpt lat="44.3660431" lon="11.0786731"><ele>402.0</ele><time>2026-04-11T16:29:41.653Z</time></trkpt><trkpt lat="44.3660993" lon="11.0784745"><ele>402.0</ele><time>2026-04-11T16:29:43.654Z</time></trkpt><trkpt lat="44.3661576" lon="11.078409"><ele>402.0</ele><time>2026-04-11T16:29:44.654Z</time></trkpt><trkpt lat="44.3661706" lon="11.0783113"><ele>402.0</ele><time>2026-04-11T16:29:45.654Z</time></trkpt><trkpt lat="44.3661593" lon="11.0781991"><ele>402.0</ele><time>2026-04-11T16:29:48.654Z</time></trkpt><trkpt lat="44.3661338" lon="11.0780369"><ele>402.0</ele><time>2026-04-11T16:29:50.654Z</time></trkpt><trkpt lat="44.3661442" lon="11.0779024"><ele>402.0</ele><time>2026-04-11T16:29:52.654Z</time></trkpt><trkpt lat="44.3661858" lon="11.0778066"><ele>400.8</ele><time>2026-04-11T16:29:54.653Z</time></trkpt><trkpt lat="44.3662605" lon="11.0777612"><ele>399.6</ele><time>2026-04-11T16:29:56.654Z</time></trkpt><trkpt lat="44.3663406" lon="11.0777564"><ele>398.40000000000003</ele><time>2026-04-11T16:29:57.654Z</time></trkpt><trkpt lat="44.3664319" lon="11.0776801"><ele>397.20000000000005</ele><time>2026-04-11T16:29:59.654Z</time></trkpt><trkpt lat="44.3664392" lon="11.0775537"><ele>396.0</ele><time>2026-04-11T16:30:02.654Z</time></trkpt><trkpt lat="44.3664213" lon="11.077406"><ele>393.8333333333333</ele><time>2026-04-11T16:30:04.654Z</time></trkpt><trkpt lat="44.3664213" lon="11.0772922"><ele>391.6666666666667</ele><time>2026-04-11T16:30:05.654Z</time></trkpt><trkpt lat="44.3664154" lon="11.0772002"><ele>389.5</ele><time>2026-04-11T16:30:06.654Z</time></trkpt><trkpt lat="44.3664135" lon="11.077109"><ele>387.33333333333337</ele><time>2026-04-11T16:30:07.654Z</time></trkpt><trkpt lat="44.3664344" lon="11.0770222"><ele>385.1666666666667</ele><time>2026-04-11T16:30:08.653Z</time></trkpt><trkpt lat="44.3664682" lon="11.0769458"><ele>383.0</ele><time>2026-04-11T16:30:09.653Z</time></trkpt><trkpt lat="44.3665207" lon="11.0768093"><ele>383.0</ele><time>2026-04-11T16:30:11.654Z</time></trkpt><trkpt lat="44.3665948" lon="11.0766629"><ele>383.0</ele><time>2026-04-11T16:30:13.653Z</time></trkpt><trkpt lat="44.3666786" lon="11.0765369"><ele>383.0</ele><time>2026-04-11T16:30:15.654Z</time></trkpt><trkpt lat="44.3667271" lon="11.0764721"><ele>383.0</ele><time>2026-04-11T16:30:16.654Z</time></trkpt><trkpt lat="44.3667841" lon="11.0764192"><ele>383.0</ele><time>2026-04-11T16:30:17.654Z</time></trkpt><trkpt lat="44.3668416" lon="11.0763625"><ele>382.83333333333337</ele><time>2026-04-11T16:30:18.654Z</time></trkpt><trkpt lat="44.3668898" lon="11.0762976"><ele>382.6666666666667</ele><time>2026-04-11T16:30:19.654Z</time></trkpt><trkpt lat="44.3669741" lon="11.0762059"><ele>382.5</ele><time>2026-04-11T16:30:21.653Z</time></trkpt><trkpt lat="44.3670563" lon="11.0760972"><ele>382.3333333333333</ele><time>2026-04-11T16:30:23.654Z</time></trkpt><trkpt lat="44.3671095" lon="11.0760302"><ele>382.16666666666663</ele><time>2026-04-11T16:30:24.654Z</time></trkpt><trkpt lat="44.3671622" lon="11.0759745"><ele>382.0</ele><time>2026-04-11T16:30:25.654Z</time></trkpt><trkpt lat="44.3672279" lon="11.0758518"><ele>379.40000000000003</ele><time>2026-04-11T16:30:27.654Z</time></trkpt><trkpt lat="44.3672726" lon="11.0757827"><ele>376.8</ele><time>2026-04-11T16:30:28.654Z</time></trkpt><trkpt lat="44.367346" lon="11.0756865"><ele>374.2</ele><time>2026-04-11T16:30:30.654Z</time></trkpt><trkpt lat="44.3674213" lon="11.0755778"><ele>371.6</ele><time>2026-04-11T16:30:32.654Z</time></trkpt><trkpt lat="44.3674699" lon="11.0754758"><ele>369.0</ele><time>2026-04-11T16:30:34.653Z</time></trkpt><trkpt lat="44.3675604" lon="11.0754434"><ele>368.4</ele><time>2026-04-11T16:30:35.654Z</time></trkpt><trkpt lat="44.3676628" lon="11.075377"><ele>367.79999999999995</ele><time>2026-04-11T16:30:37.654Z</time></trkpt><trkpt lat="44.3677566" lon="11.0753072"><ele>367.20000000000005</ele><time>2026-04-11T16:30:39.653Z</time></trkpt><trkpt lat="44.3678359" lon="11.0752755"><ele>366.6</ele><time>2026-04-11T16:30:40.654Z</time></trkpt><trkpt lat="44.367933" lon="11.0752458"><ele>366.0</ele><time>2026-04-11T16:30:42.654Z</time></trkpt><trkpt lat="44.3679957" lon="11.0752122"><ele>364.6</ele><time>2026-04-11T16:30:43.654Z</time></trkpt><trkpt lat="44.3680595" lon="11.0751691"><ele>363.20000000000005</ele><time>2026-04-11T16:30:45.654Z</time></trkpt><trkpt lat="44.3681598" lon="11.0750956"><ele>361.79999999999995</ele><time>2026-04-11T16:30:47.654Z</time></trkpt><trkpt lat="44.3682449" lon="11.0750251"><ele>360.4</ele><time>2026-04-11T16:30:49.653Z</time></trkpt><trkpt lat="44.3683413" lon="11.0749416"><ele>359.0</ele><time>2026-04-11T16:30:51.654Z</time></trkpt><trkpt lat="44.3684423" lon="11.0748802"><ele>357.5</ele><time>2026-04-11T16:30:54.653Z</time></trkpt><trkpt lat="44.3685096" lon="11.0748753"><ele>356.0</ele><time>2026-04-11T16:30:56.654Z</time></trkpt><trkpt lat="44.3677773" lon="11.069942"><ele>372.5</ele><time>2026-04-11T16:22:15.654Z</time></trkpt><trkpt lat="44.3676933" lon="11.0699147"><ele>389.0</ele><time>2026-04-11T16:22:17.654Z</time></trkpt><trkpt lat="44.3676083" lon="11.069886"><ele>405.5</ele><time>2026-04-11T16:22:19.653Z</time></trkpt><trkpt lat="44.3675221" lon="11.06987"><ele>422.0</ele><time>2026-04-11T16:22:21.654Z</time></trkpt><trkpt lat="44.3674401" lon="11.069848"><ele>438.49999999999994</ele><time>2026-04-11T16:22:23.654Z</time></trkpt><trkpt lat="44.3673636" lon="11.0698286"><ele>455.0</ele><time>2026-04-11T16:22:25.654Z</time></trkpt><trkpt lat="44.3672776" lon="11.0698023"><ele>457.99999999999994</ele><time>2026-04-11T16:22:27.654Z</time></trkpt><trkpt lat="44.3671903" lon="11.0697593"><ele>461.0</ele><time>2026-04-11T16:22:29.654Z</time></trkpt><trkpt lat="44.3671079" lon="11.0697341"><ele>464.0</ele><time>2026-04-11T16:22:31.654Z</time></trkpt><trkpt lat="44.3670288" lon="11.0697081"><ele>467.0</ele><time>2026-04-11T16:22:33.654Z</time></trkpt><trkpt lat="44.3669519" lon="11.0696767"><ele>469.99999999999994</ele><time>2026-04-11T16:22:35.654Z</time></trkpt><trkpt lat="44.36687" lon="11.0696435"><ele>473.0</ele><time>2026-04-11T16:22:37.654Z</time></trkpt><trkpt lat="44.366794" lon="11.0696308"><ele>472.99999999999994</ele><time>2026-04-11T16:22:39.654Z</time></trkpt><trkpt lat="44.3667136" lon="11.0696683"><ele>473.0</ele><time>2026-04-11T16:22:42.654Z</time></trkpt><trkpt lat="44.3666497" lon="11.0697527"><ele>473.0</ele><time>2026-04-11T16:22:54.654Z</time></trkpt><trkpt lat="44.366579" lon="11.0698486"><ele>473.0</ele><time>2026-04-11T16:22:56.653Z</time></trkpt><trkpt lat="44.3665505" lon="11.0699484"><ele>472.99999999999994</ele><time>2026-04-11T16:22:57.653Z</time></trkpt><trkpt lat="44.3665323" lon="11.0700346"><ele>473.0</ele><time>2026-04-11T16:22:58.654Z</time></trkpt><trkpt lat="44.3664982" lon="11.0701951"><ele>471.79999999999995</ele><time>2026-04-11T16:23:00.654Z</time></trkpt><trkpt lat="44.3663925" lon="11.0703317"><ele>470.59999999999997</ele><time>2026-04-11T16:23:02.654Z</time></trkpt><trkpt lat="44.3663418" lon="11.0704164"><ele>469.40000000000003</ele><time>2026-04-11T16:23:03.654Z</time></trkpt><trkpt lat="44.3662857" lon="11.0705447"><ele>468.20000000000005</ele><time>2026-04-11T16:23:04.653Z</time></trkpt><trkpt lat="44.3662382" lon="11.0706628"><ele>467.0</ele><time>2026-04-11T16:23:05.653Z</time></trkpt><trkpt lat="44.3661944" lon="11.0707606"><ele>470.20000000000005</ele><time>2026-04-11T16:23:06.653Z</time></trkpt><trkpt lat="44.3661495" lon="11.0708364"><ele>473.40000000000003</ele><time>2026-04-11T16:23:07.653Z</time></trkpt><trkpt lat="44.3660995" lon="11.0709159"><ele>476.59999999999997</ele><time>2026-04-11T16:23:08.654Z</time></trkpt><trkpt lat="44.3660419" lon="11.071005"><ele>479.79999999999995</ele><time>2026-04-11T16:23:09.653Z</time></trkpt><trkpt lat="44.3659169" lon="11.071107"><ele>483.0</ele><time>2026-04-11T16:23:10.654Z</time></trkpt><trkpt lat="44.3658353" lon="11.0711762"><ele>483.0</ele><time>2026-04-11T16:23:11.653Z</time></trkpt><trkpt lat="44.3657099" lon="11.0712597"><ele>482.99999999999994</ele><time>2026-04-11T16:23:13.654Z</time></trkpt><trkpt lat="44.3656499" lon="11.0713094"><ele>482.99999999999994</ele><time>2026-04-11T16:23:14.653Z</time></trkpt><trkpt lat="44.3655744" lon="11.0713869"><ele>483.0</ele><time>2026-04-11T16:23:15.653Z</time></trkpt><trkpt lat="44.3654509" lon="11.0714944"><ele>483.0</ele><time>2026-04-11T16:23:17.654Z</time></trkpt><trkpt lat="44.3653717" lon="11.0715604"><ele>483.79999999999995</ele><time>2026-04-11T16:23:18.653Z</time></trkpt><trkpt lat="44.3652834" lon="11.0716488"><ele>484.59999999999997</ele><time>2026-04-11T16:23:20.653Z</time></trkpt><trkpt lat="44.3652192" lon="11.0717671"><ele>485.40000000000003</ele><time>2026-04-11T16:23:22.654Z</time></trkpt><trkpt lat="44.3651482" lon="11.0718837"><ele>486.20000000000005</ele><time>2026-04-11T16:23:24.654Z</time></trkpt><trkpt lat="44.3650753" lon="11.0719222"><ele>487.0</ele><time>2026-04-11T16:23:26.654Z</time></trkpt><trkpt lat="44.3649519" lon="11.0719515"><ele>487.0</ele><time>2026-04-11T16:23:28.653Z</time></trkpt><trkpt lat="44.3648817" lon="11.0719506"><ele>487.00000000000006</ele><time>2026-04-11T16:23:29.654Z</time></trkpt><trkpt lat="44.3648169" lon="11.0719684"><ele>487.00000000000006</ele><time>2026-04-11T16:23:30.654Z</time></trkpt><trkpt lat="44.3646909" lon="11.0719968"><ele>487.0</ele><time>2026-04-11T16:23:32.654Z</time></trkpt><trkpt lat="44.3645334" lon="11.0720244"><ele>487.0</ele><time>2026-04-11T16:23:34.654Z</time></trkpt><trkpt lat="44.3644103" lon="11.0720329"><ele>490.40000000000003</ele><time>2026-04-11T16:23:36.654Z</time></trkpt><trkpt lat="44.3643318" lon="11.072031"><ele>493.80000000000007</ele><time>2026-04-11T16:23:37.654Z</time></trkpt><trkpt lat="44.3642662" lon="11.0720169"><ele>497.2</ele><time>2026-04-11T16:23:38.654Z</time></trkpt><trkpt lat="44.3641993" lon="11.0719827"><ele>500.6</ele><time>2026-04-11T16:23:39.653Z</time></trkpt><trkpt lat="44.3641174" lon="11.0718969"><ele>504.0</ele><time>2026-04-11T16:23:41.654Z</time></trkpt><trkpt lat="44.3640318" lon="11.0717194"><ele>504.0</ele><time>2026-04-11T16:23:43.654Z</time></trkpt><trkpt lat="44.3639799" lon="11.0716164"><ele>504.0</ele><time>2026-04-11T16:23:44.654Z</time></trkpt><trkpt lat="44.3639338" lon="11.0715339"><ele>504.0</ele><time>2026-04-11T16:23:45.653Z</time></trkpt><trkpt lat="44.3638647" lon="11.0713983"><ele>504.0</ele><time>2026-04-11T16:23:46.654Z</time></trkpt><trkpt lat="44.3638349" lon="11.071272"><ele>504.0</ele><time>2026-04-11T16:23:47.654Z</time></trkpt><trkpt lat="44.3637951" lon="11.0711355"><ele>504.79999999999995</ele><time>2026-04-11T16:23:48.654Z</time></trkpt><trkpt lat="44.3637577" lon="11.0710101"><ele>505.59999999999997</ele><time>2026-04-11T16:23:49.653Z</time></trkpt><trkpt lat="44.3637048" lon="11.070868"><ele>506.4</ele><time>2026-04-11T16:23:50.653Z</time></trkpt><trkpt lat="44.3636596" lon="11.0707179"><ele>507.2</ele><time>2026-04-11T16:23:51.654Z</time></trkpt><trkpt lat="44.3636267" lon="11.070557"><ele>508.0</ele><time>2026-04-11T16:23:52.654Z</time></trkpt><trkpt lat="44.3635835" lon="11.0703975"><ele>511.4</ele><time>2026-04-11T16:23:53.654Z</time></trkpt><trkpt lat="44.3635678" lon="11.0702407"><ele>514.8</ele><time>2026-04-11T16:23:54.653Z</time></trkpt><trkpt lat="44.3635426" lon="11.0700889"><ele>518.2</ele><time>2026-04-11T16:23:55.654Z</time></trkpt><trkpt lat="44.3635336" lon="11.0699473"><ele>521.6</ele><time>2026-04-11T16:23:56.653Z</time></trkpt><trkpt lat="44.3635335" lon="11.0698034"><ele>525.0</ele><time>2026-04-11T16:23:57.654Z</time></trkpt><trkpt lat="44.3635331" lon="11.0696648"><ele>526.8</ele><time>2026-04-11T16:23:58.654Z</time></trkpt><trkpt lat="44.363535" lon="11.0695463"><ele>528.6</ele><time>2026-04-11T16:23:59.654Z</time></trkpt><trkpt lat="44.3635349" lon="11.0694493"><ele>530.4</ele><time>2026-04-11T16:24:00.654Z</time></trkpt><trkpt lat="44.3635146" lon="11.0693192"><ele>532.2</ele><time>2026-04-11T16:24:02.653Z</time></trkpt><trkpt lat="44.3634258" lon="11.0692641"><ele>534.0</ele><time>2026-04-11T16:24:04.653Z</time></trkpt><trkpt lat="44.3632959" lon="11.0692276"><ele>534.0</ele><time>2026-04-11T16:24:06.654Z</time></trkpt><trkpt lat="44.3631773" lon="11.0692073"><ele>534.0</ele><time>2026-04-11T16:24:08.654Z</time></trkpt><trkpt lat="44.3630697" lon="11.0691993"><ele>534.0</ele><time>2026-04-11T16:24:10.653Z</time></trkpt><trkpt lat="44.3629483" lon="11.0691699"><ele>534.0</ele><time>2026-04-11T16:24:12.654Z</time></trkpt><trkpt lat="44.3628725" lon="11.0691289"><ele>534.0</ele><time>2026-04-11T16:24:13.654Z</time></trkpt><trkpt lat="44.3628011" lon="11.0690904"><ele>533.3333333333334</ele><time>2026-04-11T16:24:14.654Z</time></trkpt><trkpt lat="44.3627387" lon="11.0690605"><ele>532.6666666666666</ele><time>2026-04-11T16:24:15.654Z</time></trkpt><trkpt lat="44.3626821" lon="11.0690213"><ele>532.0</ele><time>2026-04-11T16:24:16.654Z</time></trkpt><trkpt lat="44.3625788" lon="11.0689492"><ele>531.3333333333333</ele><time>2026-04-11T16:24:18.654Z</time></trkpt><trkpt lat="44.3625252" lon="11.0688989"><ele>530.6666666666666</ele><time>2026-04-11T16:24:19.654Z</time></trkpt><trkpt lat="44.3624561" lon="11.0688399"><ele>530.0</ele><time>2026-04-11T16:24:20.654Z</time></trkpt><trkpt lat="44.3623731" lon="11.0687774"><ele>530.0</ele><time>2026-04-11T16:24:21.654Z</time></trkpt><trkpt lat="44.3622785" lon="11.0687015"><ele>530.0</ele><time>2026-04-11T16:24:22.654Z</time></trkpt><trkpt lat="44.3621807" lon="11.0686206"><ele>530.0</ele><time>2026-04-11T16:24:23.654Z</time></trkpt><trkpt lat="44.3620956" lon="11.0685404"><ele>530.0</ele><time>2026-04-11T16:24:24.654Z</time></trkpt><trkpt lat="44.3620184" lon="11.0684672"><ele>530.0</ele><time>2026-04-11T16:24:25.653Z</time></trkpt><trkpt lat="44.3619434" lon="11.0684004"><ele>530.3333333333333</ele><time>2026-04-11T16:24:26.654Z</time></trkpt><trkpt lat="44.361877" lon="11.0683363"><ele>530.6666666666666</ele><time>2026-04-11T16:24:27.653Z</time></trkpt><trkpt lat="44.3618001" lon="11.068284"><ele>531.0</ele><time>2026-04-11T16:24:28.654Z</time></trkpt><trkpt lat="44.3617275" lon="11.0682594"><ele>531.3333333333334</ele><time>2026-04-11T16:24:29.653Z</time></trkpt><trkpt lat="44.3615988" lon="11.0682317"><ele>531.6666666666667</ele><time>2026-04-11T16:24:31.654Z</time></trkpt><trkpt lat="44.361533" lon="11.0682106"><ele>532.0</ele><time>2026-04-11T16:24:32.654Z</time></trkpt><trkpt lat="44.3614445" lon="11.0681892"><ele>533.8000000000001</ele><time>2026-04-11T16:24:33.654Z</time></trkpt><trkpt lat="44.3613515" lon="11.0681694"><ele>535.6</ele><time>2026-04-11T16:24:34.654Z</time></trkpt><trkpt lat="44.3612542" lon="11.068159"><ele>537.4000000000001</ele><time>2026-04-11T16:24:35.653Z</time></trkpt><trkpt lat="44.3611507" lon="11.0681629"><ele>539.2</ele><time>2026-04-11T16:24:36.654Z</time></trkpt><trkpt lat="44.3610449" lon="11.0681793"><ele>541.0</ele><time>2026-04-11T16:24:37.654Z</time></trkpt><trkpt lat="44.3609378" lon="11.0682221"><ele>541.0</ele><time>2026-04-11T16:24:38.653Z</time></trkpt><trkpt lat="44.3608224" lon="11.0682593"><ele>541.0</ele><time>2026-04-11T16:24:39.654Z</time></trkpt><trkpt lat="44.3606987" lon="11.0682907"><ele>541.0</ele><time>2026-04-11T16:24:40.653Z</time></trkpt><trkpt lat="44.360569" lon="11.0683087"><ele>541.0</ele><time>2026-04-11T16:24:41.654Z</time></trkpt><trkpt lat="44.3604347" lon="11.0683284"><ele>542.5</ele><time>2026-04-11T16:24:42.654Z</time></trkpt><trkpt lat="44.3602988" lon="11.0683517"><ele>544.0</ele><time>2026-04-11T16:24:43.654Z</time></trkpt><trkpt lat="44.3601631" lon="11.0683901"><ele>545.5</ele><time>2026-04-11T16:24:44.654Z</time></trkpt><trkpt lat="44.3600415" lon="11.0684263"><ele>547.0</ele><time>2026-04-11T16:24:45.653Z</time></trkpt><trkpt lat="44.3599271" lon="11.0684683"><ele>547.0</ele><time>2026-04-11T16:24:46.654Z</time></trkpt><trkpt lat="44.3598112" lon="11.068507"><ele>547.0</ele><time>2026-04-11T16:24:47.653Z</time></trkpt><trkpt lat="44.3596902" lon="11.0685486"><ele>547.0</ele><time>2026-04-11T16:24:48.654Z</time></trkpt><trkpt lat="44.3595646" lon="11.0685939"><ele>547.0</ele><time>2026-04-11T16:24:49.654Z</time></trkpt><trkpt lat="44.3594404" lon="11.0686384"><ele>547.25</ele><time>2026-04-11T16:24:50.653Z</time></trkpt><trkpt lat="44.3593155" lon="11.0687015"><ele>547.5</ele><time>2026-04-11T16:24:51.654Z</time></trkpt><trkpt lat="44.3591849" lon="11.0687785"><ele>547.75</ele><time>2026-04-11T16:24:52.653Z</time></trkpt><trkpt lat="44.3590498" lon="11.0688709"><ele>548.0</ele><time>2026-04-11T16:24:53.654Z</time></trkpt><trkpt lat="44.3589111" lon="11.0689663"><ele>546.3333333333333</ele><time>2026-04-11T16:24:54.654Z</time></trkpt><trkpt lat="44.358764" lon="11.0690687"><ele>544.6666666666666</ele><time>2026-04-11T16:24:55.654Z</time></trkpt><trkpt lat="44.3586157" lon="11.069154"><ele>543.0</ele><time>2026-04-11T16:24:56.654Z</time></trkpt><trkpt lat="44.3584761" lon="11.0692313"><ele>543.0</ele><time>2026-04-11T16:24:57.654Z</time></trkpt><trkpt lat="44.3583387" lon="11.0693041"><ele>543.0</ele><time>2026-04-11T16:24:58.654Z</time></trkpt><trkpt lat="44.3582084" lon="11.069392"><ele>543.0</ele><time>2026-04-11T16:24:59.654Z</time></trkpt><trkpt lat="44.3580903" lon="11.0695114"><ele>543.0</ele><time>2026-04-11T16:25:00.654Z</time></trkpt><trkpt lat="44.3579808" lon="11.0696245"><ele>543.1666666666666</ele><time>2026-04-11T16:25:01.654Z</time></trkpt><trkpt lat="44.3579133" lon="11.0697166"><ele>543.3333333333334</ele><time>2026-04-11T16:25:02.654Z</time></trkpt><trkpt lat="44.3579752" lon="11.0697813"><ele>543.5</ele><time>2026-04-11T16:25:04.654Z</time></trkpt><trkpt lat="44.3579396" lon="11.0699014"><ele>543.6666666666667</ele><time>2026-04-11T16:25:05.653Z</time></trkpt><trkpt lat="44.3579146" lon="11.0699993"><ele>543.8333333333334</ele><time>2026-04-11T16:25:06.654Z</time></trkpt><trkpt lat="44.3578898" lon="11.0701039"><ele>544.0</ele><time>2026-04-11T16:25:07.654Z</time></trkpt><trkpt lat="44.3578568" lon="11.0702209"><ele>544.0</ele><time>2026-04-11T16:25:08.654Z</time></trkpt><trkpt lat="44.3578227" lon="11.0703313"><ele>544.0</ele><time>2026-04-11T16:25:09.654Z</time></trkpt><trkpt lat="44.3577733" lon="11.0704474"><ele>544.0</ele><time>2026-04-11T16:25:10.654Z</time></trkpt><trkpt lat="44.357721" lon="11.0705393"><ele>544.0</ele><time>2026-04-11T16:25:11.654Z</time></trkpt><trkpt lat="44.3576719" lon="11.0706231"><ele>544.0</ele><time>2026-04-11T16:25:12.654Z</time></trkpt><trkpt lat="44.3576264" lon="11.0707021"><ele>544.0</ele><time>2026-04-11T16:25:13.654Z</time></trkpt><trkpt lat="44.3575844" lon="11.0707844"><ele>543.3333333333334</ele><time>2026-04-11T16:25:14.653Z</time></trkpt><trkpt lat="44.3575198" lon="11.0709008"><ele>542.6666666666667</ele><time>2026-04-11T16:25:16.654Z</time></trkpt><trkpt lat="44.3574707" lon="11.070995"><ele>542.0</ele><time>2026-04-11T16:26:06.654Z</time></trkpt><trkpt lat="44.3575151" lon="11.0711052"><ele>541.3333333333334</ele><time>2026-04-11T16:26:09.654Z</time></trkpt><trkpt lat="44.3575478" lon="11.071193"><ele>540.6666666666666</ele><time>2026-04-11T16:26:10.654Z</time></trkpt><trkpt lat="44.3575817" lon="11.0712946"><ele>540.0</ele><time>2026-04-11T16:26:11.654Z</time></trkpt><trkpt lat="44.3576242" lon="11.0714078"><ele>540.0</ele><time>2026-04-11T16:26:12.654Z</time></trkpt><trkpt lat="44.3576675" lon="11.0715251"><ele>540.0</ele><time>2026-04-11T16:26:13.653Z</time></trkpt><trkpt lat="44.3577147" lon="11.0716553"><ele>540.0</ele><time>2026-04-11T16:26:14.654Z</time></trkpt><trkpt lat="44.3577581" lon="11.071779"><ele>540.0</ele><time>2026-04-11T16:26:15.654Z</time></trkpt><trkpt lat="44.357799" lon="11.071903"><ele>540.0</ele><time>2026-04-11T16:26:16.654Z</time></trkpt><trkpt lat="44.3578391" lon="11.0720131"><ele>539.1666666666666</ele><time>2026-04-11T16:26:17.654Z</time></trkpt><trkpt lat="44.3578835" lon="11.0721027"><ele>538.3333333333334</ele><time>2026-04-11T16:26:18.654Z</time></trkpt><trkpt lat="44.3579365" lon="11.0721586"><ele>537.5</ele><time>2026-04-11T16:26:19.654Z</time></trkpt><trkpt lat="44.3580565" lon="11.0721436"><ele>536.6666666666667</ele><time>2026-04-11T16:26:21.653Z</time></trkpt><trkpt lat="44.3580901" lon="11.0720544"><ele>535.8333333333334</ele><time>2026-04-11T16:26:22.654Z</time></trkpt><trkpt lat="44.3581092" lon="11.0719607"><ele>535.0</ele><time>2026-04-11T16:26:23.653Z</time></trkpt><trkpt lat="44.3581421" lon="11.0718762"><ele>532.6666666666667</ele><time>2026-04-11T16:26:24.654Z</time></trkpt><trkpt lat="44.3582197" lon="11.0718248"><ele>530.3333333333334</ele><time>2026-04-11T16:26:26.654Z</time></trkpt><trkpt lat="44.3582384" lon="11.0719131"><ele>528.0</ele><time>2026-04-11T16:26:27.654Z</time></trkpt><trkpt lat="44.3582401" lon="11.072012"><ele>525.6666666666666</ele><time>2026-04-11T16:26:28.654Z</time></trkpt><trkpt lat="44.358217" lon="11.0721584"><ele>523.3333333333333</ele><time>2026-04-11T16:26:29.654Z</time></trkpt><trkpt lat="44.3582012" lon="11.0722809"><ele>521.0</ele><time>2026-04-11T16:26:30.654Z</time></trkpt><trkpt lat="44.3581787" lon="11.0724055"><ele>520.1666666666666</ele><time>2026-04-11T16:26:31.654Z</time></trkpt><trkpt lat="44.3581439" lon="11.0725331"><ele>519.3333333333333</ele><time>2026-04-11T16:26:32.654Z</time></trkpt><trkpt lat="44.3580977" lon="11.0726332"><ele>518.5</ele><time>2026-04-11T16:26:33.654Z</time></trkpt><trkpt lat="44.3580301" lon="11.0727069"><ele>517.6666666666666</ele><time>2026-04-11T16:26:34.654Z</time></trkpt><trkpt lat="44.3579578" lon="11.0727439"><ele>516.8333333333334</ele><time>2026-04-11T16:26:35.654Z</time></trkpt><trkpt lat="44.3578828" lon="11.072778"><ele>516.0</ele><time>2026-04-11T16:26:36.654Z</time></trkpt><trkpt lat="44.3578141" lon="11.0728382"><ele>516.2</ele><time>2026-04-11T16:26:37.653Z</time></trkpt><trkpt lat="44.3577509" lon="11.072912"><ele>516.4000000000001</ele><time>2026-04-11T16:26:38.654Z</time></trkpt><trkpt lat="44.3577195" lon="11.0730096"><ele>516.6</ele><time>2026-04-11T16:26:39.654Z</time></trkpt><trkpt lat="44.3577266" lon="11.0731166"><ele>516.8000000000001</ele><time>2026-04-11T16:26:40.654Z</time></trkpt><trkpt lat="44.3577769" lon="11.0732496"><ele>517.0</ele><time>2026-04-11T16:26:41.654Z</time></trkpt><trkpt lat="44.357854" lon="11.073396"><ele>517.0</ele><time>2026-04-11T16:26:42.653Z</time></trkpt><trkpt lat="44.3579167" lon="11.0735884"><ele>517.0</ele><time>2026-04-11T16:26:43.654Z</time></trkpt><trkpt lat="44.3579462" lon="11.0738049"><ele>517.0</ele><time>2026-04-11T16:26:44.654Z</time></trkpt><trkpt lat="44.3579543" lon="11.0740092"><ele>515.5</ele><time>2026-04-11T16:26:45.654Z</time></trkpt><trkpt lat="44.3579572" lon="11.0742092"><ele>514.0</ele><time>2026-04-11T16:26:46.654Z</time></trkpt><trkpt lat="44.3579543" lon="11.0743977"><ele>512.5</ele><time>2026-04-11T16:26:47.654Z</time></trkpt><trkpt lat="44.3579375" lon="11.0745746"><ele>511.0</ele><time>2026-04-11T16:26:48.654Z</time></trkpt><trkpt lat="44.3579116" lon="11.0747415"><ele>511.0</ele><time>2026-04-11T16:26:49.654Z</time></trkpt><trkpt lat="44.3578819" lon="11.0749039"><ele>511.0</ele><time>2026-04-11T16:26:50.653Z</time></trkpt><trkpt lat="44.3578424" lon="11.07505"><ele>511.0</ele><time>2026-04-11T16:26:51.654Z</time></trkpt><trkpt lat="44.3577803" lon="11.0751798"><ele>511.0</ele><time>2026-04-11T16:26:52.654Z</time></trkpt><trkpt lat="44.3576943" lon="11.0752688"><ele>510.4</ele><time>2026-04-11T16:26:53.654Z</time></trkpt><trkpt lat="44.3576111" lon="11.0753395"><ele>509.8</ele><time>2026-04-11T16:26:54.654Z</time></trkpt><trkpt lat="44.3575502" lon="11.0754166"><ele>509.19999999999993</ele><time>2026-04-11T16:26:55.654Z</time></trkpt><trkpt lat="44.3575244" lon="11.0755073"><ele>508.59999999999997</ele><time>2026-04-11T16:26:56.654Z</time></trkpt><trkpt lat="44.3575979" lon="11.0756371"><ele>508.0</ele><time>2026-04-11T16:26:58.654Z</time></trkpt><trkpt lat="44.3576944" lon="11.0756645"><ele>508.0</ele><time>2026-04-11T16:26:59.653Z</time></trkpt><trkpt lat="44.3577996" lon="11.0756953"><ele>507.99999999999994</ele><time>2026-04-11T16:27:00.653Z</time></trkpt><trkpt lat="44.3579042" lon="11.0757425"><ele>507.99999999999994</ele><time>2026-04-11T16:27:01.654Z</time></trkpt><trkpt lat="44.3579993" lon="11.0758088"><ele>508.0</ele><time>2026-04-11T16:27:02.654Z</time></trkpt><trkpt lat="44.3580824" lon="11.0758815"><ele>508.0</ele><time>2026-04-11T16:27:03.654Z</time></trkpt><trkpt lat="44.3581627" lon="11.0759461"><ele>506.25</ele><time>2026-04-11T16:27:04.654Z</time></trkpt><trkpt lat="44.3582431" lon="11.0759914"><ele>504.5</ele><time>2026-04-11T16:27:05.653Z</time></trkpt><trkpt lat="44.3583459" lon="11.0760111"><ele>502.75</ele><time>2026-04-11T16:27:06.654Z</time></trkpt><trkpt lat="44.3584702" lon="11.0760072"><ele>501.0</ele><time>2026-04-11T16:27:07.654Z</time></trkpt><trkpt lat="44.3586095" lon="11.0759863"><ele>501.0</ele><time>2026-04-11T16:27:08.654Z</time></trkpt><trkpt lat="44.3587562" lon="11.0759576"><ele>501.0</ele><time>2026-04-11T16:27:09.654Z</time></trkpt><trkpt lat="44.3589023" lon="11.0759275"><ele>501.0</ele><time>2026-04-11T16:27:10.654Z</time></trkpt><trkpt lat="44.3590527" lon="11.07589"><ele>501.0</ele><time>2026-04-11T16:27:11.653Z</time></trkpt><trkpt lat="44.3591962" lon="11.075849"><ele>498.75</ele><time>2026-04-11T16:27:12.653Z</time></trkpt><trkpt lat="44.3593388" lon="11.0758007"><ele>496.5</ele><time>2026-04-11T16:27:13.654Z</time></trkpt><trkpt lat="44.359478" lon="11.0757668"><ele>494.25</ele><time>2026-04-11T16:27:14.654Z</time></trkpt><trkpt lat="44.3596188" lon="11.0757484"><ele>492.0</ele><time>2026-04-11T16:27:15.653Z</time></trkpt><trkpt lat="44.3597593" lon="11.075751"><ele>490.25</ele><time>2026-04-11T16:27:16.654Z</time></trkpt><trkpt lat="44.3598957" lon="11.0757761"><ele>488.5</ele><time>2026-04-11T16:27:17.654Z</time></trkpt><trkpt lat="44.3600245" lon="11.0758141"><ele>486.75</ele><time>2026-04-11T16:27:18.654Z</time></trkpt><trkpt lat="44.3601476" lon="11.0758558"><ele>485.0</ele><time>2026-04-11T16:27:19.654Z</time></trkpt><trkpt lat="44.3602556" lon="11.0759035"><ele>484.99999999999994</ele><time>2026-04-11T16:27:20.654Z</time></trkpt><trkpt lat="44.3603526" lon="11.075954"><ele>485.0</ele><time>2026-04-11T16:27:21.653Z</time></trkpt><trkpt lat="44.3604355" lon="11.0760215"><ele>485.0</ele><time>2026-04-11T16:27:22.654Z</time></trkpt><trkpt lat="44.3605016" lon="11.0760883"><ele>485.0</ele><time>2026-04-11T16:27:23.654Z</time></trkpt><trkpt lat="44.3605588" lon="11.0761281"><ele>484.99999999999994</ele><time>2026-04-11T16:27:24.654Z</time></trkpt><trkpt lat="44.360649" lon="11.0761335"><ele>485.0</ele><time>2026-04-11T16:27:26.654Z</time></trkpt><trkpt lat="44.3607318" lon="11.0761274"><ele>483.8333333333333</ele><time>2026-04-11T16:27:28.653Z</time></trkpt><trkpt lat="44.3608377" lon="11.0761095"><ele>482.66666666666663</ele><time>2026-04-11T16:27:30.654Z</time></trkpt><trkpt lat="44.3609037" lon="11.0761166"><ele>481.5</ele><time>2026-04-11T16:27:31.654Z</time></trkpt><trkpt lat="44.3609741" lon="11.0761214"><ele>480.33333333333337</ele><time>2026-04-11T16:27:32.654Z</time></trkpt><trkpt lat="44.361047" lon="11.0761305"><ele>479.1666666666667</ele><time>2026-04-11T16:27:33.654Z</time></trkpt><trkpt lat="44.3611372" lon="11.0761374"><ele>478.0</ele><time>2026-04-11T16:27:34.654Z</time></trkpt><trkpt lat="44.3612303" lon="11.0761388"><ele>478.00000000000006</ele><time>2026-04-11T16:27:35.654Z</time></trkpt><trkpt lat="44.361321" lon="11.076138"><ele>478.0</ele><time>2026-04-11T16:27:36.654Z</time></trkpt><trkpt lat="44.361411" lon="11.0761281"><ele>478.0</ele><time>2026-04-11T16:27:37.654Z</time></trkpt><trkpt lat="44.3614949" lon="11.0761144"><ele>478.0</ele><time>2026-04-11T16:27:38.654Z</time></trkpt><trkpt lat="44.3615767" lon="11.0760954"><ele>478.00000000000006</ele><time>2026-04-11T16:27:39.654Z</time></trkpt><trkpt lat="44.3616536" lon="11.0760683"><ele>478.0</ele><time>2026-04-11T16:27:40.654Z</time></trkpt><trkpt lat="44.3617274" lon="11.0760401"><ele>476.00000000000006</ele><time>2026-04-11T16:27:41.653Z</time></trkpt><trkpt lat="44.361808" lon="11.0760302"><ele>474.0</ele><time>2026-04-11T16:27:42.653Z</time></trkpt><trkpt lat="44.3618904" lon="11.076035"><ele>472.0</ele><time>2026-04-11T16:27:43.654Z</time></trkpt><trkpt lat="44.361992" lon="11.0760406"><ele>470.0</ele><time>2026-04-11T16:27:44.654Z</time></trkpt><trkpt lat="44.3620783" lon="11.0760484"><ele>468.00000000000006</ele><time>2026-04-11T16:27:45.654Z</time></trkpt><trkpt lat="44.3621699" lon="11.0760626"><ele>466.0</ele><time>2026-04-11T16:27:46.654Z</time></trkpt><trkpt lat="44.3622592" lon="11.0760922"><ele>464.83333333333337</ele><time>2026-04-11T16:27:47.654Z</time></trkpt><trkpt lat="44.3623445" lon="11.0761333"><ele>463.6666666666667</ele><time>2026-04-11T16:27:48.653Z</time></trkpt><trkpt lat="44.3624145" lon="11.0761808"><ele>462.5</ele><time>2026-04-11T16:27:49.654Z</time></trkpt><trkpt lat="44.3624831" lon="11.0762203"><ele>461.33333333333337</ele><time>2026-04-11T16:27:50.654Z</time></trkpt><trkpt lat="44.362549" lon="11.0762336"><ele>460.1666666666667</ele><time>2026-04-11T16:27:51.654Z</time></trkpt><trkpt lat="44.3626275" lon="11.0762262"><ele>459.0</ele><time>2026-04-11T16:27:52.654Z</time></trkpt><trkpt lat="44.3627063" lon="11.0762037"><ele>459.0</ele><time>2026-04-11T16:27:53.654Z</time></trkpt><trkpt lat="44.3627867" lon="11.0761676"><ele>459.0</ele><time>2026-04-11T16:27:54.654Z</time></trkpt><trkpt lat="44.3628592" lon="11.0761126"><ele>459.0</ele><time>2026-04-11T16:27:55.654Z</time></trkpt><trkpt lat="44.3629396" lon="11.076049"><ele>459.0</ele><time>2026-04-11T16:27:56.654Z</time></trkpt><trkpt lat="44.3630112" lon="11.0759722"><ele>459.0</ele><time>2026-04-11T16:27:57.654Z</time></trkpt><trkpt lat="44.3630775" lon="11.0758944"><ele>459.0</ele><time>2026-04-11T16:27:58.654Z</time></trkpt><trkpt lat="44.3631395" lon="11.0758222"><ele>457.1666666666667</ele><time>2026-04-11T16:27:59.654Z</time></trkpt><trkpt lat="44.3632121" lon="11.0757965"><ele>455.33333333333337</ele><time>2026-04-11T16:28:00.654Z</time></trkpt><trkpt lat="44.3632833" lon="11.0757857"><ele>453.5</ele><time>2026-04-11T16:28:01.654Z</time></trkpt><trkpt lat="44.3633821" lon="11.075811"><ele>451.6666666666667</ele><time>2026-04-11T16:28:03.654Z</time></trkpt><trkpt lat="44.3634312" lon="11.0759033"><ele>449.83333333333337</ele><time>2026-04-11T16:28:05.654Z</time></trkpt><trkpt lat="44.3634234" lon="11.0759938"><ele>448.0</ele><time>2026-04-11T16:28:06.654Z</time></trkpt><trkpt lat="44.3634036" lon="11.0761111"><ele>448.00000000000006</ele><time>2026-04-11T16:28:07.653Z</time></trkpt><trkpt lat="44.3633832" lon="11.0762351"><ele>448.0</ele><time>2026-04-11T16:28:08.654Z</time></trkpt><trkpt lat="44.3633611" lon="11.0763588"><ele>448.0</ele><time>2026-04-11T16:28:09.654Z</time></trkpt><trkpt lat="44.3633556" lon="11.0764709"><ele>448.0</ele><time>2026-04-11T16:28:10.654Z</time></trkpt><trkpt lat="44.3633533" lon="11.0765873"><ele>448.00000000000006</ele><time>2026-04-11T16:28:11.654Z</time></trkpt><trkpt lat="44.3633505" lon="11.0767051"><ele>448.0</ele><time>2026-04-11T16:28:12.654Z</time></trkpt><trkpt lat="44.3633448" lon="11.076819"><ele>447.6666666666667</ele><time>2026-04-11T16:28:13.654Z</time></trkpt><trkpt lat="44.3633284" lon="11.0769358"><ele>447.33333333333337</ele><time>2026-04-11T16:28:14.654Z</time></trkpt><trkpt lat="44.3633037" lon="11.0770526"><ele>447.0</ele><time>2026-04-11T16:28:15.654Z</time></trkpt><trkpt lat="44.3632695" lon="11.0771665"><ele>446.66666666666663</ele><time>2026-04-11T16:28:16.654Z</time></trkpt><trkpt lat="44.3632163" lon="11.0772739"><ele>446.3333333333333</ele><time>2026-04-11T16:28:17.654Z</time></trkpt><trkpt lat="44.3631544" lon="11.0773702"><ele>446.0</ele><time>2026-04-11T16:28:18.653Z</time></trkpt><trkpt lat="44.3630844" lon="11.0774806"><ele>445.20000000000005</ele><time>2026-04-11T16:28:19.654Z</time></trkpt><trkpt lat="44.3630198" lon="11.0775953"><ele>444.40000000000003</ele><time>2026-04-11T16:28:20.654Z</time></trkpt><trkpt lat="44.3629525" lon="11.077705"><ele>443.6</ele><time>2026-04-11T16:28:21.653Z</time></trkpt><trkpt lat="44.3628842" lon="11.0778076"><ele>442.8</ele><time>2026-04-11T16:28:22.654Z</time></trkpt><trkpt lat="44.3628314" lon="11.0778853"><ele>442.0</ele><time>2026-04-11T16:28:23.654Z</time></trkpt><trkpt lat="44.3627735" lon="11.0779543"><ele>442.0</ele><time>2026-04-11T16:28:24.654Z</time></trkpt><trkpt lat="44.362721" lon="11.0780243"><ele>442.00000000000006</ele><time>2026-04-11T16:28:25.654Z</time></trkpt><trkpt lat="44.3626979" lon="11.078176"><ele>442.00000000000006</ele><time>2026-04-11T16:28:27.653Z</time></trkpt><trkpt lat="44.3627478" lon="11.0783403"><ele>442.0</ele><time>2026-04-11T16:28:29.654Z</time></trkpt><trkpt lat="44.3628003" lon="11.0784227"><ele>442.0</ele><time>2026-04-11T16:28:30.654Z</time></trkpt><trkpt lat="44.362866" lon="11.0785012"><ele>441.50000000000006</ele><time>2026-04-11T16:28:31.654Z</time></trkpt><trkpt lat="44.3629394" lon="11.0785705"><ele>441.0</ele><time>2026-04-11T16:28:32.654Z</time></trkpt><trkpt lat="44.3630134" lon="11.0786191"><ele>440.5</ele><time>2026-04-11T16:28:33.654Z</time></trkpt><trkpt lat="44.3630963" lon="11.078614"><ele>440.0</ele><time>2026-04-11T16:28:34.654Z</time></trkpt><trkpt lat="44.3631847" lon="11.078588"><ele>439.50000000000006</ele><time>2026-04-11T16:28:35.654Z</time></trkpt><trkpt lat="44.3632686" lon="11.0785527"><ele>439.0</ele><time>2026-04-11T16:28:36.654Z</time></trkpt><trkpt lat="44.36336" lon="11.0785225"><ele>436.83333333333337</ele><time>2026-04-11T16:28:37.654Z</time></trkpt><trkpt lat="44.363448" lon="11.078518"><ele>434.6666666666667</ele><time>2026-04-11T16:28:38.654Z</time></trkpt><trkpt lat="44.3635365" lon="11.0785307"><ele>432.5</ele><time>2026-04-11T16:28:39.653Z</time></trkpt><trkpt lat="44.3636234" lon="11.0785678"><ele>430.33333333333337</ele><time>2026-04-11T16:28:40.654Z</time></trkpt><trkpt lat="44.3636982" lon="11.0786083"><ele>428.1666666666667</ele><time>2026-04-11T16:28:41.654Z</time></trkpt><trkpt lat="44.3637743" lon="11.0786501"><ele>426.0</ele><time>2026-04-11T16:28:42.653Z</time></trkpt><trkpt lat="44.3638453" lon="11.0787107"><ele>423.5</ele><time>2026-04-11T16:28:43.654Z</time></trkpt><trkpt lat="44.3639226" lon="11.0787933"><ele>421.0</ele><time>2026-04-11T16:28:44.654Z</time></trkpt><trkpt lat="44.364012" lon="11.0789083"><ele>418.5</ele><time>2026-04-11T16:28:45.654Z</time></trkpt><trkpt lat="44.3641135" lon="11.0790292"><ele>416.0</ele><time>2026-04-11T16:28:46.654Z</time></trkpt><trkpt lat="44.3642207" lon="11.0791465"><ele>415.99999999999994</ele><time>2026-04-11T16:28:47.654Z</time></trkpt><trkpt lat="44.364313" lon="11.0792499"><ele>416.0</ele><time>2026-04-11T16:28:48.653Z</time></trkpt><trkpt lat="44.3643897" lon="11.0793395"><ele>416.0</ele><time>2026-04-11T16:28:49.654Z</time></trkpt><trkpt lat="44.3644399" lon="11.0794027"><ele>416.0</ele><time>2026-04-11T16:28:50.654Z</time></trkpt><trkpt lat="44.364485" lon="11.0794715"><ele>415.99999999999994</ele><time>2026-04-11T16:28:53.654Z</time></trkpt><trkpt lat="44.3644302" lon="11.0794036"><ele>416.0</ele><time>2026-04-11T16:29:03.653Z</time></trkpt><trkpt lat="44.3643946" lon="11.0793225"><ele>415.99999999999994</ele><time>2026-04-11T16:29:09.654Z</time></trkpt><trkpt lat="44.3644806" lon="11.0792959"><ele>416.0</ele><time>2026-04-11T16:29:13.654Z</time></trkpt><trkpt lat="44.3645593" lon="11.0792832"><ele>416.0</ele><time>2026-04-11T16:29:15.654Z</time></trkpt><trkpt lat="44.3646225" lon="11.0792172"><ele>416.0</ele><time>2026-04-11T16:29:17.653Z</time></trkpt><trkpt lat="44.364675" lon="11.0791588"><ele>415.99999999999994</ele><time>2026-04-11T16:29:18.654Z</time></trkpt><trkpt lat="44.3647417" lon="11.0790583"><ele>416.0</ele><time>2026-04-11T16:29:20.654Z</time></trkpt><trkpt lat="44.3648178" lon="11.0789853"><ele>413.25</ele><time>2026-04-11T16:29:21.654Z</time></trkpt><trkpt lat="44.3648834" lon="11.0789674"><ele>410.5</ele><time>2026-04-11T16:29:22.654Z</time></trkpt><trkpt lat="44.3649428" lon="11.0788805"><ele>407.75</ele><time>2026-04-11T16:29:23.654Z</time></trkpt><trkpt lat="44.3651147" lon="11.0789057"><ele>405.0</ele><time>2026-04-11T16:29:24.653Z</time></trkpt><trkpt lat="44.3652427" lon="11.0788777"><ele>405.0</ele><time>2026-04-11T16:29:25.654Z</time></trkpt><trkpt lat="44.3653401" lon="11.0788687"><ele>405.0</ele><time>2026-04-11T16:29:26.654Z</time></trkpt><trkpt lat="44.3654607" lon="11.0788971"><ele>405.0</ele><time>2026-04-11T16:29:27.654Z</time></trkpt><trkpt lat="44.3655857" lon="11.0789049"><ele>405.0</ele><time>2026-04-11T16:29:29.654Z</time></trkpt><trkpt lat="44.3656816" lon="11.0789142"><ele>405.0</ele><time>2026-04-11T16:29:30.654Z</time></trkpt><trkpt lat="44.3657699" lon="11.0788852"><ele>404.4</ele><time>2026-04-11T16:29:32.654Z</time></trkpt><trkpt lat="44.3658852" lon="11.0788253"><ele>403.8</ele><time>2026-04-11T16:29:35.653Z</time></trkpt><trkpt lat="44.3659565" lon="11.0787888"><ele>403.20000000000005</ele><time>2026-04-11T16:29:38.654Z</time></trkpt><trkpt lat="44.3660214" lon="11.0787664"><ele>402.6</ele><time>2026-04-11T16:29:39.654Z</time></trkpt><trkpt lat="44.3660431" lon="11.0786731"><ele>402.0</ele><time>2026-04-11T16:29:41.653Z</time></trkpt><trkpt lat="44.3660993" lon="11.0784745"><ele>402.0</ele><time>2026-04-11T16:29:43.654Z</time></trkpt><trkpt lat="44.3661576" lon="11.078409"><ele>402.0</ele><time>2026-04-11T16:29:44.654Z</time></trkpt><trkpt lat="44.3661706" lon="11.0783113"><ele>402.0</ele><time>2026-04-11T16:29:45.654Z</time></trkpt><trkpt lat="44.3661593" lon="11.0781991"><ele>402.0</ele><time>2026-04-11T16:29:48.654Z</time></trkpt><trkpt lat="44.3661338" lon="11.0780369"><ele>402.0</ele><time>2026-04-11T16:29:50.654Z</time></trkpt><trkpt lat="44.3661442" lon="11.0779024"><ele>402.0</ele><time>2026-04-11T16:29:52.654Z</time></trkpt><trkpt lat="44.3661858" lon="11.0778066"><ele>400.8</ele><time>2026-04-11T16:29:54.653Z</time></trkpt><trkpt lat="44.3662605" lon="11.0777612"><ele>399.6</ele><time>2026-04-11T16:29:56.654Z</time></trkpt><trkpt lat="44.3663406" lon="11.0777564"><ele>398.40000000000003</ele><time>2026-04-11T16:29:57.654Z</time></trkpt><trkpt lat="44.3664319" lon="11.0776801"><ele>397.20000000000005</ele><time>2026-04-11T16:29:59.654Z</time></trkpt><trkpt lat="44.3664392" lon="11.0775537"><ele>396.0</ele><time>2026-04-11T16:30:02.654Z</time></trkpt><trkpt lat="44.3664213" lon="11.077406"><ele>393.8333333333333</ele><time>2026-04-11T16:30:04.654Z</time></trkpt><trkpt lat="44.3664213" lon="11.0772922"><ele>391.6666666666667</ele><time>2026-04-11T16:30:05.654Z</time></trkpt><trkpt lat="44.3664154" lon="11.0772002"><ele>389.5</ele><time>2026-04-11T16:30:06.654Z</time></trkpt><trkpt lat="44.3664135" lon="11.077109"><ele>387.33333333333337</ele><time>2026-04-11T16:30:07.654Z</time></trkpt><trkpt lat="44.3664344" lon="11.0770222"><ele>385.1666666666667</ele><time>2026-04-11T16:30:08.653Z</time></trkpt><trkpt lat="44.3664682" lon="11.0769458"><ele>383.0</ele><time>2026-04-11T16:30:09.653Z</time></trkpt><trkpt lat="44.3665207" lon="11.0768093"><ele>383.0</ele><time>2026-04-11T16:30:11.654Z</time></trkpt><trkpt lat="44.3665948" lon="11.0766629"><ele>383.0</ele><time>2026-04-11T16:30:13.653Z</time></trkpt><trkpt lat="44.3666786" lon="11.0765369"><ele>383.0</ele><time>2026-04-11T16:30:15.654Z</time></trkpt><trkpt lat="44.3667271" lon="11.0764721"><ele>383.0</ele><time>2026-04-11T16:30:16.654Z</time></trkpt><trkpt lat="44.3667841" lon="11.0764192"><ele>383.0</ele><time>2026-04-11T16:30:17.654Z</time></trkpt><trkpt lat="44.3668416" lon="11.0763625"><ele>382.83333333333337</ele><time>2026-04-11T16:30:18.654Z</time></trkpt><trkpt lat="44.3668898" lon="11.0762976"><ele>382.6666666666667</ele><time>2026-04-11T16:30:19.654Z</time></trkpt><trkpt lat="44.3669741" lon="11.0762059"><ele>382.5</ele><time>2026-04-11T16:30:21.653Z</time></trkpt><trkpt lat="44.3670563" lon="11.0760972"><ele>382.3333333333333</ele><time>2026-04-11T16:30:23.654Z</time></trkpt><trkpt lat="44.3671095" lon="11.0760302"><ele>382.16666666666663</ele><time>2026-04-11T16:30:24.654Z</time></trkpt><trkpt lat="44.3671622" lon="11.0759745"><ele>382.0</ele><time>2026-04-11T16:30:25.654Z</time></trkpt><trkpt lat="44.3672279" lon="11.0758518"><ele>379.40000000000003</ele><time>2026-04-11T16:30:27.654Z</time></trkpt><trkpt lat="44.3672726" lon="11.0757827"><ele>376.8</ele><time>2026-04-11T16:30:28.654Z</time></trkpt><trkpt lat="44.367346" lon="11.0756865"><ele>374.2</ele><time>2026-04-11T16:30:30.654Z</time></trkpt><trkpt lat="44.3674213" lon="11.0755778"><ele>371.6</ele><time>2026-04-11T16:30:32.654Z</time></trkpt><trkpt lat="44.3674699" lon="11.0754758"><ele>369.0</ele><time>2026-04-11T16:30:34.653Z</time></trkpt><trkpt lat="44.3675604" lon="11.0754434"><ele>368.4</ele><time>2026-04-11T16:30:35.654Z</time></trkpt><trkpt lat="44.3676628" lon="11.075377"><ele>367.79999999999995</ele><time>2026-04-11T16:30:37.654Z</time></trkpt><trkpt lat="44.3677566" lon="11.0753072"><ele>367.20000000000005</ele><time>2026-04-11T16:30:39.653Z</time></trkpt><trkpt lat="44.3678359" lon="11.0752755"><ele>366.6</ele><time>2026-04-11T16:30:40.654Z</time></trkpt><trkpt lat="44.367933" lon="11.0752458"><ele>366.0</ele><time>2026-04-11T16:30:42.654Z</time></trkpt><trkpt lat="44.3679957" lon="11.0752122"><ele>364.6</ele><time>2026-04-11T16:30:43.654Z</time></trkpt><trkpt lat="44.3680595" lon="11.0751691"><ele>363.20000000000005</ele><time>2026-04-11T16:30:45.654Z</time></trkpt><trkpt lat="44.3681598" lon="11.0750956"><ele>361.79999999999995</ele><time>2026-04-11T16:30:47.654Z</time></trkpt><trkpt lat="44.3682449" lon="11.0750251"><ele>360.4</ele><time>2026-04-11T16:30:49.653Z</time></trkpt><trkpt lat="44.3683413" lon="11.0749416"><ele>359.0</ele><time>2026-04-11T16:30:51.654Z</time></trkpt><trkpt lat="44.3684423" lon="11.0748802"><ele>358.57142857142856</ele><time>2026-04-11T16:30:54.653Z</time></trkpt><trkpt lat="44.3685096" lon="11.0748753"><ele>358.14285714285717</ele><time>2026-04-11T16:30:56.654Z</time></trkpt><trkpt lat="44.3684893" lon="11.0747793"><ele>357.71428571428567</ele><time>2026-04-11T16:31:04.654Z</time></trkpt><trkpt lat="44.3684281" lon="11.0747143"><ele>357.2857142857143</ele><time>2026-04-11T16:31:07.653Z</time></trkpt><trkpt lat="44.3684248" lon="11.0746257"><ele>356.85714285714283</ele><time>2026-04-11T16:31:10.654Z</time></trkpt><trkpt lat="44.3684279" lon="11.0745088"><ele>356.4285714285714</ele><time>2026-04-11T16:31:14.654Z</time></trkpt><trkpt lat="44.3684194" lon="11.0743961"><ele>356.0</ele><time>2026-04-11T16:31:16.654Z</time></trkpt><trkpt lat="44.3684194" lon="11.0742855"><ele>356.0</ele><time>2026-04-11T16:31:18.654Z</time></trkpt><trkpt lat="44.3684322" lon="11.0741842"><ele>356.0</ele><time>2026-04-11T16:31:22.654Z</time></trkpt><trkpt lat="44.3685006" lon="11.0741299"><ele>356.0</ele><time>2026-04-11T16:31:25.654Z</time></trkpt><trkpt lat="44.368659" lon="11.074073"><ele>356.0</ele><time>2026-04-11T16:31:28.654Z</time></trkpt><trkpt lat="44.3687568" lon="11.0740507"><ele>356.0</ele><time>2026-04-11T16:31:30.654Z</time></trkpt><trkpt lat="44.3688237" lon="11.0740587"><ele>356.8</ele><time>2026-04-11T16:31:35.654Z</time></trkpt><trkpt lat="44.3689116" lon="11.0740809"><ele>357.6</ele><time>2026-04-11T16:31:39.654Z</time></trkpt><trkpt lat="44.3689884" lon="11.0741077"><ele>358.4</ele><time>2026-04-11T16:31:41.654Z</time></trkpt><trkpt lat="44.3690914" lon="11.0741181"><ele>359.2</ele><time>2026-04-11T16:31:42.654Z</time></trkpt><trkpt lat="44.369195" lon="11.0740458"><ele>360.0</ele><time>2026-04-11T16:31:44.654Z</time></trkpt><trkpt lat="44.3692566" lon="11.0739966"><ele>360.0</ele><time>2026-04-11T16:31:45.654Z</time></trkpt><trkpt lat="44.369324" lon="11.0739472"><ele>360.0</ele><time>2026-04-11T16:31:46.654Z</time></trkpt><trkpt lat="44.3693902" lon="11.0739135"><ele>360.0</ele><time>2026-04-11T16:31:47.654Z</time></trkpt><trkpt lat="44.3694553" lon="11.0738579"><ele>360.0</ele><time>2026-04-11T16:31:48.654Z</time></trkpt><trkpt lat="44.369565" lon="11.0737941"><ele>360.0</ele><time>2026-04-11T16:31:50.654Z</time></trkpt><trkpt lat="44.369638" lon="11.0737958"><ele>360.0</ele><time>2026-04-11T16:31:52.654Z</time></trkpt><trkpt lat="44.3697143" lon="11.073731"><ele>355.2</ele><time>2026-04-11T16:31:55.654Z</time></trkpt><trkpt lat="44.3697672" lon="11.0736793"><ele>350.4</ele><time>2026-04-11T16:31:56.654Z</time></trkpt><trkpt lat="44.3698472" lon="11.0735381"><ele>345.6</ele><time>2026-04-11T16:31:58.654Z</time></trkpt><trkpt lat="44.3699113" lon="11.0735033"><ele>340.8</ele><time>2026-04-11T16:31:59.654Z</time></trkpt><trkpt lat="44.3700277" lon="11.0734538"><ele>336.0</ele><time>2026-04-11T16:32:01.654Z</time></trkpt><trkpt lat="44.3701381" lon="11.0734213"><ele>336.0</ele><time>2026-04-11T16:32:03.653Z</time></trkpt><trkpt lat="44.370249" lon="11.0733319"><ele>336.0</ele><time>2026-04-11T16:32:05.654Z</time></trkpt><trkpt lat="44.3703046" lon="11.0732601"><ele>336.0</ele><time>2026-04-11T16:32:06.654Z</time></trkpt><trkpt lat="44.3703565" lon="11.073204"><ele>336.0</ele><time>2026-04-11T16:32:07.654Z</time></trkpt><trkpt lat="44.3704101" lon="11.0731356"><ele>336.0</ele><time>2026-04-11T16:32:08.653Z</time></trkpt><trkpt lat="44.3704799" lon="11.073079"><ele>336.0</ele><time>2026-04-11T16:32:09.654Z</time></trkpt><trkpt lat="44.3705494" lon="11.0730198"><ele>335.6</ele><time>2026-04-11T16:32:10.654Z</time></trkpt><trkpt lat="44.3706343" lon="11.0729278"><ele>335.20000000000005</ele><time>2026-04-11T16:32:11.654Z</time></trkpt><trkpt lat="44.370717" lon="11.0728464"><ele>334.79999999999995</ele><time>2026-04-11T16:32:12.654Z</time></trkpt><trkpt lat="44.3707916" lon="11.0727693"><ele>334.4</ele><time>2026-04-11T16:32:13.653Z</time></trkpt><trkpt lat="44.3708627" lon="11.0726965"><ele>334.0</ele><time>2026-04-11T16:32:14.654Z</time></trkpt><trkpt lat="44.3709017" lon="11.0726245"><ele>334.0</ele><time>2026-04-11T16:32:15.654Z</time></trkpt><trkpt lat="44.3709656" lon="11.0725972"><ele>334.0</ele><time>2026-04-11T16:32:16.653Z</time></trkpt><trkpt lat="44.3710268" lon="11.0726559"><ele>334.0</ele><time>2026-04-11T16:32:20.654Z</time></trkpt><trkpt lat="44.3711147" lon="11.072685"><ele>334.0</ele><time>2026-04-11T16:32:23.654Z</time></trkpt><trkpt lat="44.371234" lon="11.072683"><ele>334.0</ele><time>2026-04-11T16:32:25.654Z</time></trkpt><trkpt lat="44.3713198" lon="11.0726834"><ele>334.0</ele><time>2026-04-11T16:32:27.654Z</time></trkpt><trkpt lat="44.3714072" lon="11.0727334"><ele>334.0</ele><time>2026-04-11T16:32:29.654Z</time></trkpt><trkpt lat="44.3714202" lon="11.0728412"><ele>334.0</ele><time>2026-04-11T16:32:32.654Z</time></trkpt><trkpt lat="44.3713774" lon="11.0729106"><ele>334.0</ele><time>2026-04-11T16:32:35.654Z</time></trkpt><trkpt lat="44.3713414" lon="11.0729885"><ele>334.0</ele><time>2026-04-11T16:32:37.653Z</time></trkpt><trkpt lat="44.3712978" lon="11.0730629"><ele>334.0</ele><time>2026-04-11T16:32:39.654Z</time></trkpt><trkpt lat="44.37123" lon="11.0731921"><ele>334.0</ele><time>2026-04-11T16:32:41.654Z</time></trkpt><trkpt lat="44.3711797" lon="11.0732606"><ele>333.79999999999995</ele><time>2026-04-11T16:32:42.654Z</time></trkpt><trkpt lat="44.3711069" lon="11.0733362"><ele>333.59999999999997</ele><time>2026-04-11T16:32:43.654Z</time></trkpt><trkpt lat="44.3710235" lon="11.0734091"><ele>333.4</ele><time>2026-04-11T16:32:44.654Z</time></trkpt><trkpt lat="44.370942" lon="11.0734789"><ele>333.2</ele><time>2026-04-11T16:32:45.654Z</time></trkpt><trkpt lat="44.3708554" lon="11.0735557"><ele>333.0</ele><time>2026-04-11T16:32:46.654Z</time></trkpt><trkpt lat="44.3707658" lon="11.0736334"><ele>333.0</ele><time>2026-04-11T16:32:47.653Z</time></trkpt><trkpt lat="44.3706742" lon="11.0737173"><ele>333.0</ele><time>2026-04-11T16:32:48.654Z</time></trkpt><trkpt lat="44.3705841" lon="11.0738146"><ele>333.0</ele><time>2026-04-11T16:32:49.654Z</time></trkpt><trkpt lat="44.3704995" lon="11.073923"><ele>333.0</ele><time>2026-04-11T16:32:50.654Z</time></trkpt><trkpt lat="44.3704242" lon="11.0740378"><ele>333.0</ele><time>2026-04-11T16:32:51.654Z</time></trkpt><trkpt lat="44.3703537" lon="11.0741492"><ele>335.2</ele><time>2026-04-11T16:32:52.654Z</time></trkpt><trkpt lat="44.3702948" lon="11.0742503"><ele>337.4</ele><time>2026-04-11T16:32:53.654Z</time></trkpt><trkpt lat="44.3702056" lon="11.0744031"><ele>339.59999999999997</ele><time>2026-04-11T16:32:55.654Z</time></trkpt><trkpt lat="44.370236" lon="11.074536"><ele>341.79999999999995</ele><time>2026-04-11T16:32:57.654Z</time></trkpt><trkpt lat="44.3703277" lon="11.07455"><ele>344.0</ele><time>2026-04-11T16:32:59.654Z</time></trkpt><trkpt lat="44.3704259" lon="11.0744153"><ele>344.0</ele><time>2026-04-11T16:33:01.654Z</time></trkpt><trkpt lat="44.3704964" lon="11.074337"><ele>344.0</ele><time>2026-04-11T16:33:02.654Z</time></trkpt><trkpt lat="44.3705736" lon="11.0742781"><ele>344.0</ele><time>2026-04-11T16:33:03.654Z</time></trkpt><trkpt lat="44.370672" lon="11.0742383"><ele>344.0</ele><time>2026-04-11T16:33:04.653Z</time></trkpt><trkpt lat="44.3707817" lon="11.0742192"><ele>344.0</ele><time>2026-04-11T16:33:05.653Z</time></trkpt><trkpt lat="44.3708731" lon="11.074205"><ele>345.4</ele><time>2026-04-11T16:33:06.654Z</time></trkpt><trkpt lat="44.3709493" lon="11.0742086"><ele>346.79999999999995</ele><time>2026-04-11T16:33:07.654Z</time></trkpt><trkpt lat="44.3710357" lon="11.0742925"><ele>348.20000000000005</ele><time>2026-04-11T16:33:09.654Z</time></trkpt><trkpt lat="44.3710028" lon="11.0744016"><ele>349.6</ele><time>2026-04-11T16:33:11.654Z</time></trkpt><trkpt lat="44.3708685" lon="11.0744513"><ele>351.0</ele><time>2026-04-11T16:33:13.654Z</time></trkpt><trkpt lat="44.3707956" lon="11.0744893"><ele>351.0</ele><time>2026-04-11T16:33:14.654Z</time></trkpt><trkpt lat="44.3707385" lon="11.0745633"><ele>351.0</ele><time>2026-04-11T16:33:15.654Z</time></trkpt><trkpt lat="44.3706945" lon="11.0746711"><ele>351.0</ele><time>2026-04-11T16:33:16.654Z</time></trkpt><trkpt lat="44.3706634" lon="11.0747999"><ele>351.0</ele><time>2026-04-11T16:33:17.654Z</time></trkpt><trkpt lat="44.3706391" lon="11.074939"><ele>351.0</ele><time>2026-04-11T16:33:18.654Z</time></trkpt><trkpt lat="44.3706251" lon="11.0750964"><ele>352.25</ele><time>2026-04-11T16:33:19.653Z</time></trkpt><trkpt lat="44.3706125" lon="11.0752642"><ele>353.5</ele><time>2026-04-11T16:33:20.654Z</time></trkpt><trkpt lat="44.3705889" lon="11.0754303"><ele>354.75</ele><time>2026-04-11T16:33:21.654Z</time></trkpt><trkpt lat="44.3705524" lon="11.075583"><ele>356.0</ele><time>2026-04-11T16:33:22.654Z</time></trkpt><trkpt lat="44.3704941" lon="11.0757245"><ele>359.0</ele><time>2026-04-11T16:33:23.654Z</time></trkpt><trkpt lat="44.3704185" lon="11.0758499"><ele>362.0</ele><time>2026-04-11T16:33:24.654Z</time></trkpt><trkpt lat="44.3703292" lon="11.0759705"><ele>365.0</ele><time>2026-04-11T16:33:25.654Z</time></trkpt><trkpt lat="44.3702191" lon="11.0761187"><ele>368.0</ele><time>2026-04-11T16:33:26.654Z</time></trkpt><trkpt lat="44.3701161" lon="11.0762512"><ele>368.0</ele><time>2026-04-11T16:33:27.654Z</time></trkpt><trkpt lat="44.3700174" lon="11.0763718"><ele>368.0</ele><time>2026-04-11T16:33:28.654Z</time></trkpt><trkpt lat="44.3699195" lon="11.0764853"><ele>368.0</ele><time>2026-04-11T16:33:29.654Z</time></trkpt><trkpt lat="44.3698198" lon="11.0765956"><ele>368.0</ele><time>2026-04-11T16:33:30.654Z</time></trkpt><trkpt lat="44.3697232" lon="11.0767096"><ele>370.0</ele><time>2026-04-11T16:33:31.654Z</time></trkpt><trkpt lat="44.3696297" lon="11.0768177"><ele>372.0</ele><time>2026-04-11T16:33:32.654Z</time></trkpt><trkpt lat="44.3695325" lon="11.0769236"><ele>374.0</ele><time>2026-04-11T16:33:33.654Z</time></trkpt><trkpt lat="44.3694339" lon="11.0770249"><ele>376.0</ele><time>2026-04-11T16:33:34.654Z</time></trkpt><trkpt lat="44.3693339" lon="11.0771288"><ele>376.0</ele><time>2026-04-11T16:33:35.654Z</time></trkpt><trkpt lat="44.3692355" lon="11.0772332"><ele>376.0</ele><time>2026-04-11T16:33:36.654Z</time></trkpt><trkpt lat="44.3691271" lon="11.0773363"><ele>376.0</ele><time>2026-04-11T16:33:37.654Z</time></trkpt><trkpt lat="44.3690139" lon="11.0774296"><ele>376.0</ele><time>2026-04-11T16:33:38.653Z</time></trkpt><trkpt lat="44.3688915" lon="11.0775088"><ele>377.25</ele><time>2026-04-11T16:33:39.654Z</time></trkpt><trkpt lat="44.3687589" lon="11.0775647"><ele>378.5</ele><time>2026-04-11T16:33:40.654Z</time></trkpt><trkpt lat="44.3686246" lon="11.0776093"><ele>379.75</ele><time>2026-04-11T16:33:41.653Z</time></trkpt><trkpt lat="44.3684911" lon="11.0776593"><ele>381.0</ele><time>2026-04-11T16:33:42.654Z</time></trkpt><trkpt lat="44.3683631" lon="11.0777163"><ele>381.0</ele><time>2026-04-11T16:33:43.654Z</time></trkpt><trkpt lat="44.3682385" lon="11.077786"><ele>381.0</ele><time>2026-04-11T16:33:44.654Z</time></trkpt><trkpt lat="44.3681265" lon="11.0778606"><ele>381.0</ele><time>2026-04-11T16:33:45.654Z</time></trkpt><trkpt lat="44.3680286" lon="11.0779465"><ele>381.0</ele><time>2026-04-11T16:33:46.654Z</time></trkpt><trkpt lat="44.367946" lon="11.0780309"><ele>380.8</ele><time>2026-04-11T16:33:47.654Z</time></trkpt><trkpt lat="44.3678794" lon="11.0781356"><ele>380.6</ele><time>2026-04-11T16:33:48.654Z</time></trkpt><trkpt lat="44.3678218" lon="11.0782574"><ele>380.4</ele><time>2026-04-11T16:33:49.654Z</time></trkpt><trkpt lat="44.3677815" lon="11.0783986"><ele>380.2</ele><time>2026-04-11T16:33:50.654Z</time></trkpt><trkpt lat="44.3677539" lon="11.078557"><ele>380.0</ele><time>2026-04-11T16:33:51.654Z</time></trkpt><trkpt lat="44.3677338" lon="11.0787341"><ele>382.33333333333337</ele><time>2026-04-11T16:33:52.654Z</time></trkpt><trkpt lat="44.3677092" lon="11.0789321"><ele>384.6666666666667</ele><time>2026-04-11T16:33:53.653Z</time></trkpt><trkpt lat="44.3676822" lon="11.0791461"><ele>387.0</ele><time>2026-04-11T16:33:54.653Z</time></trkpt><trkpt lat="44.3676574" lon="11.0793692"><ele>389.33333333333337</ele><time>2026-04-11T16:33:55.654Z</time></trkpt><trkpt lat="44.3676345" lon="11.0796065"><ele>391.6666666666667</ele><time>2026-04-11T16:33:56.654Z</time></trkpt><trkpt lat="44.3676193" lon="11.0798469"><ele>394.0</ele><time>2026-04-11T16:33:57.654Z</time></trkpt><trkpt lat="44.3676075" lon="11.0800914"><ele>396.6666666666667</ele><time>2026-04-11T16:33:58.654Z</time></trkpt><trkpt lat="44.3675993" lon="11.0803228"><ele>399.33333333333337</ele><time>2026-04-11T16:33:59.654Z</time></trkpt><trkpt lat="44.3675817" lon="11.0805438"><ele>402.0</ele><time>2026-04-11T16:34:00.654Z</time></trkpt><trkpt lat="44.3675519" lon="11.0807496"><ele>403.75</ele><time>2026-04-11T16:34:01.654Z</time></trkpt><trkpt lat="44.3675143" lon="11.0809564"><ele>405.5</ele><time>2026-04-11T16:34:02.654Z</time></trkpt><trkpt lat="44.3674702" lon="11.081154"><ele>407.25</ele><time>2026-04-11T16:34:03.653Z</time></trkpt><trkpt lat="44.3674308" lon="11.0813278"><ele>409.0</ele><time>2026-04-11T16:34:04.654Z</time></trkpt><trkpt lat="44.3673984" lon="11.0814811"><ele>410.33333333333337</ele><time>2026-04-11T16:34:05.654Z</time></trkpt><trkpt lat="44.3673721" lon="11.0816144"><ele>411.6666666666667</ele><time>2026-04-11T16:34:06.654Z</time></trkpt><trkpt lat="44.3673554" lon="11.081725"><ele>413.0</ele><time>2026-04-11T16:34:07.653Z</time></trkpt><trkpt lat="44.3673376" lon="11.0818152"><ele>414.33333333333337</ele><time>2026-04-11T16:34:08.654Z</time></trkpt><trkpt lat="44.3673554" lon="11.0819136"><ele>415.6666666666667</ele><time>2026-04-11T16:34:10.653Z</time></trkpt><trkpt lat="44.3674289" lon="11.0819858"><ele>417.0</ele><time>2026-04-11T16:34:12.653Z</time></trkpt><trkpt lat="44.367576" lon="11.0820006"><ele>417.0</ele><time>2026-04-11T16:34:14.654Z</time></trkpt><trkpt lat="44.3676474" lon="11.0820264"><ele>417.0</ele><time>2026-04-11T16:34:15.654Z</time></trkpt><trkpt lat="44.3677088" lon="11.0820845"><ele>417.0</ele><time>2026-04-11T16:34:16.654Z</time></trkpt><trkpt lat="44.3677822" lon="11.0821238"><ele>417.0</ele><time>2026-04-11T16:34:17.654Z</time></trkpt><trkpt lat="44.3678488" lon="11.0821896"><ele>417.0</ele><time>2026-04-11T16:34:18.653Z</time></trkpt><trkpt lat="44.367931" lon="11.0822258"><ele>417.0</ele><time>2026-04-11T16:34:19.654Z</time></trkpt><trkpt lat="44.3680013" lon="11.082266"><ele>419.0</ele><time>2026-04-11T16:34:20.654Z</time></trkpt><trkpt lat="44.3680825" lon="11.0823038"><ele>421.0</ele><time>2026-04-11T16:34:21.654Z</time></trkpt><trkpt lat="44.3681838" lon="11.0823602"><ele>423.00000000000006</ele><time>2026-04-11T16:34:22.654Z</time></trkpt><trkpt lat="44.3682582" lon="11.0824652"><ele>425.0</ele><time>2026-04-11T16:34:23.653Z</time></trkpt><trkpt lat="44.3683402" lon="11.0825114"><ele>427.0</ele><time>2026-04-11T16:34:24.654Z</time></trkpt><trkpt lat="44.3684036" lon="11.0826041"><ele>428.0</ele><time>2026-04-11T16:34:25.654Z</time></trkpt><trkpt lat="44.3684659" lon="11.0826773"><ele>429.00000000000006</ele><time>2026-04-11T16:34:26.654Z</time></trkpt><trkpt lat="44.3685122" lon="11.0827756"><ele>430.00000000000006</ele><time>2026-04-11T16:34:27.653Z</time></trkpt><trkpt lat="44.368574" lon="11.0828397"><ele>431.0</ele><time>2026-04-11T16:34:28.654Z</time></trkpt><trkpt lat="44.3686185" lon="11.0829278"><ele>432.0</ele><time>2026-04-11T16:34:29.653Z</time></trkpt><trkpt lat="44.3686937" lon="11.0830967"><ele>432.0</ele><time>2026-04-11T16:34:31.653Z</time></trkpt><trkpt lat="44.3687718" lon="11.0832589"><ele>432.00000000000006</ele><time>2026-04-11T16:34:33.654Z</time></trkpt><trkpt lat="44.3688429" lon="11.0832167"><ele>432.00000000000006</ele><time>2026-04-11T16:34:34.653Z</time></trkpt><trkpt lat="44.3689205" lon="11.0832854"><ele>432.0</ele><time>2026-04-11T16:34:35.654Z</time></trkpt><trkpt lat="44.3690337" lon="11.083341"><ele>432.0</ele><time>2026-04-11T16:34:37.654Z</time></trkpt><trkpt lat="44.3691129" lon="11.0834677"><ele>434.5</ele><time>2026-04-11T16:34:39.654Z</time></trkpt><trkpt lat="44.3691042" lon="11.0835797"><ele>437.0</ele><time>2026-04-11T16:34:41.654Z</time></trkpt><trkpt lat="44.3690498" lon="11.083686"><ele>439.5</ele><time>2026-04-11T16:34:43.654Z</time></trkpt><trkpt lat="44.3689553" lon="11.0837429"><ele>442.0</ele><time>2026-04-11T16:34:45.654Z</time></trkpt><trkpt lat="44.3688705" lon="11.083782"><ele>444.5</ele><time>2026-04-11T16:34:47.653Z</time></trkpt><trkpt lat="44.3688169" lon="11.083843"><ele>447.0</ele><time>2026-04-11T16:34:49.653Z</time></trkpt><trkpt lat="44.3688778" lon="11.0839401"><ele>448.40000000000003</ele><time>2026-04-11T16:34:52.654Z</time></trkpt><trkpt lat="44.3689944" lon="11.0840026"><ele>449.80000000000007</ele><time>2026-04-11T16:34:54.654Z</time></trkpt><trkpt lat="44.3690565" lon="11.0840261"><ele>451.2</ele><time>2026-04-11T16:34:55.654Z</time></trkpt><trkpt lat="44.3691977" lon="11.0840984"><ele>452.6</ele><time>2026-04-11T16:34:57.654Z</time></trkpt><trkpt lat="44.3692629" lon="11.0841363"><ele>454.0</ele><time>2026-04-11T16:34:58.653Z</time></trkpt><trkpt lat="44.3693576" lon="11.0841859"><ele>457.00000000000006</ele><time>2026-04-11T16:35:00.654Z</time></trkpt><trkpt lat="44.3694536" lon="11.084238"><ele>460.0</ele><time>2026-04-11T16:35:01.654Z</time></trkpt><trkpt lat="44.3695948" lon="11.084233"><ele>463.0</ele><time>2026-04-11T16:35:03.654Z</time></trkpt><trkpt lat="44.3696644" lon="11.0842209"><ele>466.0</ele><time>2026-04-11T16:35:04.654Z</time></trkpt><trkpt lat="44.3697302" lon="11.0842117"><ele>469.00000000000006</ele><time>2026-04-11T16:35:05.654Z</time></trkpt><trkpt lat="44.3697956" lon="11.0842095"><ele>472.0</ele><time>2026-04-11T16:35:06.654Z</time></trkpt><trkpt lat="44.3698799" lon="11.084174"><ele>473.40000000000003</ele><time>2026-04-11T16:35:07.654Z</time></trkpt><trkpt lat="44.3699598" lon="11.084119"><ele>474.80000000000007</ele><time>2026-04-11T16:35:08.654Z</time></trkpt><trkpt lat="44.3700224" lon="11.0840341"><ele>476.2</ele><time>2026-04-11T16:35:09.653Z</time></trkpt><trkpt lat="44.3700716" lon="11.083921"><ele>477.6</ele><time>2026-04-11T16:35:10.654Z</time></trkpt><trkpt lat="44.3701077" lon="11.0837941"><ele>479.0</ele><time>2026-04-11T16:35:11.654Z</time></trkpt><trkpt lat="44.3701294" lon="11.0836609"><ele>479.0</ele><time>2026-04-11T16:35:12.654Z</time></trkpt><trkpt lat="44.3701391" lon="11.0835185"><ele>479.0</ele><time>2026-04-11T16:35:13.654Z</time></trkpt><trkpt lat="44.3701431" lon="11.083382"><ele>479.0</ele><time>2026-04-11T16:35:14.654Z</time></trkpt><trkpt lat="44.3701542" lon="11.0832621"><ele>479.0</ele><time>2026-04-11T16:35:15.654Z</time></trkpt><trkpt lat="44.3701817" lon="11.0831443"><ele>479.0</ele><time>2026-04-11T16:35:16.654Z</time></trkpt><trkpt lat="44.370214" lon="11.0830348"><ele>479.2</ele><time>2026-04-11T16:35:17.654Z</time></trkpt><trkpt lat="44.3702629" lon="11.0829306"><ele>479.4</ele><time>2026-04-11T16:35:18.653Z</time></trkpt><trkpt lat="44.3703173" lon="11.0828326"><ele>479.6</ele><time>2026-04-11T16:35:19.654Z</time></trkpt><trkpt lat="44.3703748" lon="11.0827382"><ele>479.8</ele><time>2026-04-11T16:35:20.654Z</time></trkpt><trkpt lat="44.3704337" lon="11.0826302"><ele>480.0</ele><time>2026-04-11T16:35:21.654Z</time></trkpt><trkpt lat="44.3704849" lon="11.0825304"><ele>482.6666666666667</ele><time>2026-04-11T16:35:22.654Z</time></trkpt><trkpt lat="44.370531" lon="11.0824361"><ele>485.33333333333337</ele><time>2026-04-11T16:35:23.654Z</time></trkpt><trkpt lat="44.3705635" lon="11.0823349"><ele>488.0</ele><time>2026-04-11T16:35:24.654Z</time></trkpt><trkpt lat="44.3705869" lon="11.0822318"><ele>490.6666666666667</ele><time>2026-04-11T16:35:25.654Z</time></trkpt><trkpt lat="44.3705918" lon="11.0821273"><ele>493.33333333333337</ele><time>2026-04-11T16:35:26.654Z</time></trkpt><trkpt lat="44.370587" lon="11.0820343"><ele>496.0</ele><time>2026-04-11T16:35:27.654Z</time></trkpt><trkpt lat="44.3705284" lon="11.0819073"><ele>496.0</ele><time>2026-04-11T16:35:29.654Z</time></trkpt><trkpt lat="44.3705065" lon="11.0817829"><ele>496.0</ele><time>2026-04-11T16:35:31.653Z</time></trkpt><trkpt lat="44.3705543" lon="11.0816885"><ele>496.0</ele><time>2026-04-11T16:35:33.654Z</time></trkpt><trkpt lat="44.3706356" lon="11.0816235"><ele>496.0</ele><time>2026-04-11T16:35:35.654Z</time></trkpt><trkpt lat="44.370707" lon="11.0816272"><ele>496.0</ele><time>2026-04-11T16:35:36.654Z</time></trkpt><trkpt lat="44.3708404" lon="11.0816711"><ele>496.00000000000006</ele><time>2026-04-11T16:35:38.654Z</time></trkpt><trkpt lat="44.3709234" lon="11.0817104"><ele>496.0</ele><time>2026-04-11T16:35:40.654Z</time></trkpt><trkpt lat="44.3710029" lon="11.0816821"><ele>496.0</ele><time>2026-04-11T16:36:44.653Z</time></trkpt><trkpt lat="44.371111" lon="11.0817545"><ele>496.0</ele><time>2026-04-11T16:42:57.654Z</time></trkpt><trkpt lat="44.3710408" lon="11.0817234"><ele>496.00000000000006</ele><time>2026-04-11T16:43:04.654Z</time></trkpt><trkpt lat="44.3709797" lon="11.0816795"><ele>496.0</ele><time>2026-04-11T16:43:06.654Z</time></trkpt><trkpt lat="44.3708088" lon="11.0816384"><ele>496.0</ele><time>2026-04-11T16:43:09.654Z</time></trkpt><trkpt lat="44.3707055" lon="11.0815886"><ele>496.0</ele><time>2026-04-11T16:43:11.654Z</time></trkpt><trkpt lat="44.3706067" lon="11.08163"><ele>496.0</ele><time>2026-04-11T16:43:13.654Z</time></trkpt><trkpt lat="44.3705453" lon="11.0817339"><ele>496.0</ele><time>2026-04-11T16:43:15.653Z</time></trkpt><trkpt lat="44.3705315" lon="11.0818668"><ele>496.0</ele><time>2026-04-11T16:43:17.653Z</time></trkpt><trkpt lat="44.3705948" lon="11.0820034"><ele>496.0</ele><time>2026-04-11T16:43:19.654Z</time></trkpt><trkpt lat="44.3706117" lon="11.0821669"><ele>496.0</ele><time>2026-04-11T16:43:21.654Z</time></trkpt><trkpt lat="44.3706001" lon="11.0822574"><ele>496.0</ele><time>2026-04-11T16:43:22.654Z</time></trkpt><trkpt lat="44.3705607" lon="11.0823668"><ele>496.0</ele><time>2026-04-11T16:43:23.653Z</time></trkpt><trkpt lat="44.3705135" lon="11.0824692"><ele>496.0</ele><time>2026-04-11T16:43:24.654Z</time></trkpt><trkpt lat="44.3704573" lon="11.0825826"><ele>493.33333333333337</ele><time>2026-04-11T16:43:25.654Z</time></trkpt><trkpt lat="44.3704051" lon="11.0826829"><ele>490.6666666666667</ele><time>2026-04-11T16:43:26.653Z</time></trkpt><trkpt lat="44.3703555" lon="11.0827759"><ele>488.0</ele><time>2026-04-11T16:43:27.653Z</time></trkpt><trkpt lat="44.3703087" lon="11.082869"><ele>485.33333333333337</ele><time>2026-04-11T16:43:28.653Z</time></trkpt><trkpt lat="44.3702647" lon="11.0829518"><ele>482.6666666666667</ele><time>2026-04-11T16:43:29.654Z</time></trkpt><trkpt lat="44.3702281" lon="11.0830364"><ele>480.0</ele><time>2026-04-11T16:43:30.653Z</time></trkpt><trkpt lat="44.3701979" lon="11.0831318"><ele>480.0</ele><time>2026-04-11T16:43:31.654Z</time></trkpt><trkpt lat="44.3701744" lon="11.0832332"><ele>480.0</ele><time>2026-04-11T16:43:32.654Z</time></trkpt><trkpt lat="44.3701562" lon="11.0833356"><ele>480.0</ele><time>2026-04-11T16:43:33.654Z</time></trkpt><trkpt lat="44.3701452" lon="11.0834443"><ele>480.0</ele><time>2026-04-11T16:43:34.654Z</time></trkpt><trkpt lat="44.3701396" lon="11.0835583"><ele>480.0</ele><time>2026-04-11T16:43:35.654Z</time></trkpt><trkpt lat="44.3701346" lon="11.0836733"><ele>480.0</ele><time>2026-04-11T16:43:36.654Z</time></trkpt><trkpt lat="44.3701212" lon="11.083779"><ele>479.8333333333333</ele><time>2026-04-11T16:43:37.654Z</time></trkpt><trkpt lat="44.3700913" lon="11.0838855"><ele>479.66666666666663</ele><time>2026-04-11T16:43:38.654Z</time></trkpt><trkpt lat="44.3700713" lon="11.0839779"><ele>479.5</ele><time>2026-04-11T16:43:39.654Z</time></trkpt><trkpt lat="44.3700105" lon="11.084085"><ele>479.3333333333333</ele><time>2026-04-11T16:43:41.653Z</time></trkpt><trkpt lat="44.3699575" lon="11.084133"><ele>479.16666666666663</ele><time>2026-04-11T16:43:43.654Z</time></trkpt><trkpt lat="44.3698864" lon="11.0841765"><ele>479.0</ele><time>2026-04-11T16:43:46.654Z</time></trkpt><trkpt lat="44.3697945" lon="11.0842142"><ele>479.79999999999995</ele><time>2026-04-11T16:43:50.653Z</time></trkpt><trkpt lat="44.3697072" lon="11.084242"><ele>480.59999999999997</ele><time>2026-04-11T16:43:51.654Z</time></trkpt><trkpt lat="44.3696239" lon="11.0842546"><ele>481.4</ele><time>2026-04-11T16:43:52.654Z</time></trkpt><trkpt lat="44.3695129" lon="11.0842458"><ele>482.2</ele><time>2026-04-11T16:43:53.653Z</time></trkpt><trkpt lat="44.3694283" lon="11.0842109"><ele>483.0</ele><time>2026-04-11T16:43:54.653Z</time></trkpt><trkpt lat="44.3693415" lon="11.0841666"><ele>481.1666666666667</ele><time>2026-04-11T16:43:55.654Z</time></trkpt><trkpt lat="44.3692757" lon="11.0841141"><ele>479.33333333333337</ele><time>2026-04-11T16:43:56.654Z</time></trkpt><trkpt lat="44.3691998" lon="11.0840717"><ele>477.5</ele><time>2026-04-11T16:43:57.654Z</time></trkpt><trkpt lat="44.3691366" lon="11.0840358"><ele>475.6666666666667</ele><time>2026-04-11T16:43:58.654Z</time></trkpt><trkpt lat="44.3690641" lon="11.0839875"><ele>473.83333333333337</ele><time>2026-04-11T16:43:59.654Z</time></trkpt><trkpt lat="44.3689946" lon="11.0839443"><ele>472.0</ele><time>2026-04-11T16:44:00.654Z</time></trkpt><trkpt lat="44.3689286" lon="11.0839199"><ele>469.00000000000006</ele><time>2026-04-11T16:44:01.654Z</time></trkpt><trkpt lat="44.3688047" lon="11.0838668"><ele>466.0</ele><time>2026-04-11T16:44:03.654Z</time></trkpt><trkpt lat="44.3688051" lon="11.0837538"><ele>463.0</ele><time>2026-04-11T16:44:06.653Z</time></trkpt><trkpt lat="44.368883" lon="11.0837423"><ele>460.0</ele><time>2026-04-11T16:44:09.654Z</time></trkpt><trkpt lat="44.3689445" lon="11.0837232"><ele>457.00000000000006</ele><time>2026-04-11T16:44:10.653Z</time></trkpt><trkpt lat="44.3690163" lon="11.0836985"><ele>454.0</ele><time>2026-04-11T16:44:11.654Z</time></trkpt><trkpt lat="44.3690729" lon="11.0836429"><ele>454.0</ele><time>2026-04-11T16:44:12.654Z</time></trkpt><trkpt lat="44.3691041" lon="11.0835037"><ele>454.0</ele><time>2026-04-11T16:44:13.654Z</time></trkpt><trkpt lat="44.3691134" lon="11.0834133"><ele>454.0</ele><time>2026-04-11T16:44:14.654Z</time></trkpt><trkpt lat="44.3690451" lon="11.0833083"><ele>454.0</ele><time>2026-04-11T16:44:17.653Z</time></trkpt><trkpt lat="44.3689482" lon="11.0832715"><ele>454.0</ele><time>2026-04-11T16:44:19.654Z</time></trkpt><trkpt lat="44.3688457" lon="11.083222"><ele>449.6</ele><time>2026-04-11T16:44:21.654Z</time></trkpt><trkpt lat="44.3687688" lon="11.0831573"><ele>445.2</ele><time>2026-04-11T16:44:23.653Z</time></trkpt><trkpt lat="44.3686839" lon="11.0830512"><ele>440.80000000000007</ele><time>2026-04-11T16:44:25.653Z</time></trkpt><trkpt lat="44.3685864" lon="11.0829467"><ele>436.40000000000003</ele><time>2026-04-11T16:44:27.654Z</time></trkpt><trkpt lat="44.3685435" lon="11.0828629"><ele>432.0</ele><time>2026-04-11T16:44:28.654Z</time></trkpt><trkpt lat="44.3684727" lon="11.0827572"><ele>432.0</ele><time>2026-04-11T16:44:29.654Z</time></trkpt><trkpt lat="44.3684121" lon="11.0825941"><ele>432.00000000000006</ele><time>2026-04-11T16:44:30.653Z</time></trkpt><trkpt lat="44.3683474" lon="11.0825225"><ele>432.00000000000006</ele><time>2026-04-11T16:44:31.654Z</time></trkpt><trkpt lat="44.3682749" lon="11.0824539"><ele>432.0</ele><time>2026-04-11T16:44:32.654Z</time></trkpt><trkpt lat="44.3682004" lon="11.0823854"><ele>432.0</ele><time>2026-04-11T16:44:33.654Z</time></trkpt><trkpt lat="44.3681203" lon="11.0823224"><ele>431.1666666666667</ele><time>2026-04-11T16:44:34.654Z</time></trkpt><trkpt lat="44.3680429" lon="11.082277"><ele>430.33333333333337</ele><time>2026-04-11T16:44:35.654Z</time></trkpt><trkpt lat="44.3679559" lon="11.0822173"><ele>429.5</ele><time>2026-04-11T16:44:36.654Z</time></trkpt><trkpt lat="44.36788" lon="11.0821721"><ele>428.6666666666667</ele><time>2026-04-11T16:44:37.653Z</time></trkpt><trkpt lat="44.3678118" lon="11.0821291"><ele>427.83333333333337</ele><time>2026-04-11T16:44:38.653Z</time></trkpt><trkpt lat="44.36774" lon="11.0820911"><ele>427.0</ele><time>2026-04-11T16:44:39.653Z</time></trkpt><trkpt lat="44.3676803" lon="11.0820475"><ele>425.33333333333337</ele><time>2026-04-11T16:44:40.653Z</time></trkpt><trkpt lat="44.3676119" lon="11.0820082"><ele>423.6666666666667</ele><time>2026-04-11T16:44:41.654Z</time></trkpt><trkpt lat="44.3675395" lon="11.0819728"><ele>422.0</ele><time>2026-04-11T16:44:42.654Z</time></trkpt><trkpt lat="44.3674705" lon="11.0819589"><ele>420.33333333333337</ele><time>2026-04-11T16:44:43.654Z</time></trkpt><trkpt lat="44.36736" lon="11.0819316"><ele>418.6666666666667</ele><time>2026-04-11T16:44:45.654Z</time></trkpt><trkpt lat="44.367294" lon="11.0819122"><ele>417.0</ele><time>2026-04-11T16:44:47.654Z</time></trkpt><trkpt lat="44.3672665" lon="11.0819953"><ele>417.0</ele><time>2026-04-11T16:44:49.654Z</time></trkpt><trkpt lat="44.3672454" lon="11.0821174"><ele>417.0</ele><time>2026-04-11T16:44:51.654Z</time></trkpt><trkpt lat="44.3672381" lon="11.0822682"><ele>417.0</ele><time>2026-04-11T16:44:53.654Z</time></trkpt><trkpt lat="44.3672309" lon="11.0823664"><ele>417.0</ele><time>2026-04-11T16:44:54.654Z</time></trkpt><trkpt lat="44.367194" lon="11.0824672"><ele>417.0</ele><time>2026-04-11T16:44:55.654Z</time></trkpt><trkpt lat="44.367153" lon="11.0825624"><ele>417.0</ele><time>2026-04-11T16:44:56.654Z</time></trkpt><trkpt lat="44.3671107" lon="11.0826622"><ele>417.8</ele><time>2026-04-11T16:44:57.654Z</time></trkpt><trkpt lat="44.3670647" lon="11.0827545"><ele>418.6</ele><time>2026-04-11T16:44:58.654Z</time></trkpt><trkpt lat="44.3670157" lon="11.0828579"><ele>419.40000000000003</ele><time>2026-04-11T16:44:59.654Z</time></trkpt><trkpt lat="44.3669645" lon="11.0829666"><ele>420.20000000000005</ele><time>2026-04-11T16:45:00.654Z</time></trkpt><trkpt lat="44.3669176" lon="11.0830788"><ele>421.0</ele><time>2026-04-11T16:45:01.654Z</time></trkpt><trkpt lat="44.3668708" lon="11.0831973"><ele>422.50000000000006</ele><time>2026-04-11T16:45:02.654Z</time></trkpt><trkpt lat="44.3668269" lon="11.0833133"><ele>424.0</ele><time>2026-04-11T16:45:03.654Z</time></trkpt><trkpt lat="44.3667846" lon="11.0834275"><ele>425.5</ele><time>2026-04-11T16:45:04.654Z</time></trkpt><trkpt lat="44.3667368" lon="11.0835294"><ele>427.0</ele><time>2026-04-11T16:45:05.654Z</time></trkpt><trkpt lat="44.3666953" lon="11.0836268"><ele>428.50000000000006</ele><time>2026-04-11T16:45:06.654Z</time></trkpt><trkpt lat="44.3666566" lon="11.0837217"><ele>430.0</ele><time>2026-04-11T16:45:07.654Z</time></trkpt><trkpt lat="44.3666184" lon="11.083806"><ele>430.00000000000006</ele><time>2026-04-11T16:45:08.654Z</time></trkpt><trkpt lat="44.3665859" lon="11.0838949"><ele>430.0</ele><time>2026-04-11T16:45:09.654Z</time></trkpt><trkpt lat="44.3665296" lon="11.0840321"><ele>430.0</ele><time>2026-04-11T16:45:11.654Z</time></trkpt><trkpt lat="44.3664779" lon="11.0841244"><ele>430.0</ele><time>2026-04-11T16:45:13.654Z</time></trkpt><trkpt lat="44.3664102" lon="11.0841623"><ele>430.00000000000006</ele><time>2026-04-11T16:45:15.654Z</time></trkpt><trkpt lat="44.366344" lon="11.0841709"><ele>430.0</ele><time>2026-04-11T16:45:19.654Z</time></trkpt><trkpt lat="44.3662787" lon="11.0841887"><ele>430.4</ele><time>2026-04-11T16:45:23.654Z</time></trkpt><trkpt lat="44.3662149" lon="11.0842088"><ele>430.8</ele><time>2026-04-11T16:45:24.654Z</time></trkpt><trkpt lat="44.3660975" lon="11.0842577"><ele>431.20000000000005</ele><time>2026-04-11T16:45:26.654Z</time></trkpt><trkpt lat="44.3659866" lon="11.0843012"><ele>431.6</ele><time>2026-04-11T16:45:28.654Z</time></trkpt><trkpt lat="44.3658878" lon="11.0843345"><ele>432.0</ele><time>2026-04-11T16:45:30.654Z</time></trkpt><trkpt lat="44.3657922" lon="11.0843652"><ele>432.0</ele><time>2026-04-11T16:45:32.653Z</time></trkpt><trkpt lat="44.3657022" lon="11.0844193"><ele>432.00000000000006</ele><time>2026-04-11T16:45:34.654Z</time></trkpt><trkpt lat="44.3656201" lon="11.0845298"><ele>432.00000000000006</ele><time>2026-04-11T16:45:36.654Z</time></trkpt><trkpt lat="44.3655398" lon="11.0846137"><ele>432.0</ele><time>2026-04-11T16:45:38.654Z</time></trkpt><trkpt lat="44.3654584" lon="11.0846434"><ele>432.0</ele><time>2026-04-11T16:45:40.654Z</time></trkpt><trkpt lat="44.3653627" lon="11.0846154"><ele>432.40000000000003</ele><time>2026-04-11T16:45:42.654Z</time></trkpt><trkpt lat="44.3652734" lon="11.0845318"><ele>432.80000000000007</ele><time>2026-04-11T16:45:44.654Z</time></trkpt><trkpt lat="44.3652162" lon="11.0844149"><ele>433.2</ele><time>2026-04-11T16:45:46.654Z</time></trkpt><trkpt lat="44.3651936" lon="11.0842826"><ele>433.6</ele><time>2026-04-11T16:45:48.653Z</time></trkpt><trkpt lat="44.3651837" lon="11.0841104"><ele>434.0</ele><time>2026-04-11T16:45:50.654Z</time></trkpt><trkpt lat="44.3651751" lon="11.0839528"><ele>434.16666666666663</ele><time>2026-04-11T16:45:52.653Z</time></trkpt><trkpt lat="44.3651808" lon="11.0838369"><ele>434.3333333333333</ele><time>2026-04-11T16:45:54.654Z</time></trkpt><trkpt lat="44.3651726" lon="11.083732"><ele>434.5</ele><time>2026-04-11T16:45:56.653Z</time></trkpt><trkpt lat="44.3651462" lon="11.0836103"><ele>434.66666666666663</ele><time>2026-04-11T16:45:58.654Z</time></trkpt><trkpt lat="44.3651041" lon="11.0835287"><ele>434.8333333333333</ele><time>2026-04-11T16:46:01.654Z</time></trkpt><trkpt lat="44.3651424" lon="11.083633"><ele>435.0</ele><time>2026-04-11T16:47:04.654Z</time></trkpt><trkpt lat="44.365159" lon="11.0837439"><ele>435.0</ele><time>2026-04-11T16:47:06.654Z</time></trkpt><trkpt lat="44.3651607" lon="11.0838555"><ele>435.0</ele><time>2026-04-11T16:47:08.654Z</time></trkpt><trkpt lat="44.3651624" lon="11.0839901"><ele>435.0</ele><time>2026-04-11T16:47:10.654Z</time></trkpt><trkpt lat="44.3651765" lon="11.0841083"><ele>435.0</ele><time>2026-04-11T16:47:12.654Z</time></trkpt><trkpt lat="44.3651822" lon="11.0842316"><ele>435.0</ele><time>2026-04-11T16:47:14.653Z</time></trkpt><trkpt lat="44.365189" lon="11.0843443"><ele>435.0</ele><time>2026-04-11T16:47:16.654Z</time></trkpt><trkpt lat="44.3651803" lon="11.0842072"><ele>435.0</ele><time>2026-04-11T16:47:42.654Z</time></trkpt><trkpt lat="44.3651765" lon="11.0841133"><ele>435.0</ele><time>2026-04-11T16:47:43.654Z</time></trkpt><trkpt lat="44.3651808" lon="11.0839718"><ele>435.0</ele><time>2026-04-11T16:47:45.653Z</time></trkpt><trkpt lat="44.3651754" lon="11.0838733"><ele>435.0</ele><time>2026-04-11T16:47:47.654Z</time></trkpt><trkpt lat="44.365131" lon="11.0837884"><ele>435.0</ele><time>2026-04-11T16:47:55.654Z</time></trkpt><trkpt lat="44.3650876" lon="11.0838688"><ele>435.0</ele><time>2026-04-11T16:47:58.654Z</time></trkpt><trkpt lat="44.3650552" lon="11.0839592"><ele>435.0</ele><time>2026-04-11T16:48:00.654Z</time></trkpt><trkpt lat="44.3649923" lon="11.0840432"><ele>435.0</ele><time>2026-04-11T16:48:02.654Z</time></trkpt><trkpt lat="44.3649452" lon="11.0841299"><ele>435.0</ele><time>2026-04-11T16:48:04.654Z</time></trkpt><trkpt lat="44.3648885" lon="11.0841826"><ele>435.0</ele><time>2026-04-11T16:48:06.654Z</time></trkpt><trkpt lat="44.3647842" lon="11.0842019"><ele>435.0</ele><time>2026-04-11T16:48:15.654Z</time></trkpt><trkpt lat="44.3647192" lon="11.0841347"><ele>435.0</ele><time>2026-04-11T16:48:18.653Z</time></trkpt><trkpt lat="44.3646688" lon="11.0840405"><ele>437.1666666666667</ele><time>2026-04-11T16:48:21.654Z</time></trkpt><trkpt lat="44.3646027" lon="11.0839773"><ele>439.33333333333337</ele><time>2026-04-11T16:48:24.654Z</time></trkpt><trkpt lat="44.3645276" lon="11.0839548"><ele>441.5</ele><time>2026-04-11T16:48:35.653Z</time></trkpt><trkpt lat="44.3644632" lon="11.0839498"><ele>443.6666666666667</ele><time>2026-04-11T16:48:43.653Z</time></trkpt><trkpt lat="44.3643971" lon="11.0839482"><ele>445.83333333333337</ele><time>2026-04-11T16:48:55.654Z</time></trkpt><trkpt lat="44.3643086" lon="11.0838871"><ele>448.0</ele><time>2026-04-11T16:49:16.654Z</time></trkpt><trkpt lat="44.3642556" lon="11.0838138"><ele>448.0</ele><time>2026-04-11T16:49:22.653Z</time></trkpt><trkpt lat="44.3642404" lon="11.0837226"><ele>448.0</ele><time>2026-04-11T16:49:26.653Z</time></trkpt><trkpt lat="44.3641861" lon="11.083667"><ele>448.0</ele><time>2026-04-11T16:49:30.618Z</time></trkpt><trkpt lat="44.3641364" lon="11.0836056"><ele>448.0</ele><time>2026-04-11T16:49:39.654Z</time></trkpt><trkpt lat="44.3640892" lon="11.083535"><ele>448.0</ele><time>2026-04-11T16:49:42.654Z</time></trkpt><trkpt lat="44.3640279" lon="11.0834962"><ele>448.0</ele><time>2026-04-11T16:49:45.654Z</time></trkpt><trkpt lat="44.3639559" lon="11.0834698"><ele>448.0</ele><time>2026-04-11T16:49:49.653Z</time></trkpt><trkpt lat="44.363884" lon="11.0834695"><ele>451.00000000000006</ele><time>2026-04-11T16:49:53.654Z</time></trkpt><trkpt lat="44.3638124" lon="11.0835036"><ele>454.0</ele><time>2026-04-11T16:49:57.739Z</time></trkpt><trkpt lat="44.3636986" lon="11.0834816"><ele>457.0</ele><time>2026-04-11T16:51:08.654Z</time></trkpt><trkpt lat="44.3636344" lon="11.0834822"><ele>460.0</ele><time>2026-04-11T16:51:13.654Z</time></trkpt><trkpt lat="44.3635614" lon="11.0834642"><ele>463.00000000000006</ele><time>2026-04-11T16:51:19.653Z</time></trkpt><trkpt lat="44.3634932" lon="11.0834567"><ele>466.0</ele><time>2026-04-11T16:51:23.577Z</time></trkpt><trkpt lat="44.3634262" lon="11.0834612"><ele>466.00000000000006</ele><time>2026-04-11T16:51:25.654Z</time></trkpt><trkpt lat="44.3633509" lon="11.0834666"><ele>466.0</ele><time>2026-04-11T16:51:28.821Z</time></trkpt><trkpt lat="44.3632796" lon="11.0834976"><ele>466.0</ele><time>2026-04-11T16:54:25.739Z</time></trkpt><trkpt lat="44.3631963" lon="11.0834932"><ele>466.0</ele><time>2026-04-11T16:54:28.654Z</time></trkpt><trkpt lat="44.3631102" lon="11.0834897"><ele>466.00000000000006</ele><time>2026-04-11T16:54:31.657Z</time></trkpt><trkpt lat="44.3630371" lon="11.0834999"><ele>466.0</ele><time>2026-04-11T16:54:33.654Z</time></trkpt><trkpt lat="44.362972" lon="11.083524"><ele>469.0</ele><time>2026-04-11T16:54:36.654Z</time></trkpt><trkpt lat="44.3629107" lon="11.0835592"><ele>472.0</ele><time>2026-04-11T16:54:39.736Z</time></trkpt><trkpt lat="44.3628394" lon="11.0835851"><ele>475.0</ele><time>2026-04-11T16:54:41.88Z</time></trkpt><trkpt lat="44.3627799" lon="11.0836199"><ele>478.0</ele><time>2026-04-11T16:54:44.122Z</time></trkpt><trkpt lat="44.3627107" lon="11.0836324"><ele>481.0</ele><time>2026-04-11T16:54:47.662Z</time></trkpt><trkpt lat="44.3626437" lon="11.0836129"><ele>484.0</ele><time>2026-04-11T16:54:49.738Z</time></trkpt><trkpt lat="44.3625667" lon="11.0835765"><ele>487.0</ele><time>2026-04-11T16:54:52.666Z</time></trkpt><trkpt lat="44.3625077" lon="11.0835124"><ele>487.00000000000006</ele><time>2026-04-11T16:54:55.522Z</time></trkpt><trkpt lat="44.3624266" lon="11.0834501"><ele>487.0</ele><time>2026-04-11T16:54:58.654Z</time></trkpt><trkpt lat="44.362364" lon="11.0833918"><ele>487.0</ele><time>2026-04-11T16:55:01.654Z</time></trkpt><trkpt lat="44.3623018" lon="11.083334"><ele>487.0</ele><time>2026-04-11T16:55:03.659Z</time></trkpt><trkpt lat="44.3622296" lon="11.0832522"><ele>487.00000000000006</ele><time>2026-04-11T16:55:06.654Z</time></trkpt><trkpt lat="44.3621674" lon="11.0831533"><ele>487.0</ele><time>2026-04-11T16:55:09.654Z</time></trkpt><trkpt lat="44.3620961" lon="11.083089"><ele>488.83333333333337</ele><time>2026-04-11T16:55:11.654Z</time></trkpt><trkpt lat="44.3620268" lon="11.083035"><ele>490.6666666666667</ele><time>2026-04-11T16:55:13.654Z</time></trkpt><trkpt lat="44.3619744" lon="11.0829772"><ele>492.5</ele><time>2026-04-11T16:55:15.654Z</time></trkpt><trkpt lat="44.3619442" lon="11.0828942"><ele>494.33333333333337</ele><time>2026-04-11T16:55:17.654Z</time></trkpt><trkpt lat="44.3618744" lon="11.0828156"><ele>496.1666666666667</ele><time>2026-04-11T16:55:20.653Z</time></trkpt><trkpt lat="44.361803" lon="11.0827503"><ele>498.0</ele><time>2026-04-11T16:55:22.653Z</time></trkpt><trkpt lat="44.3617466" lon="11.0827001"><ele>498.0</ele><time>2026-04-11T16:55:24.654Z</time></trkpt><trkpt lat="44.3616592" lon="11.082659"><ele>498.0</ele><time>2026-04-11T16:56:00.654Z</time></trkpt><trkpt lat="44.3615969" lon="11.0826765"><ele>498.0</ele><time>2026-04-11T16:56:02.653Z</time></trkpt><trkpt lat="44.3615221" lon="11.0827111"><ele>498.0</ele><time>2026-04-11T16:56:04.654Z</time></trkpt><trkpt lat="44.3614396" lon="11.0827619"><ele>498.0</ele><time>2026-04-11T16:56:06.653Z</time></trkpt><trkpt lat="44.361367" lon="11.0828284"><ele>498.0</ele><time>2026-04-11T16:56:08.654Z</time></trkpt><trkpt lat="44.3612656" lon="11.082861"><ele>500.5</ele><time>2026-04-11T16:56:10.654Z</time></trkpt><trkpt lat="44.3611399" lon="11.0828579"><ele>503.0</ele><time>2026-04-11T16:56:12.653Z</time></trkpt><trkpt lat="44.3610744" lon="11.0828573"><ele>505.5</ele><time>2026-04-11T16:56:13.654Z</time></trkpt><trkpt lat="44.3610083" lon="11.0828823"><ele>508.0</ele><time>2026-04-11T16:56:14.654Z</time></trkpt><trkpt lat="44.3609465" lon="11.0829318"><ele>510.5</ele><time>2026-04-11T16:56:15.653Z</time></trkpt><trkpt lat="44.3608966" lon="11.0829956"><ele>513.0</ele><time>2026-04-11T16:56:16.654Z</time></trkpt><trkpt lat="44.3608594" lon="11.0830774"><ele>513.0</ele><time>2026-04-11T16:56:17.654Z</time></trkpt><trkpt lat="44.3608351" lon="11.0831873"><ele>513.0</ele><time>2026-04-11T16:56:18.654Z</time></trkpt><trkpt lat="44.3608261" lon="11.0833159"><ele>513.0</ele><time>2026-04-11T16:56:19.653Z</time></trkpt><trkpt lat="44.3608384" lon="11.0834662"><ele>513.0</ele><time>2026-04-11T16:56:20.654Z</time></trkpt><trkpt lat="44.3608533" lon="11.0836245"><ele>513.0</ele><time>2026-04-11T16:56:21.654Z</time></trkpt><trkpt lat="44.3608691" lon="11.0837881"><ele>513.8</ele><time>2026-04-11T16:56:22.653Z</time></trkpt><trkpt lat="44.3608864" lon="11.0839524"><ele>514.5999999999999</ele><time>2026-04-11T16:56:23.654Z</time></trkpt><trkpt lat="44.3609005" lon="11.0841098"><ele>515.4000000000001</ele><time>2026-04-11T16:56:24.653Z</time></trkpt><trkpt lat="44.3609305" lon="11.084246"><ele>516.2</ele><time>2026-04-11T16:56:25.653Z</time></trkpt><trkpt lat="44.3609755" lon="11.0843667"><ele>517.0</ele><time>2026-04-11T16:56:26.653Z</time></trkpt><trkpt lat="44.361037" lon="11.0844667"><ele>517.8000000000001</ele><time>2026-04-11T16:56:27.653Z</time></trkpt><trkpt lat="44.3610945" lon="11.084568"><ele>518.6</ele><time>2026-04-11T16:56:28.654Z</time></trkpt><trkpt lat="44.3611352" lon="11.0846829"><ele>519.4000000000001</ele><time>2026-04-11T16:56:29.654Z</time></trkpt><trkpt lat="44.3611618" lon="11.0848119"><ele>520.2</ele><time>2026-04-11T16:56:30.653Z</time></trkpt><trkpt lat="44.3611883" lon="11.0849357"><ele>521.0</ele><time>2026-04-11T16:56:31.654Z</time></trkpt><trkpt lat="44.3611948" lon="11.0850937"><ele>523.0</ele><time>2026-04-11T16:56:32.654Z</time></trkpt><trkpt lat="44.3612069" lon="11.0852142"><ele>525.0</ele><time>2026-04-11T16:56:33.653Z</time></trkpt><trkpt lat="44.3612234" lon="11.085338"><ele>527.0</ele><time>2026-04-11T16:56:34.654Z</time></trkpt><trkpt lat="44.3612541" lon="11.0854681"><ele>529.0</ele><time>2026-04-11T16:56:35.654Z</time></trkpt><trkpt lat="44.361291" lon="11.0855968"><ele>531.0</ele><time>2026-04-11T16:56:36.654Z</time></trkpt><trkpt lat="44.3613291" lon="11.0857158"><ele>528.6666666666666</ele><time>2026-04-11T16:56:37.653Z</time></trkpt><trkpt lat="44.3613662" lon="11.0858244"><ele>526.3333333333334</ele><time>2026-04-11T16:56:38.654Z</time></trkpt><trkpt lat="44.3613928" lon="11.0859312"><ele>524.0</ele><time>2026-04-11T16:56:39.654Z</time></trkpt><trkpt lat="44.3614139" lon="11.0860427"><ele>521.6666666666667</ele><time>2026-04-11T16:56:40.654Z</time></trkpt><trkpt lat="44.3614232" lon="11.086169"><ele>519.3333333333334</ele><time>2026-04-11T16:56:41.654Z</time></trkpt><trkpt lat="44.3614358" lon="11.0862941"><ele>517.0</ele><time>2026-04-11T16:56:42.654Z</time></trkpt><trkpt lat="44.3614522" lon="11.0864404"><ele>518.2</ele><time>2026-04-11T16:56:43.654Z</time></trkpt><trkpt lat="44.361483" lon="11.086595"><ele>519.4000000000001</ele><time>2026-04-11T16:56:44.654Z</time></trkpt><trkpt lat="44.3614972" lon="11.086708"><ele>520.5999999999999</ele><time>2026-04-11T16:56:45.654Z</time></trkpt><trkpt lat="44.3615116" lon="11.0868239"><ele>521.8</ele><time>2026-04-11T16:56:46.654Z</time></trkpt><trkpt lat="44.3615239" lon="11.0869123"><ele>523.0</ele><time>2026-04-11T16:56:47.654Z</time></trkpt><trkpt lat="44.3615511" lon="11.0870578"><ele>523.0</ele><time>2026-04-11T16:56:49.654Z</time></trkpt><trkpt lat="44.3615728" lon="11.0871997"><ele>523.0</ele><time>2026-04-11T16:56:52.653Z</time></trkpt><trkpt lat="44.3616159" lon="11.0873421"><ele>523.0</ele><time>2026-04-11T16:56:54.654Z</time></trkpt><trkpt lat="44.3616685" lon="11.0874411"><ele>523.0</ele><time>2026-04-11T16:56:56.654Z</time></trkpt><trkpt lat="44.3617233" lon="11.0875524"><ele>523.0</ele><time>2026-04-11T16:56:58.654Z</time></trkpt><trkpt lat="44.3617663" lon="11.0876453"><ele>523.8333333333334</ele><time>2026-04-11T16:57:00.654Z</time></trkpt><trkpt lat="44.3618114" lon="11.0877401"><ele>524.6666666666667</ele><time>2026-04-11T16:57:02.654Z</time></trkpt><trkpt lat="44.3618811" lon="11.08788"><ele>525.5</ele><time>2026-04-11T16:57:05.654Z</time></trkpt><trkpt lat="44.3619043" lon="11.0879729"><ele>526.3333333333334</ele><time>2026-04-11T16:57:07.654Z</time></trkpt><trkpt lat="44.3619078" lon="11.0880797"><ele>527.1666666666666</ele><time>2026-04-11T16:57:09.654Z</time></trkpt><trkpt lat="44.3618996" lon="11.0881805"><ele>528.0</ele><time>2026-04-11T16:57:11.653Z</time></trkpt><trkpt lat="44.3618945" lon="11.0882755"><ele>529.1999999999999</ele><time>2026-04-11T16:57:13.653Z</time></trkpt><trkpt lat="44.3618913" lon="11.0884191"><ele>530.4</ele><time>2026-04-11T16:57:15.654Z</time></trkpt><trkpt lat="44.3618825" lon="11.0885686"><ele>531.5999999999999</ele><time>2026-04-11T16:57:17.653Z</time></trkpt><trkpt lat="44.3618911" lon="11.0886565"><ele>532.8</ele><time>2026-04-11T16:57:18.654Z</time></trkpt><trkpt lat="44.3619185" lon="11.0888238"><ele>534.0</ele><time>2026-04-11T16:57:20.654Z</time></trkpt><trkpt lat="44.3619403" lon="11.0889137"><ele>534.0</ele><time>2026-04-11T16:57:21.654Z</time></trkpt><trkpt lat="44.3619772" lon="11.0890092"><ele>534.0</ele><time>2026-04-11T16:57:22.654Z</time></trkpt><trkpt lat="44.3620085" lon="11.0890887"><ele>534.0</ele><time>2026-04-11T16:57:23.654Z</time></trkpt><trkpt lat="44.3620438" lon="11.0892607"><ele>534.0</ele><time>2026-04-11T16:57:25.654Z</time></trkpt><trkpt lat="44.362052" lon="11.0893791"><ele>534.0</ele><time>2026-04-11T16:57:26.654Z</time></trkpt><trkpt lat="44.3620621" lon="11.0894928"><ele>534.0</ele><time>2026-04-11T16:57:27.654Z</time></trkpt><trkpt lat="44.3620874" lon="11.0896226"><ele>534.8</ele><time>2026-04-11T16:57:28.654Z</time></trkpt><trkpt lat="44.3621178" lon="11.0897367"><ele>535.5999999999999</ele><time>2026-04-11T16:57:29.654Z</time></trkpt><trkpt lat="44.3621535" lon="11.0898677"><ele>536.4</ele><time>2026-04-11T16:57:30.654Z</time></trkpt><trkpt lat="44.362177" lon="11.0900022"><ele>537.1999999999999</ele><time>2026-04-11T16:57:31.654Z</time></trkpt><trkpt lat="44.3621915" lon="11.0901245"><ele>538.0</ele><time>2026-04-11T16:57:32.654Z</time></trkpt><trkpt lat="44.3621903" lon="11.0902349"><ele>539.5</ele><time>2026-04-11T16:57:33.654Z</time></trkpt><trkpt lat="44.3621866" lon="11.0903664"><ele>541.0</ele><time>2026-04-11T16:57:34.653Z</time></trkpt><trkpt lat="44.3622212" lon="11.0904506"><ele>542.5</ele><time>2026-04-11T16:57:35.654Z</time></trkpt><trkpt lat="44.3622993" lon="11.0905629"><ele>544.0</ele><time>2026-04-11T16:57:37.654Z</time></trkpt><trkpt lat="44.3623797" lon="11.0905962"><ele>545.5</ele><time>2026-04-11T16:57:50.654Z</time></trkpt><trkpt lat="44.362448" lon="11.0906097"><ele>547.0</ele><time>2026-04-11T16:57:56.653Z</time></trkpt><trkpt lat="44.3625149" lon="11.09065"><ele>545.8333333333334</ele><time>2026-04-11T16:58:00.654Z</time></trkpt><trkpt lat="44.3625767" lon="11.0907285"><ele>544.6666666666667</ele><time>2026-04-11T16:58:03.653Z</time></trkpt><trkpt lat="44.3626049" lon="11.0908182"><ele>543.5</ele><time>2026-04-11T16:58:05.654Z</time></trkpt><trkpt lat="44.3626276" lon="11.0909042"><ele>542.3333333333334</ele><time>2026-04-11T16:58:07.654Z</time></trkpt><trkpt lat="44.3626321" lon="11.0910454"><ele>541.1666666666666</ele><time>2026-04-11T16:58:09.653Z</time></trkpt><trkpt lat="44.3626302" lon="11.0911362"><ele>540.0</ele><time>2026-04-11T16:58:10.654Z</time></trkpt><trkpt lat="44.3626362" lon="11.0913037"><ele>540.0</ele><time>2026-04-11T16:58:12.654Z</time></trkpt><trkpt lat="44.3626533" lon="11.0913904"><ele>540.0</ele><time>2026-04-11T16:58:13.653Z</time></trkpt><trkpt lat="44.3626791" lon="11.0914824"><ele>540.0</ele><time>2026-04-11T16:58:14.653Z</time></trkpt><trkpt lat="44.3627084" lon="11.0915715"><ele>540.0</ele><time>2026-04-11T16:58:15.654Z</time></trkpt><trkpt lat="44.3627532" lon="11.0917118"><ele>540.0</ele><time>2026-04-11T16:58:17.654Z</time></trkpt><trkpt lat="44.3627649" lon="11.0918421"><ele>540.0</ele><time>2026-04-11T16:58:19.654Z</time></trkpt><trkpt lat="44.362792" lon="11.0919969"><ele>540.3333333333334</ele><time>2026-04-11T16:58:21.654Z</time></trkpt><trkpt lat="44.3628537" lon="11.0921589"><ele>540.6666666666666</ele><time>2026-04-11T16:58:23.654Z</time></trkpt><trkpt lat="44.3628879" lon="11.0922382"><ele>541.0</ele><time>2026-04-11T16:58:24.654Z</time></trkpt><trkpt lat="44.3629324" lon="11.09233"><ele>541.3333333333333</ele><time>2026-04-11T16:58:25.654Z</time></trkpt><trkpt lat="44.3629751" lon="11.092417"><ele>541.6666666666666</ele><time>2026-04-11T16:58:26.654Z</time></trkpt><trkpt lat="44.3630045" lon="11.0924967"><ele>542.0</ele><time>2026-04-11T16:58:27.654Z</time></trkpt><trkpt lat="44.3630488" lon="11.0926504"><ele>542.0</ele><time>2026-04-11T16:58:29.654Z</time></trkpt><trkpt lat="44.3630556" lon="11.0927438"><ele>542.0</ele><time>2026-04-11T16:58:30.654Z</time></trkpt><trkpt lat="44.36307" lon="11.0929001"><ele>542.0</ele><time>2026-04-11T16:58:32.654Z</time></trkpt><trkpt lat="44.3630582" lon="11.0930809"><ele>542.0</ele><time>2026-04-11T16:58:34.654Z</time></trkpt><trkpt lat="44.3629934" lon="11.0932091"><ele>542.0</ele><time>2026-04-11T16:58:36.653Z</time></trkpt><trkpt lat="44.362969" lon="11.0933333"><ele>548.2</ele><time>2026-04-11T16:58:38.654Z</time></trkpt><trkpt lat="44.3629617" lon="11.0934597"><ele>554.4000000000001</ele><time>2026-04-11T16:58:40.654Z</time></trkpt><trkpt lat="44.3629709" lon="11.09357"><ele>560.5999999999999</ele><time>2026-04-11T16:58:41.654Z</time></trkpt><trkpt lat="44.3629894" lon="11.0937515"><ele>566.8</ele><time>2026-04-11T16:58:43.654Z</time></trkpt><trkpt lat="44.363018" lon="11.0939253"><ele>573.0</ele><time>2026-04-11T16:58:44.654Z</time></trkpt><trkpt lat="44.3630279" lon="11.094013"><ele>572.5</ele><time>2026-04-11T16:58:45.654Z</time></trkpt><trkpt lat="44.3630293" lon="11.0941214"><ele>572.0</ele><time>2026-04-11T16:58:46.654Z</time></trkpt><trkpt lat="44.3630934" lon="11.0941131"><ele>571.5</ele><time>2026-04-11T16:58:47.654Z</time></trkpt><trkpt lat="44.3631329" lon="11.0941817"><ele>571.0</ele><time>2026-04-11T16:58:48.654Z</time></trkpt><trkpt lat="44.3632126" lon="11.0942966"><ele>570.5</ele><time>2026-04-11T16:58:50.653Z</time></trkpt><trkpt lat="44.363285" lon="11.0943556"><ele>570.0</ele><time>2026-04-11T16:58:52.653Z</time></trkpt><trkpt lat="44.3633628" lon="11.0944497"><ele>568.8333333333334</ele><time>2026-04-11T16:58:54.654Z</time></trkpt><trkpt lat="44.3634151" lon="11.0945942"><ele>567.6666666666666</ele><time>2026-04-11T16:58:56.653Z</time></trkpt><trkpt lat="44.3634214" lon="11.0946872"><ele>566.5</ele><time>2026-04-11T16:58:57.654Z</time></trkpt><trkpt lat="44.3634161" lon="11.0947767"><ele>565.3333333333333</ele><time>2026-04-11T16:58:58.653Z</time></trkpt><trkpt lat="44.3634115" lon="11.0948872"><ele>564.1666666666666</ele><time>2026-04-11T16:59:00.653Z</time></trkpt><trkpt lat="44.3634161" lon="11.0950491"><ele>563.0</ele><time>2026-04-11T16:59:03.654Z</time></trkpt><trkpt lat="44.3634448" lon="11.0952737"><ele>563.0</ele><time>2026-04-11T16:59:05.654Z</time></trkpt><trkpt lat="44.3634609" lon="11.0953708"><ele>563.0</ele><time>2026-04-11T16:59:06.653Z</time></trkpt><trkpt lat="44.3634825" lon="11.0954891"><ele>563.0</ele><time>2026-04-11T16:59:08.654Z</time></trkpt><trkpt lat="44.3635003" lon="11.0955978"><ele>563.0</ele><time>2026-04-11T16:59:10.653Z</time></trkpt><trkpt lat="44.3635173" lon="11.0957404"><ele>563.0</ele><time>2026-04-11T16:59:12.653Z</time></trkpt><trkpt lat="44.3635252" lon="11.0958864"><ele>563.0</ele><time>2026-04-11T16:59:14.654Z</time></trkpt><trkpt lat="44.3635327" lon="11.0960611"><ele>563.0</ele><time>2026-04-11T16:59:16.653Z</time></trkpt><trkpt lat="44.3635434" lon="11.096233"><ele>563.0</ele><time>2026-04-11T16:59:18.654Z</time></trkpt><trkpt lat="44.3635556" lon="11.0963524"><ele>563.0</ele><time>2026-04-11T16:59:20.654Z</time></trkpt><trkpt lat="44.3635781" lon="11.0964772"><ele>563.0</ele><time>2026-04-11T16:59:23.654Z</time></trkpt><trkpt lat="44.3636561" lon="11.096581"><ele>563.0</ele><time>2026-04-11T16:59:25.654Z</time></trkpt><trkpt lat="44.3637137" lon="11.09669"><ele>563.0</ele><time>2026-04-11T16:59:26.654Z</time></trkpt><trkpt lat="44.363778" lon="11.0967472"><ele>563.0</ele><time>2026-04-11T16:59:27.653Z</time></trkpt><trkpt lat="44.3638461" lon="11.096797"><ele>563.0</ele><time>2026-04-11T16:59:28.654Z</time></trkpt><trkpt lat="44.3639152" lon="11.0968485"><ele>563.0</ele><time>2026-04-11T16:59:29.654Z</time></trkpt><trkpt lat="44.363999" lon="11.0969072"><ele>563.0</ele><time>2026-04-11T16:59:30.654Z</time></trkpt><trkpt lat="44.3640849" lon="11.0969823"><ele>563.0</ele><time>2026-04-11T16:59:31.654Z</time></trkpt><trkpt lat="44.3641718" lon="11.0970478"><ele>562.3333333333333</ele><time>2026-04-11T16:59:32.654Z</time></trkpt><trkpt lat="44.364255" lon="11.0971113"><ele>561.6666666666666</ele><time>2026-04-11T16:59:33.653Z</time></trkpt><trkpt lat="44.3643287" lon="11.0971763"><ele>561.0</ele><time>2026-04-11T16:59:34.653Z</time></trkpt><trkpt lat="44.3643997" lon="11.0972448"><ele>560.3333333333334</ele><time>2026-04-11T16:59:35.654Z</time></trkpt><trkpt lat="44.3644646" lon="11.0973158"><ele>559.6666666666667</ele><time>2026-04-11T16:59:36.654Z</time></trkpt><trkpt lat="44.3645242" lon="11.0973785"><ele>559.0</ele><time>2026-04-11T16:59:37.654Z</time></trkpt><trkpt lat="44.3645698" lon="11.0974404"><ele>561.5</ele><time>2026-04-11T16:59:38.654Z</time></trkpt><trkpt lat="44.3645984" lon="11.0975722"><ele>564.0</ele><time>2026-04-11T16:59:40.654Z</time></trkpt><trkpt lat="44.3645331" lon="11.0977052"><ele>566.5</ele><time>2026-04-11T16:59:42.654Z</time></trkpt><trkpt lat="44.3644798" lon="11.0977587"><ele>569.0</ele><time>2026-04-11T16:59:43.654Z</time></trkpt><trkpt lat="44.3644273" lon="11.0978128"><ele>571.5</ele><time>2026-04-11T16:59:44.654Z</time></trkpt><trkpt lat="44.36438" lon="11.0978726"><ele>574.0</ele><time>2026-04-11T16:59:45.654Z</time></trkpt><trkpt lat="44.3643272" lon="11.0979897"><ele>574.0</ele><time>2026-04-11T16:59:47.654Z</time></trkpt><trkpt lat="44.3643094" lon="11.0981452"><ele>574.0</ele><time>2026-04-11T16:59:49.654Z</time></trkpt><trkpt lat="44.3643357" lon="11.0982702"><ele>574.0</ele><time>2026-04-11T16:59:51.654Z</time></trkpt><trkpt lat="44.3643823" lon="11.0983699"><ele>574.0</ele><time>2026-04-11T16:59:53.654Z</time></trkpt><trkpt lat="44.3644172" lon="11.0985207"><ele>574.0</ele><time>2026-04-11T16:59:55.654Z</time></trkpt><trkpt lat="44.3644364" lon="11.0986667"><ele>576.6666666666667</ele><time>2026-04-11T16:59:57.654Z</time></trkpt><trkpt lat="44.3644546" lon="11.0988003"><ele>579.3333333333334</ele><time>2026-04-11T16:59:59.654Z</time></trkpt><trkpt lat="44.3644939" lon="11.0988875"><ele>582.0</ele><time>2026-04-11T17:00:00.654Z</time></trkpt><trkpt lat="44.3645736" lon="11.0989651"><ele>584.6666666666666</ele><time>2026-04-11T17:00:02.654Z</time></trkpt><trkpt lat="44.3646016" lon="11.0990443"><ele>587.3333333333333</ele><time>2026-04-11T17:00:03.654Z</time></trkpt><trkpt lat="44.3646085" lon="11.099132"><ele>590.0</ele><time>2026-04-11T17:00:04.654Z</time></trkpt><trkpt lat="44.3646147" lon="11.0992439"><ele>593.75</ele><time>2026-04-11T17:00:05.654Z</time></trkpt><trkpt lat="44.3646309" lon="11.0994134"><ele>597.5</ele><time>2026-04-11T17:00:07.654Z</time></trkpt><trkpt lat="44.3646662" lon="11.0995718"><ele>601.25</ele><time>2026-04-11T17:00:09.654Z</time></trkpt><trkpt lat="44.3647013" lon="11.0996867"><ele>605.0</ele><time>2026-04-11T17:00:11.654Z</time></trkpt><trkpt lat="44.3647417" lon="11.0998525"><ele>609.0</ele><time>2026-04-11T17:00:13.654Z</time></trkpt><trkpt lat="44.364773" lon="11.0999301"><ele>613.0</ele><time>2026-04-11T17:00:14.654Z</time></trkpt><trkpt lat="44.3648234" lon="11.0999868"><ele>617.0</ele><time>2026-04-11T17:00:15.654Z</time></trkpt><trkpt lat="44.3649038" lon="11.1000835"><ele>621.0</ele><time>2026-04-11T17:00:17.654Z</time></trkpt><trkpt lat="44.3649417" lon="11.1001585"><ele>625.0</ele><time>2026-04-11T17:00:18.654Z</time></trkpt><trkpt lat="44.364975" lon="11.1002401"><ele>629.0</ele><time>2026-04-11T17:00:19.653Z</time></trkpt><trkpt lat="44.3649979" lon="11.1003799"><ele>629.0</ele><time>2026-04-11T17:00:21.654Z</time></trkpt><trkpt lat="44.365043" lon="11.1005864"><ele>629.0</ele><time>2026-04-11T17:00:23.654Z</time></trkpt><trkpt lat="44.3650719" lon="11.1006695"><ele>629.0</ele><time>2026-04-11T17:00:24.654Z</time></trkpt><trkpt lat="44.365135" lon="11.1008189"><ele>629.0</ele><time>2026-04-11T17:00:26.654Z</time></trkpt><trkpt lat="44.365184" lon="11.1009547"><ele>630.6666666666666</ele><time>2026-04-11T17:00:28.654Z</time></trkpt><trkpt lat="44.3651907" lon="11.1011161"><ele>632.3333333333333</ele><time>2026-04-11T17:00:30.654Z</time></trkpt><trkpt lat="44.3651776" lon="11.1012197"><ele>634.0</ele><time>2026-04-11T17:00:31.654Z</time></trkpt><trkpt lat="44.3651632" lon="11.1013228"><ele>635.6666666666666</ele><time>2026-04-11T17:00:32.653Z</time></trkpt><trkpt lat="44.3651441" lon="11.1014418"><ele>637.3333333333334</ele><time>2026-04-11T17:00:33.653Z</time></trkpt><trkpt lat="44.3651268" lon="11.1015597"><ele>639.0</ele><time>2026-04-11T17:00:34.653Z</time></trkpt><trkpt lat="44.3651155" lon="11.1016618"><ele>641.3333333333334</ele><time>2026-04-11T17:00:35.654Z</time></trkpt><trkpt lat="44.3650955" lon="11.1017979"><ele>643.6666666666666</ele><time>2026-04-11T17:00:36.654Z</time></trkpt><trkpt lat="44.3650812" lon="11.101913"><ele>646.0</ele><time>2026-04-11T17:00:37.654Z</time></trkpt><trkpt lat="44.3650607" lon="11.1020339"><ele>648.3333333333333</ele><time>2026-04-11T17:00:38.654Z</time></trkpt><trkpt lat="44.3650536" lon="11.1021528"><ele>650.6666666666666</ele><time>2026-04-11T17:00:39.654Z</time></trkpt><trkpt lat="44.365035" lon="11.1022587"><ele>653.0</ele><time>2026-04-11T17:00:40.654Z</time></trkpt><trkpt lat="44.3650158" lon="11.1023779"><ele>654.6666666666666</ele><time>2026-04-11T17:00:41.654Z</time></trkpt><trkpt lat="44.3649855" lon="11.1024888"><ele>656.3333333333333</ele><time>2026-04-11T17:00:42.654Z</time></trkpt><trkpt lat="44.3649484" lon="11.1026048"><ele>658.0</ele><time>2026-04-11T17:00:43.654Z</time></trkpt><trkpt lat="44.3649032" lon="11.1027138"><ele>659.6666666666666</ele><time>2026-04-11T17:00:44.654Z</time></trkpt><trkpt lat="44.3648508" lon="11.1028098"><ele>661.3333333333334</ele><time>2026-04-11T17:00:45.654Z</time></trkpt><trkpt lat="44.3647976" lon="11.1029012"><ele>663.0</ele><time>2026-04-11T17:00:46.654Z</time></trkpt><trkpt lat="44.3647445" lon="11.1029863"><ele>663.1666666666666</ele><time>2026-04-11T17:00:47.654Z</time></trkpt><trkpt lat="44.3646949" lon="11.1030805"><ele>663.3333333333334</ele><time>2026-04-11T17:00:48.654Z</time></trkpt><trkpt lat="44.3646469" lon="11.1031842"><ele>663.5</ele><time>2026-04-11T17:00:49.654Z</time></trkpt><trkpt lat="44.3646082" lon="11.1032792"><ele>663.6666666666667</ele><time>2026-04-11T17:00:50.654Z</time></trkpt><trkpt lat="44.3645815" lon="11.1033617"><ele>663.8333333333334</ele><time>2026-04-11T17:00:51.654Z</time></trkpt><trkpt lat="44.3645889" lon="11.1035112"><ele>664.0</ele><time>2026-04-11T17:00:53.654Z</time></trkpt><trkpt lat="44.3646261" lon="11.103664"><ele>665.6</ele><time>2026-04-11T17:00:55.653Z</time></trkpt><trkpt lat="44.3646896" lon="11.1037241"><ele>667.2</ele><time>2026-04-11T17:01:37.654Z</time></trkpt><trkpt lat="44.3646659" lon="11.1038324"><ele>668.8000000000001</ele><time>2026-04-11T17:01:45.654Z</time></trkpt><trkpt lat="44.3647217" lon="11.103964"><ele>670.4000000000001</ele><time>2026-04-11T17:04:07.654Z</time></trkpt><trkpt lat="44.3647954" lon="11.1041089"><ele>672.0</ele><time>2026-04-11T17:04:09.653Z</time></trkpt><trkpt lat="44.3648372" lon="11.1041895"><ele>673.6666666666666</ele><time>2026-04-11T17:04:10.654Z</time></trkpt><trkpt lat="44.3648845" lon="11.1042764"><ele>675.3333333333334</ele><time>2026-04-11T17:04:11.654Z</time></trkpt><trkpt lat="44.3649343" lon="11.1043728"><ele>677.0</ele><time>2026-04-11T17:04:12.654Z</time></trkpt><trkpt lat="44.3649873" lon="11.1044727"><ele>678.6666666666667</ele><time>2026-04-11T17:04:13.654Z</time></trkpt><trkpt lat="44.3650367" lon="11.1045747"><ele>680.3333333333334</ele><time>2026-04-11T17:04:14.653Z</time></trkpt><trkpt lat="44.3650834" lon="11.1046737"><ele>682.0</ele><time>2026-04-11T17:04:15.654Z</time></trkpt><trkpt lat="44.3651251" lon="11.1047725"><ele>682.0</ele><time>2026-04-11T17:04:16.654Z</time></trkpt><trkpt lat="44.3651558" lon="11.1048501"><ele>682.0</ele><time>2026-04-11T17:04:17.654Z</time></trkpt><trkpt lat="44.365199" lon="11.1049816"><ele>682.0</ele><time>2026-04-11T17:04:19.654Z</time></trkpt><trkpt lat="44.3652249" lon="11.1050895"><ele>682.0</ele><time>2026-04-11T17:04:22.654Z</time></trkpt><trkpt lat="44.3652879" lon="11.1051661"><ele>682.0</ele><time>2026-04-11T17:04:25.653Z</time></trkpt><trkpt lat="44.3653946" lon="11.1051686"><ele>682.0</ele><time>2026-04-11T17:04:27.653Z</time></trkpt><trkpt lat="44.3654687" lon="11.1051537"><ele>682.1666666666667</ele><time>2026-04-11T17:04:28.654Z</time></trkpt><trkpt lat="44.3655404" lon="11.1051357"><ele>682.3333333333334</ele><time>2026-04-11T17:04:29.653Z</time></trkpt><trkpt lat="44.3656182" lon="11.1051271"><ele>682.5</ele><time>2026-04-11T17:04:30.654Z</time></trkpt><trkpt lat="44.3657024" lon="11.1051071"><ele>682.6666666666666</ele><time>2026-04-11T17:04:31.654Z</time></trkpt><trkpt lat="44.3658004" lon="11.1050884"><ele>682.8333333333333</ele><time>2026-04-11T17:04:32.654Z</time></trkpt><trkpt lat="44.3658991" lon="11.1050773"><ele>683.0</ele><time>2026-04-11T17:04:33.653Z</time></trkpt><trkpt lat="44.3660067" lon="11.1050672"><ele>683.0</ele><time>2026-04-11T17:04:34.654Z</time></trkpt><trkpt lat="44.3661126" lon="11.1050544"><ele>683.0</ele><time>2026-04-11T17:04:35.653Z</time></trkpt><trkpt lat="44.3662139" lon="11.1050446"><ele>683.0</ele><time>2026-04-11T17:04:36.654Z</time></trkpt><trkpt lat="44.3663151" lon="11.105035"><ele>683.0</ele><time>2026-04-11T17:04:37.654Z</time></trkpt><trkpt lat="44.366415" lon="11.1050243"><ele>683.0</ele><time>2026-04-11T17:04:38.654Z</time></trkpt><trkpt lat="44.3665168" lon="11.1050121"><ele>683.5999999999999</ele><time>2026-04-11T17:04:39.654Z</time></trkpt><trkpt lat="44.3666153" lon="11.1049971"><ele>684.1999999999999</ele><time>2026-04-11T17:04:40.654Z</time></trkpt><trkpt lat="44.3667139" lon="11.1049839"><ele>684.8</ele><time>2026-04-11T17:04:41.654Z</time></trkpt><trkpt lat="44.366808" lon="11.1049689"><ele>685.4</ele><time>2026-04-11T17:04:42.654Z</time></trkpt><trkpt lat="44.366894" lon="11.1049588"><ele>686.0</ele><time>2026-04-11T17:04:43.654Z</time></trkpt><trkpt lat="44.3669676" lon="11.1049427"><ele>686.0</ele><time>2026-04-11T17:04:44.654Z</time></trkpt><trkpt lat="44.3670349" lon="11.1049363"><ele>686.0</ele><time>2026-04-11T17:04:45.654Z</time></trkpt><trkpt lat="44.3671034" lon="11.1049191"><ele>686.0</ele><time>2026-04-11T17:04:46.653Z</time></trkpt><trkpt lat="44.367197" lon="11.1048877"><ele>686.0</ele><time>2026-04-11T17:04:47.654Z</time></trkpt><trkpt lat="44.3673176" lon="11.1048346"><ele>686.0</ele><time>2026-04-11T17:04:48.654Z</time></trkpt><trkpt lat="44.3674637" lon="11.1047627"><ele>684.75</ele><time>2026-04-11T17:04:49.654Z</time></trkpt><trkpt lat="44.3675884" lon="11.1047058"><ele>683.5</ele><time>2026-04-11T17:04:50.654Z</time></trkpt><trkpt lat="44.3677043" lon="11.1046484"><ele>682.25</ele><time>2026-04-11T17:04:51.654Z</time></trkpt><trkpt lat="44.3678314" lon="11.1045862"><ele>681.0</ele><time>2026-04-11T17:04:52.654Z</time></trkpt><trkpt lat="44.367953" lon="11.1045311"><ele>680.6666666666666</ele><time>2026-04-11T17:04:53.654Z</time></trkpt><trkpt lat="44.3680574" lon="11.10449"><ele>680.3333333333334</ele><time>2026-04-11T17:04:54.654Z</time></trkpt><trkpt lat="44.368149" lon="11.1044516"><ele>680.0</ele><time>2026-04-11T17:04:55.654Z</time></trkpt><trkpt lat="44.3682272" lon="11.104418"><ele>679.6666666666667</ele><time>2026-04-11T17:04:56.654Z</time></trkpt><trkpt lat="44.3683003" lon="11.1043893"><ele>679.3333333333334</ele><time>2026-04-11T17:04:57.654Z</time></trkpt><trkpt lat="44.3683682" lon="11.104368"><ele>679.0</ele><time>2026-04-11T17:04:58.654Z</time></trkpt><trkpt lat="44.3684876" lon="11.1043241"><ele>679.0</ele><time>2026-04-11T17:05:00.654Z</time></trkpt><trkpt lat="44.3685518" lon="11.1042991"><ele>679.0</ele><time>2026-04-11T17:05:01.654Z</time></trkpt><trkpt lat="44.3686334" lon="11.1042645"><ele>679.0</ele><time>2026-04-11T17:05:02.654Z</time></trkpt><trkpt lat="44.3687166" lon="11.1042217"><ele>679.0</ele><time>2026-04-11T17:05:03.654Z</time></trkpt><trkpt lat="44.3687987" lon="11.1041679"><ele>679.0</ele><time>2026-04-11T17:05:04.653Z</time></trkpt><trkpt lat="44.3688784" lon="11.104109"><ele>679.0</ele><time>2026-04-11T17:05:05.654Z</time></trkpt><trkpt lat="44.3689474" lon="11.1040472"><ele>679.0</ele><time>2026-04-11T17:05:06.653Z</time></trkpt><trkpt lat="44.369017" lon="11.1039963"><ele>679.0</ele><time>2026-04-11T17:05:07.654Z</time></trkpt><trkpt lat="44.3690765" lon="11.1039532"><ele>679.0</ele><time>2026-04-11T17:05:08.654Z</time></trkpt><trkpt lat="44.3691749" lon="11.1039031"><ele>679.0</ele><time>2026-04-11T17:05:10.654Z</time></trkpt><trkpt lat="44.3692439" lon="11.1038318"><ele>679.0</ele><time>2026-04-11T17:05:26.654Z</time></trkpt><trkpt lat="44.3691574" lon="11.1038454"><ele>679.0</ele><time>2026-04-11T17:05:30.654Z</time></trkpt><trkpt lat="44.3691041" lon="11.1038938"><ele>679.0</ele><time>2026-04-11T17:05:31.654Z</time></trkpt><trkpt lat="44.3690345" lon="11.1039532"><ele>679.0</ele><time>2026-04-11T17:05:32.653Z</time></trkpt><trkpt lat="44.3689647" lon="11.1040167"><ele>679.0</ele><time>2026-04-11T17:05:33.654Z</time></trkpt><trkpt lat="44.3688897" lon="11.1040728"><ele>679.0</ele><time>2026-04-11T17:05:34.654Z</time></trkpt><trkpt lat="44.3688152" lon="11.1041222"><ele>679.0</ele><time>2026-04-11T17:05:35.653Z</time></trkpt><trkpt lat="44.3687416" lon="11.1041709"><ele>679.0</ele><time>2026-04-11T17:05:36.654Z</time></trkpt><trkpt lat="44.3686617" lon="11.1042149"><ele>679.0</ele><time>2026-04-11T17:05:37.653Z</time></trkpt><trkpt lat="44.368586" lon="11.1042461"><ele>679.0</ele><time>2026-04-11T17:05:38.654Z</time></trkpt><trkpt lat="44.3685045" lon="11.1042798"><ele>679.0</ele><time>2026-04-11T17:05:39.654Z</time></trkpt><trkpt lat="44.3684283" lon="11.1043107"><ele>679.0</ele><time>2026-04-11T17:05:40.654Z</time></trkpt><trkpt lat="44.3683569" lon="11.1043405"><ele>679.0</ele><time>2026-04-11T17:05:41.654Z</time></trkpt><trkpt lat="44.368283" lon="11.1043697"><ele>679.0</ele><time>2026-04-11T17:05:42.653Z</time></trkpt><trkpt lat="44.3682113" lon="11.1043968"><ele>679.0</ele><time>2026-04-11T17:05:43.654Z</time></trkpt><trkpt lat="44.3681278" lon="11.1044407"><ele>679.0</ele><time>2026-04-11T17:05:44.653Z</time></trkpt><trkpt lat="44.3680219" lon="11.1044983"><ele>679.0</ele><time>2026-04-11T17:05:45.654Z</time></trkpt><trkpt lat="44.3679135" lon="11.1045474"><ele>679.0</ele><time>2026-04-11T17:05:46.654Z</time></trkpt><trkpt lat="44.3678084" lon="11.1045829"><ele>679.0</ele><time>2026-04-11T17:05:47.654Z</time></trkpt><trkpt lat="44.3677061" lon="11.1046193"><ele>679.4000000000001</ele><time>2026-04-11T17:05:48.654Z</time></trkpt><trkpt lat="44.3676019" lon="11.1046683"><ele>679.8</ele><time>2026-04-11T17:05:49.654Z</time></trkpt><trkpt lat="44.3674989" lon="11.1047189"><ele>680.2</ele><time>2026-04-11T17:05:50.654Z</time></trkpt><trkpt lat="44.3674003" lon="11.1047692"><ele>680.5999999999999</ele><time>2026-04-11T17:05:51.654Z</time></trkpt><trkpt lat="44.3673037" lon="11.1048109"><ele>681.0</ele><time>2026-04-11T17:05:52.654Z</time></trkpt><trkpt lat="44.367218" lon="11.1048406"><ele>680.8333333333334</ele><time>2026-04-11T17:05:53.654Z</time></trkpt><trkpt lat="44.3671447" lon="11.1048671"><ele>680.6666666666666</ele><time>2026-04-11T17:05:54.654Z</time></trkpt><trkpt lat="44.3670835" lon="11.1049083"><ele>680.5</ele><time>2026-04-11T17:05:55.654Z</time></trkpt><trkpt lat="44.3670492" lon="11.1050555"><ele>680.3333333333333</ele><time>2026-04-11T17:05:57.653Z</time></trkpt><trkpt lat="44.3670865" lon="11.1052037"><ele>680.1666666666666</ele><time>2026-04-11T17:05:59.654Z</time></trkpt><trkpt lat="44.3671105" lon="11.1052933"><ele>680.0</ele><time>2026-04-11T17:06:00.654Z</time></trkpt><trkpt lat="44.367131" lon="11.1053811"><ele>679.8333333333333</ele><time>2026-04-11T17:06:01.653Z</time></trkpt><trkpt lat="44.3671537" lon="11.1054763"><ele>679.6666666666666</ele><time>2026-04-11T17:06:02.654Z</time></trkpt><trkpt lat="44.3671787" lon="11.1055762"><ele>679.5</ele><time>2026-04-11T17:06:03.653Z</time></trkpt><trkpt lat="44.3672031" lon="11.1056828"><ele>679.3333333333334</ele><time>2026-04-11T17:06:04.653Z</time></trkpt><trkpt lat="44.3672224" lon="11.1058008"><ele>679.1666666666667</ele><time>2026-04-11T17:06:05.654Z</time></trkpt><trkpt lat="44.367241" lon="11.105911"><ele>679.0</ele><time>2026-04-11T17:06:06.654Z</time></trkpt><trkpt lat="44.3672602" lon="11.106016"><ele>679.0</ele><time>2026-04-11T17:06:07.654Z</time></trkpt><trkpt lat="44.3672782" lon="11.1061196"><ele>679.0</ele><time>2026-04-11T17:06:08.654Z</time></trkpt><trkpt lat="44.3672972" lon="11.1062267"><ele>679.0</ele><time>2026-04-11T17:06:09.653Z</time></trkpt><trkpt lat="44.3673229" lon="11.106339"><ele>679.0</ele><time>2026-04-11T17:06:10.654Z</time></trkpt><trkpt lat="44.3673458" lon="11.1064411"><ele>679.0</ele><time>2026-04-11T17:06:11.654Z</time></trkpt><trkpt lat="44.3673699" lon="11.1065361"><ele>679.0</ele><time>2026-04-11T17:06:12.653Z</time></trkpt><trkpt lat="44.3673961" lon="11.1066545"><ele>677.4000000000001</ele><time>2026-04-11T17:06:14.653Z</time></trkpt><trkpt lat="44.3674195" lon="11.1067416"><ele>675.8</ele><time>2026-04-11T17:06:18.654Z</time></trkpt><trkpt lat="44.3674636" lon="11.1068662"><ele>674.2</ele><time>2026-04-11T17:06:20.654Z</time></trkpt><trkpt lat="44.3675268" lon="11.1069897"><ele>672.5999999999999</ele><time>2026-04-11T17:06:22.654Z</time></trkpt><trkpt lat="44.3675936" lon="11.1070907"><ele>671.0</ele><time>2026-04-11T17:06:24.654Z</time></trkpt><trkpt lat="44.3676405" lon="11.1071874"><ele>671.0</ele><time>2026-04-11T17:06:26.654Z</time></trkpt><trkpt lat="44.3676682" lon="11.1072988"><ele>671.0</ele><time>2026-04-11T17:06:28.654Z</time></trkpt><trkpt lat="44.3676771" lon="11.1073921"><ele>671.0</ele><time>2026-04-11T17:06:30.653Z</time></trkpt><trkpt lat="44.3677294" lon="11.1075071"><ele>671.0</ele><time>2026-04-11T17:06:33.653Z</time></trkpt><trkpt lat="44.3677889" lon="11.1075847"><ele>671.0</ele><time>2026-04-11T17:06:35.654Z</time></trkpt><trkpt lat="44.3678441" lon="11.1076529"><ele>671.0</ele><time>2026-04-11T17:06:37.654Z</time></trkpt><trkpt lat="44.367904" lon="11.1077468"><ele>669.5</ele><time>2026-04-11T17:06:40.654Z</time></trkpt><trkpt lat="44.3679625" lon="11.1078441"><ele>668.0</ele><time>2026-04-11T17:06:43.654Z</time></trkpt><trkpt lat="44.3680069" lon="11.10791"><ele>666.5</ele><time>2026-04-11T17:06:46.654Z</time></trkpt><trkpt lat="44.368057" lon="11.1079777"><ele>665.0</ele><time>2026-04-11T17:06:56.654Z</time></trkpt><trkpt lat="44.3679937" lon="11.1080042"><ele>663.5</ele><time>2026-04-11T17:07:08.654Z</time></trkpt><trkpt lat="44.3679288" lon="11.1080724"><ele>662.0</ele><time>2026-04-11T17:07:10.654Z</time></trkpt><trkpt lat="44.3678628" lon="11.1081487"><ele>660.6666666666666</ele><time>2026-04-11T17:07:12.654Z</time></trkpt><trkpt lat="44.3678319" lon="11.1082661"><ele>659.3333333333333</ele><time>2026-04-11T17:07:14.654Z</time></trkpt><trkpt lat="44.3678318" lon="11.1083793"><ele>658.0</ele><time>2026-04-11T17:07:16.654Z</time></trkpt><trkpt lat="44.3678673" lon="11.1084745"><ele>656.6666666666666</ele><time>2026-04-11T17:07:18.654Z</time></trkpt><trkpt lat="44.3678977" lon="11.1085746"><ele>655.3333333333334</ele><time>2026-04-11T17:07:20.654Z</time></trkpt><trkpt lat="44.3679262" lon="11.1086711"><ele>654.0</ele><time>2026-04-11T17:07:22.654Z</time></trkpt><trkpt lat="44.367959" lon="11.1087691"><ele>654.0</ele><time>2026-04-11T17:07:25.653Z</time></trkpt><trkpt lat="44.3679336" lon="11.1088742"><ele>654.0</ele><time>2026-04-11T17:08:15.654Z</time></trkpt><trkpt lat="44.3678991" lon="11.1089809"><ele>654.0</ele><time>2026-04-11T17:08:17.654Z</time></trkpt><trkpt lat="44.3678597" lon="11.109076"><ele>654.0</ele><time>2026-04-11T17:08:19.654Z</time></trkpt><trkpt lat="44.3677956" lon="11.1091669"><ele>654.0</ele><time>2026-04-11T17:08:22.654Z</time></trkpt><trkpt lat="44.3677478" lon="11.1092425"><ele>654.0</ele><time>2026-04-11T17:08:29.654Z</time></trkpt><trkpt lat="44.3676948" lon="11.1092943"><ele>654.0</ele><time>2026-04-11T17:08:31.654Z</time></trkpt><trkpt lat="44.3676419" lon="11.1093831"><ele>654.0</ele><time>2026-04-11T17:08:34.654Z</time></trkpt><trkpt lat="44.3676929" lon="11.1093227"><ele>654.0</ele><time>2026-04-11T17:09:21.654Z</time></trkpt><trkpt lat="44.367741" lon="11.109252"><ele>654.0</ele><time>2026-04-11T17:09:23.653Z</time></trkpt><trkpt lat="44.3678001" lon="11.1091669"><ele>654.0</ele><time>2026-04-11T17:09:25.654Z</time></trkpt><trkpt lat="44.3678611" lon="11.1090797"><ele>654.0</ele><time>2026-04-11T17:09:27.654Z</time></trkpt><trkpt lat="44.3679017" lon="11.1089711"><ele>654.0</ele><time>2026-04-11T17:09:29.653Z</time></trkpt><trkpt lat="44.3679246" lon="11.1088481"><ele>654.0</ele><time>2026-04-11T17:09:31.654Z</time></trkpt><trkpt lat="44.3679317" lon="11.1087119"><ele>654.0</ele><time>2026-04-11T17:09:33.653Z</time></trkpt><trkpt lat="44.3679114" lon="11.1085821"><ele>654.0</ele><time>2026-04-11T17:09:35.654Z</time></trkpt><trkpt lat="44.367873" lon="11.108484"><ele>654.0</ele><time>2026-04-11T17:09:37.653Z</time></trkpt><trkpt lat="44.3678465" lon="11.1083683"><ele>654.0</ele><time>2026-04-11T17:09:39.654Z</time></trkpt><trkpt lat="44.36786" lon="11.1082586"><ele>654.0</ele><time>2026-04-11T17:09:42.654Z</time></trkpt><trkpt lat="44.3678674" lon="11.1081673"><ele>654.0</ele><time>2026-04-11T17:09:46.654Z</time></trkpt><trkpt lat="44.3679151" lon="11.1081085"><ele>654.0</ele><time>2026-04-11T17:09:52.653Z</time></trkpt><trkpt lat="44.3679731" lon="11.108053"><ele>654.0</ele><time>2026-04-11T17:09:54.653Z</time></trkpt><trkpt lat="44.3680249" lon="11.1079876"><ele>654.0</ele><time>2026-04-11T17:09:56.654Z</time></trkpt><trkpt lat="44.3681212" lon="11.1079685"><ele>654.0</ele><time>2026-04-11T17:09:58.654Z</time></trkpt><trkpt lat="44.368239" lon="11.10799"><ele>653.4000000000001</ele><time>2026-04-11T17:10:00.654Z</time></trkpt><trkpt lat="44.3683579" lon="11.1080303"><ele>652.8</ele><time>2026-04-11T17:10:02.653Z</time></trkpt><trkpt lat="44.3684197" lon="11.10805"><ele>652.2</ele><time>2026-04-11T17:10:03.654Z</time></trkpt><trkpt lat="44.36852" lon="11.1080691"><ele>651.5999999999999</ele><time>2026-04-11T17:10:05.654Z</time></trkpt><trkpt lat="44.368606" lon="11.1080641"><ele>651.0</ele><time>2026-04-11T17:10:07.654Z</time></trkpt><trkpt lat="44.3686938" lon="11.1080702"><ele>651.0</ele><time>2026-04-11T17:10:09.654Z</time></trkpt><trkpt lat="44.3687906" lon="11.1080814"><ele>651.0</ele><time>2026-04-11T17:10:11.654Z</time></trkpt><trkpt lat="44.3688951" lon="11.1080989"><ele>651.0</ele><time>2026-04-11T17:10:13.654Z</time></trkpt><trkpt lat="44.3689695" lon="11.108093"><ele>651.0</ele><time>2026-04-11T17:10:15.654Z</time></trkpt><trkpt lat="44.369037" lon="11.1080293"><ele>651.0</ele><time>2026-04-11T17:10:18.654Z</time></trkpt><trkpt lat="44.3690971" lon="11.1079927"><ele>651.0</ele><time>2026-04-11T17:11:28.654Z</time></trkpt><trkpt lat="44.3691632" lon="11.1079662"><ele>651.0</ele><time>2026-04-11T17:11:32.654Z</time></trkpt><trkpt lat="44.3692096" lon="11.107905"><ele>651.0</ele><time>2026-04-11T17:11:36.654Z</time></trkpt><trkpt lat="44.3691531" lon="11.1078439"><ele>651.0</ele><time>2026-04-11T17:11:53.654Z</time></trkpt><trkpt lat="44.3690859" lon="11.1079107"><ele>651.0</ele><time>2026-04-11T17:11:56.653Z</time></trkpt><trkpt lat="44.3690696" lon="11.10801"><ele>651.0</ele><time>2026-04-11T17:12:03.654Z</time></trkpt><trkpt lat="44.3690016" lon="11.1080474"><ele>651.0</ele><time>2026-04-11T17:12:06.654Z</time></trkpt><trkpt lat="44.3689275" lon="11.1080832"><ele>651.0</ele><time>2026-04-11T17:12:09.654Z</time></trkpt><trkpt lat="44.3688583" lon="11.108094"><ele>651.0</ele><time>2026-04-11T17:12:11.654Z</time></trkpt><trkpt lat="44.3687865" lon="11.1080927"><ele>651.0</ele><time>2026-04-11T17:12:13.654Z</time></trkpt><trkpt lat="44.3687141" lon="11.1080789"><ele>651.0</ele><time>2026-04-11T17:12:15.654Z</time></trkpt><trkpt lat="44.3686274" lon="11.1080696"><ele>651.0</ele><time>2026-04-11T17:12:17.654Z</time></trkpt><trkpt lat="44.3685308" lon="11.1080665"><ele>651.0</ele><time>2026-04-11T17:12:19.654Z</time></trkpt><trkpt lat="44.3684191" lon="11.1080533"><ele>651.0</ele><time>2026-04-11T17:12:21.654Z</time></trkpt><trkpt lat="44.3682862" lon="11.108002"><ele>651.0</ele><time>2026-04-11T17:12:23.654Z</time></trkpt><trkpt lat="44.368202" lon="11.1079748"><ele>651.0</ele><time>2026-04-11T17:12:24.654Z</time></trkpt><trkpt lat="44.368121" lon="11.1079454"><ele>651.0</ele><time>2026-04-11T17:12:25.653Z</time></trkpt><trkpt lat="44.3680083" lon="11.1078824"><ele>651.0</ele><time>2026-04-11T17:12:27.654Z</time></trkpt><trkpt lat="44.367924" lon="11.1077522"><ele>651.0</ele><time>2026-04-11T17:12:29.654Z</time></trkpt><trkpt lat="44.3678824" lon="11.1076787"><ele>652.8333333333334</ele><time>2026-04-11T17:12:30.654Z</time></trkpt><trkpt lat="44.367846" lon="11.1076054"><ele>654.6666666666666</ele><time>2026-04-11T17:12:31.654Z</time></trkpt><trkpt lat="44.3678" lon="11.107525"><ele>656.5</ele><time>2026-04-11T17:12:32.653Z</time></trkpt><trkpt lat="44.3677235" lon="11.1074067"><ele>658.3333333333333</ele><time>2026-04-11T17:12:34.654Z</time></trkpt><trkpt lat="44.3676944" lon="11.107303"><ele>660.1666666666666</ele><time>2026-04-11T17:12:36.654Z</time></trkpt><trkpt lat="44.3676622" lon="11.1071914"><ele>662.0</ele><time>2026-04-11T17:12:38.654Z</time></trkpt><trkpt lat="44.3676023" lon="11.1070991"><ele>663.2857142857143</ele><time>2026-04-11T17:12:40.654Z</time></trkpt><trkpt lat="44.3675588" lon="11.1070339"><ele>664.5714285714286</ele><time>2026-04-11T17:12:41.654Z</time></trkpt><trkpt lat="44.367519" lon="11.1069621"><ele>665.8571428571429</ele><time>2026-04-11T17:12:42.654Z</time></trkpt><trkpt lat="44.3674827" lon="11.1068885"><ele>667.1428571428571</ele><time>2026-04-11T17:12:43.653Z</time></trkpt><trkpt lat="44.3674448" lon="11.1067555"><ele>668.4285714285714</ele><time>2026-04-11T17:12:45.653Z</time></trkpt><trkpt lat="44.3674136" lon="11.1066407"><ele>669.7142857142857</ele><time>2026-04-11T17:12:47.654Z</time></trkpt><trkpt lat="44.3673939" lon="11.1065537"><ele>671.0</ele><time>2026-04-11T17:12:48.654Z</time></trkpt><trkpt lat="44.3673686" lon="11.106449"><ele>672.3333333333333</ele><time>2026-04-11T17:12:49.654Z</time></trkpt><trkpt lat="44.3673444" lon="11.1063474"><ele>673.6666666666666</ele><time>2026-04-11T17:12:50.653Z</time></trkpt><trkpt lat="44.3673236" lon="11.1062459"><ele>675.0</ele><time>2026-04-11T17:12:51.654Z</time></trkpt><trkpt lat="44.3673021" lon="11.1061295"><ele>676.3333333333334</ele><time>2026-04-11T17:12:52.654Z</time></trkpt><trkpt lat="44.3672859" lon="11.106023"><ele>677.6666666666667</ele><time>2026-04-11T17:12:53.654Z</time></trkpt><trkpt lat="44.3672673" lon="11.1059138"><ele>679.0</ele><time>2026-04-11T17:12:54.654Z</time></trkpt><trkpt lat="44.3672496" lon="11.1058071"><ele>679.8333333333334</ele><time>2026-04-11T17:12:55.654Z</time></trkpt><trkpt lat="44.3672283" lon="11.1057116"><ele>680.6666666666667</ele><time>2026-04-11T17:12:56.654Z</time></trkpt><trkpt lat="44.3672026" lon="11.1056041"><ele>681.5</ele><time>2026-04-11T17:12:57.654Z</time></trkpt><trkpt lat="44.3671753" lon="11.1054968"><ele>682.3333333333334</ele><time>2026-04-11T17:12:58.654Z</time></trkpt><trkpt lat="44.3671471" lon="11.1053848"><ele>683.1666666666666</ele><time>2026-04-11T17:12:59.653Z</time></trkpt><trkpt lat="44.3671205" lon="11.1052793"><ele>684.0</ele><time>2026-04-11T17:13:00.653Z</time></trkpt><trkpt lat="44.3670956" lon="11.1051815"><ele>684.4000000000001</ele><time>2026-04-11T17:13:01.654Z</time></trkpt><trkpt lat="44.367064" lon="11.1050504"><ele>684.8</ele><time>2026-04-11T17:13:03.654Z</time></trkpt><trkpt lat="44.3670358" lon="11.1049677"><ele>685.2</ele><time>2026-04-11T17:13:05.654Z</time></trkpt><trkpt lat="44.366957" lon="11.1049411"><ele>685.5999999999999</ele><time>2026-04-11T17:13:20.654Z</time></trkpt><trkpt lat="44.3668416" lon="11.1049346"><ele>686.0</ele><time>2026-04-11T17:13:22.654Z</time></trkpt><trkpt lat="44.3666901" lon="11.1049438"><ele>686.0</ele><time>2026-04-11T17:13:24.653Z</time></trkpt><trkpt lat="44.3665894" lon="11.1049581"><ele>686.0</ele><time>2026-04-11T17:13:25.654Z</time></trkpt><trkpt lat="44.3664945" lon="11.1049748"><ele>686.0</ele><time>2026-04-11T17:13:26.654Z</time></trkpt><trkpt lat="44.3663756" lon="11.1049891"><ele>686.0</ele><time>2026-04-11T17:13:27.654Z</time></trkpt><trkpt lat="44.3662523" lon="11.1050101"><ele>686.0</ele><time>2026-04-11T17:13:28.654Z</time></trkpt><trkpt lat="44.3661167" lon="11.1050306"><ele>685.4</ele><time>2026-04-11T17:13:29.654Z</time></trkpt><trkpt lat="44.3659843" lon="11.1050423"><ele>684.8</ele><time>2026-04-11T17:13:30.653Z</time></trkpt><trkpt lat="44.3658687" lon="11.1050539"><ele>684.1999999999999</ele><time>2026-04-11T17:13:31.654Z</time></trkpt><trkpt lat="44.3657693" lon="11.1050673"><ele>683.5999999999999</ele><time>2026-04-11T17:13:32.654Z</time></trkpt><trkpt lat="44.3656782" lon="11.1050798"><ele>683.0</ele><time>2026-04-11T17:13:33.654Z</time></trkpt><trkpt lat="44.3656039" lon="11.1050885"><ele>683.8333333333333</ele><time>2026-04-11T17:13:34.654Z</time></trkpt><trkpt lat="44.3654873" lon="11.1051033"><ele>684.6666666666666</ele><time>2026-04-11T17:13:36.654Z</time></trkpt><trkpt lat="44.3654119" lon="11.1051109"><ele>685.5</ele><time>2026-04-11T17:13:38.654Z</time></trkpt><trkpt lat="44.3653277" lon="11.1051471"><ele>686.3333333333334</ele><time>2026-04-11T17:16:37.654Z</time></trkpt><trkpt lat="44.3652495" lon="11.1051606"><ele>687.1666666666667</ele><time>2026-04-11T17:16:39.654Z</time></trkpt><trkpt lat="44.3651601" lon="11.1051724"><ele>688.0</ele><time>2026-04-11T17:16:41.654Z</time></trkpt><trkpt lat="44.365052" lon="11.1051871"><ele>688.0000000000001</ele><time>2026-04-11T17:16:43.654Z</time></trkpt><trkpt lat="44.3649892" lon="11.105196"><ele>688.0</ele><time>2026-04-11T17:16:44.654Z</time></trkpt><trkpt lat="44.3649258" lon="11.1052107"><ele>688.0</ele><time>2026-04-11T17:16:45.653Z</time></trkpt><trkpt lat="44.3648599" lon="11.1052331"><ele>688.0</ele><time>2026-04-11T17:16:46.654Z</time></trkpt><trkpt lat="44.3647923" lon="11.1052486"><ele>688.0</ele><time>2026-04-11T17:16:47.654Z</time></trkpt><trkpt lat="44.3647261" lon="11.1052635"><ele>688.0000000000001</ele><time>2026-04-11T17:16:48.653Z</time></trkpt><trkpt lat="44.3646586" lon="11.1052805"><ele>688.0</ele><time>2026-04-11T17:16:49.654Z</time></trkpt><trkpt lat="44.3645826" lon="11.1052959"><ele>688.2</ele><time>2026-04-11T17:16:50.654Z</time></trkpt><trkpt lat="44.3644966" lon="11.1053112"><ele>688.4</ele><time>2026-04-11T17:16:51.654Z</time></trkpt><trkpt lat="44.3644095" lon="11.1053273"><ele>688.6</ele><time>2026-04-11T17:16:52.654Z</time></trkpt><trkpt lat="44.364321" lon="11.105346"><ele>688.8000000000001</ele><time>2026-04-11T17:16:53.654Z</time></trkpt><trkpt lat="44.3642271" lon="11.1053666"><ele>689.0</ele><time>2026-04-11T17:16:54.654Z</time></trkpt><trkpt lat="44.3641208" lon="11.1053944"><ele>689.0</ele><time>2026-04-11T17:16:55.654Z</time></trkpt><trkpt lat="44.3640029" lon="11.1054198"><ele>689.0</ele><time>2026-04-11T17:16:56.653Z</time></trkpt><trkpt lat="44.3638783" lon="11.1054456"><ele>689.0</ele><time>2026-04-11T17:16:57.654Z</time></trkpt><trkpt lat="44.3637616" lon="11.1054728"><ele>689.0</ele><time>2026-04-11T17:16:58.654Z</time></trkpt><trkpt lat="44.3636397" lon="11.105496"><ele>688.0</ele><time>2026-04-11T17:16:59.654Z</time></trkpt><trkpt lat="44.3635121" lon="11.1055227"><ele>687.0</ele><time>2026-04-11T17:17:00.653Z</time></trkpt><trkpt lat="44.3633831" lon="11.1055455"><ele>686.0</ele><time>2026-04-11T17:17:01.654Z</time></trkpt><trkpt lat="44.3632432" lon="11.1055635"><ele>685.0</ele><time>2026-04-11T17:17:02.654Z</time></trkpt><trkpt lat="44.3630871" lon="11.1055857"><ele>685.0</ele><time>2026-04-11T17:17:03.654Z</time></trkpt><trkpt lat="44.3629277" lon="11.1056121"><ele>685.0</ele><time>2026-04-11T17:17:04.654Z</time></trkpt><trkpt lat="44.3627665" lon="11.1056401"><ele>685.0</ele><time>2026-04-11T17:17:05.654Z</time></trkpt><trkpt lat="44.3626059" lon="11.1056671"><ele>685.0</ele><time>2026-04-11T17:17:06.654Z</time></trkpt><trkpt lat="44.362448" lon="11.1056979"><ele>685.0</ele><time>2026-04-11T17:17:07.654Z</time></trkpt><trkpt lat="44.36229" lon="11.1057294"><ele>685.0</ele><time>2026-04-11T17:17:08.654Z</time></trkpt><trkpt lat="44.3621319" lon="11.1057626"><ele>685.6666666666667</ele><time>2026-04-11T17:17:09.654Z</time></trkpt><trkpt lat="44.3619766" lon="11.1057901"><ele>686.3333333333334</ele><time>2026-04-11T17:17:10.654Z</time></trkpt><trkpt lat="44.361828" lon="11.1058219"><ele>687.0</ele><time>2026-04-11T17:17:11.654Z</time></trkpt><trkpt lat="44.3616798" lon="11.1058483"><ele>687.0</ele><time>2026-04-11T17:17:12.654Z</time></trkpt><trkpt lat="44.3615325" lon="11.1058737"><ele>687.0</ele><time>2026-04-11T17:17:13.654Z</time></trkpt><trkpt lat="44.3613898" lon="11.1058941"><ele>687.0</ele><time>2026-04-11T17:17:14.654Z</time></trkpt><trkpt lat="44.3612468" lon="11.1059163"><ele>687.0</ele><time>2026-04-11T17:17:15.654Z</time></trkpt><trkpt lat="44.3611081" lon="11.1059309"><ele>686.75</ele><time>2026-04-11T17:17:16.654Z</time></trkpt><trkpt lat="44.3609694" lon="11.1059418"><ele>686.5</ele><time>2026-04-11T17:17:17.654Z</time></trkpt><trkpt lat="44.3608344" lon="11.1059471"><ele>686.25</ele><time>2026-04-11T17:17:18.653Z</time></trkpt><trkpt lat="44.3607" lon="11.1059429"><ele>686.0</ele><time>2026-04-11T17:17:19.654Z</time></trkpt><trkpt lat="44.3605664" lon="11.1059358"><ele>686.0</ele><time>2026-04-11T17:17:20.654Z</time></trkpt><trkpt lat="44.3604318" lon="11.1059198"><ele>686.0</ele><time>2026-04-11T17:17:21.654Z</time></trkpt><trkpt lat="44.3602941" lon="11.1059054"><ele>686.0</ele><time>2026-04-11T17:17:22.654Z</time></trkpt><trkpt lat="44.3601617" lon="11.1058884"><ele>686.0</ele><time>2026-04-11T17:17:23.653Z</time></trkpt><trkpt lat="44.3600394" lon="11.1058633"><ele>686.0</ele><time>2026-04-11T17:17:24.654Z</time></trkpt><trkpt lat="44.3599278" lon="11.1058407"><ele>686.0</ele><time>2026-04-11T17:17:25.653Z</time></trkpt><trkpt lat="44.359828" lon="11.1058198"><ele>686.0</ele><time>2026-04-11T17:17:26.653Z</time></trkpt><trkpt lat="44.3597428" lon="11.1058097"><ele>686.0</ele><time>2026-04-11T17:17:27.654Z</time></trkpt><trkpt lat="44.3596671" lon="11.1058085"><ele>686.0</ele><time>2026-04-11T17:17:28.654Z</time></trkpt><trkpt lat="44.3596001" lon="11.1058114"><ele>686.0</ele><time>2026-04-11T17:17:29.654Z</time></trkpt><trkpt lat="44.359524" lon="11.1058603"><ele>686.0</ele><time>2026-04-11T17:17:31.654Z</time></trkpt><trkpt lat="44.3595151" lon="11.1060003"><ele>686.0</ele><time>2026-04-11T17:17:34.654Z</time></trkpt><trkpt lat="44.359556" lon="11.1060784"><ele>686.0</ele><time>2026-04-11T17:17:35.654Z</time></trkpt><trkpt lat="44.3596206" lon="11.1061741"><ele>686.0</ele><time>2026-04-11T17:17:36.653Z</time></trkpt><trkpt lat="44.3596976" lon="11.1062789"><ele>686.0</ele><time>2026-04-11T17:17:37.654Z</time></trkpt><trkpt lat="44.3597844" lon="11.1063945"><ele>686.0</ele><time>2026-04-11T17:17:38.654Z</time></trkpt><trkpt lat="44.3598884" lon="11.1065196"><ele>686.0</ele><time>2026-04-11T17:17:39.654Z</time></trkpt><trkpt lat="44.3600116" lon="11.1066602"><ele>686.0</ele><time>2026-04-11T17:17:40.654Z</time></trkpt><trkpt lat="44.3601526" lon="11.1068032"><ele>685.6666666666666</ele><time>2026-04-11T17:17:41.653Z</time></trkpt><trkpt lat="44.3603035" lon="11.1069374"><ele>685.3333333333334</ele><time>2026-04-11T17:17:42.654Z</time></trkpt><trkpt lat="44.3604507" lon="11.1070669"><ele>685.0</ele><time>2026-04-11T17:17:43.653Z</time></trkpt><trkpt lat="44.3606003" lon="11.1071879"><ele>685.0</ele><time>2026-04-11T17:17:44.654Z</time></trkpt><trkpt lat="44.360746" lon="11.1073111"><ele>685.0</ele><time>2026-04-11T17:17:45.654Z</time></trkpt><trkpt lat="44.3608916" lon="11.1074387"><ele>685.0</ele><time>2026-04-11T17:17:46.654Z</time></trkpt><trkpt lat="44.3610356" lon="11.1075639"><ele>685.0</ele><time>2026-04-11T17:17:47.654Z</time></trkpt><trkpt lat="44.3611815" lon="11.1076851"><ele>685.0</ele><time>2026-04-11T17:17:48.654Z</time></trkpt><trkpt lat="44.3613263" lon="11.1078025"><ele>685.0</ele><time>2026-04-11T17:17:49.654Z</time></trkpt><trkpt lat="44.3614683" lon="11.1079235"><ele>685.0</ele><time>2026-04-11T17:17:50.653Z</time></trkpt><trkpt lat="44.3616088" lon="11.1080445"><ele>685.0</ele><time>2026-04-11T17:17:51.654Z</time></trkpt><trkpt lat="44.3617491" lon="11.1081599"><ele>685.0</ele><time>2026-04-11T17:17:52.654Z</time></trkpt><trkpt lat="44.3618848" lon="11.1082767"><ele>684.3333333333334</ele><time>2026-04-11T17:17:53.653Z</time></trkpt><trkpt lat="44.362024" lon="11.1083944"><ele>683.6666666666666</ele><time>2026-04-11T17:17:54.653Z</time></trkpt><trkpt lat="44.3621616" lon="11.1085079"><ele>683.0</ele><time>2026-04-11T17:17:55.653Z</time></trkpt><trkpt lat="44.3622951" lon="11.1086217"><ele>683.0</ele><time>2026-04-11T17:17:56.654Z</time></trkpt><trkpt lat="44.36243" lon="11.1087315"><ele>683.0</ele><time>2026-04-11T17:17:57.654Z</time></trkpt><trkpt lat="44.3625632" lon="11.1088447"><ele>683.0</ele><time>2026-04-11T17:17:58.654Z</time></trkpt><trkpt lat="44.3626965" lon="11.1089553"><ele>683.0</ele><time>2026-04-11T17:17:59.654Z</time></trkpt><trkpt lat="44.3628289" lon="11.1090655"><ele>683.0</ele><time>2026-04-11T17:18:00.654Z</time></trkpt><trkpt lat="44.3629561" lon="11.1091743"><ele>683.0</ele><time>2026-04-11T17:18:01.654Z</time></trkpt><trkpt lat="44.3630837" lon="11.1092862"><ele>682.0</ele><time>2026-04-11T17:18:02.654Z</time></trkpt><trkpt lat="44.3632135" lon="11.1093844"><ele>681.0</ele><time>2026-04-11T17:18:03.654Z</time></trkpt><trkpt lat="44.3633446" lon="11.109477"><ele>680.0</ele><time>2026-04-11T17:18:04.654Z</time></trkpt><trkpt lat="44.3634791" lon="11.1095627"><ele>679.0</ele><time>2026-04-11T17:18:05.654Z</time></trkpt><trkpt lat="44.3636198" lon="11.109634"><ele>679.0</ele><time>2026-04-11T17:18:06.654Z</time></trkpt><trkpt lat="44.3637601" lon="11.1097057"><ele>679.0</ele><time>2026-04-11T17:18:07.653Z</time></trkpt><trkpt lat="44.3638957" lon="11.1097704"><ele>679.0</ele><time>2026-04-11T17:18:08.654Z</time></trkpt><trkpt lat="44.3640328" lon="11.1098449"><ele>679.0</ele><time>2026-04-11T17:18:09.654Z</time></trkpt><trkpt lat="44.3641689" lon="11.1099351"><ele>675.3333333333334</ele><time>2026-04-11T17:18:10.654Z</time></trkpt><trkpt lat="44.3642939" lon="11.1100475"><ele>671.6666666666666</ele><time>2026-04-11T17:18:11.654Z</time></trkpt><trkpt lat="44.3644112" lon="11.1101837"><ele>668.0</ele><time>2026-04-11T17:18:12.654Z</time></trkpt><trkpt lat="44.364519" lon="11.1103378"><ele>668.0</ele><time>2026-04-11T17:18:13.653Z</time></trkpt><trkpt lat="44.3646131" lon="11.1105103"><ele>668.0</ele><time>2026-04-11T17:18:14.654Z</time></trkpt><trkpt lat="44.3646912" lon="11.1106993"><ele>668.0</ele><time>2026-04-11T17:18:15.654Z</time></trkpt><trkpt lat="44.3647618" lon="11.110889"><ele>664.6666666666666</ele><time>2026-04-11T17:18:16.654Z</time></trkpt><trkpt lat="44.3648309" lon="11.1110797"><ele>661.3333333333334</ele><time>2026-04-11T17:18:17.654Z</time></trkpt><trkpt lat="44.3648998" lon="11.1112643"><ele>658.0</ele><time>2026-04-11T17:18:18.653Z</time></trkpt><trkpt lat="44.3649675" lon="11.1114534"><ele>655.6666666666667</ele><time>2026-04-11T17:18:19.654Z</time></trkpt><trkpt lat="44.3650375" lon="11.1116445"><ele>653.3333333333334</ele><time>2026-04-11T17:18:20.654Z</time></trkpt><trkpt lat="44.3651079" lon="11.1118366"><ele>651.0</ele><time>2026-04-11T17:18:21.654Z</time></trkpt><trkpt lat="44.365183" lon="11.1120271"><ele>651.0</ele><time>2026-04-11T17:18:22.654Z</time></trkpt><trkpt lat="44.365257" lon="11.1122206"><ele>651.0</ele><time>2026-04-11T17:18:23.654Z</time></trkpt><trkpt lat="44.3653299" lon="11.1124216"><ele>651.0</ele><time>2026-04-11T17:18:24.654Z</time></trkpt><trkpt lat="44.3654117" lon="11.1126203"><ele>648.0</ele><time>2026-04-11T17:18:25.654Z</time></trkpt><trkpt lat="44.3655017" lon="11.1128149"><ele>645.0</ele><time>2026-04-11T17:18:26.654Z</time></trkpt><trkpt lat="44.3656006" lon="11.1129964"><ele>642.0</ele><time>2026-04-11T17:18:27.654Z</time></trkpt><trkpt lat="44.3657067" lon="11.1131726"><ele>640.0</ele><time>2026-04-11T17:18:28.654Z</time></trkpt><trkpt lat="44.3658186" lon="11.1133466"><ele>638.0</ele><time>2026-04-11T17:18:29.653Z</time></trkpt><trkpt lat="44.3659298" lon="11.1135198"><ele>636.0</ele><time>2026-04-11T17:18:30.654Z</time></trkpt><trkpt lat="44.3660381" lon="11.113689"><ele>636.0</ele><time>2026-04-11T17:18:31.654Z</time></trkpt><trkpt lat="44.3661498" lon="11.1138564"><ele>636.0</ele><time>2026-04-11T17:18:32.654Z</time></trkpt><trkpt lat="44.366258" lon="11.1140237"><ele>636.0</ele><time>2026-04-11T17:18:33.653Z</time></trkpt><trkpt lat="44.3663661" lon="11.114191"><ele>634.0</ele><time>2026-04-11T17:18:34.653Z</time></trkpt><trkpt lat="44.3664785" lon="11.1143576"><ele>632.0</ele><time>2026-04-11T17:18:35.654Z</time></trkpt><trkpt lat="44.3665919" lon="11.1145209"><ele>630.0</ele><time>2026-04-11T17:18:36.654Z</time></trkpt><trkpt lat="44.3667134" lon="11.114677"><ele>630.0</ele><time>2026-04-11T17:18:37.654Z</time></trkpt><trkpt lat="44.3668392" lon="11.1148245"><ele>630.0</ele><time>2026-04-11T17:18:38.654Z</time></trkpt><trkpt lat="44.3669694" lon="11.1149687"><ele>630.0</ele><time>2026-04-11T17:18:39.654Z</time></trkpt><trkpt lat="44.3671019" lon="11.1151156"><ele>627.0</ele><time>2026-04-11T17:18:40.654Z</time></trkpt><trkpt lat="44.3672286" lon="11.1152707"><ele>624.0</ele><time>2026-04-11T17:18:41.654Z</time></trkpt><trkpt lat="44.3673513" lon="11.1154378"><ele>621.0</ele><time>2026-04-11T17:18:42.654Z</time></trkpt><trkpt lat="44.3674646" lon="11.115623"><ele>620.3333333333334</ele><time>2026-04-11T17:18:43.654Z</time></trkpt><trkpt lat="44.3675527" lon="11.1158289"><ele>619.6666666666667</ele><time>2026-04-11T17:18:44.654Z</time></trkpt><trkpt lat="44.3676223" lon="11.1160463"><ele>619.0</ele><time>2026-04-11T17:18:45.654Z</time></trkpt><trkpt lat="44.3677438" lon="11.1164745"><ele>617.0</ele><time>2026-04-11T17:18:47.654Z</time></trkpt><trkpt lat="44.3678153" lon="11.1166812"><ele>615.0</ele><time>2026-04-11T17:18:48.654Z</time></trkpt><trkpt lat="44.3678939" lon="11.1168805"><ele>613.0</ele><time>2026-04-11T17:18:49.654Z</time></trkpt><trkpt lat="44.3679729" lon="11.1170801"><ele>611.3333333333334</ele><time>2026-04-11T17:18:50.654Z</time></trkpt><trkpt lat="44.368054" lon="11.117277"><ele>609.6666666666666</ele><time>2026-04-11T17:18:51.654Z</time></trkpt><trkpt lat="44.3681316" lon="11.1174785"><ele>608.0</ele><time>2026-04-11T17:18:52.654Z</time></trkpt><trkpt lat="44.3682105" lon="11.1176847"><ele>608.0</ele><time>2026-04-11T17:18:53.653Z</time></trkpt><trkpt lat="44.3682856" lon="11.1178993"><ele>608.0</ele><time>2026-04-11T17:18:54.653Z</time></trkpt><trkpt lat="44.3683547" lon="11.1181196"><ele>608.0</ele><time>2026-04-11T17:18:55.653Z</time></trkpt><trkpt lat="44.3684102" lon="11.1183509"><ele>607.6666666666666</ele><time>2026-04-11T17:18:56.654Z</time></trkpt><trkpt lat="44.3684585" lon="11.118582"><ele>607.3333333333334</ele><time>2026-04-11T17:18:57.653Z</time></trkpt><trkpt lat="44.3685002" lon="11.1188072"><ele>607.0</ele><time>2026-04-11T17:18:58.654Z</time></trkpt><trkpt lat="44.3685414" lon="11.1190301"><ele>606.6666666666667</ele><time>2026-04-11T17:18:59.654Z</time></trkpt><trkpt lat="44.3685821" lon="11.1192508"><ele>606.3333333333334</ele><time>2026-04-11T17:19:00.654Z</time></trkpt><trkpt lat="44.3686207" lon="11.1194674"><ele>606.0</ele><time>2026-04-11T17:19:01.654Z</time></trkpt><trkpt lat="44.3686562" lon="11.1196801"><ele>606.0</ele><time>2026-04-11T17:19:02.653Z</time></trkpt><trkpt lat="44.3686951" lon="11.1198908"><ele>606.0</ele><time>2026-04-11T17:19:03.653Z</time></trkpt><trkpt lat="44.3687298" lon="11.1201062"><ele>606.0</ele><time>2026-04-11T17:19:04.654Z</time></trkpt><trkpt lat="44.3687576" lon="11.1203273"><ele>606.0</ele><time>2026-04-11T17:19:05.653Z</time></trkpt><trkpt lat="44.3687757" lon="11.1205527"><ele>606.0</ele><time>2026-04-11T17:19:06.654Z</time></trkpt><trkpt lat="44.3687868" lon="11.120781"><ele>606.0</ele><time>2026-04-11T17:19:07.654Z</time></trkpt><trkpt lat="44.3687862" lon="11.12101"><ele>605.6666666666666</ele><time>2026-04-11T17:19:08.654Z</time></trkpt><trkpt lat="44.3687698" lon="11.1212421"><ele>605.3333333333333</ele><time>2026-04-11T17:19:09.654Z</time></trkpt><trkpt lat="44.368744" lon="11.1214743"><ele>605.0</ele><time>2026-04-11T17:19:10.654Z</time></trkpt><trkpt lat="44.3687078" lon="11.1216925"><ele>605.0</ele><time>2026-04-11T17:19:11.654Z</time></trkpt><trkpt lat="44.3686599" lon="11.1218917"><ele>605.0</ele><time>2026-04-11T17:19:12.654Z</time></trkpt><trkpt lat="44.3686132" lon="11.1220795"><ele>605.0</ele><time>2026-04-11T17:19:13.654Z</time></trkpt><trkpt lat="44.3685664" lon="11.1222493"><ele>605.0</ele><time>2026-04-11T17:19:14.654Z</time></trkpt><trkpt lat="44.3685277" lon="11.12241"><ele>605.0</ele><time>2026-04-11T17:19:15.653Z</time></trkpt><trkpt lat="44.368492" lon="11.1225618"><ele>605.0</ele><time>2026-04-11T17:19:16.654Z</time></trkpt><trkpt lat="44.3684634" lon="11.1226965"><ele>605.0</ele><time>2026-04-11T17:19:17.654Z</time></trkpt><trkpt lat="44.3684256" lon="11.1228256"><ele>605.0</ele><time>2026-04-11T17:19:18.653Z</time></trkpt><trkpt lat="44.3683934" lon="11.1229419"><ele>605.0</ele><time>2026-04-11T17:19:19.654Z</time></trkpt><trkpt lat="44.3683638" lon="11.1230474"><ele>605.0</ele><time>2026-04-11T17:19:20.653Z</time></trkpt><trkpt lat="44.3683397" lon="11.1231347"><ele>605.0</ele><time>2026-04-11T17:19:21.654Z</time></trkpt><trkpt lat="44.3683587" lon="11.1232469"><ele>605.0</ele><time>2026-04-11T17:19:23.654Z</time></trkpt><trkpt lat="44.3683892" lon="11.1233244"><ele>605.0</ele><time>2026-04-11T17:19:38.654Z</time></trkpt><trkpt lat="44.3684312" lon="11.123406"><ele>605.0</ele><time>2026-04-11T17:19:41.654Z</time></trkpt><trkpt lat="44.3685021" lon="11.1234249"><ele>605.0</ele><time>2026-04-11T17:20:53.654Z</time></trkpt><trkpt lat="44.3684584" lon="11.1233061"><ele>605.0</ele><time>2026-04-11T17:20:56.654Z</time></trkpt><trkpt lat="44.3684011" lon="11.1232333"><ele>605.0</ele><time>2026-04-11T17:20:58.654Z</time></trkpt><trkpt lat="44.3683809" lon="11.1231217"><ele>605.0</ele><time>2026-04-11T17:21:00.653Z</time></trkpt><trkpt lat="44.3684045" lon="11.1230303"><ele>605.0</ele><time>2026-04-11T17:21:01.654Z</time></trkpt><trkpt lat="44.3684464" lon="11.1229126"><ele>605.0</ele><time>2026-04-11T17:21:02.654Z</time></trkpt><trkpt lat="44.3684828" lon="11.1227758"><ele>605.0</ele><time>2026-04-11T17:21:03.654Z</time></trkpt><trkpt lat="44.3685208" lon="11.1226314"><ele>605.0</ele><time>2026-04-11T17:21:04.654Z</time></trkpt><trkpt lat="44.3685574" lon="11.1224866"><ele>605.0</ele><time>2026-04-11T17:21:05.654Z</time></trkpt><trkpt lat="44.3685906" lon="11.1223518"><ele>605.0</ele><time>2026-04-11T17:21:06.654Z</time></trkpt><trkpt lat="44.3686279" lon="11.1222207"><ele>605.0</ele><time>2026-04-11T17:21:07.654Z</time></trkpt><trkpt lat="44.368664" lon="11.1220901"><ele>605.0</ele><time>2026-04-11T17:21:08.654Z</time></trkpt><trkpt lat="44.3686982" lon="11.1219611"><ele>605.0</ele><time>2026-04-11T17:21:09.653Z</time></trkpt><trkpt lat="44.3687259" lon="11.1218347"><ele>605.0</ele><time>2026-04-11T17:21:10.654Z</time></trkpt><trkpt lat="44.368749" lon="11.1217053"><ele>605.0</ele><time>2026-04-11T17:21:11.653Z</time></trkpt><trkpt lat="44.3687709" lon="11.1215873"><ele>605.0</ele><time>2026-04-11T17:21:12.654Z</time></trkpt><trkpt lat="44.3687853" lon="11.1214624"><ele>605.0</ele><time>2026-04-11T17:21:13.654Z</time></trkpt><trkpt lat="44.3688006" lon="11.1213327"><ele>605.0</ele><time>2026-04-11T17:21:14.653Z</time></trkpt><trkpt lat="44.3688103" lon="11.121198"><ele>605.0</ele><time>2026-04-11T17:21:15.653Z</time></trkpt><trkpt lat="44.3688194" lon="11.121056"><ele>605.0</ele><time>2026-04-11T17:21:16.654Z</time></trkpt><trkpt lat="44.3688232" lon="11.1209104"><ele>605.0</ele><time>2026-04-11T17:21:17.653Z</time></trkpt><trkpt lat="44.3688215" lon="11.1207577"><ele>605.0</ele><time>2026-04-11T17:21:18.654Z</time></trkpt><trkpt lat="44.3688101" lon="11.1205779"><ele>605.25</ele><time>2026-04-11T17:21:19.653Z</time></trkpt><trkpt lat="44.3687859" lon="11.1203792"><ele>605.5</ele><time>2026-04-11T17:21:20.654Z</time></trkpt><trkpt lat="44.3687587" lon="11.1201813"><ele>605.75</ele><time>2026-04-11T17:21:21.654Z</time></trkpt><trkpt lat="44.3687329" lon="11.1199977"><ele>606.0</ele><time>2026-04-11T17:21:22.653Z</time></trkpt><trkpt lat="44.3687033" lon="11.1198201"><ele>606.0</ele><time>2026-04-11T17:21:23.654Z</time></trkpt><trkpt lat="44.3686743" lon="11.1196537"><ele>606.0</ele><time>2026-04-11T17:21:24.654Z</time></trkpt><trkpt lat="44.3686434" lon="11.1194489"><ele>606.0</ele><time>2026-04-11T17:21:25.654Z</time></trkpt><trkpt lat="44.3686043" lon="11.1192398"><ele>606.0</ele><time>2026-04-11T17:21:26.654Z</time></trkpt><trkpt lat="44.3685682" lon="11.1190454"><ele>606.25</ele><time>2026-04-11T17:21:27.653Z</time></trkpt><trkpt lat="44.3685366" lon="11.1188638"><ele>606.5</ele><time>2026-04-11T17:21:28.654Z</time></trkpt><trkpt lat="44.3685069" lon="11.1186956"><ele>606.75</ele><time>2026-04-11T17:21:29.654Z</time></trkpt><trkpt lat="44.3684819" lon="11.118535"><ele>607.0</ele><time>2026-04-11T17:21:30.653Z</time></trkpt><trkpt lat="44.3684548" lon="11.1183928"><ele>607.0</ele><time>2026-04-11T17:21:31.654Z</time></trkpt><trkpt lat="44.3684268" lon="11.1182668"><ele>607.0</ele><time>2026-04-11T17:21:32.654Z</time></trkpt><trkpt lat="44.3683992" lon="11.1181541"><ele>607.0</ele><time>2026-04-11T17:21:33.654Z</time></trkpt><trkpt lat="44.3683753" lon="11.1180609"><ele>607.0</ele><time>2026-04-11T17:21:34.654Z</time></trkpt><trkpt lat="44.3683708" lon="11.1179302"><ele>607.0</ele><time>2026-04-11T17:21:36.654Z</time></trkpt><trkpt lat="44.3684443" lon="11.1178631"><ele>607.0</ele><time>2026-04-11T17:21:38.653Z</time></trkpt><trkpt lat="44.3685174" lon="11.1178439"><ele>607.1666666666667</ele><time>2026-04-11T17:21:39.653Z</time></trkpt><trkpt lat="44.3685901" lon="11.1178405"><ele>607.3333333333334</ele><time>2026-04-11T17:21:40.654Z</time></trkpt><trkpt lat="44.3686701" lon="11.1178377"><ele>607.5</ele><time>2026-04-11T17:21:41.654Z</time></trkpt><trkpt lat="44.3687402" lon="11.1178324"><ele>607.6666666666666</ele><time>2026-04-11T17:21:42.654Z</time></trkpt><trkpt lat="44.3688177" lon="11.1178415"><ele>607.8333333333333</ele><time>2026-04-11T17:21:43.654Z</time></trkpt><trkpt lat="44.3689098" lon="11.117857"><ele>608.0</ele><time>2026-04-11T17:21:44.654Z</time></trkpt><trkpt lat="44.3690142" lon="11.1178781"><ele>606.4</ele><time>2026-04-11T17:21:45.654Z</time></trkpt><trkpt lat="44.3691231" lon="11.1179101"><ele>604.8</ele><time>2026-04-11T17:21:46.654Z</time></trkpt><trkpt lat="44.369225" lon="11.1179367"><ele>603.2</ele><time>2026-04-11T17:21:47.654Z</time></trkpt><trkpt lat="44.369324" lon="11.1179587"><ele>601.6</ele><time>2026-04-11T17:21:48.653Z</time></trkpt><trkpt lat="44.3694031" lon="11.1179739"><ele>600.0</ele><time>2026-04-11T17:21:49.654Z</time></trkpt><trkpt lat="44.3694714" lon="11.1179821"><ele>600.0</ele><time>2026-04-11T17:21:50.654Z</time></trkpt><trkpt lat="44.3695393" lon="11.1179839"><ele>600.0</ele><time>2026-04-11T17:21:51.654Z</time></trkpt><trkpt lat="44.3696369" lon="11.1179142"><ele>600.0</ele><time>2026-04-11T17:21:53.654Z</time></trkpt><trkpt lat="44.3696637" lon="11.1178329"><ele>600.0</ele><time>2026-04-11T17:21:54.654Z</time></trkpt><trkpt lat="44.3696814" lon="11.1177211"><ele>600.0</ele><time>2026-04-11T17:21:55.654Z</time></trkpt><trkpt lat="44.3696953" lon="11.1175967"><ele>600.0</ele><time>2026-04-11T17:21:56.653Z</time></trkpt><trkpt lat="44.3697114" lon="11.1174685"><ele>599.8333333333334</ele><time>2026-04-11T17:21:57.654Z</time></trkpt><trkpt lat="44.3697216" lon="11.1173416"><ele>599.6666666666666</ele><time>2026-04-11T17:21:58.654Z</time></trkpt><trkpt lat="44.3697168" lon="11.1172198"><ele>599.5</ele><time>2026-04-11T17:21:59.653Z</time></trkpt><trkpt lat="44.3697113" lon="11.1171006"><ele>599.3333333333333</ele><time>2026-04-11T17:22:00.654Z</time></trkpt><trkpt lat="44.3696965" lon="11.1169773"><ele>599.1666666666666</ele><time>2026-04-11T17:22:01.653Z</time></trkpt><trkpt lat="44.3696846" lon="11.1168497"><ele>599.0</ele><time>2026-04-11T17:22:02.654Z</time></trkpt><trkpt lat="44.3696739" lon="11.116716"><ele>599.0</ele><time>2026-04-11T17:22:03.654Z</time></trkpt><trkpt lat="44.3696612" lon="11.1165776"><ele>599.0</ele><time>2026-04-11T17:22:04.653Z</time></trkpt><trkpt lat="44.3696509" lon="11.1164383"><ele>599.0</ele><time>2026-04-11T17:22:05.654Z</time></trkpt><trkpt lat="44.3696461" lon="11.1162986"><ele>599.0</ele><time>2026-04-11T17:22:06.654Z</time></trkpt><trkpt lat="44.3696511" lon="11.1161581"><ele>599.0</ele><time>2026-04-11T17:22:07.654Z</time></trkpt><trkpt lat="44.3696636" lon="11.1160243"><ele>598.0</ele><time>2026-04-11T17:22:08.654Z</time></trkpt><trkpt lat="44.3696785" lon="11.1158974"><ele>597.0</ele><time>2026-04-11T17:22:09.654Z</time></trkpt><trkpt lat="44.3696868" lon="11.1157675"><ele>596.0</ele><time>2026-04-11T17:22:10.654Z</time></trkpt><trkpt lat="44.3696924" lon="11.1156407"><ele>595.0</ele><time>2026-04-11T17:22:11.654Z</time></trkpt><trkpt lat="44.3697014" lon="11.1154851"><ele>594.0</ele><time>2026-04-11T17:22:12.654Z</time></trkpt><trkpt lat="44.3696882" lon="11.1153338"><ele>593.8</ele><time>2026-04-11T17:22:13.654Z</time></trkpt><trkpt lat="44.3696814" lon="11.1151901"><ele>593.5999999999999</ele><time>2026-04-11T17:22:14.654Z</time></trkpt><trkpt lat="44.3696791" lon="11.1150488"><ele>593.4</ele><time>2026-04-11T17:22:15.654Z</time></trkpt><trkpt lat="44.3696873" lon="11.1149131"><ele>593.1999999999999</ele><time>2026-04-11T17:22:16.653Z</time></trkpt><trkpt lat="44.3697063" lon="11.114771"><ele>593.0</ele><time>2026-04-11T17:22:17.654Z</time></trkpt><trkpt lat="44.3697423" lon="11.1146479"><ele>590.0</ele><time>2026-04-11T17:22:18.654Z</time></trkpt><trkpt lat="44.3697932" lon="11.1145426"><ele>587.0</ele><time>2026-04-11T17:22:19.654Z</time></trkpt><trkpt lat="44.3698418" lon="11.1144147"><ele>584.0</ele><time>2026-04-11T17:22:20.654Z</time></trkpt><trkpt lat="44.3698862" lon="11.1143025"><ele>581.0</ele><time>2026-04-11T17:22:21.654Z</time></trkpt><trkpt lat="44.3699219" lon="11.1141902"><ele>578.0</ele><time>2026-04-11T17:22:22.654Z</time></trkpt><trkpt lat="44.3699479" lon="11.1140776"><ele>577.5</ele><time>2026-04-11T17:22:23.654Z</time></trkpt><trkpt lat="44.369965" lon="11.1139584"><ele>577.0</ele><time>2026-04-11T17:22:24.653Z</time></trkpt><trkpt lat="44.3699639" lon="11.1138443"><ele>576.5</ele><time>2026-04-11T17:22:25.654Z</time></trkpt><trkpt lat="44.3699427" lon="11.1137502"><ele>576.0</ele><time>2026-04-11T17:22:26.654Z</time></trkpt><trkpt lat="44.369921" lon="11.1136486"><ele>575.5</ele><time>2026-04-11T17:22:27.654Z</time></trkpt><trkpt lat="44.3698901" lon="11.1135305"><ele>575.0</ele><time>2026-04-11T17:22:28.653Z</time></trkpt><trkpt lat="44.3698481" lon="11.1134256"><ele>575.0</ele><time>2026-04-11T17:22:29.654Z</time></trkpt><trkpt lat="44.3698032" lon="11.113324"><ele>575.0</ele><time>2026-04-11T17:22:30.654Z</time></trkpt><trkpt lat="44.3697649" lon="11.1132229"><ele>575.0</ele><time>2026-04-11T17:22:31.654Z</time></trkpt><trkpt lat="44.3697369" lon="11.1131125"><ele>575.0</ele><time>2026-04-11T17:22:32.654Z</time></trkpt><trkpt lat="44.3697173" lon="11.1129971"><ele>575.0</ele><time>2026-04-11T17:22:33.654Z</time></trkpt><trkpt lat="44.3697119" lon="11.1128908"><ele>575.0</ele><time>2026-04-11T17:22:34.654Z</time></trkpt><trkpt lat="44.3697077" lon="11.1127994"><ele>574.5</ele><time>2026-04-11T17:22:35.653Z</time></trkpt><trkpt lat="44.3697068" lon="11.1127109"><ele>574.0</ele><time>2026-04-11T17:22:38.654Z</time></trkpt><trkpt lat="44.3697035" lon="11.1125657"><ele>573.5</ele><time>2026-04-11T17:22:45.654Z</time></trkpt><trkpt lat="44.3696998" lon="11.1124332"><ele>573.0</ele><time>2026-04-11T17:22:47.654Z</time></trkpt><trkpt lat="44.3696944" lon="11.1123132"><ele>572.5</ele><time>2026-04-11T17:22:49.654Z</time></trkpt><trkpt lat="44.3697014" lon="11.1121832"><ele>572.0</ele><time>2026-04-11T17:22:51.654Z</time></trkpt><trkpt lat="44.3697132" lon="11.1120479"><ele>573.6</ele><time>2026-04-11T17:22:53.653Z</time></trkpt><trkpt lat="44.3697322" lon="11.1118971"><ele>575.2</ele><time>2026-04-11T17:22:55.654Z</time></trkpt><trkpt lat="44.3697425" lon="11.1117787"><ele>576.8</ele><time>2026-04-11T17:22:57.654Z</time></trkpt><trkpt lat="44.3697638" lon="11.1116409"><ele>578.4</ele><time>2026-04-11T17:22:59.654Z</time></trkpt><trkpt lat="44.3697832" lon="11.111498"><ele>580.0</ele><time>2026-04-11T17:23:01.654Z</time></trkpt><trkpt lat="44.3698039" lon="11.1113523"><ele>581.1428571428571</ele><time>2026-04-11T17:23:03.654Z</time></trkpt><trkpt lat="44.3698806" lon="11.1114078"><ele>582.2857142857143</ele><time>2026-04-11T17:23:37.654Z</time></trkpt><trkpt lat="44.3699514" lon="11.1114505"><ele>583.4285714285714</ele><time>2026-04-11T17:23:40.654Z</time></trkpt><trkpt lat="44.3700196" lon="11.1114738"><ele>584.5714285714286</ele><time>2026-04-11T17:23:43.654Z</time></trkpt><trkpt lat="44.3700885" lon="11.1114773"><ele>585.7142857142858</ele><time>2026-04-11T17:23:46.654Z</time></trkpt><trkpt lat="44.3701538" lon="11.1114859"><ele>586.8571428571429</ele><time>2026-04-11T17:23:49.654Z</time></trkpt><trkpt lat="44.3702178" lon="11.1114956"><ele>588.0</ele><time>2026-04-11T17:23:52.653Z</time></trkpt><trkpt lat="44.3702798" lon="11.1115134"><ele>588.0</ele><time>2026-04-11T17:23:56.653Z</time></trkpt><trkpt lat="44.3703413" lon="11.1115524"><ele>588.0</ele><time>2026-04-11T17:24:30.654Z</time></trkpt><trkpt lat="44.3704103" lon="11.1115749"><ele>588.0</ele><time>2026-04-11T17:24:33.654Z</time></trkpt><trkpt lat="44.3704849" lon="11.1115734"><ele>588.0</ele><time>2026-04-11T17:24:36.654Z</time></trkpt><trkpt lat="44.3705753" lon="11.1115455"><ele>588.0</ele><time>2026-04-11T17:24:49.654Z</time></trkpt><trkpt lat="44.3706407" lon="11.1115351"><ele>588.0</ele><time>2026-04-11T17:24:51.654Z</time></trkpt><trkpt lat="44.3707102" lon="11.1115207"><ele>588.0</ele><time>2026-04-11T17:24:53.654Z</time></trkpt><trkpt lat="44.3707924" lon="11.1114828"><ele>587.4</ele><time>2026-04-11T17:24:56.653Z</time></trkpt><trkpt lat="44.3708591" lon="11.1114367"><ele>586.8</ele><time>2026-04-11T17:24:59.654Z</time></trkpt><trkpt lat="44.3709426" lon="11.1113852"><ele>586.2</ele><time>2026-04-11T17:25:02.654Z</time></trkpt><trkpt lat="44.3709885" lon="11.111289"><ele>585.6</ele><time>2026-04-11T17:25:05.653Z</time></trkpt><trkpt lat="44.3711447" lon="11.1112849"><ele>585.0</ele><time>2026-04-11T17:25:08.654Z</time></trkpt><trkpt lat="44.3712346" lon="11.1112954"><ele>585.0</ele><time>2026-04-11T17:25:10.654Z</time></trkpt><trkpt lat="44.3713109" lon="11.1113201"><ele>585.0</ele><time>2026-04-11T17:25:11.654Z</time></trkpt><trkpt lat="44.3713984" lon="11.1113501"><ele>585.0</ele><time>2026-04-11T17:25:12.654Z</time></trkpt><trkpt lat="44.3714985" lon="11.1113399"><ele>585.0</ele><time>2026-04-11T17:25:13.654Z</time></trkpt><trkpt lat="44.371565" lon="11.1113225"><ele>585.0</ele><time>2026-04-11T17:25:14.653Z</time></trkpt><trkpt lat="44.3716357" lon="11.1113051"><ele>585.0</ele><time>2026-04-11T17:25:15.654Z</time></trkpt><trkpt lat="44.3717348" lon="11.1112741"><ele>584.3333333333334</ele><time>2026-04-11T17:25:18.653Z</time></trkpt><trkpt lat="44.3718029" lon="11.1112981"><ele>583.6666666666666</ele><time>2026-04-11T17:25:19.653Z</time></trkpt><trkpt lat="44.371897" lon="11.1113005"><ele>583.0</ele><time>2026-04-11T17:25:21.654Z</time></trkpt><trkpt lat="44.3720038" lon="11.1112965"><ele>582.3333333333333</ele><time>2026-04-11T17:25:23.654Z</time></trkpt><trkpt lat="44.3720677" lon="11.111302"><ele>581.6666666666666</ele><time>2026-04-11T17:25:24.653Z</time></trkpt><trkpt lat="44.3721802" lon="11.1113103"><ele>581.0</ele><time>2026-04-11T17:25:26.654Z</time></trkpt><trkpt lat="44.372286" lon="11.1113698"><ele>582.6</ele><time>2026-04-11T17:25:28.653Z</time></trkpt><trkpt lat="44.3723433" lon="11.1114181"><ele>584.2</ele><time>2026-04-11T17:25:29.654Z</time></trkpt><trkpt lat="44.3724572" lon="11.111498"><ele>585.8</ele><time>2026-04-11T17:25:31.654Z</time></trkpt><trkpt lat="44.3725144" lon="11.1115405"><ele>587.4</ele><time>2026-04-11T17:25:32.654Z</time></trkpt><trkpt lat="44.3726159" lon="11.1116279"><ele>589.0</ele><time>2026-04-11T17:25:34.654Z</time></trkpt><trkpt lat="44.3726921" lon="11.1117582"><ele>585.6</ele><time>2026-04-11T17:25:36.654Z</time></trkpt><trkpt lat="44.3727738" lon="11.1118844"><ele>582.2</ele><time>2026-04-11T17:25:38.654Z</time></trkpt><trkpt lat="44.3728594" lon="11.1119869"><ele>578.8000000000001</ele><time>2026-04-11T17:25:40.654Z</time></trkpt><trkpt lat="44.3729389" lon="11.1120124"><ele>575.4</ele><time>2026-04-11T17:25:42.654Z</time></trkpt><trkpt lat="44.3730101" lon="11.112108"><ele>572.0</ele><time>2026-04-11T17:25:44.654Z</time></trkpt><trkpt lat="44.3730898" lon="11.1122074"><ele>572.0</ele><time>2026-04-11T17:25:46.654Z</time></trkpt><trkpt lat="44.373175" lon="11.1123173"><ele>572.0</ele><time>2026-04-11T17:25:48.654Z</time></trkpt><trkpt lat="44.3732476" lon="11.1124095"><ele>572.0</ele><time>2026-04-11T17:25:50.654Z</time></trkpt><trkpt lat="44.3733044" lon="11.1124887"><ele>572.0</ele><time>2026-04-11T17:25:53.653Z</time></trkpt><trkpt lat="44.3733658" lon="11.1125925"><ele>572.0</ele><time>2026-04-11T17:25:56.654Z</time></trkpt><trkpt lat="44.3734359" lon="11.1126534"><ele>568.4</ele><time>2026-04-11T17:26:00.654Z</time></trkpt><trkpt lat="44.373499" lon="11.1127749"><ele>564.8000000000001</ele><time>2026-04-11T17:26:02.654Z</time></trkpt><trkpt lat="44.3735899" lon="11.112879"><ele>561.2</ele><time>2026-04-11T17:26:04.654Z</time></trkpt><trkpt lat="44.3736974" lon="11.1129771"><ele>557.6</ele><time>2026-04-11T17:26:06.654Z</time></trkpt><trkpt lat="44.3737691" lon="11.113021"><ele>554.0</ele><time>2026-04-11T17:26:07.654Z</time></trkpt><trkpt lat="44.3738343" lon="11.1130745"><ele>552.4285714285714</ele><time>2026-04-11T17:26:08.654Z</time></trkpt><trkpt lat="44.3738888" lon="11.1131398"><ele>550.8571428571428</ele><time>2026-04-11T17:26:09.654Z</time></trkpt><trkpt lat="44.3739302" lon="11.1132088"><ele>549.2857142857142</ele><time>2026-04-11T17:26:10.654Z</time></trkpt><trkpt lat="44.3739726" lon="11.1132866"><ele>547.7142857142857</ele><time>2026-04-11T17:26:11.654Z</time></trkpt><trkpt lat="44.3740025" lon="11.1133766"><ele>546.1428571428571</ele><time>2026-04-11T17:26:12.654Z</time></trkpt><trkpt lat="44.3740275" lon="11.1134644"><ele>544.5714285714286</ele><time>2026-04-11T17:26:13.654Z</time></trkpt><trkpt lat="44.3740513" lon="11.1135595"><ele>543.0</ele><time>2026-04-11T17:26:14.654Z</time></trkpt><trkpt lat="44.3740684" lon="11.1136553"><ele>540.0</ele><time>2026-04-11T17:26:15.654Z</time></trkpt><trkpt lat="44.3741169" lon="11.1138127"><ele>537.0</ele><time>2026-04-11T17:26:17.654Z</time></trkpt><trkpt lat="44.3741523" lon="11.113889"><ele>534.0</ele><time>2026-04-11T17:26:18.654Z</time></trkpt><trkpt lat="44.3742688" lon="11.1139502"><ele>531.0</ele><time>2026-04-11T17:26:20.654Z</time></trkpt><trkpt lat="44.3743309" lon="11.1139931"><ele>528.0</ele><time>2026-04-11T17:26:21.653Z</time></trkpt><trkpt lat="44.374404" lon="11.1140291"><ele>528.0</ele><time>2026-04-11T17:26:22.654Z</time></trkpt><trkpt lat="44.3744702" lon="11.1140603"><ele>528.0</ele><time>2026-04-11T17:26:23.654Z</time></trkpt><trkpt lat="44.3745425" lon="11.1140807"><ele>528.0</ele><time>2026-04-11T17:26:24.654Z</time></trkpt><trkpt lat="44.3746547" lon="11.1140781"><ele>528.0</ele><time>2026-04-11T17:26:26.654Z</time></trkpt><trkpt lat="44.374723" lon="11.1140531"><ele>528.0</ele><time>2026-04-11T17:26:27.654Z</time></trkpt><trkpt lat="44.3747968" lon="11.1140214"><ele>528.0</ele><time>2026-04-11T17:26:28.654Z</time></trkpt><trkpt lat="44.374882" lon="11.1139942"><ele>525.6666666666666</ele><time>2026-04-11T17:26:29.654Z</time></trkpt><trkpt lat="44.3749695" lon="11.1139763"><ele>523.3333333333334</ele><time>2026-04-11T17:26:30.654Z</time></trkpt><trkpt lat="44.3750425" lon="11.1139472"><ele>521.0</ele><time>2026-04-11T17:26:31.654Z</time></trkpt><trkpt lat="44.3751201" lon="11.1139265"><ele>518.6666666666667</ele><time>2026-04-11T17:26:32.654Z</time></trkpt><trkpt lat="44.3752176" lon="11.1138638"><ele>516.3333333333334</ele><time>2026-04-11T17:26:34.654Z</time></trkpt><trkpt lat="44.3752787" lon="11.1139015"><ele>514.0</ele><time>2026-04-11T17:26:36.654Z</time></trkpt><trkpt lat="44.375296" lon="11.1140172"><ele>511.4</ele><time>2026-04-11T17:26:38.654Z</time></trkpt><trkpt lat="44.3753129" lon="11.1141516"><ele>508.79999999999995</ele><time>2026-04-11T17:26:40.654Z</time></trkpt><trkpt lat="44.3753621" lon="11.1142955"><ele>506.20000000000005</ele><time>2026-04-11T17:26:42.654Z</time></trkpt><trkpt lat="44.3754548" lon="11.1144126"><ele>503.6</ele><time>2026-04-11T17:26:44.653Z</time></trkpt><trkpt lat="44.3755116" lon="11.1144765"><ele>501.0</ele><time>2026-04-11T17:26:45.654Z</time></trkpt><trkpt lat="44.3755692" lon="11.114529"><ele>500.7142857142857</ele><time>2026-04-11T17:26:46.654Z</time></trkpt><trkpt lat="44.375628" lon="11.1145821"><ele>500.42857142857144</ele><time>2026-04-11T17:26:47.654Z</time></trkpt><trkpt lat="44.3756874" lon="11.1146355"><ele>500.14285714285717</ele><time>2026-04-11T17:26:48.654Z</time></trkpt><trkpt lat="44.3757497" lon="11.1147146"><ele>499.8571428571429</ele><time>2026-04-11T17:26:49.654Z</time></trkpt><trkpt lat="44.3758046" lon="11.1147714"><ele>499.57142857142856</ele><time>2026-04-11T17:26:50.654Z</time></trkpt><trkpt lat="44.3758684" lon="11.1148201"><ele>499.28571428571433</ele><time>2026-04-11T17:26:51.654Z</time></trkpt><trkpt lat="44.3759277" lon="11.1148517"><ele>499.00000000000006</ele><time>2026-04-11T17:26:52.654Z</time></trkpt><trkpt lat="44.3759935" lon="11.1148718"><ele>499.00000000000006</ele><time>2026-04-11T17:26:53.654Z</time></trkpt><trkpt lat="44.3760643" lon="11.1148604"><ele>499.0</ele><time>2026-04-11T17:26:54.654Z</time></trkpt><trkpt lat="44.3761685" lon="11.1148155"><ele>499.0</ele><time>2026-04-11T17:26:56.653Z</time></trkpt><trkpt lat="44.3762356" lon="11.1147947"><ele>499.0</ele><time>2026-04-11T17:26:57.654Z</time></trkpt><trkpt lat="44.3763451" lon="11.1147672"><ele>499.00000000000006</ele><time>2026-04-11T17:26:59.653Z</time></trkpt><trkpt lat="44.3764252" lon="11.1147636"><ele>499.0</ele><time>2026-04-11T17:27:00.654Z</time></trkpt><trkpt lat="44.3765106" lon="11.1147705"><ele>497.00000000000006</ele><time>2026-04-11T17:27:01.654Z</time></trkpt><trkpt lat="44.3765828" lon="11.1147766"><ele>495.0</ele><time>2026-04-11T17:27:02.653Z</time></trkpt><trkpt lat="44.3766568" lon="11.1147517"><ele>493.0</ele><time>2026-04-11T17:27:03.654Z</time></trkpt><trkpt lat="44.3767462" lon="11.1147195"><ele>491.0</ele><time>2026-04-11T17:27:04.654Z</time></trkpt><trkpt lat="44.3768282" lon="11.1147073"><ele>489.00000000000006</ele><time>2026-04-11T17:27:05.654Z</time></trkpt><trkpt lat="44.3768956" lon="11.1147003"><ele>487.0</ele><time>2026-04-11T17:27:06.654Z</time></trkpt><trkpt lat="44.3769754" lon="11.1147281"><ele>487.0</ele><time>2026-04-11T17:27:07.654Z</time></trkpt><trkpt lat="44.3770601" lon="11.1147403"><ele>487.00000000000006</ele><time>2026-04-11T17:27:08.654Z</time></trkpt><trkpt lat="44.3771802" lon="11.114821"><ele>487.00000000000006</ele><time>2026-04-11T17:27:10.654Z</time></trkpt><trkpt lat="44.3772577" lon="11.1148712"><ele>487.0</ele><time>2026-04-11T17:27:11.653Z</time></trkpt><trkpt lat="44.3773321" lon="11.114906"><ele>487.0</ele><time>2026-04-11T17:27:12.654Z</time></trkpt><trkpt lat="44.3774157" lon="11.1149735"><ele>482.20000000000005</ele><time>2026-04-11T17:27:13.654Z</time></trkpt><trkpt lat="44.3775147" lon="11.115041"><ele>477.40000000000003</ele><time>2026-04-11T17:27:15.654Z</time></trkpt><trkpt lat="44.3775737" lon="11.1150948"><ele>472.59999999999997</ele><time>2026-04-11T17:27:16.654Z</time></trkpt><trkpt lat="44.3776706" lon="11.1151728"><ele>467.79999999999995</ele><time>2026-04-11T17:27:18.654Z</time></trkpt><trkpt lat="44.3777593" lon="11.1152607"><ele>463.0</ele><time>2026-04-11T17:27:20.654Z</time></trkpt><trkpt lat="44.3778147" lon="11.1153197"><ele>463.00000000000006</ele><time>2026-04-11T17:27:21.654Z</time></trkpt><trkpt lat="44.3778716" lon="11.1153848"><ele>463.0</ele><time>2026-04-11T17:27:22.654Z</time></trkpt><trkpt lat="44.3779621" lon="11.1155004"><ele>463.0</ele><time>2026-04-11T17:27:24.653Z</time></trkpt><trkpt lat="44.3780055" lon="11.1155698"><ele>463.0</ele><time>2026-04-11T17:27:25.653Z</time></trkpt><trkpt lat="44.3780509" lon="11.1156354"><ele>463.00000000000006</ele><time>2026-04-11T17:27:26.654Z</time></trkpt><trkpt lat="44.3781445" lon="11.1157178"><ele>463.0</ele><time>2026-04-11T17:27:28.654Z</time></trkpt><trkpt lat="44.3782607" lon="11.1157032"><ele>459.75</ele><time>2026-04-11T17:27:30.654Z</time></trkpt><trkpt lat="44.3784076" lon="11.1156571"><ele>456.5</ele><time>2026-04-11T17:27:32.654Z</time></trkpt><trkpt lat="44.3785049" lon="11.1156305"><ele>453.25</ele><time>2026-04-11T17:27:33.654Z</time></trkpt><trkpt lat="44.3785974" lon="11.1156125"><ele>450.0</ele><time>2026-04-11T17:27:34.654Z</time></trkpt><trkpt lat="44.3787231" lon="11.1155989"><ele>450.0</ele><time>2026-04-11T17:27:35.654Z</time></trkpt><trkpt lat="44.3788072" lon="11.1155886"><ele>450.0</ele><time>2026-04-11T17:27:36.654Z</time></trkpt><trkpt lat="44.3788994" lon="11.1155824"><ele>450.0</ele><time>2026-04-11T17:27:37.653Z</time></trkpt><trkpt lat="44.378968" lon="11.1155659"><ele>450.0</ele><time>2026-04-11T17:27:38.654Z</time></trkpt><trkpt lat="44.379073" lon="11.1155258"><ele>450.0</ele><time>2026-04-11T17:27:40.654Z</time></trkpt><trkpt lat="44.3791508" lon="11.1155098"><ele>450.0</ele><time>2026-04-11T17:27:41.653Z</time></trkpt><trkpt lat="44.3792544" lon="11.1154774"><ele>446.5</ele><time>2026-04-11T17:27:42.653Z</time></trkpt><trkpt lat="44.3793121" lon="11.1154361"><ele>443.0</ele><time>2026-04-11T17:27:43.654Z</time></trkpt><trkpt lat="44.3794077" lon="11.1153987"><ele>439.5</ele><time>2026-04-11T17:27:44.654Z</time></trkpt><trkpt lat="44.3794814" lon="11.1153623"><ele>436.0</ele><time>2026-04-11T17:27:45.654Z</time></trkpt><trkpt lat="44.3795468" lon="11.1153431"><ele>432.5</ele><time>2026-04-11T17:27:47.653Z</time></trkpt><trkpt lat="44.3796186" lon="11.1152651"><ele>429.0</ele><time>2026-04-11T17:27:49.653Z</time></trkpt><trkpt lat="44.3796813" lon="11.1152259"><ele>427.4</ele><time>2026-04-11T17:27:51.653Z</time></trkpt><trkpt lat="44.3797869" lon="11.1152166"><ele>425.79999999999995</ele><time>2026-04-11T17:27:53.654Z</time></trkpt><trkpt lat="44.3798651" lon="11.1152004"><ele>424.20000000000005</ele><time>2026-04-11T17:27:54.654Z</time></trkpt><trkpt lat="44.3800261" lon="11.1151686"><ele>422.6</ele><time>2026-04-11T17:27:56.653Z</time></trkpt><trkpt lat="44.3801135" lon="11.1151479"><ele>421.0</ele><time>2026-04-11T17:27:57.653Z</time></trkpt><trkpt lat="44.3801935" lon="11.1151438"><ele>421.00000000000006</ele><time>2026-04-11T17:27:58.654Z</time></trkpt><trkpt lat="44.3802716" lon="11.1151184"><ele>421.0</ele><time>2026-04-11T17:27:59.653Z</time></trkpt><trkpt lat="44.3803486" lon="11.1150978"><ele>421.0</ele><time>2026-04-11T17:28:00.653Z</time></trkpt><trkpt lat="44.380418" lon="11.115105"><ele>421.0</ele><time>2026-04-11T17:28:01.654Z</time></trkpt><trkpt lat="44.380489" lon="11.1151717"><ele>421.00000000000006</ele><time>2026-04-11T17:28:24.654Z</time></trkpt><trkpt lat="44.3804421" lon="11.1151078"><ele>421.0</ele><time>2026-04-11T17:28:29.654Z</time></trkpt><trkpt lat="44.3804033" lon="11.1152248"><ele>421.0</ele><time>2026-04-11T17:28:31.654Z</time></trkpt><trkpt lat="44.3804104" lon="11.115376"><ele>421.0</ele><time>2026-04-11T17:28:33.654Z</time></trkpt><trkpt lat="44.3804183" lon="11.1154712"><ele>421.0</ele><time>2026-04-11T17:28:34.654Z</time></trkpt><trkpt lat="44.3804115" lon="11.1156249"><ele>421.0</ele><time>2026-04-11T17:28:36.654Z</time></trkpt><trkpt lat="44.3803563" lon="11.1157658"><ele>421.0</ele><time>2026-04-11T17:28:38.654Z</time></trkpt><trkpt lat="44.3803066" lon="11.115839"><ele>420.00000000000006</ele><time>2026-04-11T17:28:39.654Z</time></trkpt><trkpt lat="44.3802541" lon="11.1159145"><ele>419.0</ele><time>2026-04-11T17:28:40.653Z</time></trkpt><trkpt lat="44.3801938" lon="11.1159827"><ele>418.0</ele><time>2026-04-11T17:28:41.654Z</time></trkpt><trkpt lat="44.3801507" lon="11.1160582"><ele>417.0</ele><time>2026-04-11T17:28:42.654Z</time></trkpt><trkpt lat="44.3801089" lon="11.1161378"><ele>416.0</ele><time>2026-04-11T17:28:43.653Z</time></trkpt><trkpt lat="44.3800857" lon="11.1162263"><ele>415.00000000000006</ele><time>2026-04-11T17:28:44.654Z</time></trkpt><trkpt lat="44.380064" lon="11.11631"><ele>414.0</ele><time>2026-04-11T17:28:45.654Z</time></trkpt><trkpt lat="44.3800561" lon="11.116475"><ele>413.1666666666667</ele><time>2026-04-11T17:28:47.653Z</time></trkpt><trkpt lat="44.3800669" lon="11.1166308"><ele>412.33333333333337</ele><time>2026-04-11T17:28:49.654Z</time></trkpt><trkpt lat="44.3800402" lon="11.1167165"><ele>411.5</ele><time>2026-04-11T17:28:50.654Z</time></trkpt><trkpt lat="44.3800163" lon="11.1168369"><ele>410.6666666666667</ele><time>2026-04-11T17:28:52.654Z</time></trkpt><trkpt lat="44.3800112" lon="11.1169525"><ele>409.83333333333337</ele><time>2026-04-11T17:28:54.654Z</time></trkpt><trkpt lat="44.3800687" lon="11.1170491"><ele>409.0</ele><time>2026-04-11T17:28:56.653Z</time></trkpt><trkpt lat="44.3801502" lon="11.1171324"><ele>409.0</ele><time>2026-04-11T17:28:58.654Z</time></trkpt><trkpt lat="44.3802453" lon="11.1171538"><ele>409.0</ele><time>2026-04-11T17:29:00.654Z</time></trkpt><trkpt lat="44.3803178" lon="11.1171982"><ele>409.0</ele><time>2026-04-11T17:29:02.654Z</time></trkpt><trkpt lat="44.3804208" lon="11.1172329"><ele>409.0</ele><time>2026-04-11T17:29:04.654Z</time></trkpt><trkpt lat="44.3805224" lon="11.1171728"><ele>409.0</ele><time>2026-04-11T17:29:06.654Z</time></trkpt><trkpt lat="44.3805897" lon="11.1171469"><ele>407.57142857142856</ele><time>2026-04-11T17:29:07.653Z</time></trkpt><trkpt lat="44.3806506" lon="11.1171203"><ele>406.14285714285717</ele><time>2026-04-11T17:29:08.654Z</time></trkpt><trkpt lat="44.3807223" lon="11.1170685"><ele>404.7142857142857</ele><time>2026-04-11T17:29:10.654Z</time></trkpt><trkpt lat="44.3807867" lon="11.1170685"><ele>403.2857142857143</ele><time>2026-04-11T17:29:12.653Z</time></trkpt><trkpt lat="44.3808407" lon="11.1171166"><ele>401.8571428571429</ele><time>2026-04-11T17:29:17.654Z</time></trkpt><trkpt lat="44.3808977" lon="11.1172113"><ele>400.42857142857144</ele><time>2026-04-11T17:29:33.654Z</time></trkpt><trkpt lat="44.3809202" lon="11.1173105"><ele>399.0</ele><time>2026-04-11T17:29:35.654Z</time></trkpt><trkpt lat="44.38092" lon="11.1173994"><ele>399.0</ele><time>2026-04-11T17:29:37.653Z</time></trkpt><trkpt lat="44.3808746" lon="11.1175281"><ele>399.0</ele><time>2026-04-11T17:29:44.654Z</time></trkpt><trkpt lat="44.3809214" lon="11.1174279"><ele>399.0</ele><time>2026-04-11T17:30:09.654Z</time></trkpt><trkpt lat="44.3809051" lon="11.11731"><ele>399.0</ele><time>2026-04-11T17:30:11.654Z</time></trkpt><trkpt lat="44.3808703" lon="11.1171794"><ele>399.0</ele><time>2026-04-11T17:30:13.653Z</time></trkpt><trkpt lat="44.3808192" lon="11.117102"><ele>399.0</ele><time>2026-04-11T17:30:16.654Z</time></trkpt><trkpt lat="44.3808479" lon="11.1169549"><ele>399.0</ele><time>2026-04-11T17:30:20.654Z</time></trkpt><trkpt lat="44.3809415" lon="11.1168621"><ele>399.0</ele><time>2026-04-11T17:30:22.654Z</time></trkpt><trkpt lat="44.3810053" lon="11.1168543"><ele>399.0</ele><time>2026-04-11T17:30:23.654Z</time></trkpt><trkpt lat="44.3810749" lon="11.1168922"><ele>399.0</ele><time>2026-04-11T17:30:25.653Z</time></trkpt><trkpt lat="44.381141" lon="11.1170181"><ele>399.0</ele><time>2026-04-11T17:30:27.653Z</time></trkpt><trkpt lat="44.3812182" lon="11.117122"><ele>399.0</ele><time>2026-04-11T17:30:29.654Z</time></trkpt><trkpt lat="44.3812808" lon="11.117137"><ele>399.0</ele><time>2026-04-11T17:30:30.654Z</time></trkpt><trkpt lat="44.3814067" lon="11.1171398"><ele>399.0</ele><time>2026-04-11T17:30:32.653Z</time></trkpt><trkpt lat="44.3814881" lon="11.11719"><ele>399.0</ele><time>2026-04-11T17:30:34.654Z</time></trkpt><trkpt lat="44.3815798" lon="11.1173127"><ele>399.0</ele><time>2026-04-11T17:30:36.654Z</time></trkpt><trkpt lat="44.381655" lon="11.1173875"><ele>398.0</ele><time>2026-04-11T17:30:38.654Z</time></trkpt><trkpt lat="44.3817229" lon="11.1174389"><ele>397.0</ele><time>2026-04-11T17:30:51.654Z</time></trkpt><trkpt lat="44.3818002" lon="11.1174738"><ele>396.0</ele><time>2026-04-11T17:34:57.654Z</time></trkpt><trkpt lat="44.3818805" lon="11.1174692"><ele>395.0</ele><time>2026-04-11T17:35:00.654Z</time></trkpt><trkpt lat="44.381952" lon="11.1174722"><ele>394.0</ele><time>2026-04-11T17:35:02.653Z</time></trkpt><trkpt lat="44.3820151" lon="11.1175134"><ele>393.0</ele><time>2026-04-11T17:35:04.654Z</time></trkpt><trkpt lat="44.3820617" lon="11.1175852"><ele>392.0</ele><time>2026-04-11T17:35:06.654Z</time></trkpt><trkpt lat="44.3821266" lon="11.1176159"><ele>389.85714285714283</ele><time>2026-04-11T17:35:08.654Z</time></trkpt><trkpt lat="44.3822027" lon="11.117618"><ele>387.7142857142857</ele><time>2026-04-11T17:35:10.654Z</time></trkpt><trkpt lat="44.3822923" lon="11.1176168"><ele>385.57142857142856</ele><time>2026-04-11T17:35:12.654Z</time></trkpt><trkpt lat="44.3823726" lon="11.1176157"><ele>383.42857142857144</ele><time>2026-04-11T17:35:14.654Z</time></trkpt><trkpt lat="44.3824434" lon="11.1176064"><ele>381.2857142857143</ele><time>2026-04-11T17:35:16.654Z</time></trkpt><trkpt lat="44.3825064" lon="11.1175826"><ele>379.1428571428571</ele><time>2026-04-11T17:35:18.654Z</time></trkpt><trkpt lat="44.3825718" lon="11.1175942"><ele>377.0</ele><time>2026-04-11T17:35:22.654Z</time></trkpt><trkpt lat="44.3826572" lon="11.1176638"><ele>377.0</ele><time>2026-04-11T17:35:26.654Z</time></trkpt><trkpt lat="44.3827294" lon="11.1177226"><ele>377.0</ele><time>2026-04-11T17:35:28.654Z</time></trkpt><trkpt lat="44.3827803" lon="11.1177844"><ele>377.0</ele><time>2026-04-11T17:35:30.654Z</time></trkpt><trkpt lat="44.382813" lon="11.1178684"><ele>377.0</ele><time>2026-04-11T17:35:33.654Z</time></trkpt><trkpt lat="44.382873" lon="11.1179309"><ele>377.0</ele><time>2026-04-11T17:35:36.654Z</time></trkpt><trkpt lat="44.3829513" lon="11.1179815"><ele>377.0</ele><time>2026-04-11T17:35:38.654Z</time></trkpt><trkpt lat="44.3830268" lon="11.1180486"><ele>376.0</ele><time>2026-04-11T17:35:40.654Z</time></trkpt><trkpt lat="44.3830833" lon="11.1181168"><ele>375.0</ele><time>2026-04-11T17:35:42.654Z</time></trkpt><trkpt lat="44.383147" lon="11.1181535"><ele>374.0</ele><time>2026-04-11T17:35:44.653Z</time></trkpt><trkpt lat="44.3832169" lon="11.1182154"><ele>373.0</ele><time>2026-04-11T17:35:47.654Z</time></trkpt><trkpt lat="44.3832801" lon="11.1183123"><ele>372.0</ele><time>2026-04-11T17:35:49.654Z</time></trkpt><trkpt lat="44.3833586" lon="11.1183674"><ele>371.0</ele><time>2026-04-11T17:35:51.654Z</time></trkpt><trkpt lat="44.3834193" lon="11.1183913"><ele>369.8</ele><time>2026-04-11T17:35:53.654Z</time></trkpt><trkpt lat="44.3834953" lon="11.1184171"><ele>368.6</ele><time>2026-04-11T17:35:55.654Z</time></trkpt><trkpt lat="44.383597" lon="11.1184706"><ele>367.4</ele><time>2026-04-11T17:35:57.654Z</time></trkpt><trkpt lat="44.3836809" lon="11.1185663"><ele>366.2</ele><time>2026-04-11T17:35:59.654Z</time></trkpt><trkpt lat="44.383728" lon="11.118634"><ele>365.0</ele><time>2026-04-11T17:36:00.654Z</time></trkpt><trkpt lat="44.383809" lon="11.1187573"><ele>364.5</ele><time>2026-04-11T17:36:02.654Z</time></trkpt><trkpt lat="44.3838514" lon="11.11883"><ele>364.0</ele><time>2026-04-11T17:36:04.654Z</time></trkpt><trkpt lat="44.3839356" lon="11.1188781"><ele>363.5</ele><time>2026-04-11T17:36:06.654Z</time></trkpt><trkpt lat="44.3840032" lon="11.1189399"><ele>363.0</ele><time>2026-04-11T17:36:08.654Z</time></trkpt><trkpt lat="44.3840661" lon="11.1189997"><ele>362.5</ele><time>2026-04-11T17:36:10.654Z</time></trkpt><trkpt lat="44.3841178" lon="11.1190864"><ele>362.0</ele><time>2026-04-11T17:36:12.654Z</time></trkpt><trkpt lat="44.3841722" lon="11.1191623"><ele>361.5</ele><time>2026-04-11T17:36:14.654Z</time></trkpt><trkpt lat="44.3842656" lon="11.1192017"><ele>361.0</ele><time>2026-04-11T17:36:16.654Z</time></trkpt><trkpt lat="44.3843548" lon="11.1192117"><ele>360.5</ele><time>2026-04-11T17:36:18.654Z</time></trkpt><trkpt lat="44.3844134" lon="11.1192486"><ele>360.0</ele><time>2026-04-11T17:36:19.654Z</time></trkpt><trkpt lat="44.3844876" lon="11.1192875"><ele>359.5</ele><time>2026-04-11T17:36:21.654Z</time></trkpt><trkpt lat="44.3845478" lon="11.1193191"><ele>359.0</ele><time>2026-04-11T17:36:23.654Z</time></trkpt><trkpt lat="44.3846504" lon="11.1193425"><ele>357.83333333333337</ele><time>2026-04-11T17:36:25.654Z</time></trkpt><trkpt lat="44.3847412" lon="11.1193508"><ele>356.6666666666667</ele><time>2026-04-11T17:36:27.654Z</time></trkpt><trkpt lat="44.3848167" lon="11.1193882"><ele>355.5</ele><time>2026-04-11T17:36:29.653Z</time></trkpt><trkpt lat="44.3848701" lon="11.1194641"><ele>354.3333333333333</ele><time>2026-04-11T17:36:31.654Z</time></trkpt><trkpt lat="44.384909" lon="11.1195478"><ele>353.16666666666663</ele><time>2026-04-11T17:36:32.653Z</time></trkpt><trkpt lat="44.3849833" lon="11.1196737"><ele>352.0</ele><time>2026-04-11T17:36:34.654Z</time></trkpt><trkpt lat="44.3850394" lon="11.1197289"><ele>352.0</ele><time>2026-04-11T17:36:35.654Z</time></trkpt><trkpt lat="44.3851217" lon="11.119773"><ele>352.0</ele><time>2026-04-11T17:36:36.654Z</time></trkpt><trkpt lat="44.3851988" lon="11.11982"><ele>352.0</ele><time>2026-04-11T17:36:37.654Z</time></trkpt><trkpt lat="44.3852689" lon="11.1198495"><ele>352.0</ele><time>2026-04-11T17:36:38.654Z</time></trkpt><trkpt lat="44.3853514" lon="11.1199042"><ele>352.0</ele><time>2026-04-11T17:36:39.654Z</time></trkpt><trkpt lat="44.3854211" lon="11.119946"><ele>352.0</ele><time>2026-04-11T17:36:40.654Z</time></trkpt><trkpt lat="44.3855015" lon="11.1199871"><ele>350.66666666666663</ele><time>2026-04-11T17:36:41.654Z</time></trkpt><trkpt lat="44.3855659" lon="11.1200284"><ele>349.3333333333333</ele><time>2026-04-11T17:36:42.653Z</time></trkpt><trkpt lat="44.3856712" lon="11.1200939"><ele>348.0</ele><time>2026-04-11T17:36:44.654Z</time></trkpt><trkpt lat="44.3857747" lon="11.12012"><ele>346.6666666666667</ele><time>2026-04-11T17:36:46.654Z</time></trkpt><trkpt lat="44.3858572" lon="11.1201331"><ele>345.33333333333337</ele><time>2026-04-11T17:36:47.654Z</time></trkpt><trkpt lat="44.385931" lon="11.1201475"><ele>344.0</ele><time>2026-04-11T17:36:48.654Z</time></trkpt><trkpt lat="44.3860113" lon="11.1201652"><ele>344.0</ele><time>2026-04-11T17:36:49.654Z</time></trkpt><trkpt lat="44.3860956" lon="11.1201763"><ele>344.0</ele><time>2026-04-11T17:36:50.654Z</time></trkpt><trkpt lat="44.3861605" lon="11.1201972"><ele>344.0</ele><time>2026-04-11T17:36:51.654Z</time></trkpt><trkpt lat="44.3862687" lon="11.1203074"><ele>344.0</ele><time>2026-04-11T17:36:53.654Z</time></trkpt><trkpt lat="44.3863276" lon="11.120383"><ele>344.0</ele><time>2026-04-11T17:36:54.654Z</time></trkpt><trkpt lat="44.3863889" lon="11.1204423"><ele>344.0</ele><time>2026-04-11T17:36:55.653Z</time></trkpt><trkpt lat="44.3864504" lon="11.120488"><ele>344.0</ele><time>2026-04-11T17:36:56.654Z</time></trkpt><trkpt lat="44.3865322" lon="11.1206072"><ele>344.0</ele><time>2026-04-11T17:36:58.654Z</time></trkpt><trkpt lat="44.3865864" lon="11.1206811"><ele>344.0</ele><time>2026-04-11T17:36:59.654Z</time></trkpt><trkpt lat="44.3866341" lon="11.1207886"><ele>344.0</ele><time>2026-04-11T17:37:00.654Z</time></trkpt><trkpt lat="44.3866885" lon="11.1208676"><ele>344.0</ele><time>2026-04-11T17:37:01.654Z</time></trkpt><trkpt lat="44.3867401" lon="11.1209397"><ele>344.0</ele><time>2026-04-11T17:37:02.654Z</time></trkpt><trkpt lat="44.3868036" lon="11.1209727"><ele>344.0</ele><time>2026-04-11T17:37:04.654Z</time></trkpt><trkpt lat="44.3867468" lon="11.1209128"><ele>344.0</ele><time>2026-04-11T17:37:49.654Z</time></trkpt><trkpt lat="44.3866838" lon="11.1208537"><ele>344.0</ele><time>2026-04-11T17:37:52.654Z</time></trkpt><trkpt lat="44.3866149" lon="11.1207507"><ele>344.0</ele><time>2026-04-11T17:37:55.653Z</time></trkpt><trkpt lat="44.3865649" lon="11.1206801"><ele>344.0</ele><time>2026-04-11T17:37:58.654Z</time></trkpt><trkpt lat="44.3865121" lon="11.1206285"><ele>344.0</ele><time>2026-04-11T17:38:20.654Z</time></trkpt><trkpt lat="44.3865286" lon="11.120536"><ele>344.0</ele><time>2026-04-11T17:38:26.654Z</time></trkpt><trkpt lat="44.3865921" lon="11.1204662"><ele>344.0</ele><time>2026-04-11T17:38:33.653Z</time></trkpt><trkpt lat="44.3866683" lon="11.12041"><ele>344.0</ele><time>2026-04-11T17:38:36.654Z</time></trkpt><trkpt lat="44.3866738" lon="11.1202917"><ele>344.0</ele><time>2026-04-11T17:38:39.654Z</time></trkpt><trkpt lat="44.386657" lon="11.1202033"><ele>344.0</ele><time>2026-04-11T17:38:41.654Z</time></trkpt><trkpt lat="44.3867139" lon="11.1201454"><ele>344.0</ele><time>2026-04-11T17:39:02.654Z</time></trkpt><trkpt lat="44.3867722" lon="11.1200936"><ele>344.0</ele><time>2026-04-11T17:39:06.654Z</time></trkpt><trkpt lat="44.3868459" lon="11.1200775"><ele>344.0</ele><time>2026-04-11T17:39:09.653Z</time></trkpt><trkpt lat="44.3869422" lon="11.1201143"><ele>344.0</ele><time>2026-04-11T17:39:27.654Z</time></trkpt><trkpt lat="44.3870122" lon="11.1201478"><ele>344.0</ele><time>2026-04-11T17:39:34.654Z</time></trkpt><trkpt lat="44.3870796" lon="11.120178"><ele>344.0</ele><time>2026-04-11T17:39:40.653Z</time></trkpt><trkpt lat="44.3870293" lon="11.1201193"><ele>344.0</ele><time>2026-04-11T17:39:50.654Z</time></trkpt><trkpt lat="44.3869546" lon="11.1201136"><ele>344.0</ele><time>2026-04-11T17:39:53.653Z</time></trkpt><trkpt lat="44.386863" lon="11.1201057"><ele>344.0</ele><time>2026-04-11T17:39:57.654Z</time></trkpt><trkpt lat="44.3867911" lon="11.1201364"><ele>344.0</ele><time>2026-04-11T17:40:00.654Z</time></trkpt><trkpt lat="44.3867111" lon="11.1201379"><ele>344.0</ele><time>2026-04-11T17:40:28.654Z</time></trkpt><trkpt lat="44.3867077" lon="11.1199988"><ele>344.0</ele><time>2026-04-11T17:40:31.654Z</time></trkpt><trkpt lat="44.3867254" lon="11.119912"><ele>344.0</ele><time>2026-04-11T17:40:32.654Z</time></trkpt><trkpt lat="44.3867883" lon="11.1197626"><ele>346.1666666666667</ele><time>2026-04-11T17:40:34.654Z</time></trkpt><trkpt lat="44.3868547" lon="11.1196642"><ele>348.33333333333337</ele><time>2026-04-11T17:40:36.654Z</time></trkpt><trkpt lat="44.3869176" lon="11.1195696"><ele>350.5</ele><time>2026-04-11T17:40:38.653Z</time></trkpt><trkpt lat="44.3869695" lon="11.1194725"><ele>352.6666666666667</ele><time>2026-04-11T17:40:50.654Z</time></trkpt><trkpt lat="44.3869567" lon="11.1193778"><ele>354.8333333333333</ele><time>2026-04-11T17:40:53.654Z</time></trkpt><trkpt lat="44.3869287" lon="11.1192728"><ele>357.0</ele><time>2026-04-11T17:40:56.654Z</time></trkpt><trkpt lat="44.3868792" lon="11.1191903"><ele>357.0</ele><time>2026-04-11T17:40:59.653Z</time></trkpt><trkpt lat="44.3868275" lon="11.1191364"><ele>357.0</ele><time>2026-04-11T17:41:01.654Z</time></trkpt><trkpt lat="44.3867573" lon="11.1190997"><ele>357.0</ele><time>2026-04-11T17:41:04.653Z</time></trkpt><trkpt lat="44.3866858" lon="11.1190723"><ele>357.0</ele><time>2026-04-11T17:41:07.654Z</time></trkpt><trkpt lat="44.3866377" lon="11.1190034"><ele>357.0</ele><time>2026-04-11T17:41:17.653Z</time></trkpt><trkpt lat="44.386673" lon="11.118903"><ele>357.0</ele><time>2026-04-11T17:41:20.653Z</time></trkpt><trkpt lat="44.3867439" lon="11.1188547"><ele>357.0</ele><time>2026-04-11T17:41:23.653Z</time></trkpt><trkpt lat="44.3868132" lon="11.1188471"><ele>357.5</ele><time>2026-04-11T17:42:45.654Z</time></trkpt><trkpt lat="44.3868833" lon="11.1188585"><ele>358.0</ele><time>2026-04-11T17:42:47.653Z</time></trkpt><trkpt lat="44.3869607" lon="11.1189237"><ele>358.5</ele><time>2026-04-11T17:42:50.654Z</time></trkpt><trkpt lat="44.3870405" lon="11.1189592"><ele>359.0</ele><time>2026-04-11T17:42:53.653Z</time></trkpt><trkpt lat="44.3871024" lon="11.1189879"><ele>359.5</ele><time>2026-04-11T17:42:55.654Z</time></trkpt><trkpt lat="44.3871661" lon="11.1190136"><ele>360.0</ele><time>2026-04-11T17:42:57.654Z</time></trkpt><trkpt lat="44.3872422" lon="11.1189598"><ele>360.0</ele><time>2026-04-11T17:43:00.654Z</time></trkpt><trkpt lat="44.3872566" lon="11.1188469"><ele>360.0</ele><time>2026-04-11T17:43:03.654Z</time></trkpt><trkpt lat="44.3872425" lon="11.1187607"><ele>360.0</ele><time>2026-04-11T17:43:07.654Z</time></trkpt><trkpt lat="44.3872327" lon="11.1186683"><ele>360.0</ele><time>2026-04-11T17:43:59.654Z</time></trkpt><trkpt lat="44.3872806" lon="11.1187524"><ele>360.0</ele><time>2026-04-11T17:45:04.654Z</time></trkpt><trkpt lat="44.3873196" lon="11.1188504"><ele>360.0</ele><time>2026-04-11T17:45:08.654Z</time></trkpt><trkpt lat="44.3873381" lon="11.1189535"><ele>360.0</ele><time>2026-04-11T17:45:11.654Z</time></trkpt><trkpt lat="44.3873755" lon="11.1190888"><ele>359.2857142857143</ele><time>2026-04-11T17:45:13.654Z</time></trkpt><trkpt lat="44.3874033" lon="11.1191679"><ele>358.5714285714286</ele><time>2026-04-11T17:45:14.654Z</time></trkpt><trkpt lat="44.3874369" lon="11.1192476"><ele>357.8571428571429</ele><time>2026-04-11T17:45:15.654Z</time></trkpt><trkpt lat="44.3874719" lon="11.1193302"><ele>357.1428571428571</ele><time>2026-04-11T17:45:16.653Z</time></trkpt><trkpt lat="44.3875177" lon="11.1194033"><ele>356.42857142857144</ele><time>2026-04-11T17:45:17.654Z</time></trkpt><trkpt lat="44.3875622" lon="11.1194706"><ele>355.7142857142857</ele><time>2026-04-11T17:45:18.654Z</time></trkpt><trkpt lat="44.3876357" lon="11.1195702"><ele>355.0</ele><time>2026-04-11T17:45:20.653Z</time></trkpt><trkpt lat="44.3876871" lon="11.1196377"><ele>355.0</ele><time>2026-04-11T17:45:24.654Z</time></trkpt><trkpt lat="44.3877465" lon="11.1197092"><ele>355.0</ele><time>2026-04-11T17:45:27.654Z</time></trkpt><trkpt lat="44.3878136" lon="11.1197563"><ele>355.0</ele><time>2026-04-11T17:45:30.654Z</time></trkpt><trkpt lat="44.387869" lon="11.1198183"><ele>355.0</ele><time>2026-04-11T17:45:34.653Z</time></trkpt><trkpt lat="44.3879321" lon="11.1198564"><ele>355.0</ele><time>2026-04-11T17:45:37.654Z</time></trkpt><trkpt lat="44.3879961" lon="11.1199068"><ele>355.0</ele><time>2026-04-11T17:45:39.654Z</time></trkpt><trkpt lat="44.3880883" lon="11.1199404"><ele>352.8</ele><time>2026-04-11T17:45:41.654Z</time></trkpt><trkpt lat="44.3882135" lon="11.1200022"><ele>350.6</ele><time>2026-04-11T17:45:43.654Z</time></trkpt><trkpt lat="44.3882984" lon="11.1200501"><ele>348.4</ele><time>2026-04-11T17:45:44.654Z</time></trkpt><trkpt lat="44.3883857" lon="11.1201135"><ele>346.2</ele><time>2026-04-11T17:45:45.653Z</time></trkpt><trkpt lat="44.3884626" lon="11.1201823"><ele>344.0</ele><time>2026-04-11T17:45:46.654Z</time></trkpt><trkpt lat="44.3885367" lon="11.1202586"><ele>344.0</ele><time>2026-04-11T17:45:47.654Z</time></trkpt><trkpt lat="44.3886037" lon="11.120337"><ele>344.0</ele><time>2026-04-11T17:45:48.654Z</time></trkpt><trkpt lat="44.3886621" lon="11.1204138"><ele>344.0</ele><time>2026-04-11T17:45:49.654Z</time></trkpt><trkpt lat="44.3887183" lon="11.1205033"><ele>344.0</ele><time>2026-04-11T17:45:50.653Z</time></trkpt><trkpt lat="44.388773" lon="11.120594"><ele>344.0</ele><time>2026-04-11T17:45:51.653Z</time></trkpt><trkpt lat="44.388825" lon="11.1206772"><ele>344.0</ele><time>2026-04-11T17:45:52.653Z</time></trkpt><trkpt lat="44.3888772" lon="11.1207576"><ele>342.1666666666667</ele><time>2026-04-11T17:45:53.654Z</time></trkpt><trkpt lat="44.3889294" lon="11.1208384"><ele>340.33333333333337</ele><time>2026-04-11T17:45:54.654Z</time></trkpt><trkpt lat="44.388985" lon="11.1209105"><ele>338.5</ele><time>2026-04-11T17:45:55.654Z</time></trkpt><trkpt lat="44.3890466" lon="11.1209805"><ele>336.6666666666667</ele><time>2026-04-11T17:45:56.653Z</time></trkpt><trkpt lat="44.3891105" lon="11.1210336"><ele>334.8333333333333</ele><time>2026-04-11T17:45:57.654Z</time></trkpt><trkpt lat="44.389181" lon="11.1210991"><ele>333.0</ele><time>2026-04-11T17:45:58.654Z</time></trkpt><trkpt lat="44.3892512" lon="11.1211473"><ele>333.0</ele><time>2026-04-11T17:45:59.653Z</time></trkpt><trkpt lat="44.3893249" lon="11.1211824"><ele>333.0</ele><time>2026-04-11T17:46:00.653Z</time></trkpt><trkpt lat="44.3894062" lon="11.1211944"><ele>333.0</ele><time>2026-04-11T17:46:01.654Z</time></trkpt><trkpt lat="44.3894895" lon="11.1211926"><ele>333.0</ele><time>2026-04-11T17:46:02.654Z</time></trkpt><trkpt lat="44.3895711" lon="11.1211735"><ele>333.0</ele><time>2026-04-11T17:46:03.654Z</time></trkpt><trkpt lat="44.3896476" lon="11.1211347"><ele>333.0</ele><time>2026-04-11T17:46:04.654Z</time></trkpt><trkpt lat="44.3897232" lon="11.1210811"><ele>331.6666666666667</ele><time>2026-04-11T17:46:05.654Z</time></trkpt><trkpt lat="44.3897974" lon="11.1210186"><ele>330.3333333333333</ele><time>2026-04-11T17:46:06.654Z</time></trkpt><trkpt lat="44.3898756" lon="11.1209597"><ele>329.0</ele><time>2026-04-11T17:46:07.654Z</time></trkpt><trkpt lat="44.3899483" lon="11.1208926"><ele>327.66666666666663</ele><time>2026-04-11T17:46:08.654Z</time></trkpt><trkpt lat="44.3900136" lon="11.1208278"><ele>326.3333333333333</ele><time>2026-04-11T17:46:09.654Z</time></trkpt><trkpt lat="44.3900729" lon="11.1207653"><ele>325.0</ele><time>2026-04-11T17:46:10.654Z</time></trkpt><trkpt lat="44.3901289" lon="11.1207057"><ele>325.0</ele><time>2026-04-11T17:46:11.654Z</time></trkpt><trkpt lat="44.3902513" lon="11.120614"><ele>325.0</ele><time>2026-04-11T17:46:13.653Z</time></trkpt><trkpt lat="44.3903281" lon="11.1206133"><ele>325.0</ele><time>2026-04-11T17:46:14.654Z</time></trkpt><trkpt lat="44.3904104" lon="11.1206656"><ele>325.0</ele><time>2026-04-11T17:46:15.654Z</time></trkpt><trkpt lat="44.3904894" lon="11.1207625"><ele>325.0</ele><time>2026-04-11T17:46:16.653Z</time></trkpt><trkpt lat="44.3905653" lon="11.1208941"><ele>320.75</ele><time>2026-04-11T17:46:17.654Z</time></trkpt><trkpt lat="44.3906501" lon="11.1210308"><ele>316.5</ele><time>2026-04-11T17:46:18.654Z</time></trkpt><trkpt lat="44.3907392" lon="11.1211676"><ele>312.25</ele><time>2026-04-11T17:46:19.654Z</time></trkpt><trkpt lat="44.3908316" lon="11.1213051"><ele>308.0</ele><time>2026-04-11T17:46:20.654Z</time></trkpt><trkpt lat="44.3909314" lon="11.1214328"><ele>307.5</ele><time>2026-04-11T17:46:21.654Z</time></trkpt><trkpt lat="44.3910236" lon="11.1215764"><ele>307.0</ele><time>2026-04-11T17:46:22.654Z</time></trkpt><trkpt lat="44.3911069" lon="11.1217269"><ele>306.5</ele><time>2026-04-11T17:46:23.654Z</time></trkpt><trkpt lat="44.3911866" lon="11.1218933"><ele>306.0</ele><time>2026-04-11T17:46:24.653Z</time></trkpt><trkpt lat="44.3912638" lon="11.122061"><ele>306.0</ele><time>2026-04-11T17:46:25.654Z</time></trkpt><trkpt lat="44.3913322" lon="11.1222243"><ele>306.0</ele><time>2026-04-11T17:46:26.654Z</time></trkpt><trkpt lat="44.3913899" lon="11.1223762"><ele>306.0</ele><time>2026-04-11T17:46:27.654Z</time></trkpt><trkpt lat="44.3914337" lon="11.1224871"><ele>306.0</ele><time>2026-04-11T17:46:28.654Z</time></trkpt><trkpt lat="44.3914987" lon="11.1225887"><ele>306.0</ele><time>2026-04-11T17:46:29.654Z</time></trkpt><trkpt lat="44.3915848" lon="11.1226529"><ele>303.0</ele><time>2026-04-11T17:46:30.654Z</time></trkpt><trkpt lat="44.3916729" lon="11.1226679"><ele>300.0</ele><time>2026-04-11T17:46:31.654Z</time></trkpt><trkpt lat="44.3917795" lon="11.1226561"><ele>297.0</ele><time>2026-04-11T17:46:32.654Z</time></trkpt><trkpt lat="44.3918736" lon="11.1226644"><ele>294.0</ele><time>2026-04-11T17:46:33.653Z</time></trkpt><trkpt lat="44.3919482" lon="11.1227134"><ele>291.0</ele><time>2026-04-11T17:46:34.653Z</time></trkpt><trkpt lat="44.3920134" lon="11.1227799"><ele>291.0</ele><time>2026-04-11T17:46:35.654Z</time></trkpt><trkpt lat="44.3920699" lon="11.1228538"><ele>291.0</ele><time>2026-04-11T17:46:36.654Z</time></trkpt><trkpt lat="44.3921291" lon="11.1229259"><ele>291.0</ele><time>2026-04-11T17:46:37.654Z</time></trkpt><trkpt lat="44.3921819" lon="11.1229902"><ele>291.0</ele><time>2026-04-11T17:46:38.654Z</time></trkpt><trkpt lat="44.3922715" lon="11.1231006"><ele>291.0</ele><time>2026-04-11T17:46:40.654Z</time></trkpt><trkpt lat="44.3923565" lon="11.1231973"><ele>289.40000000000003</ele><time>2026-04-11T17:46:42.654Z</time></trkpt><trkpt lat="44.3924399" lon="11.1232959"><ele>287.8</ele><time>2026-04-11T17:46:44.654Z</time></trkpt><trkpt lat="44.3924895" lon="11.1233515"><ele>286.20000000000005</ele><time>2026-04-11T17:46:45.654Z</time></trkpt><trkpt lat="44.3925827" lon="11.123478"><ele>284.6</ele><time>2026-04-11T17:46:47.654Z</time></trkpt><trkpt lat="44.3926281" lon="11.1235562"><ele>283.0</ele><time>2026-04-11T17:46:48.653Z</time></trkpt><trkpt lat="44.3926733" lon="11.1236457"><ele>283.0</ele><time>2026-04-11T17:46:49.654Z</time></trkpt><trkpt lat="44.392706" lon="11.1237376"><ele>283.0</ele><time>2026-04-11T17:46:50.653Z</time></trkpt><trkpt lat="44.3927351" lon="11.1238271"><ele>283.0</ele><time>2026-04-11T17:46:51.654Z</time></trkpt><trkpt lat="44.3927662" lon="11.1239196"><ele>283.0</ele><time>2026-04-11T17:46:52.654Z</time></trkpt><trkpt lat="44.392802" lon="11.1240174"><ele>283.0</ele><time>2026-04-11T17:46:53.654Z</time></trkpt><trkpt lat="44.3928383" lon="11.1241169"><ele>283.0</ele><time>2026-04-11T17:46:54.654Z</time></trkpt><trkpt lat="44.3928818" lon="11.1242167"><ele>282.66666666666663</ele><time>2026-04-11T17:46:55.653Z</time></trkpt><trkpt lat="44.3929284" lon="11.1243197"><ele>282.3333333333333</ele><time>2026-04-11T17:46:56.654Z</time></trkpt><trkpt lat="44.3929741" lon="11.1244213"><ele>282.0</ele><time>2026-04-11T17:46:57.654Z</time></trkpt><trkpt lat="44.3930157" lon="11.1245209"><ele>281.6666666666667</ele><time>2026-04-11T17:46:58.654Z</time></trkpt><trkpt lat="44.3930603" lon="11.1246126"><ele>281.33333333333337</ele><time>2026-04-11T17:46:59.653Z</time></trkpt><trkpt lat="44.3931134" lon="11.1246949"><ele>281.0</ele><time>2026-04-11T17:47:00.654Z</time></trkpt><trkpt lat="44.3931721" lon="11.1247602"><ele>280.6</ele><time>2026-04-11T17:47:01.653Z</time></trkpt><trkpt lat="44.3932403" lon="11.1247702"><ele>280.20000000000005</ele><time>2026-04-11T17:47:02.653Z</time></trkpt><trkpt lat="44.3933138" lon="11.1247699"><ele>279.79999999999995</ele><time>2026-04-11T17:47:03.654Z</time></trkpt><trkpt lat="44.3934116" lon="11.1247183"><ele>279.4</ele><time>2026-04-11T17:47:04.654Z</time></trkpt><trkpt lat="44.3935304" lon="11.1246572"><ele>279.0</ele><time>2026-04-11T17:47:05.653Z</time></trkpt><trkpt lat="44.3936484" lon="11.1245837"><ele>279.0</ele><time>2026-04-11T17:47:06.654Z</time></trkpt><trkpt lat="44.3937612" lon="11.1245183"><ele>279.0</ele><time>2026-04-11T17:47:07.654Z</time></trkpt><trkpt lat="44.3938706" lon="11.1244553"><ele>279.0</ele><time>2026-04-11T17:47:08.654Z</time></trkpt><trkpt lat="44.3939791" lon="11.1244054"><ele>279.0</ele><time>2026-04-11T17:47:09.654Z</time></trkpt><trkpt lat="44.3940812" lon="11.1243518"><ele>277.8</ele><time>2026-04-11T17:47:10.654Z</time></trkpt><trkpt lat="44.3941851" lon="11.1242976"><ele>276.59999999999997</ele><time>2026-04-11T17:47:11.654Z</time></trkpt><trkpt lat="44.3942894" lon="11.1242447"><ele>275.4</ele><time>2026-04-11T17:47:12.654Z</time></trkpt><trkpt lat="44.3943928" lon="11.1241918"><ele>274.2</ele><time>2026-04-11T17:47:13.654Z</time></trkpt><trkpt lat="44.3944988" lon="11.1241435"><ele>273.0</ele><time>2026-04-11T17:47:14.654Z</time></trkpt><trkpt lat="44.3946093" lon="11.1240962"><ele>273.75</ele><time>2026-04-11T17:47:15.654Z</time></trkpt><trkpt lat="44.3947279" lon="11.1240397"><ele>274.5</ele><time>2026-04-11T17:47:16.654Z</time></trkpt><trkpt lat="44.3948559" lon="11.1239853"><ele>275.25</ele><time>2026-04-11T17:47:17.654Z</time></trkpt><trkpt lat="44.3949898" lon="11.1239304"><ele>276.0</ele><time>2026-04-11T17:47:18.653Z</time></trkpt><trkpt lat="44.3951296" lon="11.1238892"><ele>276.0</ele><time>2026-04-11T17:47:19.654Z</time></trkpt><trkpt lat="44.3952761" lon="11.1238639"><ele>276.0</ele><time>2026-04-11T17:47:20.653Z</time></trkpt><trkpt lat="44.3954136" lon="11.1238342"><ele>276.0</ele><time>2026-04-11T17:47:21.654Z</time></trkpt><trkpt lat="44.3955464" lon="11.1238209"><ele>276.0</ele><time>2026-04-11T17:47:22.653Z</time></trkpt><trkpt lat="44.3956723" lon="11.1238176"><ele>275.5</ele><time>2026-04-11T17:47:23.654Z</time></trkpt><trkpt lat="44.3958078" lon="11.1238209"><ele>275.0</ele><time>2026-04-11T17:47:24.654Z</time></trkpt><trkpt lat="44.3959496" lon="11.1238238"><ele>274.5</ele><time>2026-04-11T17:47:25.654Z</time></trkpt><trkpt lat="44.3960799" lon="11.1238365"><ele>274.0</ele><time>2026-04-11T17:47:26.654Z</time></trkpt><trkpt lat="44.3962114" lon="11.1238621"><ele>274.0</ele><time>2026-04-11T17:47:27.654Z</time></trkpt><trkpt lat="44.3963339" lon="11.1238889"><ele>274.0</ele><time>2026-04-11T17:47:28.654Z</time></trkpt><trkpt lat="44.3965869" lon="11.1239872"><ele>274.0</ele><time>2026-04-11T17:47:30.654Z</time></trkpt><trkpt lat="44.3967099" lon="11.1240514"><ele>273.0</ele><time>2026-04-11T17:47:31.654Z</time></trkpt><trkpt lat="44.3968352" lon="11.1241112"><ele>272.0</ele><time>2026-04-11T17:47:32.654Z</time></trkpt><trkpt lat="44.3969626" lon="11.1241613"><ele>271.0</ele><time>2026-04-11T17:47:33.654Z</time></trkpt><trkpt lat="44.3970989" lon="11.1241974"><ele>270.0</ele><time>2026-04-11T17:47:34.654Z</time></trkpt><trkpt lat="44.3972478" lon="11.124192"><ele>269.3333333333333</ele><time>2026-04-11T17:47:35.654Z</time></trkpt><trkpt lat="44.3973956" lon="11.1241491"><ele>268.66666666666663</ele><time>2026-04-11T17:47:36.654Z</time></trkpt><trkpt lat="44.3975397" lon="11.1240704"><ele>268.0</ele><time>2026-04-11T17:47:37.654Z</time></trkpt><trkpt lat="44.3976774" lon="11.123967"><ele>266.66666666666663</ele><time>2026-04-11T17:47:38.654Z</time></trkpt><trkpt lat="44.3978107" lon="11.1238464"><ele>265.3333333333333</ele><time>2026-04-11T17:47:39.654Z</time></trkpt><trkpt lat="44.3979433" lon="11.1237177"><ele>264.0</ele><time>2026-04-11T17:47:40.654Z</time></trkpt><trkpt lat="44.3980763" lon="11.1235862"><ele>264.0</ele><time>2026-04-11T17:47:41.654Z</time></trkpt><trkpt lat="44.3982088" lon="11.1234517"><ele>264.0</ele><time>2026-04-11T17:47:42.653Z</time></trkpt><trkpt lat="44.3983416" lon="11.1233165"><ele>264.0</ele><time>2026-04-11T17:47:43.654Z</time></trkpt><trkpt lat="44.398479" lon="11.1231925"><ele>262.0</ele><time>2026-04-11T17:47:44.653Z</time></trkpt><trkpt lat="44.3986159" lon="11.1230682"><ele>260.0</ele><time>2026-04-11T17:47:45.654Z</time></trkpt><trkpt lat="44.3987586" lon="11.1229601"><ele>258.0</ele><time>2026-04-11T17:47:46.653Z</time></trkpt><trkpt lat="44.3989045" lon="11.1228696"><ele>258.0</ele><time>2026-04-11T17:47:47.654Z</time></trkpt><trkpt lat="44.3990538" lon="11.1228063"><ele>258.0</ele><time>2026-04-11T17:47:48.654Z</time></trkpt><trkpt lat="44.3992087" lon="11.1227697"><ele>258.0</ele><time>2026-04-11T17:47:49.654Z</time></trkpt><trkpt lat="44.3993678" lon="11.1227587"><ele>258.0</ele><time>2026-04-11T17:47:50.654Z</time></trkpt><trkpt lat="44.3995269" lon="11.1227717"><ele>258.0</ele><time>2026-04-11T17:47:51.654Z</time></trkpt><trkpt lat="44.3996751" lon="11.1227984"><ele>258.0</ele><time>2026-04-11T17:47:52.653Z</time></trkpt><trkpt lat="44.3998343" lon="11.1228403"><ele>257.6666666666667</ele><time>2026-04-11T17:47:53.654Z</time></trkpt><trkpt lat="44.399981" lon="11.1228826"><ele>257.33333333333337</ele><time>2026-04-11T17:47:54.654Z</time></trkpt><trkpt lat="44.4001328" lon="11.1229374"><ele>257.0</ele><time>2026-04-11T17:47:55.654Z</time></trkpt><trkpt lat="44.4002895" lon="11.1229904"><ele>257.0</ele><time>2026-04-11T17:47:56.653Z</time></trkpt><trkpt lat="44.4004477" lon="11.1230416"><ele>257.0</ele><time>2026-04-11T17:47:57.653Z</time></trkpt><trkpt lat="44.4006058" lon="11.1230932"><ele>257.0</ele><time>2026-04-11T17:47:58.653Z</time></trkpt><trkpt lat="44.4007699" lon="11.1231438"><ele>257.33333333333337</ele><time>2026-04-11T17:47:59.653Z</time></trkpt><trkpt lat="44.4009317" lon="11.1231947"><ele>257.6666666666667</ele><time>2026-04-11T17:48:00.654Z</time></trkpt><trkpt lat="44.4011026" lon="11.1232539"><ele>258.0</ele><time>2026-04-11T17:48:01.653Z</time></trkpt><trkpt lat="44.401264" lon="11.1233234"><ele>254.66666666666669</ele><time>2026-04-11T17:48:02.654Z</time></trkpt><trkpt lat="44.4014298" lon="11.1233948"><ele>251.33333333333334</ele><time>2026-04-11T17:48:03.654Z</time></trkpt><trkpt lat="44.401594" lon="11.1234744"><ele>248.0</ele><time>2026-04-11T17:48:04.654Z</time></trkpt><trkpt lat="44.4017571" lon="11.1235535"><ele>248.0</ele><time>2026-04-11T17:48:05.654Z</time></trkpt><trkpt lat="44.4019244" lon="11.1236323"><ele>248.0</ele><time>2026-04-11T17:48:06.654Z</time></trkpt><trkpt lat="44.402093" lon="11.1237111"><ele>248.0</ele><time>2026-04-11T17:48:07.654Z</time></trkpt><trkpt lat="44.40226" lon="11.1237886"><ele>248.0</ele><time>2026-04-11T17:48:08.654Z</time></trkpt><trkpt lat="44.4024264" lon="11.1238663"><ele>248.0</ele><time>2026-04-11T17:48:09.654Z</time></trkpt><trkpt lat="44.4025891" lon="11.1239427"><ele>248.0</ele><time>2026-04-11T17:48:10.654Z</time></trkpt><trkpt lat="44.4027545" lon="11.124018"><ele>246.5</ele><time>2026-04-11T17:48:11.654Z</time></trkpt><trkpt lat="44.4031025" lon="11.1241681"><ele>245.0</ele><time>2026-04-11T17:48:13.653Z</time></trkpt><trkpt lat="44.4032895" lon="11.1242386"><ele>245.0</ele><time>2026-04-11T17:48:14.654Z</time></trkpt><trkpt lat="44.4034855" lon="11.1243045"><ele>245.0</ele><time>2026-04-11T17:48:15.653Z</time></trkpt><trkpt lat="44.4036869" lon="11.1243708"><ele>245.0</ele><time>2026-04-11T17:48:16.653Z</time></trkpt><trkpt lat="44.4038903" lon="11.1244349"><ele>244.66666666666669</ele><time>2026-04-11T17:48:17.654Z</time></trkpt><trkpt lat="44.4040931" lon="11.1244976"><ele>244.33333333333331</ele><time>2026-04-11T17:48:18.654Z</time></trkpt><trkpt lat="44.4042874" lon="11.124558"><ele>244.0</ele><time>2026-04-11T17:48:19.653Z</time></trkpt><trkpt lat="44.4044801" lon="11.1246193"><ele>244.33333333333331</ele><time>2026-04-11T17:48:20.654Z</time></trkpt><trkpt lat="44.4046678" lon="11.1246811"><ele>244.66666666666669</ele><time>2026-04-11T17:48:21.654Z</time></trkpt><trkpt lat="44.404851" lon="11.1247396"><ele>245.0</ele><time>2026-04-11T17:48:22.654Z</time></trkpt><trkpt lat="44.4050305" lon="11.1248138"><ele>244.0</ele><time>2026-04-11T17:48:23.654Z</time></trkpt><trkpt lat="44.405213" lon="11.1249055"><ele>243.0</ele><time>2026-04-11T17:48:24.654Z</time></trkpt><trkpt lat="44.4053822" lon="11.1250158"><ele>242.0</ele><time>2026-04-11T17:48:25.654Z</time></trkpt><trkpt lat="44.4055422" lon="11.1251433"><ele>240.66666666666669</ele><time>2026-04-11T17:48:26.653Z</time></trkpt><trkpt lat="44.4057019" lon="11.1252804"><ele>239.33333333333331</ele><time>2026-04-11T17:48:27.654Z</time></trkpt><trkpt lat="44.4058596" lon="11.1254177"><ele>238.0</ele><time>2026-04-11T17:48:28.653Z</time></trkpt><trkpt lat="44.4060176" lon="11.1255542"><ele>238.0</ele><time>2026-04-11T17:48:29.654Z</time></trkpt><trkpt lat="44.4061722" lon="11.1256875"><ele>238.0</ele><time>2026-04-11T17:48:30.653Z</time></trkpt><trkpt lat="44.4063232" lon="11.1258142"><ele>238.0</ele><time>2026-04-11T17:48:31.654Z</time></trkpt><trkpt lat="44.4064687" lon="11.1259355"><ele>240.0</ele><time>2026-04-11T17:48:32.654Z</time></trkpt><trkpt lat="44.4066143" lon="11.1260579"><ele>242.0</ele><time>2026-04-11T17:48:33.654Z</time></trkpt><trkpt lat="44.4067576" lon="11.1261792"><ele>244.0</ele><time>2026-04-11T17:48:34.654Z</time></trkpt><trkpt lat="44.4069015" lon="11.1262995"><ele>244.0</ele><time>2026-04-11T17:48:35.653Z</time></trkpt><trkpt lat="44.4070339" lon="11.1264218"><ele>244.0</ele><time>2026-04-11T17:48:36.654Z</time></trkpt><trkpt lat="44.4071687" lon="11.1265458"><ele>244.0</ele><time>2026-04-11T17:48:37.654Z</time></trkpt><trkpt lat="44.4072982" lon="11.1266794"><ele>242.0</ele><time>2026-04-11T17:48:38.654Z</time></trkpt><trkpt lat="44.4074172" lon="11.1268333"><ele>240.0</ele><time>2026-04-11T17:48:39.654Z</time></trkpt><trkpt lat="44.4075224" lon="11.1270119"><ele>238.0</ele><time>2026-04-11T17:48:40.654Z</time></trkpt><trkpt lat="44.4076158" lon="11.1272024"><ele>238.0</ele><time>2026-04-11T17:48:41.653Z</time></trkpt><trkpt lat="44.4077011" lon="11.1274152"><ele>238.0</ele><time>2026-04-11T17:48:42.654Z</time></trkpt><trkpt lat="44.4077819" lon="11.1276258"><ele>238.0</ele><time>2026-04-11T17:48:43.654Z</time></trkpt><trkpt lat="44.4078589" lon="11.1278309"><ele>238.0</ele><time>2026-04-11T17:48:44.653Z</time></trkpt><trkpt lat="44.407938" lon="11.1280298"><ele>238.0</ele><time>2026-04-11T17:48:45.654Z</time></trkpt><trkpt lat="44.4080205" lon="11.1282322"><ele>238.0</ele><time>2026-04-11T17:48:46.654Z</time></trkpt><trkpt lat="44.4081016" lon="11.1284371"><ele>237.33333333333331</ele><time>2026-04-11T17:48:47.654Z</time></trkpt><trkpt lat="44.4081803" lon="11.1286358"><ele>236.66666666666669</ele><time>2026-04-11T17:48:48.654Z</time></trkpt><trkpt lat="44.4082587" lon="11.1288407"><ele>236.0</ele><time>2026-04-11T17:48:49.653Z</time></trkpt><trkpt lat="44.408339" lon="11.1290401"><ele>234.66666666666669</ele><time>2026-04-11T17:48:50.653Z</time></trkpt><trkpt lat="44.4084227" lon="11.1292434"><ele>233.33333333333331</ele><time>2026-04-11T17:48:51.653Z</time></trkpt><trkpt lat="44.4085045" lon="11.1294491"><ele>232.0</ele><time>2026-04-11T17:48:52.654Z</time></trkpt><trkpt lat="44.408587" lon="11.1296572"><ele>232.0</ele><time>2026-04-11T17:48:53.653Z</time></trkpt><trkpt lat="44.408667" lon="11.1298534"><ele>232.0</ele><time>2026-04-11T17:48:54.654Z</time></trkpt><trkpt lat="44.4087417" lon="11.1300426"><ele>232.0</ele><time>2026-04-11T17:48:55.654Z</time></trkpt><trkpt lat="44.4088154" lon="11.1302282"><ele>232.25</ele><time>2026-04-11T17:48:56.654Z</time></trkpt><trkpt lat="44.4088853" lon="11.1304107"><ele>232.5</ele><time>2026-04-11T17:48:57.653Z</time></trkpt><trkpt lat="44.4089563" lon="11.1305908"><ele>232.75</ele><time>2026-04-11T17:48:58.654Z</time></trkpt><trkpt lat="44.4090255" lon="11.1307694"><ele>233.0</ele><time>2026-04-11T17:48:59.654Z</time></trkpt><trkpt lat="44.4090932" lon="11.1309493"><ele>231.75</ele><time>2026-04-11T17:49:00.654Z</time></trkpt><trkpt lat="44.409164" lon="11.1311249"><ele>230.5</ele><time>2026-04-11T17:49:01.654Z</time></trkpt><trkpt lat="44.40923" lon="11.1312981"><ele>229.25</ele><time>2026-04-11T17:49:02.653Z</time></trkpt><trkpt lat="44.4092993" lon="11.1314729"><ele>228.0</ele><time>2026-04-11T17:49:03.653Z</time></trkpt><trkpt lat="44.4093665" lon="11.131647"><ele>228.0</ele><time>2026-04-11T17:49:04.654Z</time></trkpt><trkpt lat="44.409432" lon="11.131825"><ele>228.0</ele><time>2026-04-11T17:49:05.654Z</time></trkpt><trkpt lat="44.4095012" lon="11.1319985"><ele>228.0</ele><time>2026-04-11T17:49:06.653Z</time></trkpt><trkpt lat="44.4095704" lon="11.1321713"><ele>228.0</ele><time>2026-04-11T17:49:07.654Z</time></trkpt><trkpt lat="44.4096372" lon="11.1323435"><ele>227.5</ele><time>2026-04-11T17:49:08.654Z</time></trkpt><trkpt lat="44.4097054" lon="11.1325104"><ele>227.0</ele><time>2026-04-11T17:49:09.654Z</time></trkpt><trkpt lat="44.4097737" lon="11.1326876"><ele>226.5</ele><time>2026-04-11T17:49:10.654Z</time></trkpt><trkpt lat="44.4098464" lon="11.1328698"><ele>226.0</ele><time>2026-04-11T17:49:11.654Z</time></trkpt><trkpt lat="44.4099165" lon="11.1330549"><ele>225.25</ele><time>2026-04-11T17:49:12.653Z</time></trkpt><trkpt lat="44.4099891" lon="11.1332354"><ele>224.5</ele><time>2026-04-11T17:49:13.654Z</time></trkpt><trkpt lat="44.4100605" lon="11.1334146"><ele>223.75</ele><time>2026-04-11T17:49:14.654Z</time></trkpt><trkpt lat="44.4101289" lon="11.1335904"><ele>223.0</ele><time>2026-04-11T17:49:15.654Z</time></trkpt><trkpt lat="44.4102011" lon="11.1337633"><ele>223.0</ele><time>2026-04-11T17:49:16.654Z</time></trkpt><trkpt lat="44.4102684" lon="11.1339379"><ele>223.0</ele><time>2026-04-11T17:49:17.654Z</time></trkpt><trkpt lat="44.4103358" lon="11.1341113"><ele>223.0</ele><time>2026-04-11T17:49:18.654Z</time></trkpt><trkpt lat="44.4104049" lon="11.1342921"><ele>223.0</ele><time>2026-04-11T17:49:19.654Z</time></trkpt><trkpt lat="44.4104769" lon="11.1344717"><ele>223.0</ele><time>2026-04-11T17:49:20.654Z</time></trkpt><trkpt lat="44.410557" lon="11.1346696"><ele>223.0</ele><time>2026-04-11T17:49:21.653Z</time></trkpt><trkpt lat="44.4106395" lon="11.134875"><ele>223.0</ele><time>2026-04-11T17:49:22.654Z</time></trkpt><trkpt lat="44.4107173" lon="11.1350695"><ele>222.66666666666666</ele><time>2026-04-11T17:49:23.654Z</time></trkpt><trkpt lat="44.4107918" lon="11.1352596"><ele>222.33333333333331</ele><time>2026-04-11T17:49:24.654Z</time></trkpt><trkpt lat="44.4108655" lon="11.13545"><ele>222.0</ele><time>2026-04-11T17:49:25.653Z</time></trkpt><trkpt lat="44.4109404" lon="11.1356472"><ele>221.33333333333331</ele><time>2026-04-11T17:49:26.654Z</time></trkpt><trkpt lat="44.4110188" lon="11.1358544"><ele>220.66666666666666</ele><time>2026-04-11T17:49:27.654Z</time></trkpt><trkpt lat="44.4110871" lon="11.136059"><ele>220.0</ele><time>2026-04-11T17:49:28.654Z</time></trkpt><trkpt lat="44.4111513" lon="11.1362832"><ele>220.0</ele><time>2026-04-11T17:49:29.654Z</time></trkpt><trkpt lat="44.411209" lon="11.1365285"><ele>220.0</ele><time>2026-04-11T17:49:30.654Z</time></trkpt><trkpt lat="44.4112586" lon="11.1368213"><ele>220.0</ele><time>2026-04-11T17:49:31.653Z</time></trkpt><trkpt lat="44.4112996" lon="11.1370869"><ele>220.33333333333331</ele><time>2026-04-11T17:49:32.654Z</time></trkpt><trkpt lat="44.411332" lon="11.1373394"><ele>220.66666666666669</ele><time>2026-04-11T17:49:33.654Z</time></trkpt><trkpt lat="44.4113565" lon="11.1375767"><ele>221.0</ele><time>2026-04-11T17:49:34.654Z</time></trkpt><trkpt lat="44.4113738" lon="11.1378025"><ele>221.33333333333334</ele><time>2026-04-11T17:49:35.654Z</time></trkpt><trkpt lat="44.4113837" lon="11.1380314"><ele>221.66666666666669</ele><time>2026-04-11T17:49:36.654Z</time></trkpt><trkpt lat="44.4113752" lon="11.1382677"><ele>222.0</ele><time>2026-04-11T17:49:37.654Z</time></trkpt><trkpt lat="44.4113525" lon="11.1385113"><ele>220.66666666666669</ele><time>2026-04-11T17:49:38.654Z</time></trkpt><trkpt lat="44.4113184" lon="11.1387777"><ele>219.33333333333334</ele><time>2026-04-11T17:49:39.653Z</time></trkpt><trkpt lat="44.4112834" lon="11.1390599"><ele>218.0</ele><time>2026-04-11T17:49:40.653Z</time></trkpt><trkpt lat="44.4112481" lon="11.1393283"><ele>217.66666666666669</ele><time>2026-04-11T17:49:41.654Z</time></trkpt><trkpt lat="44.411215" lon="11.1395736"><ele>217.33333333333331</ele><time>2026-04-11T17:49:42.653Z</time></trkpt><trkpt lat="44.4111851" lon="11.1397967"><ele>217.0</ele><time>2026-04-11T17:49:43.654Z</time></trkpt><trkpt lat="44.4111556" lon="11.1400082"><ele>216.75</ele><time>2026-04-11T17:49:44.654Z</time></trkpt><trkpt lat="44.4111284" lon="11.1402051"><ele>216.5</ele><time>2026-04-11T17:49:45.654Z</time></trkpt><trkpt lat="44.4111014" lon="11.1403901"><ele>216.25</ele><time>2026-04-11T17:49:46.654Z</time></trkpt><trkpt lat="44.4110698" lon="11.1405651"><ele>216.0</ele><time>2026-04-11T17:49:47.654Z</time></trkpt><trkpt lat="44.4110412" lon="11.1407362"><ele>215.75</ele><time>2026-04-11T17:49:48.654Z</time></trkpt><trkpt lat="44.411012" lon="11.1409094"><ele>215.5</ele><time>2026-04-11T17:49:49.654Z</time></trkpt><trkpt lat="44.4109825" lon="11.1410908"><ele>215.25</ele><time>2026-04-11T17:49:50.654Z</time></trkpt><trkpt lat="44.4109495" lon="11.1412725"><ele>215.0</ele><time>2026-04-11T17:49:51.653Z</time></trkpt><trkpt lat="44.4109106" lon="11.1414521"><ele>214.75</ele><time>2026-04-11T17:49:52.653Z</time></trkpt><trkpt lat="44.4108839" lon="11.141629"><ele>214.5</ele><time>2026-04-11T17:49:53.654Z</time></trkpt><trkpt lat="44.4108569" lon="11.1418013"><ele>214.25</ele><time>2026-04-11T17:49:54.654Z</time></trkpt><trkpt lat="44.4108301" lon="11.1419684"><ele>214.0</ele><time>2026-04-11T17:49:55.654Z</time></trkpt><trkpt lat="44.4108072" lon="11.1421338"><ele>214.0</ele><time>2026-04-11T17:49:56.654Z</time></trkpt><trkpt lat="44.4107806" lon="11.1422957"><ele>214.0</ele><time>2026-04-11T17:49:57.654Z</time></trkpt><trkpt lat="44.410754" lon="11.1424517"><ele>214.0</ele><time>2026-04-11T17:49:58.654Z</time></trkpt><trkpt lat="44.4107301" lon="11.1426068"><ele>214.0</ele><time>2026-04-11T17:49:59.654Z</time></trkpt><trkpt lat="44.4107066" lon="11.1427646"><ele>213.75</ele><time>2026-04-11T17:50:00.654Z</time></trkpt><trkpt lat="44.4106794" lon="11.1429193"><ele>213.5</ele><time>2026-04-11T17:50:01.653Z</time></trkpt><trkpt lat="44.4106521" lon="11.1430845"><ele>213.25</ele><time>2026-04-11T17:50:02.654Z</time></trkpt><trkpt lat="44.410627" lon="11.1432564"><ele>213.0</ele><time>2026-04-11T17:50:03.654Z</time></trkpt><trkpt lat="44.4106003" lon="11.1434373"><ele>213.0</ele><time>2026-04-11T17:50:04.654Z</time></trkpt><trkpt lat="44.4105705" lon="11.1436204"><ele>213.0</ele><time>2026-04-11T17:50:05.654Z</time></trkpt><trkpt lat="44.4105399" lon="11.1438141"><ele>213.0</ele><time>2026-04-11T17:50:06.654Z</time></trkpt><trkpt lat="44.4105117" lon="11.1440139"><ele>213.0</ele><time>2026-04-11T17:50:07.654Z</time></trkpt><trkpt lat="44.4104794" lon="11.144219"><ele>211.66666666666669</ele><time>2026-04-11T17:50:08.654Z</time></trkpt><trkpt lat="44.4104467" lon="11.1444273"><ele>210.33333333333334</ele><time>2026-04-11T17:50:09.653Z</time></trkpt><trkpt lat="44.4104162" lon="11.1446348"><ele>209.0</ele><time>2026-04-11T17:50:10.654Z</time></trkpt><trkpt lat="44.4103853" lon="11.1448423"><ele>209.0</ele><time>2026-04-11T17:50:11.654Z</time></trkpt><trkpt lat="44.4103559" lon="11.1450462"><ele>209.0</ele><time>2026-04-11T17:50:12.654Z</time></trkpt><trkpt lat="44.4103251" lon="11.1452554"><ele>209.0</ele><time>2026-04-11T17:50:13.654Z</time></trkpt><trkpt lat="44.4102995" lon="11.1454613"><ele>209.0</ele><time>2026-04-11T17:50:14.654Z</time></trkpt><trkpt lat="44.4102716" lon="11.1456721"><ele>209.0</ele><time>2026-04-11T17:50:15.654Z</time></trkpt><trkpt lat="44.4102411" lon="11.145885"><ele>209.0</ele><time>2026-04-11T17:50:16.654Z</time></trkpt><trkpt lat="44.4102065" lon="11.1460981"><ele>208.0</ele><time>2026-04-11T17:50:17.654Z</time></trkpt><trkpt lat="44.4101745" lon="11.1463111"><ele>207.0</ele><time>2026-04-11T17:50:18.654Z</time></trkpt><trkpt lat="44.4101404" lon="11.1465206"><ele>206.0</ele><time>2026-04-11T17:50:19.654Z</time></trkpt><trkpt lat="44.4100986" lon="11.146728"><ele>206.0</ele><time>2026-04-11T17:50:20.654Z</time></trkpt><trkpt lat="44.4100485" lon="11.146932"><ele>206.0</ele><time>2026-04-11T17:50:21.654Z</time></trkpt><trkpt lat="44.4099975" lon="11.1471299"><ele>206.0</ele><time>2026-04-11T17:50:22.654Z</time></trkpt><trkpt lat="44.4099429" lon="11.1473292"><ele>207.0</ele><time>2026-04-11T17:50:23.654Z</time></trkpt><trkpt lat="44.4098849" lon="11.1475298"><ele>208.0</ele><time>2026-04-11T17:50:24.654Z</time></trkpt><trkpt lat="44.4098257" lon="11.1477371"><ele>209.0</ele><time>2026-04-11T17:50:25.654Z</time></trkpt><trkpt lat="44.4097644" lon="11.1479341"><ele>209.0</ele><time>2026-04-11T17:50:26.654Z</time></trkpt><trkpt lat="44.4097012" lon="11.1481322"><ele>209.0</ele><time>2026-04-11T17:50:27.654Z</time></trkpt><trkpt lat="44.4096281" lon="11.1483305"><ele>209.0</ele><time>2026-04-11T17:50:28.654Z</time></trkpt><trkpt lat="44.4095446" lon="11.1485258"><ele>207.33333333333334</ele><time>2026-04-11T17:50:29.653Z</time></trkpt><trkpt lat="44.4094553" lon="11.1487217"><ele>205.66666666666669</ele><time>2026-04-11T17:50:30.654Z</time></trkpt><trkpt lat="44.4093581" lon="11.1489046"><ele>204.0</ele><time>2026-04-11T17:50:31.654Z</time></trkpt><trkpt lat="44.4092674" lon="11.1490876"><ele>204.0</ele><time>2026-04-11T17:50:32.654Z</time></trkpt><trkpt lat="44.4091767" lon="11.1492715"><ele>204.0</ele><time>2026-04-11T17:50:33.653Z</time></trkpt><trkpt lat="44.4090982" lon="11.1494543"><ele>204.0</ele><time>2026-04-11T17:50:34.654Z</time></trkpt><trkpt lat="44.4090296" lon="11.1496487"><ele>204.0</ele><time>2026-04-11T17:50:35.654Z</time></trkpt><trkpt lat="44.4089758" lon="11.1498632"><ele>204.0</ele><time>2026-04-11T17:50:36.654Z</time></trkpt><trkpt lat="44.4089352" lon="11.1500862"><ele>204.0</ele><time>2026-04-11T17:50:37.653Z</time></trkpt><trkpt lat="44.4089004" lon="11.15032"><ele>205.0</ele><time>2026-04-11T17:50:38.653Z</time></trkpt><trkpt lat="44.4088726" lon="11.1505552"><ele>206.0</ele><time>2026-04-11T17:50:39.653Z</time></trkpt><trkpt lat="44.4088442" lon="11.1507907"><ele>207.0</ele><time>2026-04-11T17:50:40.654Z</time></trkpt><trkpt lat="44.4088166" lon="11.1510284"><ele>207.0</ele><time>2026-04-11T17:50:41.654Z</time></trkpt><trkpt lat="44.4087978" lon="11.1512728"><ele>207.0</ele><time>2026-04-11T17:50:42.653Z</time></trkpt><trkpt lat="44.4087893" lon="11.1515202"><ele>207.0</ele><time>2026-04-11T17:50:43.654Z</time></trkpt><trkpt lat="44.4087963" lon="11.1517699"><ele>206.33333333333331</ele><time>2026-04-11T17:50:44.654Z</time></trkpt><trkpt lat="44.4088147" lon="11.1520229"><ele>205.66666666666666</ele><time>2026-04-11T17:50:45.653Z</time></trkpt><trkpt lat="44.4088397" lon="11.1522766"><ele>205.0</ele><time>2026-04-11T17:50:46.654Z</time></trkpt><trkpt lat="44.4088664" lon="11.1525295"><ele>204.0</ele><time>2026-04-11T17:50:47.653Z</time></trkpt><trkpt lat="44.4088877" lon="11.1527767"><ele>203.0</ele><time>2026-04-11T17:50:48.654Z</time></trkpt><trkpt lat="44.4089125" lon="11.153033"><ele>202.0</ele><time>2026-04-11T17:50:49.654Z</time></trkpt><trkpt lat="44.4089395" lon="11.1532865"><ele>202.0</ele><time>2026-04-11T17:50:50.654Z</time></trkpt><trkpt lat="44.4089685" lon="11.1535389"><ele>202.0</ele><time>2026-04-11T17:50:51.654Z</time></trkpt><trkpt lat="44.4089897" lon="11.1537843"><ele>202.0</ele><time>2026-04-11T17:50:52.654Z</time></trkpt><trkpt lat="44.4090153" lon="11.1540356"><ele>201.33333333333331</ele><time>2026-04-11T17:50:53.654Z</time></trkpt><trkpt lat="44.4090391" lon="11.1542802"><ele>200.66666666666669</ele><time>2026-04-11T17:50:54.654Z</time></trkpt><trkpt lat="44.4090572" lon="11.1545229"><ele>200.0</ele><time>2026-04-11T17:50:55.654Z</time></trkpt><trkpt lat="44.4090637" lon="11.1547621"><ele>199.66666666666669</ele><time>2026-04-11T17:50:56.654Z</time></trkpt><trkpt lat="44.4090528" lon="11.1550018"><ele>199.33333333333331</ele><time>2026-04-11T17:50:57.654Z</time></trkpt><trkpt lat="44.4090186" lon="11.1552336"><ele>199.0</ele><time>2026-04-11T17:50:58.653Z</time></trkpt><trkpt lat="44.408964" lon="11.1554511"><ele>199.0</ele><time>2026-04-11T17:50:59.654Z</time></trkpt><trkpt lat="44.4089048" lon="11.1556669"><ele>199.0</ele><time>2026-04-11T17:51:00.654Z</time></trkpt><trkpt lat="44.4088511" lon="11.1558913"><ele>199.0</ele><time>2026-04-11T17:51:01.653Z</time></trkpt><trkpt lat="44.4088164" lon="11.156125"><ele>200.33333333333331</ele><time>2026-04-11T17:51:02.654Z</time></trkpt><trkpt lat="44.4087994" lon="11.1563673"><ele>201.66666666666669</ele><time>2026-04-11T17:51:03.653Z</time></trkpt><trkpt lat="44.408801" lon="11.1566155"><ele>203.0</ele><time>2026-04-11T17:51:04.653Z</time></trkpt><trkpt lat="44.4088099" lon="11.1568632"><ele>203.33333333333334</ele><time>2026-04-11T17:51:05.654Z</time></trkpt><trkpt lat="44.4088257" lon="11.1571049"><ele>203.66666666666669</ele><time>2026-04-11T17:51:06.654Z</time></trkpt><trkpt lat="44.4088568" lon="11.1573454"><ele>204.0</ele><time>2026-04-11T17:51:07.654Z</time></trkpt><trkpt lat="44.4089099" lon="11.1575787"><ele>201.33333333333331</ele><time>2026-04-11T17:51:08.653Z</time></trkpt><trkpt lat="44.4089821" lon="11.1578029"><ele>198.66666666666666</ele><time>2026-04-11T17:51:09.654Z</time></trkpt><trkpt lat="44.4090812" lon="11.1580156"><ele>196.0</ele><time>2026-04-11T17:51:10.654Z</time></trkpt><trkpt lat="44.4091921" lon="11.1582155"><ele>194.66666666666666</ele><time>2026-04-11T17:51:11.654Z</time></trkpt><trkpt lat="44.4093142" lon="11.1584053"><ele>193.33333333333331</ele><time>2026-04-11T17:51:12.653Z</time></trkpt><trkpt lat="44.4094334" lon="11.1586012"><ele>192.0</ele><time>2026-04-11T17:51:13.654Z</time></trkpt><trkpt lat="44.4095513" lon="11.1587929"><ele>193.0</ele><time>2026-04-11T17:51:14.654Z</time></trkpt><trkpt lat="44.409667" lon="11.1589806"><ele>194.0</ele><time>2026-04-11T17:51:15.653Z</time></trkpt><trkpt lat="44.4097731" lon="11.1591551"><ele>195.0</ele><time>2026-04-11T17:51:16.654Z</time></trkpt><trkpt lat="44.4098778" lon="11.1593398"><ele>195.0</ele><time>2026-04-11T17:51:17.654Z</time></trkpt><trkpt lat="44.4099872" lon="11.1595176"><ele>195.0</ele><time>2026-04-11T17:51:18.654Z</time></trkpt><trkpt lat="44.4100965" lon="11.1596829"><ele>195.0</ele><time>2026-04-11T17:51:19.654Z</time></trkpt><trkpt lat="44.4101992" lon="11.1598483"><ele>194.0</ele><time>2026-04-11T17:51:20.654Z</time></trkpt><trkpt lat="44.4102977" lon="11.1600149"><ele>193.0</ele><time>2026-04-11T17:51:21.654Z</time></trkpt><trkpt lat="44.4103874" lon="11.1601829"><ele>192.0</ele><time>2026-04-11T17:51:22.654Z</time></trkpt><trkpt lat="44.4104648" lon="11.1603685"><ele>194.66666666666669</ele><time>2026-04-11T17:51:23.654Z</time></trkpt><trkpt lat="44.4105145" lon="11.160581"><ele>197.33333333333334</ele><time>2026-04-11T17:51:24.654Z</time></trkpt><trkpt lat="44.4105379" lon="11.1607899"><ele>200.0</ele><time>2026-04-11T17:51:25.654Z</time></trkpt><trkpt lat="44.4105402" lon="11.1609977"><ele>200.0</ele><time>2026-04-11T17:51:26.654Z</time></trkpt><trkpt lat="44.4105296" lon="11.1612097"><ele>200.0</ele><time>2026-04-11T17:51:27.654Z</time></trkpt><trkpt lat="44.4105177" lon="11.1614298"><ele>200.0</ele><time>2026-04-11T17:51:28.654Z</time></trkpt><trkpt lat="44.4105084" lon="11.1616505"><ele>198.66666666666669</ele><time>2026-04-11T17:51:29.653Z</time></trkpt><trkpt lat="44.4105035" lon="11.161873"><ele>197.33333333333331</ele><time>2026-04-11T17:51:30.654Z</time></trkpt><trkpt lat="44.4105083" lon="11.1620954"><ele>196.0</ele><time>2026-04-11T17:51:31.654Z</time></trkpt><trkpt lat="44.4105232" lon="11.1623209"><ele>194.0</ele><time>2026-04-11T17:51:32.654Z</time></trkpt><trkpt lat="44.4105482" lon="11.1625424"><ele>192.0</ele><time>2026-04-11T17:51:33.653Z</time></trkpt><trkpt lat="44.4105785" lon="11.1627647"><ele>190.0</ele><time>2026-04-11T17:51:34.654Z</time></trkpt><trkpt lat="44.4106103" lon="11.1629886"><ele>189.0</ele><time>2026-04-11T17:51:35.654Z</time></trkpt><trkpt lat="44.4106428" lon="11.1632032"><ele>188.0</ele><time>2026-04-11T17:51:36.654Z</time></trkpt><trkpt lat="44.4106798" lon="11.1634166"><ele>187.0</ele><time>2026-04-11T17:51:37.654Z</time></trkpt><trkpt lat="44.4107136" lon="11.1636303"><ele>187.0</ele><time>2026-04-11T17:51:38.654Z</time></trkpt><trkpt lat="44.4107423" lon="11.163837"><ele>187.0</ele><time>2026-04-11T17:51:39.654Z</time></trkpt><trkpt lat="44.410771" lon="11.1639998"><ele>187.0</ele><time>2026-04-11T17:51:40.654Z</time></trkpt><trkpt lat="44.4107917" lon="11.1641476"><ele>187.0</ele><time>2026-04-11T17:51:41.653Z</time></trkpt><trkpt lat="44.4108128" lon="11.1642693"><ele>187.25</ele><time>2026-04-11T17:51:42.653Z</time></trkpt><trkpt lat="44.4108279" lon="11.1643591"><ele>187.5</ele><time>2026-04-11T17:51:43.654Z</time></trkpt><trkpt lat="44.4108308" lon="11.1645221"><ele>187.75</ele><time>2026-04-11T17:52:10.654Z</time></trkpt><trkpt lat="44.4108637" lon="11.1647248"><ele>188.0</ele><time>2026-04-11T17:52:12.654Z</time></trkpt><trkpt lat="44.4108885" lon="11.1648936"><ele>187.33333333333331</ele><time>2026-04-11T17:52:13.654Z</time></trkpt><trkpt lat="44.4109155" lon="11.1650778"><ele>186.66666666666666</ele><time>2026-04-11T17:52:14.654Z</time></trkpt><trkpt lat="44.4109529" lon="11.1652927"><ele>186.0</ele><time>2026-04-11T17:52:15.653Z</time></trkpt><trkpt lat="44.4110075" lon="11.1655166"><ele>185.66666666666666</ele><time>2026-04-11T17:52:16.654Z</time></trkpt><trkpt lat="44.4110746" lon="11.165744"><ele>185.33333333333331</ele><time>2026-04-11T17:52:17.653Z</time></trkpt><trkpt lat="44.4111532" lon="11.1659758"><ele>185.0</ele><time>2026-04-11T17:52:18.654Z</time></trkpt><trkpt lat="44.4112442" lon="11.1662055"><ele>185.33333333333331</ele><time>2026-04-11T17:52:19.654Z</time></trkpt><trkpt lat="44.4113486" lon="11.1664212"><ele>185.66666666666666</ele><time>2026-04-11T17:52:20.654Z</time></trkpt><trkpt lat="44.4114596" lon="11.1666355"><ele>186.0</ele><time>2026-04-11T17:52:21.654Z</time></trkpt><trkpt lat="44.4115736" lon="11.1668433"><ele>186.0</ele><time>2026-04-11T17:52:22.654Z</time></trkpt><trkpt lat="44.4116907" lon="11.1670463"><ele>186.0</ele><time>2026-04-11T17:52:23.654Z</time></trkpt><trkpt lat="44.4118102" lon="11.1672371"><ele>186.0</ele><time>2026-04-11T17:52:24.654Z</time></trkpt><trkpt lat="44.4119276" lon="11.1674198"><ele>186.66666666666666</ele><time>2026-04-11T17:52:25.654Z</time></trkpt><trkpt lat="44.4120522" lon="11.1675908"><ele>187.33333333333331</ele><time>2026-04-11T17:52:26.654Z</time></trkpt><trkpt lat="44.4121792" lon="11.1677514"><ele>188.0</ele><time>2026-04-11T17:52:27.654Z</time></trkpt><trkpt lat="44.4123081" lon="11.1679136"><ele>188.0</ele><time>2026-04-11T17:52:28.653Z</time></trkpt><trkpt lat="44.4124321" lon="11.1680712"><ele>188.0</ele><time>2026-04-11T17:52:29.654Z</time></trkpt><trkpt lat="44.4125584" lon="11.1682238"><ele>188.0</ele><time>2026-04-11T17:52:30.653Z</time></trkpt><trkpt lat="44.4126832" lon="11.168379"><ele>186.66666666666666</ele><time>2026-04-11T17:52:31.653Z</time></trkpt><trkpt lat="44.412808" lon="11.1685425"><ele>185.33333333333334</ele><time>2026-04-11T17:52:32.654Z</time></trkpt><trkpt lat="44.4129343" lon="11.1686954"><ele>184.0</ele><time>2026-04-11T17:52:33.654Z</time></trkpt><trkpt lat="44.4130619" lon="11.1688512"><ele>184.0</ele><time>2026-04-11T17:52:34.654Z</time></trkpt><trkpt lat="44.4131856" lon="11.169018"><ele>184.0</ele><time>2026-04-11T17:52:35.654Z</time></trkpt><trkpt lat="44.4132971" lon="11.1691981"><ele>184.0</ele><time>2026-04-11T17:52:36.653Z</time></trkpt><trkpt lat="44.4133934" lon="11.1693924"><ele>183.0</ele><time>2026-04-11T17:52:37.654Z</time></trkpt><trkpt lat="44.4134726" lon="11.1696025"><ele>182.0</ele><time>2026-04-11T17:52:38.653Z</time></trkpt><trkpt lat="44.4135339" lon="11.1697859"><ele>181.0</ele><time>2026-04-11T17:52:39.654Z</time></trkpt><trkpt lat="44.4135965" lon="11.1700054"><ele>180.0</ele><time>2026-04-11T17:52:40.654Z</time></trkpt><trkpt lat="44.4136594" lon="11.1702259"><ele>179.0</ele><time>2026-04-11T17:52:41.654Z</time></trkpt><trkpt lat="44.413732" lon="11.1704449"><ele>178.0</ele><time>2026-04-11T17:52:42.654Z</time></trkpt><trkpt lat="44.4138052" lon="11.1706532"><ele>178.33333333333334</ele><time>2026-04-11T17:52:43.654Z</time></trkpt><trkpt lat="44.4138823" lon="11.1708595"><ele>178.66666666666666</ele><time>2026-04-11T17:52:44.654Z</time></trkpt><trkpt lat="44.4139639" lon="11.1710661"><ele>179.0</ele><time>2026-04-11T17:52:45.654Z</time></trkpt><trkpt lat="44.4140521" lon="11.1712577"><ele>179.0</ele><time>2026-04-11T17:52:46.654Z</time></trkpt><trkpt lat="44.4141627" lon="11.1714457"><ele>179.0</ele><time>2026-04-11T17:52:47.654Z</time></trkpt><trkpt lat="44.4143081" lon="11.1715937"><ele>179.0</ele><time>2026-04-11T17:52:48.654Z</time></trkpt><trkpt lat="44.4144624" lon="11.1717213"><ele>177.66666666666666</ele><time>2026-04-11T17:52:49.654Z</time></trkpt><trkpt lat="44.414629" lon="11.1718201"><ele>176.33333333333334</ele><time>2026-04-11T17:52:50.654Z</time></trkpt><trkpt lat="44.4147938" lon="11.1719091"><ele>175.0</ele><time>2026-04-11T17:52:51.653Z</time></trkpt><trkpt lat="44.4149611" lon="11.1719849"><ele>174.66666666666669</ele><time>2026-04-11T17:52:52.654Z</time></trkpt><trkpt lat="44.4151263" lon="11.1720537"><ele>174.33333333333334</ele><time>2026-04-11T17:52:53.653Z</time></trkpt><trkpt lat="44.4152887" lon="11.1721348"><ele>174.0</ele><time>2026-04-11T17:52:54.654Z</time></trkpt><trkpt lat="44.4154504" lon="11.1722181"><ele>173.66666666666666</ele><time>2026-04-11T17:52:55.654Z</time></trkpt><trkpt lat="44.4156131" lon="11.1723003"><ele>173.33333333333331</ele><time>2026-04-11T17:52:56.654Z</time></trkpt><trkpt lat="44.4157735" lon="11.1723875"><ele>173.0</ele><time>2026-04-11T17:52:57.654Z</time></trkpt><trkpt lat="44.4159306" lon="11.1724688"><ele>172.0</ele><time>2026-04-11T17:52:58.653Z</time></trkpt><trkpt lat="44.4160847" lon="11.1725481"><ele>171.0</ele><time>2026-04-11T17:52:59.654Z</time></trkpt><trkpt lat="44.4162409" lon="11.1726237"><ele>170.0</ele><time>2026-04-11T17:53:00.654Z</time></trkpt><trkpt lat="44.4164065" lon="11.1726834"><ele>170.0</ele><time>2026-04-11T17:53:01.654Z</time></trkpt><trkpt lat="44.4165686" lon="11.1727074"><ele>170.0</ele><time>2026-04-11T17:53:02.653Z</time></trkpt><trkpt lat="44.4167439" lon="11.1726927"><ele>170.0</ele><time>2026-04-11T17:53:03.654Z</time></trkpt><trkpt lat="44.4169228" lon="11.1726475"><ele>170.0</ele><time>2026-04-11T17:53:04.653Z</time></trkpt><trkpt lat="44.4171047" lon="11.1725868"><ele>170.0</ele><time>2026-04-11T17:53:05.654Z</time></trkpt><trkpt lat="44.4173067" lon="11.1725042"><ele>170.0</ele><time>2026-04-11T17:53:06.654Z</time></trkpt><trkpt lat="44.4175324" lon="11.1724296"><ele>169.5</ele><time>2026-04-11T17:53:07.654Z</time></trkpt><trkpt lat="44.4177703" lon="11.1723441"><ele>169.0</ele><time>2026-04-11T17:53:08.653Z</time></trkpt><trkpt lat="44.4180093" lon="11.172256"><ele>169.0</ele><time>2026-04-11T17:53:09.654Z</time></trkpt><trkpt lat="44.4182279" lon="11.1721821"><ele>169.0</ele><time>2026-04-11T17:53:10.654Z</time></trkpt><trkpt lat="44.4184345" lon="11.1721138"><ele>169.0</ele><time>2026-04-11T17:53:11.654Z</time></trkpt><trkpt lat="44.4186375" lon="11.1720698"><ele>168.33333333333334</ele><time>2026-04-11T17:53:12.654Z</time></trkpt><trkpt lat="44.4188357" lon="11.1720629"><ele>167.66666666666666</ele><time>2026-04-11T17:53:13.654Z</time></trkpt><trkpt lat="44.4190377" lon="11.1720897"><ele>167.0</ele><time>2026-04-11T17:53:14.654Z</time></trkpt><trkpt lat="44.4192283" lon="11.1721362"><ele>167.0</ele><time>2026-04-11T17:53:15.654Z</time></trkpt><trkpt lat="44.4194146" lon="11.1722005"><ele>167.0</ele><time>2026-04-11T17:53:16.654Z</time></trkpt><trkpt lat="44.4195991" lon="11.1722712"><ele>167.0</ele><time>2026-04-11T17:53:17.654Z</time></trkpt><trkpt lat="44.4199761" lon="11.1724109"><ele>165.33333333333331</ele><time>2026-04-11T17:53:19.654Z</time></trkpt><trkpt lat="44.4201503" lon="11.1724832"><ele>163.66666666666666</ele><time>2026-04-11T17:53:20.654Z</time></trkpt><trkpt lat="44.4203352" lon="11.1725489"><ele>162.0</ele><time>2026-04-11T17:53:21.654Z</time></trkpt><trkpt lat="44.4205057" lon="11.1726301"><ele>161.66666666666666</ele><time>2026-04-11T17:53:22.654Z</time></trkpt><trkpt lat="44.4206734" lon="11.1727044"><ele>161.33333333333331</ele><time>2026-04-11T17:53:23.654Z</time></trkpt><trkpt lat="44.4208346" lon="11.1727787"><ele>161.0</ele><time>2026-04-11T17:53:24.653Z</time></trkpt><trkpt lat="44.421004" lon="11.1728427"><ele>161.0</ele><time>2026-04-11T17:53:25.654Z</time></trkpt><trkpt lat="44.4211569" lon="11.1729188"><ele>161.0</ele><time>2026-04-11T17:53:26.654Z</time></trkpt><trkpt lat="44.4213144" lon="11.1729896"><ele>161.0</ele><time>2026-04-11T17:53:27.654Z</time></trkpt><trkpt lat="44.4214685" lon="11.1730602"><ele>161.0</ele><time>2026-04-11T17:53:28.654Z</time></trkpt><trkpt lat="44.4216245" lon="11.1731325"><ele>161.0</ele><time>2026-04-11T17:53:29.654Z</time></trkpt><trkpt lat="44.4217765" lon="11.1731998"><ele>161.0</ele><time>2026-04-11T17:53:30.654Z</time></trkpt><trkpt lat="44.4219301" lon="11.1732627"><ele>161.0</ele><time>2026-04-11T17:53:31.654Z</time></trkpt><trkpt lat="44.4220743" lon="11.1733331"><ele>161.0</ele><time>2026-04-11T17:53:32.654Z</time></trkpt><trkpt lat="44.4222148" lon="11.1733983"><ele>161.0</ele><time>2026-04-11T17:53:33.654Z</time></trkpt><trkpt lat="44.4223639" lon="11.1734621"><ele>160.33333333333331</ele><time>2026-04-11T17:53:34.654Z</time></trkpt><trkpt lat="44.4225083" lon="11.1735213"><ele>159.66666666666666</ele><time>2026-04-11T17:53:35.653Z</time></trkpt><trkpt lat="44.422659" lon="11.1735876"><ele>159.0</ele><time>2026-04-11T17:53:36.654Z</time></trkpt><trkpt lat="44.4228471" lon="11.1736634"><ele>159.33333333333334</ele><time>2026-04-11T17:53:37.654Z</time></trkpt><trkpt lat="44.4230413" lon="11.1737403"><ele>159.66666666666669</ele><time>2026-04-11T17:53:38.654Z</time></trkpt><trkpt lat="44.4232634" lon="11.1738214"><ele>160.0</ele><time>2026-04-11T17:53:39.653Z</time></trkpt><trkpt lat="44.4234907" lon="11.1738894"><ele>160.0</ele><time>2026-04-11T17:53:40.654Z</time></trkpt><trkpt lat="44.4237868" lon="11.1738382"><ele>160.0</ele><time>2026-04-11T17:53:41.654Z</time></trkpt><trkpt lat="44.4240183" lon="11.1738166"><ele>159.33333333333334</ele><time>2026-04-11T17:53:42.654Z</time></trkpt><trkpt lat="44.4242355" lon="11.1737795"><ele>158.66666666666666</ele><time>2026-04-11T17:53:43.654Z</time></trkpt><trkpt lat="44.4244385" lon="11.1737454"><ele>158.0</ele><time>2026-04-11T17:53:44.653Z</time></trkpt><trkpt lat="44.4246242" lon="11.1737224"><ele>157.33333333333331</ele><time>2026-04-11T17:53:45.654Z</time></trkpt><trkpt lat="44.4247976" lon="11.173702"><ele>156.66666666666666</ele><time>2026-04-11T17:53:46.654Z</time></trkpt><trkpt lat="44.4249683" lon="11.1736923"><ele>156.0</ele><time>2026-04-11T17:53:47.654Z</time></trkpt><trkpt lat="44.4251268" lon="11.1736797"><ele>156.0</ele><time>2026-04-11T17:53:48.654Z</time></trkpt><trkpt lat="44.4252801" lon="11.1736799"><ele>156.0</ele><time>2026-04-11T17:53:49.654Z</time></trkpt><trkpt lat="44.4254351" lon="11.173706"><ele>156.0</ele><time>2026-04-11T17:53:50.654Z</time></trkpt><trkpt lat="44.4255806" lon="11.1737505"><ele>156.0</ele><time>2026-04-11T17:53:51.653Z</time></trkpt><trkpt lat="44.4257125" lon="11.1738108"><ele>156.0</ele><time>2026-04-11T17:53:52.653Z</time></trkpt><trkpt lat="44.4258353" lon="11.1738765"><ele>156.0</ele><time>2026-04-11T17:53:53.654Z</time></trkpt><trkpt lat="44.425952" lon="11.1739452"><ele>156.0</ele><time>2026-04-11T17:53:54.654Z</time></trkpt><trkpt lat="44.4260628" lon="11.1740121"><ele>155.75</ele><time>2026-04-11T17:53:55.654Z</time></trkpt><trkpt lat="44.426173" lon="11.1740787"><ele>155.5</ele><time>2026-04-11T17:53:56.654Z</time></trkpt><trkpt lat="44.4263029" lon="11.1741554"><ele>155.25</ele><time>2026-04-11T17:53:57.653Z</time></trkpt><trkpt lat="44.4264328" lon="11.1742206"><ele>155.0</ele><time>2026-04-11T17:53:58.654Z</time></trkpt><trkpt lat="44.4265444" lon="11.1742655"><ele>155.0</ele><time>2026-04-11T17:53:59.654Z</time></trkpt><trkpt lat="44.4266242" lon="11.1742949"><ele>155.0</ele><time>2026-04-11T17:54:00.654Z</time></trkpt><trkpt lat="44.4266907" lon="11.1743063"><ele>155.0</ele><time>2026-04-11T17:54:01.654Z</time></trkpt><trkpt lat="44.4268064" lon="11.1742368"><ele>155.0</ele><time>2026-04-11T17:54:03.653Z</time></trkpt><trkpt lat="44.4268653" lon="11.1741468"><ele>155.0</ele><time>2026-04-11T17:54:04.653Z</time></trkpt><trkpt lat="44.4269296" lon="11.1740296"><ele>156.75</ele><time>2026-04-11T17:54:05.654Z</time></trkpt><trkpt lat="44.4270087" lon="11.1739058"><ele>158.5</ele><time>2026-04-11T17:54:06.654Z</time></trkpt><trkpt lat="44.4270947" lon="11.1737554"><ele>160.25</ele><time>2026-04-11T17:54:07.654Z</time></trkpt><trkpt lat="44.4271871" lon="11.1735964"><ele>162.0</ele><time>2026-04-11T17:54:08.654Z</time></trkpt><trkpt lat="44.4272833" lon="11.1734342"><ele>165.75</ele><time>2026-04-11T17:54:09.654Z</time></trkpt><trkpt lat="44.4273712" lon="11.1732739"><ele>169.5</ele><time>2026-04-11T17:54:10.654Z</time></trkpt><trkpt lat="44.4274532" lon="11.1731235"><ele>173.25</ele><time>2026-04-11T17:54:11.654Z</time></trkpt><trkpt lat="44.4275242" lon="11.1729944"><ele>177.0</ele><time>2026-04-11T17:54:12.654Z</time></trkpt><trkpt lat="44.4275901" lon="11.1728859"><ele>178.6</ele><time>2026-04-11T17:54:13.654Z</time></trkpt><trkpt lat="44.4276622" lon="11.1727939"><ele>180.2</ele><time>2026-04-11T17:54:14.654Z</time></trkpt><trkpt lat="44.4277457" lon="11.1727405"><ele>181.8</ele><time>2026-04-11T17:54:15.654Z</time></trkpt><trkpt lat="44.4278338" lon="11.1727232"><ele>183.4</ele><time>2026-04-11T17:54:16.653Z</time></trkpt><trkpt lat="44.427934" lon="11.1727615"><ele>185.0</ele><time>2026-04-11T17:54:17.654Z</time></trkpt><trkpt lat="44.4280214" lon="11.1727821"><ele>188.8</ele><time>2026-04-11T17:54:18.654Z</time></trkpt><trkpt lat="44.4281059" lon="11.1727341"><ele>192.6</ele><time>2026-04-11T17:54:20.654Z</time></trkpt><trkpt lat="44.4280616" lon="11.1725687"><ele>196.39999999999998</ele><time>2026-04-11T17:54:22.654Z</time></trkpt><trkpt lat="44.4280125" lon="11.1724799"><ele>200.2</ele><time>2026-04-11T17:54:23.654Z</time></trkpt><trkpt lat="44.4280018" lon="11.1723682"><ele>204.0</ele><time>2026-04-11T17:54:24.654Z</time></trkpt><trkpt lat="44.4280114" lon="11.1722488"><ele>206.66666666666669</ele><time>2026-04-11T17:54:25.654Z</time></trkpt><trkpt lat="44.4280745" lon="11.1720726"><ele>209.33333333333334</ele><time>2026-04-11T17:54:26.654Z</time></trkpt><trkpt lat="44.4282643" lon="11.1717486"><ele>212.0</ele><time>2026-04-11T17:54:28.654Z</time></trkpt><trkpt lat="44.4283692" lon="11.1716019"><ele>212.5</ele><time>2026-04-11T17:54:29.654Z</time></trkpt><trkpt lat="44.4284711" lon="11.1714787"><ele>213.0</ele><time>2026-04-11T17:54:30.653Z</time></trkpt><trkpt lat="44.4285712" lon="11.1713475"><ele>213.5</ele><time>2026-04-11T17:54:31.654Z</time></trkpt><trkpt lat="44.4286549" lon="11.1711982"><ele>214.0</ele><time>2026-04-11T17:54:32.654Z</time></trkpt><trkpt lat="44.4287307" lon="11.1710323"><ele>214.0</ele><time>2026-04-11T17:54:33.654Z</time></trkpt><trkpt lat="44.4288065" lon="11.1708683"><ele>214.0</ele><time>2026-04-11T17:54:34.654Z</time></trkpt><trkpt lat="44.4288879" lon="11.1707098"><ele>214.0</ele><time>2026-04-11T17:54:35.654Z</time></trkpt><trkpt lat="44.4289684" lon="11.1705557"><ele>214.0</ele><time>2026-04-11T17:54:36.654Z</time></trkpt><trkpt lat="44.4290431" lon="11.1704295"><ele>218.79999999999998</ele><time>2026-04-11T17:54:37.653Z</time></trkpt><trkpt lat="44.4291089" lon="11.1703239"><ele>223.59999999999997</ele><time>2026-04-11T17:54:38.653Z</time></trkpt><trkpt lat="44.4291908" lon="11.1702654"><ele>228.4</ele><time>2026-04-11T17:54:39.654Z</time></trkpt><trkpt lat="44.4292861" lon="11.1702199"><ele>233.2</ele><time>2026-04-11T17:54:40.654Z</time></trkpt><trkpt lat="44.4293809" lon="11.1702129"><ele>238.0</ele><time>2026-04-11T17:54:41.654Z</time></trkpt><trkpt lat="44.4294897" lon="11.1702242"><ele>237.99999999999997</ele><time>2026-04-11T17:54:42.654Z</time></trkpt><trkpt lat="44.4295861" lon="11.1702465"><ele>238.0</ele><time>2026-04-11T17:54:43.653Z</time></trkpt><trkpt lat="44.4296768" lon="11.1702663"><ele>238.0</ele><time>2026-04-11T17:54:44.653Z</time></trkpt><trkpt lat="44.4297528" lon="11.1702784"><ele>238.0</ele><time>2026-04-11T17:54:45.654Z</time></trkpt><trkpt lat="44.4298186" lon="11.1702893"><ele>237.99999999999997</ele><time>2026-04-11T17:54:46.654Z</time></trkpt><trkpt lat="44.429924" lon="11.1702954"><ele>238.0</ele><time>2026-04-11T17:54:48.654Z</time></trkpt><trkpt lat="44.4300179" lon="11.1702894"><ele>241.16666666666666</ele><time>2026-04-11T17:54:50.653Z</time></trkpt><trkpt lat="44.4301104" lon="11.1702962"><ele>244.33333333333331</ele><time>2026-04-11T17:54:52.654Z</time></trkpt><trkpt lat="44.4301732" lon="11.1702828"><ele>247.5</ele><time>2026-04-11T17:54:53.654Z</time></trkpt><trkpt lat="44.4302375" lon="11.1702733"><ele>250.66666666666669</ele><time>2026-04-11T17:54:54.653Z</time></trkpt><trkpt lat="44.4303319" lon="11.1702456"><ele>253.83333333333334</ele><time>2026-04-11T17:54:55.654Z</time></trkpt><trkpt lat="44.4304233" lon="11.1702154"><ele>257.0</ele><time>2026-04-11T17:54:56.654Z</time></trkpt><trkpt lat="44.4305192" lon="11.1701833"><ele>259.6</ele><time>2026-04-11T17:54:57.654Z</time></trkpt><trkpt lat="44.4306513" lon="11.1701286"><ele>262.2</ele><time>2026-04-11T17:54:58.654Z</time></trkpt><trkpt lat="44.4307296" lon="11.1700799"><ele>264.8</ele><time>2026-04-11T17:54:59.654Z</time></trkpt><trkpt lat="44.4308157" lon="11.1700281"><ele>267.4</ele><time>2026-04-11T17:55:00.654Z</time></trkpt><trkpt lat="44.4308907" lon="11.169972"><ele>270.0</ele><time>2026-04-11T17:55:01.654Z</time></trkpt><trkpt lat="44.4309628" lon="11.1699205"><ele>271.6666666666667</ele><time>2026-04-11T17:55:02.654Z</time></trkpt><trkpt lat="44.431022" lon="11.169843"><ele>273.3333333333333</ele><time>2026-04-11T17:55:03.654Z</time></trkpt><trkpt lat="44.4310508" lon="11.1697453"><ele>275.0</ele><time>2026-04-11T17:55:04.654Z</time></trkpt><trkpt lat="44.4310521" lon="11.1696407"><ele>276.66666666666663</ele><time>2026-04-11T17:55:05.654Z</time></trkpt><trkpt lat="44.4310422" lon="11.1695392"><ele>278.3333333333333</ele><time>2026-04-11T17:55:06.654Z</time></trkpt><trkpt lat="44.4309974" lon="11.1694393"><ele>280.0</ele><time>2026-04-11T17:55:07.654Z</time></trkpt><trkpt lat="44.4309438" lon="11.1693529"><ele>280.0</ele><time>2026-04-11T17:55:08.654Z</time></trkpt><trkpt lat="44.4308936" lon="11.1692752"><ele>280.0</ele><time>2026-04-11T17:55:09.654Z</time></trkpt><trkpt lat="44.4308718" lon="11.1691863"><ele>280.0</ele><time>2026-04-11T17:55:10.654Z</time></trkpt><trkpt lat="44.4308748" lon="11.1690901"><ele>280.0</ele><time>2026-04-11T17:55:11.654Z</time></trkpt><trkpt lat="44.4309158" lon="11.1689745"><ele>280.0</ele><time>2026-04-11T17:55:13.654Z</time></trkpt><trkpt lat="44.4309604" lon="11.1688832"><ele>280.0</ele><time>2026-04-11T17:57:05.653Z</time></trkpt><trkpt lat="44.431017" lon="11.1688333"><ele>280.0</ele><time>2026-04-11T17:57:07.654Z</time></trkpt><trkpt lat="44.4311031" lon="11.168774"><ele>281.66666666666663</ele><time>2026-04-11T17:57:09.654Z</time></trkpt><trkpt lat="44.4311945" lon="11.1687737"><ele>283.3333333333333</ele><time>2026-04-11T17:57:11.654Z</time></trkpt><trkpt lat="44.4312923" lon="11.1688355"><ele>285.0</ele><time>2026-04-11T17:57:13.654Z</time></trkpt><trkpt lat="44.4313891" lon="11.16887"><ele>286.6666666666667</ele><time>2026-04-11T17:57:15.653Z</time></trkpt><trkpt lat="44.4314562" lon="11.1688251"><ele>288.33333333333337</ele><time>2026-04-11T17:57:17.654Z</time></trkpt><trkpt lat="44.4314398" lon="11.1687341"><ele>290.0</ele><time>2026-04-11T17:57:19.654Z</time></trkpt><trkpt lat="44.4313637" lon="11.1686176"><ele>290.0</ele><time>2026-04-11T17:57:21.654Z</time></trkpt><trkpt lat="44.4313006" lon="11.1684951"><ele>290.0</ele><time>2026-04-11T17:57:22.654Z</time></trkpt><trkpt lat="44.4312699" lon="11.1683906"><ele>290.0</ele><time>2026-04-11T17:57:23.654Z</time></trkpt><trkpt lat="44.4312437" lon="11.1682619"><ele>290.0</ele><time>2026-04-11T17:57:24.654Z</time></trkpt><trkpt lat="44.4312246" lon="11.1681369"><ele>290.0</ele><time>2026-04-11T17:57:25.654Z</time></trkpt><trkpt lat="44.4312099" lon="11.1679931"><ele>292.0</ele><time>2026-04-11T17:57:26.653Z</time></trkpt><trkpt lat="44.4311947" lon="11.1678677"><ele>294.0</ele><time>2026-04-11T17:57:27.653Z</time></trkpt><trkpt lat="44.4311667" lon="11.1677578"><ele>296.0</ele><time>2026-04-11T17:57:28.654Z</time></trkpt><trkpt lat="44.431137" lon="11.1676757"><ele>298.0</ele><time>2026-04-11T17:57:29.654Z</time></trkpt><trkpt lat="44.4312303" lon="11.1677208"><ele>300.0</ele><time>2026-04-11T17:57:43.654Z</time></trkpt><trkpt lat="44.431279" lon="11.1678055"><ele>302.0</ele><time>2026-04-11T17:57:44.654Z</time></trkpt><trkpt lat="44.4313256" lon="11.1678691"><ele>309.2</ele><time>2026-04-11T17:57:45.654Z</time></trkpt><trkpt lat="44.4314163" lon="11.1679291"><ele>316.4</ele><time>2026-04-11T17:57:47.654Z</time></trkpt><trkpt lat="44.4315047" lon="11.1679609"><ele>323.59999999999997</ele><time>2026-04-11T17:57:49.654Z</time></trkpt><trkpt lat="44.4316208" lon="11.1679037"><ele>330.79999999999995</ele><time>2026-04-11T17:57:51.654Z</time></trkpt><trkpt lat="44.4316714" lon="11.1677961"><ele>338.0</ele><time>2026-04-11T17:57:53.653Z</time></trkpt><trkpt lat="44.4317882" lon="11.1677267"><ele>338.0</ele><time>2026-04-11T17:57:55.654Z</time></trkpt><trkpt lat="44.4318605" lon="11.1676885"><ele>338.0</ele><time>2026-04-11T17:57:56.654Z</time></trkpt><trkpt lat="44.4319405" lon="11.1677084"><ele>338.0</ele><time>2026-04-11T17:57:58.654Z</time></trkpt><trkpt lat="44.4320355" lon="11.1676973"><ele>338.0</ele><time>2026-04-11T17:58:00.654Z</time></trkpt><trkpt lat="44.4321438" lon="11.1676685"><ele>338.0</ele><time>2026-04-11T17:58:02.654Z</time></trkpt><trkpt lat="44.4322067" lon="11.1676404"><ele>338.0</ele><time>2026-04-11T17:58:03.653Z</time></trkpt><trkpt lat="44.4322821" lon="11.1675964"><ele>342.5</ele><time>2026-04-11T17:58:04.653Z</time></trkpt><trkpt lat="44.4324249" lon="11.1675451"><ele>347.0</ele><time>2026-04-11T17:58:05.654Z</time></trkpt><trkpt lat="44.4325961" lon="11.1675484"><ele>351.5</ele><time>2026-04-11T17:58:06.654Z</time></trkpt><trkpt lat="44.4326894" lon="11.1675487"><ele>356.0</ele><time>2026-04-11T17:58:07.654Z</time></trkpt><trkpt lat="44.4327812" lon="11.167659"><ele>356.0</ele><time>2026-04-11T17:58:08.654Z</time></trkpt><trkpt lat="44.4328703" lon="11.1676957"><ele>356.0</ele><time>2026-04-11T17:58:09.654Z</time></trkpt><trkpt lat="44.4329331" lon="11.167773"><ele>356.0</ele><time>2026-04-11T17:58:10.653Z</time></trkpt><trkpt lat="44.4329945" lon="11.1678807"><ele>356.0</ele><time>2026-04-11T17:58:11.654Z</time></trkpt><trkpt lat="44.4330747" lon="11.1679206"><ele>356.0</ele><time>2026-04-11T17:58:12.654Z</time></trkpt><trkpt lat="44.4331546" lon="11.1678123"><ele>353.0</ele><time>2026-04-11T17:58:13.654Z</time></trkpt><trkpt lat="44.433212" lon="11.1677686"><ele>350.0</ele><time>2026-04-11T17:58:14.653Z</time></trkpt><trkpt lat="44.433274" lon="11.1676865"><ele>347.0</ele><time>2026-04-11T17:58:15.653Z</time></trkpt><trkpt lat="44.4333632" lon="11.1675813"><ele>344.0</ele><time>2026-04-11T17:58:16.653Z</time></trkpt><trkpt lat="44.4334144" lon="11.1674652"><ele>341.0</ele><time>2026-04-11T17:58:17.653Z</time></trkpt><trkpt lat="44.4334196" lon="11.167301"><ele>341.0</ele><time>2026-04-11T17:58:18.654Z</time></trkpt><trkpt lat="44.4334347" lon="11.1671531"><ele>341.0</ele><time>2026-04-11T17:58:19.654Z</time></trkpt><trkpt lat="44.4334583" lon="11.1670272"><ele>341.0</ele><time>2026-04-11T17:58:20.654Z</time></trkpt><trkpt lat="44.4334716" lon="11.1669133"><ele>341.0</ele><time>2026-04-11T17:58:21.653Z</time></trkpt><trkpt lat="44.4335111" lon="11.1668225"><ele>341.0</ele><time>2026-04-11T17:58:22.654Z</time></trkpt><trkpt lat="44.4336272" lon="11.1667406"><ele>341.0</ele><time>2026-04-11T17:58:24.654Z</time></trkpt><trkpt lat="44.4337056" lon="11.1667561"><ele>341.0</ele><time>2026-04-11T17:58:25.654Z</time></trkpt><trkpt lat="44.4337992" lon="11.1667991"><ele>341.0</ele><time>2026-04-11T17:58:26.654Z</time></trkpt><trkpt lat="44.4338948" lon="11.1668349"><ele>341.0</ele><time>2026-04-11T17:58:27.654Z</time></trkpt><trkpt lat="44.4339936" lon="11.1668442"><ele>341.0</ele><time>2026-04-11T17:58:28.654Z</time></trkpt><trkpt lat="44.4340862" lon="11.1668295"><ele>340.33333333333337</ele><time>2026-04-11T17:58:29.654Z</time></trkpt><trkpt lat="44.4341609" lon="11.1667955"><ele>339.6666666666667</ele><time>2026-04-11T17:58:30.653Z</time></trkpt><trkpt lat="44.4342317" lon="11.1667407"><ele>339.0</ele><time>2026-04-11T17:58:31.653Z</time></trkpt><trkpt lat="44.4343007" lon="11.166655"><ele>338.3333333333333</ele><time>2026-04-11T17:58:32.654Z</time></trkpt><trkpt lat="44.4343683" lon="11.1665436"><ele>337.66666666666663</ele><time>2026-04-11T17:58:33.654Z</time></trkpt><trkpt lat="44.4344079" lon="11.1664279"><ele>337.0</ele><time>2026-04-11T17:58:34.654Z</time></trkpt><trkpt lat="44.4344188" lon="11.1663045"><ele>339.20000000000005</ele><time>2026-04-11T17:58:35.654Z</time></trkpt><trkpt lat="44.4344254" lon="11.1661752"><ele>341.4</ele><time>2026-04-11T17:58:36.654Z</time></trkpt><trkpt lat="44.4344209" lon="11.1660377"><ele>343.6</ele><time>2026-04-11T17:58:37.654Z</time></trkpt><trkpt lat="44.4343979" lon="11.1659157"><ele>345.79999999999995</ele><time>2026-04-11T17:58:38.654Z</time></trkpt><trkpt lat="44.4343553" lon="11.1658033"><ele>348.0</ele><time>2026-04-11T17:58:39.654Z</time></trkpt><trkpt lat="44.4342987" lon="11.1657182"><ele>348.0</ele><time>2026-04-11T17:58:40.653Z</time></trkpt><trkpt lat="44.4342227" lon="11.1656533"><ele>348.0</ele><time>2026-04-11T17:58:41.654Z</time></trkpt><trkpt lat="44.4341413" lon="11.1656121"><ele>348.0</ele><time>2026-04-11T17:58:42.654Z</time></trkpt><trkpt lat="44.4340504" lon="11.1655507"><ele>348.0</ele><time>2026-04-11T17:58:44.653Z</time></trkpt><trkpt lat="44.4340205" lon="11.1654181"><ele>348.0</ele><time>2026-04-11T17:58:46.653Z</time></trkpt><trkpt lat="44.4340233" lon="11.1652508"><ele>348.0</ele><time>2026-04-11T17:58:48.654Z</time></trkpt><trkpt lat="44.4340183" lon="11.1651594"><ele>348.0</ele><time>2026-04-11T17:58:49.654Z</time></trkpt><trkpt lat="44.4340118" lon="11.1650684"><ele>348.0</ele><time>2026-04-11T17:58:50.654Z</time></trkpt><trkpt lat="44.433998" lon="11.16498"><ele>348.0</ele><time>2026-04-11T17:58:51.654Z</time></trkpt><trkpt lat="44.4339706" lon="11.1648005"><ele>348.0</ele><time>2026-04-11T17:58:53.654Z</time></trkpt><trkpt lat="44.4339714" lon="11.1647099"><ele>348.0</ele><time>2026-04-11T17:58:54.653Z</time></trkpt><trkpt lat="44.4339714" lon="11.1646133"><ele>348.0</ele><time>2026-04-11T17:58:55.654Z</time></trkpt><trkpt lat="44.4339841" lon="11.1645125"><ele>348.0</ele><time>2026-04-11T17:58:56.654Z</time></trkpt><trkpt lat="44.4340039" lon="11.164417"><ele>348.0</ele><time>2026-04-11T17:58:57.654Z</time></trkpt><trkpt lat="44.4340314" lon="11.1643114"><ele>348.0</ele><time>2026-04-11T17:58:58.653Z</time></trkpt><trkpt lat="44.434056" lon="11.1642123"><ele>348.0</ele><time>2026-04-11T17:58:59.654Z</time></trkpt><trkpt lat="44.4340807" lon="11.164124"><ele>348.0</ele><time>2026-04-11T17:59:00.654Z</time></trkpt><trkpt lat="44.4341066" lon="11.1640386"><ele>348.0</ele><time>2026-04-11T17:59:01.654Z</time></trkpt><trkpt lat="44.4341328" lon="11.1639488"><ele>347.2</ele><time>2026-04-11T17:59:02.653Z</time></trkpt><trkpt lat="44.4341526" lon="11.1637796"><ele>346.4</ele><time>2026-04-11T17:59:04.654Z</time></trkpt><trkpt lat="44.434143" lon="11.1636901"><ele>345.59999999999997</ele><time>2026-04-11T17:59:05.654Z</time></trkpt><trkpt lat="44.4341069" lon="11.1635175"><ele>344.79999999999995</ele><time>2026-04-11T17:59:07.653Z</time></trkpt><trkpt lat="44.434098" lon="11.1634278"><ele>344.0</ele><time>2026-04-11T17:59:08.654Z</time></trkpt><trkpt lat="44.4341079" lon="11.1632766"><ele>344.5</ele><time>2026-04-11T17:59:10.654Z</time></trkpt><trkpt lat="44.4341584" lon="11.1631222"><ele>345.0</ele><time>2026-04-11T17:59:12.654Z</time></trkpt><trkpt lat="44.4341967" lon="11.1630517"><ele>345.5</ele><time>2026-04-11T17:59:13.654Z</time></trkpt><trkpt lat="44.4342652" lon="11.1629898"><ele>346.0</ele><time>2026-04-11T17:59:14.653Z</time></trkpt><trkpt lat="44.4343323" lon="11.1629364"><ele>346.5</ele><time>2026-04-11T17:59:15.654Z</time></trkpt><trkpt lat="44.4343975" lon="11.1628822"><ele>347.0</ele><time>2026-04-11T17:59:16.654Z</time></trkpt><trkpt lat="44.4344682" lon="11.1628343"><ele>347.0</ele><time>2026-04-11T17:59:17.654Z</time></trkpt><trkpt lat="44.4345406" lon="11.1627862"><ele>347.0</ele><time>2026-04-11T17:59:18.654Z</time></trkpt><trkpt lat="44.4346087" lon="11.1627301"><ele>347.0</ele><time>2026-04-11T17:59:19.654Z</time></trkpt><trkpt lat="44.4346753" lon="11.1626704"><ele>347.0</ele><time>2026-04-11T17:59:20.653Z</time></trkpt><trkpt lat="44.4347283" lon="11.1626041"><ele>347.0</ele><time>2026-04-11T17:59:21.654Z</time></trkpt><trkpt lat="44.4347717" lon="11.1625307"><ele>347.0</ele><time>2026-04-11T17:59:22.653Z</time></trkpt><trkpt lat="44.4348048" lon="11.1624516"><ele>347.0</ele><time>2026-04-11T17:59:23.654Z</time></trkpt><trkpt lat="44.434826" lon="11.1622738"><ele>341.40000000000003</ele><time>2026-04-11T17:59:25.654Z</time></trkpt><trkpt lat="44.4348241" lon="11.1621694"><ele>335.8</ele><time>2026-04-11T17:59:26.654Z</time></trkpt><trkpt lat="44.4348222" lon="11.1620712"><ele>330.2</ele><time>2026-04-11T17:59:27.654Z</time></trkpt><trkpt lat="44.4348165" lon="11.1619787"><ele>324.6</ele><time>2026-04-11T17:59:28.654Z</time></trkpt><trkpt lat="44.4348021" lon="11.161806"><ele>319.0</ele><time>2026-04-11T17:59:30.654Z</time></trkpt><trkpt lat="44.4348004" lon="11.1616369"><ele>320.75</ele><time>2026-04-11T17:59:32.653Z</time></trkpt><trkpt lat="44.4348157" lon="11.1614745"><ele>322.5</ele><time>2026-04-11T17:59:34.653Z</time></trkpt><trkpt lat="44.4348596" lon="11.1613356"><ele>324.25</ele><time>2026-04-11T17:59:36.653Z</time></trkpt><trkpt lat="44.4349254" lon="11.1612004"><ele>326.0</ele><time>2026-04-11T17:59:38.653Z</time></trkpt><trkpt lat="44.4350024" lon="11.161082"><ele>326.0</ele><time>2026-04-11T17:59:40.654Z</time></trkpt><trkpt lat="44.43508" lon="11.1609561"><ele>326.0</ele><time>2026-04-11T17:59:42.654Z</time></trkpt><trkpt lat="44.4351501" lon="11.1608301"><ele>326.0</ele><time>2026-04-11T17:59:44.654Z</time></trkpt><trkpt lat="44.4352068" lon="11.1607134"><ele>326.0</ele><time>2026-04-11T17:59:46.654Z</time></trkpt><trkpt lat="44.4352569" lon="11.160584"><ele>326.0</ele><time>2026-04-11T17:59:48.654Z</time></trkpt><trkpt lat="44.4353083" lon="11.1604581"><ele>325.5</ele><time>2026-04-11T17:59:50.654Z</time></trkpt><trkpt lat="44.4353658" lon="11.1603611"><ele>325.0</ele><time>2026-04-11T17:59:52.654Z</time></trkpt><trkpt lat="44.4354366" lon="11.1602906"><ele>324.5</ele><time>2026-04-11T17:59:54.653Z</time></trkpt><trkpt lat="44.4355039" lon="11.1602448"><ele>324.0</ele><time>2026-04-11T17:59:56.653Z</time></trkpt><trkpt lat="44.4355679" lon="11.1602114"><ele>323.5</ele><time>2026-04-11T18:00:12.654Z</time></trkpt><trkpt lat="44.4356393" lon="11.1601831"><ele>323.0</ele><time>2026-04-11T18:00:19.654Z</time></trkpt><trkpt lat="44.4357153" lon="11.1601427"><ele>322.2</ele><time>2026-04-11T18:00:21.653Z</time></trkpt><trkpt lat="44.4358176" lon="11.160054"><ele>321.4</ele><time>2026-04-11T18:00:23.654Z</time></trkpt><trkpt lat="44.4358745" lon="11.1599811"><ele>320.59999999999997</ele><time>2026-04-11T18:00:24.653Z</time></trkpt><trkpt lat="44.4359502" lon="11.159904"><ele>319.79999999999995</ele><time>2026-04-11T18:00:26.654Z</time></trkpt><trkpt lat="44.4360653" lon="11.1599461"><ele>319.0</ele><time>2026-04-11T18:00:28.654Z</time></trkpt><trkpt lat="44.4361391" lon="11.1599709"><ele>319.0</ele><time>2026-04-11T18:00:29.654Z</time></trkpt><trkpt lat="44.436231" lon="11.1599748"><ele>319.0</ele><time>2026-04-11T18:00:30.653Z</time></trkpt><trkpt lat="44.4363216" lon="11.1599535"><ele>319.0</ele><time>2026-04-11T18:00:31.654Z</time></trkpt><trkpt lat="44.4364175" lon="11.1598959"><ele>319.0</ele><time>2026-04-11T18:00:32.654Z</time></trkpt><trkpt lat="44.4365006" lon="11.1597913"><ele>319.0</ele><time>2026-04-11T18:00:33.653Z</time></trkpt><trkpt lat="44.4365873" lon="11.1597262"><ele>321.4</ele><time>2026-04-11T18:00:34.654Z</time></trkpt><trkpt lat="44.4366744" lon="11.1596999"><ele>323.79999999999995</ele><time>2026-04-11T18:00:35.654Z</time></trkpt><trkpt lat="44.4367707" lon="11.1596991"><ele>326.20000000000005</ele><time>2026-04-11T18:00:36.654Z</time></trkpt><trkpt lat="44.4368808" lon="11.1597237"><ele>328.6</ele><time>2026-04-11T18:00:37.654Z</time></trkpt><trkpt lat="44.4370161" lon="11.1598154"><ele>331.0</ele><time>2026-04-11T18:00:38.654Z</time></trkpt><trkpt lat="44.4371481" lon="11.1598917"><ele>332.5</ele><time>2026-04-11T18:00:39.654Z</time></trkpt><trkpt lat="44.4372784" lon="11.1599664"><ele>334.0</ele><time>2026-04-11T18:00:40.654Z</time></trkpt><trkpt lat="44.4374058" lon="11.1600408"><ele>335.5</ele><time>2026-04-11T18:00:41.654Z</time></trkpt><trkpt lat="44.4375405" lon="11.1601319"><ele>337.0</ele><time>2026-04-11T18:00:42.654Z</time></trkpt><trkpt lat="44.4376704" lon="11.1602269"><ele>337.0</ele><time>2026-04-11T18:00:43.654Z</time></trkpt><trkpt lat="44.4378024" lon="11.1603139"><ele>337.0</ele><time>2026-04-11T18:00:44.654Z</time></trkpt><trkpt lat="44.4379409" lon="11.1604114"><ele>337.0</ele><time>2026-04-11T18:00:45.654Z</time></trkpt><trkpt lat="44.4380938" lon="11.1604945"><ele>343.66666666666663</ele><time>2026-04-11T18:00:46.654Z</time></trkpt><trkpt lat="44.4382487" lon="11.1605652"><ele>350.3333333333333</ele><time>2026-04-11T18:00:47.654Z</time></trkpt><trkpt lat="44.438396" lon="11.1606029"><ele>357.0</ele><time>2026-04-11T18:00:48.654Z</time></trkpt><trkpt lat="44.4385343" lon="11.1606113"><ele>357.0</ele><time>2026-04-11T18:00:49.654Z</time></trkpt><trkpt lat="44.438669" lon="11.1606115"><ele>357.0</ele><time>2026-04-11T18:00:50.654Z</time></trkpt><trkpt lat="44.4388091" lon="11.160602"><ele>357.0</ele><time>2026-04-11T18:00:51.654Z</time></trkpt><trkpt lat="44.4389477" lon="11.1605902"><ele>357.0</ele><time>2026-04-11T18:00:52.654Z</time></trkpt><trkpt lat="44.4390718" lon="11.16057"><ele>357.75</ele><time>2026-04-11T18:00:53.654Z</time></trkpt><trkpt lat="44.4391935" lon="11.1605602"><ele>358.5</ele><time>2026-04-11T18:00:54.654Z</time></trkpt><trkpt lat="44.4392911" lon="11.1606135"><ele>359.25</ele><time>2026-04-11T18:00:55.654Z</time></trkpt><trkpt lat="44.4394136" lon="11.1606579"><ele>360.0</ele><time>2026-04-11T18:00:56.654Z</time></trkpt><trkpt lat="44.439535" lon="11.1607362"><ele>357.25</ele><time>2026-04-11T18:00:57.653Z</time></trkpt><trkpt lat="44.4396496" lon="11.1608108"><ele>354.5</ele><time>2026-04-11T18:00:58.654Z</time></trkpt><trkpt lat="44.4397696" lon="11.1608229"><ele>351.75</ele><time>2026-04-11T18:00:59.653Z</time></trkpt><trkpt lat="44.4399006" lon="11.1608519"><ele>349.0</ele><time>2026-04-11T18:01:00.654Z</time></trkpt><trkpt lat="44.440029" lon="11.1608566"><ele>349.0</ele><time>2026-04-11T18:01:01.654Z</time></trkpt><trkpt lat="44.4401452" lon="11.1608693"><ele>349.0</ele><time>2026-04-11T18:01:02.654Z</time></trkpt><trkpt lat="44.4402541" lon="11.160903"><ele>349.0</ele><time>2026-04-11T18:01:03.654Z</time></trkpt><trkpt lat="44.4403518" lon="11.1609438"><ele>349.0</ele><time>2026-04-11T18:01:04.654Z</time></trkpt><trkpt lat="44.4404252" lon="11.1610153"><ele>349.0</ele><time>2026-04-11T18:01:05.654Z</time></trkpt><trkpt lat="44.4404878" lon="11.1611099"><ele>347.79999999999995</ele><time>2026-04-11T18:01:06.654Z</time></trkpt><trkpt lat="44.4405581" lon="11.1612006"><ele>346.59999999999997</ele><time>2026-04-11T18:01:07.653Z</time></trkpt><trkpt lat="44.4406372" lon="11.1612752"><ele>345.4</ele><time>2026-04-11T18:01:08.654Z</time></trkpt><trkpt lat="44.4407396" lon="11.1612802"><ele>344.2</ele><time>2026-04-11T18:01:09.653Z</time></trkpt><trkpt lat="44.4408423" lon="11.161276"><ele>343.0</ele><time>2026-04-11T18:01:10.654Z</time></trkpt><trkpt lat="44.4409504" lon="11.161246"><ele>343.0</ele><time>2026-04-11T18:01:11.654Z</time></trkpt><trkpt lat="44.4410742" lon="11.1612391"><ele>343.0</ele><time>2026-04-11T18:01:12.654Z</time></trkpt><trkpt lat="44.4411964" lon="11.1612425"><ele>343.0</ele><time>2026-04-11T18:01:13.654Z</time></trkpt><trkpt lat="44.4413085" lon="11.1612736"><ele>343.0</ele><time>2026-04-11T18:01:14.654Z</time></trkpt><trkpt lat="44.4414176" lon="11.161283"><ele>341.0</ele><time>2026-04-11T18:01:15.654Z</time></trkpt><trkpt lat="44.4415222" lon="11.161339"><ele>339.0</ele><time>2026-04-11T18:01:16.654Z</time></trkpt><trkpt lat="44.4416208" lon="11.1614019"><ele>337.0</ele><time>2026-04-11T18:01:17.653Z</time></trkpt><trkpt lat="44.4417184" lon="11.161467"><ele>335.0</ele><time>2026-04-11T18:01:18.653Z</time></trkpt><trkpt lat="44.4417946" lon="11.1615725"><ele>333.0</ele><time>2026-04-11T18:01:19.654Z</time></trkpt><trkpt lat="44.4418749" lon="11.1616954"><ele>333.0</ele><time>2026-04-11T18:01:20.654Z</time></trkpt><trkpt lat="44.4419547" lon="11.1618523"><ele>333.0</ele><time>2026-04-11T18:01:21.654Z</time></trkpt><trkpt lat="44.442031" lon="11.1619952"><ele>333.0</ele><time>2026-04-11T18:01:22.654Z</time></trkpt><trkpt lat="44.4421177" lon="11.162106"><ele>333.0</ele><time>2026-04-11T18:01:23.654Z</time></trkpt><trkpt lat="44.4422126" lon="11.1622151"><ele>336.25</ele><time>2026-04-11T18:01:24.654Z</time></trkpt><trkpt lat="44.4423006" lon="11.162332"><ele>339.5</ele><time>2026-04-11T18:01:25.654Z</time></trkpt><trkpt lat="44.4424039" lon="11.1624846"><ele>342.75</ele><time>2026-04-11T18:01:26.654Z</time></trkpt><trkpt lat="44.4424957" lon="11.1626238"><ele>346.0</ele><time>2026-04-11T18:01:27.654Z</time></trkpt><trkpt lat="44.4425955" lon="11.1627589"><ele>346.25</ele><time>2026-04-11T18:01:28.654Z</time></trkpt><trkpt lat="44.442689" lon="11.1628826"><ele>346.5</ele><time>2026-04-11T18:01:29.654Z</time></trkpt><trkpt lat="44.4427992" lon="11.1630275"><ele>346.75</ele><time>2026-04-11T18:01:30.654Z</time></trkpt><trkpt lat="44.4428986" lon="11.1631555"><ele>347.0</ele><time>2026-04-11T18:01:31.654Z</time></trkpt><trkpt lat="44.4430085" lon="11.1632744"><ele>349.75</ele><time>2026-04-11T18:01:32.654Z</time></trkpt><trkpt lat="44.4431201" lon="11.1633995"><ele>352.5</ele><time>2026-04-11T18:01:33.654Z</time></trkpt><trkpt lat="44.4432222" lon="11.1635104"><ele>355.25</ele><time>2026-04-11T18:01:34.653Z</time></trkpt><trkpt lat="44.4433134" lon="11.1636057"><ele>358.0</ele><time>2026-04-11T18:01:35.654Z</time></trkpt><trkpt lat="44.4434146" lon="11.1636571"><ele>358.0</ele><time>2026-04-11T18:01:36.654Z</time></trkpt><trkpt lat="44.4435172" lon="11.1637096"><ele>358.0</ele><time>2026-04-11T18:01:37.654Z</time></trkpt><trkpt lat="44.4436258" lon="11.1637589"><ele>358.0</ele><time>2026-04-11T18:01:38.653Z</time></trkpt><trkpt lat="44.4437398" lon="11.1637854"><ele>358.0</ele><time>2026-04-11T18:01:39.654Z</time></trkpt><trkpt lat="44.4438486" lon="11.1638179"><ele>359.0</ele><time>2026-04-11T18:01:40.654Z</time></trkpt><trkpt lat="44.4439639" lon="11.1638538"><ele>360.0</ele><time>2026-04-11T18:01:41.654Z</time></trkpt><trkpt lat="44.4440713" lon="11.163879"><ele>361.0</ele><time>2026-04-11T18:01:42.654Z</time></trkpt><trkpt lat="44.4442527" lon="11.1640266"><ele>362.0</ele><time>2026-04-11T18:01:44.654Z</time></trkpt><trkpt lat="44.4443206" lon="11.1641097"><ele>359.5</ele><time>2026-04-11T18:01:45.654Z</time></trkpt><trkpt lat="44.4443798" lon="11.1642027"><ele>357.0</ele><time>2026-04-11T18:01:46.654Z</time></trkpt><trkpt lat="44.4444105" lon="11.1642992"><ele>354.5</ele><time>2026-04-11T18:01:47.654Z</time></trkpt><trkpt lat="44.4444207" lon="11.1643948"><ele>352.0</ele><time>2026-04-11T18:01:48.654Z</time></trkpt><trkpt lat="44.4444025" lon="11.1645173"><ele>349.5</ele><time>2026-04-11T18:01:49.654Z</time></trkpt><trkpt lat="44.4443748" lon="11.1646038"><ele>347.0</ele><time>2026-04-11T18:01:50.654Z</time></trkpt><trkpt lat="44.4443324" lon="11.1647077"><ele>347.0</ele><time>2026-04-11T18:01:51.654Z</time></trkpt><trkpt lat="44.4443017" lon="11.1648277"><ele>347.0</ele><time>2026-04-11T18:01:52.654Z</time></trkpt><trkpt lat="44.4442716" lon="11.1649319"><ele>347.0</ele><time>2026-04-11T18:01:53.654Z</time></trkpt><trkpt lat="44.4442654" lon="11.1650742"><ele>347.0</ele><time>2026-04-11T18:01:54.654Z</time></trkpt><trkpt lat="44.4442851" lon="11.1651955"><ele>347.0</ele><time>2026-04-11T18:01:55.654Z</time></trkpt><trkpt lat="44.4443265" lon="11.1653201"><ele>344.75</ele><time>2026-04-11T18:01:56.653Z</time></trkpt><trkpt lat="44.4443909" lon="11.1654681"><ele>342.5</ele><time>2026-04-11T18:01:57.654Z</time></trkpt><trkpt lat="44.4444827" lon="11.1656432"><ele>340.25</ele><time>2026-04-11T18:01:58.654Z</time></trkpt><trkpt lat="44.4445682" lon="11.1658189"><ele>338.0</ele><time>2026-04-11T18:01:59.654Z</time></trkpt><trkpt lat="44.4446481" lon="11.165983"><ele>338.0</ele><time>2026-04-11T18:02:00.654Z</time></trkpt><trkpt lat="44.444727" lon="11.1661306"><ele>338.0</ele><time>2026-04-11T18:02:01.653Z</time></trkpt><trkpt lat="44.4447928" lon="11.166276"><ele>338.0</ele><time>2026-04-11T18:02:02.654Z</time></trkpt><trkpt lat="44.4448452" lon="11.1664135"><ele>338.0</ele><time>2026-04-11T18:02:03.654Z</time></trkpt><trkpt lat="44.4448915" lon="11.1665705"><ele>337.25</ele><time>2026-04-11T18:02:04.654Z</time></trkpt><trkpt lat="44.4449404" lon="11.1667278"><ele>336.5</ele><time>2026-04-11T18:02:05.654Z</time></trkpt><trkpt lat="44.4449986" lon="11.1668801"><ele>335.75</ele><time>2026-04-11T18:02:06.654Z</time></trkpt><trkpt lat="44.4450555" lon="11.1670197"><ele>335.0</ele><time>2026-04-11T18:02:07.654Z</time></trkpt><trkpt lat="44.445133" lon="11.1671649"><ele>335.0</ele><time>2026-04-11T18:02:08.654Z</time></trkpt><trkpt lat="44.4452242" lon="11.1673104"><ele>335.0</ele><time>2026-04-11T18:02:09.654Z</time></trkpt><trkpt lat="44.4453244" lon="11.1674546"><ele>335.0</ele><time>2026-04-11T18:02:10.653Z</time></trkpt><trkpt lat="44.4454203" lon="11.1675965"><ele>335.0</ele><time>2026-04-11T18:02:11.654Z</time></trkpt><trkpt lat="44.4455093" lon="11.1677393"><ele>337.0</ele><time>2026-04-11T18:02:12.654Z</time></trkpt><trkpt lat="44.4455752" lon="11.1678855"><ele>339.0</ele><time>2026-04-11T18:02:13.654Z</time></trkpt><trkpt lat="44.4456353" lon="11.168032"><ele>341.0</ele><time>2026-04-11T18:02:14.654Z</time></trkpt><trkpt lat="44.4456926" lon="11.1681903"><ele>343.0</ele><time>2026-04-11T18:02:15.654Z</time></trkpt><trkpt lat="44.4457407" lon="11.1683214"><ele>343.0</ele><time>2026-04-11T18:02:16.653Z</time></trkpt><trkpt lat="44.4457821" lon="11.1684136"><ele>343.0</ele><time>2026-04-11T18:02:17.654Z</time></trkpt><trkpt lat="44.4458475" lon="11.1685006"><ele>343.0</ele><time>2026-04-11T18:02:18.654Z</time></trkpt><trkpt lat="44.4459126" lon="11.1685791"><ele>343.0</ele><time>2026-04-11T18:02:19.654Z</time></trkpt><trkpt lat="44.4460702" lon="11.1686895"><ele>343.0</ele><time>2026-04-11T18:02:21.654Z</time></trkpt><trkpt lat="44.4461784" lon="11.1687536"><ele>341.75</ele><time>2026-04-11T18:02:22.654Z</time></trkpt><trkpt lat="44.4462952" lon="11.1688296"><ele>340.5</ele><time>2026-04-11T18:02:23.654Z</time></trkpt><trkpt lat="44.4464097" lon="11.1689125"><ele>339.25</ele><time>2026-04-11T18:02:24.653Z</time></trkpt><trkpt lat="44.4465108" lon="11.1689896"><ele>338.0</ele><time>2026-04-11T18:02:25.654Z</time></trkpt><trkpt lat="44.4466118" lon="11.1690576"><ele>338.0</ele><time>2026-04-11T18:02:26.654Z</time></trkpt><trkpt lat="44.4467129" lon="11.1691323"><ele>338.0</ele><time>2026-04-11T18:02:27.653Z</time></trkpt><trkpt lat="44.446796" lon="11.1692105"><ele>338.0</ele><time>2026-04-11T18:02:28.654Z</time></trkpt><trkpt lat="44.4468559" lon="11.1693019"><ele>338.0</ele><time>2026-04-11T18:02:29.654Z</time></trkpt><trkpt lat="44.4469126" lon="11.1694242"><ele>338.0</ele><time>2026-04-11T18:02:30.654Z</time></trkpt><trkpt lat="44.4469485" lon="11.169579"><ele>338.0</ele><time>2026-04-11T18:02:31.653Z</time></trkpt><trkpt lat="44.4469907" lon="11.1697505"><ele>338.0</ele><time>2026-04-11T18:02:32.654Z</time></trkpt><trkpt lat="44.4470167" lon="11.1699278"><ele>338.0</ele><time>2026-04-11T18:02:33.654Z</time></trkpt><trkpt lat="44.4470341" lon="11.1700836"><ele>338.0</ele><time>2026-04-11T18:02:34.654Z</time></trkpt><trkpt lat="44.4470582" lon="11.1701989"><ele>336.59999999999997</ele><time>2026-04-11T18:02:35.653Z</time></trkpt><trkpt lat="44.4471091" lon="11.1703101"><ele>335.2</ele><time>2026-04-11T18:02:36.653Z</time></trkpt><trkpt lat="44.4471789" lon="11.170408"><ele>333.8</ele><time>2026-04-11T18:02:37.653Z</time></trkpt><trkpt lat="44.447252" lon="11.1704643"><ele>332.4</ele><time>2026-04-11T18:02:38.654Z</time></trkpt><trkpt lat="44.4473605" lon="11.1705222"><ele>331.0</ele><time>2026-04-11T18:02:39.654Z</time></trkpt><trkpt lat="44.4474865" lon="11.1705711"><ele>334.0</ele><time>2026-04-11T18:02:40.653Z</time></trkpt><trkpt lat="44.4476204" lon="11.1706437"><ele>337.0</ele><time>2026-04-11T18:02:41.654Z</time></trkpt><trkpt lat="44.4477548" lon="11.1707027"><ele>340.0</ele><time>2026-04-11T18:02:42.654Z</time></trkpt><trkpt lat="44.4478749" lon="11.1707694"><ele>343.0</ele><time>2026-04-11T18:02:43.654Z</time></trkpt><trkpt lat="44.4479911" lon="11.1708381"><ele>353.66666666666663</ele><time>2026-04-11T18:02:44.654Z</time></trkpt><trkpt lat="44.4480776" lon="11.1709565"><ele>364.3333333333333</ele><time>2026-04-11T18:02:45.654Z</time></trkpt><trkpt lat="44.4482629" lon="11.1712077"><ele>375.0</ele><time>2026-04-11T18:02:47.654Z</time></trkpt><trkpt lat="44.4483498" lon="11.1713485"><ele>375.0</ele><time>2026-04-11T18:02:48.653Z</time></trkpt><trkpt lat="44.4484336" lon="11.1714669"><ele>375.0</ele><time>2026-04-11T18:02:49.654Z</time></trkpt><trkpt lat="44.4485174" lon="11.1715803"><ele>375.0</ele><time>2026-04-11T18:02:50.654Z</time></trkpt><trkpt lat="44.4485882" lon="11.1717324"><ele>375.0</ele><time>2026-04-11T18:02:51.654Z</time></trkpt><trkpt lat="44.4486475" lon="11.1718509"><ele>369.2</ele><time>2026-04-11T18:02:52.654Z</time></trkpt><trkpt lat="44.4486797" lon="11.171977"><ele>363.4</ele><time>2026-04-11T18:02:53.654Z</time></trkpt><trkpt lat="44.4487121" lon="11.1721251"><ele>357.6</ele><time>2026-04-11T18:02:54.654Z</time></trkpt><trkpt lat="44.4487386" lon="11.1722788"><ele>351.8</ele><time>2026-04-11T18:02:55.654Z</time></trkpt><trkpt lat="44.4487337" lon="11.1724386"><ele>346.0</ele><time>2026-04-11T18:02:56.654Z</time></trkpt><trkpt lat="44.4487368" lon="11.1725851"><ele>344.8</ele><time>2026-04-11T18:02:57.654Z</time></trkpt><trkpt lat="44.4487435" lon="11.1727283"><ele>343.6</ele><time>2026-04-11T18:02:58.654Z</time></trkpt><trkpt lat="44.4487367" lon="11.1728737"><ele>342.4</ele><time>2026-04-11T18:02:59.653Z</time></trkpt><trkpt lat="44.4487295" lon="11.1729925"><ele>341.2</ele><time>2026-04-11T18:03:00.654Z</time></trkpt><trkpt lat="44.4487194" lon="11.1730817"><ele>340.0</ele><time>2026-04-11T18:03:01.654Z</time></trkpt><trkpt lat="44.4486703" lon="11.1732102"><ele>340.0</ele><time>2026-04-11T18:03:02.654Z</time></trkpt><trkpt lat="44.4485918" lon="11.1733147"><ele>340.0</ele><time>2026-04-11T18:03:03.653Z</time></trkpt><trkpt lat="44.4485163" lon="11.173403"><ele>340.0</ele><time>2026-04-11T18:03:04.654Z</time></trkpt><trkpt lat="44.4484322" lon="11.1734618"><ele>340.0</ele><time>2026-04-11T18:03:05.654Z</time></trkpt><trkpt lat="44.4483782" lon="11.1735313"><ele>340.0</ele><time>2026-04-11T18:03:06.654Z</time></trkpt><trkpt lat="44.4483116" lon="11.1736058"><ele>340.0</ele><time>2026-04-11T18:03:07.654Z</time></trkpt><trkpt lat="44.4482329" lon="11.1737317"><ele>340.0</ele><time>2026-04-11T18:03:09.654Z</time></trkpt><trkpt lat="44.4481783" lon="11.1737848"><ele>340.0</ele><time>2026-04-11T18:03:10.654Z</time></trkpt><trkpt lat="44.4480799" lon="11.173866"><ele>340.0</ele><time>2026-04-11T18:03:12.653Z</time></trkpt><trkpt lat="44.4479744" lon="11.1739089"><ele>340.0</ele><time>2026-04-11T18:03:14.654Z</time></trkpt><trkpt lat="44.447887" lon="11.1739199"><ele>338.4</ele><time>2026-04-11T18:03:16.654Z</time></trkpt><trkpt lat="44.4478164" lon="11.1739655"><ele>336.8</ele><time>2026-04-11T18:04:12.653Z</time></trkpt><trkpt lat="44.4478181" lon="11.1740674"><ele>335.20000000000005</ele><time>2026-04-11T18:04:15.654Z</time></trkpt><trkpt lat="44.4479003" lon="11.1741993"><ele>333.6</ele><time>2026-04-11T18:04:17.653Z</time></trkpt><trkpt lat="44.4479569" lon="11.1742723"><ele>332.0</ele><time>2026-04-11T18:04:18.654Z</time></trkpt><trkpt lat="44.4480558" lon="11.1743335"><ele>336.25</ele><time>2026-04-11T18:04:19.654Z</time></trkpt><trkpt lat="44.4481566" lon="11.1743959"><ele>340.5</ele><time>2026-04-11T18:04:20.654Z</time></trkpt><trkpt lat="44.4482626" lon="11.1744587"><ele>344.75</ele><time>2026-04-11T18:04:21.654Z</time></trkpt><trkpt lat="44.4483703" lon="11.1745239"><ele>349.0</ele><time>2026-04-11T18:04:22.654Z</time></trkpt><trkpt lat="44.4484882" lon="11.1745912"><ele>349.0</ele><time>2026-04-11T18:04:23.654Z</time></trkpt><trkpt lat="44.448612" lon="11.1746781"><ele>349.0</ele><time>2026-04-11T18:04:24.654Z</time></trkpt><trkpt lat="44.4487256" lon="11.1747651"><ele>349.0</ele><time>2026-04-11T18:04:25.653Z</time></trkpt><trkpt lat="44.4488461" lon="11.1748457"><ele>349.0</ele><time>2026-04-11T18:04:26.653Z</time></trkpt><trkpt lat="44.4489629" lon="11.174892"><ele>349.0</ele><time>2026-04-11T18:04:27.654Z</time></trkpt><trkpt lat="44.4490827" lon="11.1749462"><ele>349.0</ele><time>2026-04-11T18:04:28.654Z</time></trkpt><trkpt lat="44.4492032" lon="11.1749704"><ele>349.0</ele><time>2026-04-11T18:04:29.654Z</time></trkpt><trkpt lat="44.4493153" lon="11.1749933"><ele>349.0</ele><time>2026-04-11T18:04:30.654Z</time></trkpt><trkpt lat="44.4494373" lon="11.1750098"><ele>349.0</ele><time>2026-04-11T18:04:31.653Z</time></trkpt><trkpt lat="44.4495396" lon="11.1750225"><ele>349.0</ele><time>2026-04-11T18:04:32.654Z</time></trkpt><trkpt lat="44.4496313" lon="11.1750352"><ele>349.0</ele><time>2026-04-11T18:04:33.654Z</time></trkpt><trkpt lat="44.4497215" lon="11.1750499"><ele>349.0</ele><time>2026-04-11T18:04:34.654Z</time></trkpt><trkpt lat="44.4498575" lon="11.1750558"><ele>349.0</ele><time>2026-04-11T18:04:36.654Z</time></trkpt><trkpt lat="44.4499537" lon="11.1750808"><ele>350.4</ele><time>2026-04-11T18:04:38.654Z</time></trkpt><trkpt lat="44.450022" lon="11.1750665"><ele>351.79999999999995</ele><time>2026-04-11T18:04:40.653Z</time></trkpt><trkpt lat="44.4500602" lon="11.174959"><ele>353.20000000000005</ele><time>2026-04-11T18:04:43.654Z</time></trkpt><trkpt lat="44.4500994" lon="11.1748507"><ele>354.6</ele><time>2026-04-11T18:04:46.654Z</time></trkpt><trkpt lat="44.4501736" lon="11.1747505"><ele>356.0</ele><time>2026-04-11T18:04:48.654Z</time></trkpt><trkpt lat="44.4503061" lon="11.1746214"><ele>357.75</ele><time>2026-04-11T18:04:50.654Z</time></trkpt><trkpt lat="44.4504072" lon="11.1744811"><ele>359.5</ele><time>2026-04-11T18:04:51.654Z</time></trkpt><trkpt lat="44.4505015" lon="11.1743406"><ele>361.25</ele><time>2026-04-11T18:04:52.653Z</time></trkpt><trkpt lat="44.450594" lon="11.1742135"><ele>363.0</ele><time>2026-04-11T18:04:53.654Z</time></trkpt><trkpt lat="44.4506865" lon="11.1740588"><ele>361.0</ele><time>2026-04-11T18:04:54.654Z</time></trkpt><trkpt lat="44.450785" lon="11.1739368"><ele>359.0</ele><time>2026-04-11T18:04:55.654Z</time></trkpt><trkpt lat="44.4508964" lon="11.1738249"><ele>357.0</ele><time>2026-04-11T18:04:56.654Z</time></trkpt><trkpt lat="44.4510132" lon="11.1737334"><ele>355.0</ele><time>2026-04-11T18:04:57.654Z</time></trkpt><trkpt lat="44.4511329" lon="11.1736646"><ele>355.0</ele><time>2026-04-11T18:04:58.654Z</time></trkpt><trkpt lat="44.4512538" lon="11.1735942"><ele>355.0</ele><time>2026-04-11T18:04:59.654Z</time></trkpt><trkpt lat="44.4513626" lon="11.1734992"><ele>355.0</ele><time>2026-04-11T18:05:00.654Z</time></trkpt><trkpt lat="44.4514657" lon="11.1733895"><ele>355.0</ele><time>2026-04-11T18:05:01.654Z</time></trkpt><trkpt lat="44.4515592" lon="11.1732753"><ele>350.0</ele><time>2026-04-11T18:05:02.654Z</time></trkpt><trkpt lat="44.4516511" lon="11.1731656"><ele>345.0</ele><time>2026-04-11T18:05:03.654Z</time></trkpt><trkpt lat="44.4517459" lon="11.173059"><ele>340.0</ele><time>2026-04-11T18:05:04.654Z</time></trkpt><trkpt lat="44.4518495" lon="11.1729797"><ele>335.0</ele><time>2026-04-11T18:05:05.654Z</time></trkpt><trkpt lat="44.4519621" lon="11.1729151"><ele>335.0</ele><time>2026-04-11T18:05:06.654Z</time></trkpt><trkpt lat="44.452075" lon="11.1728529"><ele>335.0</ele><time>2026-04-11T18:05:07.654Z</time></trkpt><trkpt lat="44.4521728" lon="11.1727454"><ele>335.0</ele><time>2026-04-11T18:05:08.654Z</time></trkpt><trkpt lat="44.4522619" lon="11.1726289"><ele>335.0</ele><time>2026-04-11T18:05:09.654Z</time></trkpt><trkpt lat="44.4523631" lon="11.1725365"><ele>334.4</ele><time>2026-04-11T18:05:10.654Z</time></trkpt><trkpt lat="44.4524633" lon="11.1724687"><ele>333.8</ele><time>2026-04-11T18:05:11.654Z</time></trkpt><trkpt lat="44.4525735" lon="11.1724205"><ele>333.20000000000005</ele><time>2026-04-11T18:05:12.654Z</time></trkpt><trkpt lat="44.4526822" lon="11.1723831"><ele>332.6</ele><time>2026-04-11T18:05:13.654Z</time></trkpt><trkpt lat="44.4527823" lon="11.1723437"><ele>332.0</ele><time>2026-04-11T18:05:14.653Z</time></trkpt><trkpt lat="44.4528641" lon="11.172308"><ele>328.5</ele><time>2026-04-11T18:05:15.654Z</time></trkpt><trkpt lat="44.4529301" lon="11.1722765"><ele>325.0</ele><time>2026-04-11T18:05:16.654Z</time></trkpt><trkpt lat="44.4529979" lon="11.1722481"><ele>321.5</ele><time>2026-04-11T18:05:17.654Z</time></trkpt><trkpt lat="44.4531171" lon="11.1721975"><ele>318.0</ele><time>2026-04-11T18:05:19.654Z</time></trkpt><trkpt lat="44.4531893" lon="11.172196"><ele>314.5</ele><time>2026-04-11T18:05:20.654Z</time></trkpt><trkpt lat="44.4532787" lon="11.1722085"><ele>311.0</ele><time>2026-04-11T18:05:21.654Z</time></trkpt><trkpt lat="44.4533545" lon="11.1722323"><ele>309.5</ele><time>2026-04-11T18:05:22.654Z</time></trkpt><trkpt lat="44.4534318" lon="11.1722484"><ele>308.0</ele><time>2026-04-11T18:05:23.654Z</time></trkpt><trkpt lat="44.4535155" lon="11.1722636"><ele>306.5</ele><time>2026-04-11T18:05:24.654Z</time></trkpt><trkpt lat="44.4536015" lon="11.1722825"><ele>305.0</ele><time>2026-04-11T18:05:25.654Z</time></trkpt><trkpt lat="44.4536844" lon="11.17231"><ele>303.5</ele><time>2026-04-11T18:05:26.654Z</time></trkpt><trkpt lat="44.4537688" lon="11.172342"><ele>302.0</ele><time>2026-04-11T18:05:27.654Z</time></trkpt><trkpt lat="44.4538579" lon="11.1723829"><ele>300.25</ele><time>2026-04-11T18:05:28.654Z</time></trkpt><trkpt lat="44.4539523" lon="11.1724317"><ele>298.5</ele><time>2026-04-11T18:05:29.654Z</time></trkpt><trkpt lat="44.4540561" lon="11.1724878"><ele>296.75</ele><time>2026-04-11T18:05:30.654Z</time></trkpt><trkpt lat="44.4541699" lon="11.1725487"><ele>295.0</ele><time>2026-04-11T18:05:31.654Z</time></trkpt><trkpt lat="44.4542845" lon="11.1726085"><ele>295.0</ele><time>2026-04-11T18:05:32.654Z</time></trkpt><trkpt lat="44.4544059" lon="11.1726583"><ele>295.0</ele><time>2026-04-11T18:05:33.654Z</time></trkpt><trkpt lat="44.4545396" lon="11.1726865"><ele>295.0</ele><time>2026-04-11T18:05:34.654Z</time></trkpt><trkpt lat="44.4546612" lon="11.1726856"><ele>295.0</ele><time>2026-04-11T18:05:35.653Z</time></trkpt><trkpt lat="44.4547963" lon="11.1726624"><ele>291.0</ele><time>2026-04-11T18:05:36.654Z</time></trkpt><trkpt lat="44.4549258" lon="11.1726368"><ele>287.0</ele><time>2026-04-11T18:05:37.654Z</time></trkpt><trkpt lat="44.4550457" lon="11.1726018"><ele>283.0</ele><time>2026-04-11T18:05:38.654Z</time></trkpt><trkpt lat="44.4551641" lon="11.1725737"><ele>279.0</ele><time>2026-04-11T18:05:39.654Z</time></trkpt><trkpt lat="44.455282" lon="11.1725493"><ele>279.0</ele><time>2026-04-11T18:05:40.654Z</time></trkpt><trkpt lat="44.4553928" lon="11.172524"><ele>279.0</ele><time>2026-04-11T18:05:41.654Z</time></trkpt><trkpt lat="44.4554901" lon="11.1724982"><ele>279.0</ele><time>2026-04-11T18:05:42.653Z</time></trkpt><trkpt lat="44.4555974" lon="11.1724811"><ele>279.0</ele><time>2026-04-11T18:05:43.653Z</time></trkpt><trkpt lat="44.4557045" lon="11.172465"><ele>279.0</ele><time>2026-04-11T18:05:44.654Z</time></trkpt><trkpt lat="44.4558055" lon="11.172444"><ele>276.3333333333333</ele><time>2026-04-11T18:05:45.654Z</time></trkpt><trkpt lat="44.4559014" lon="11.1724249"><ele>273.6666666666667</ele><time>2026-04-11T18:05:46.654Z</time></trkpt><trkpt lat="44.4559764" lon="11.1724151"><ele>271.0</ele><time>2026-04-11T18:05:47.654Z</time></trkpt><trkpt lat="44.456045" lon="11.1724128"><ele>268.33333333333337</ele><time>2026-04-11T18:05:48.654Z</time></trkpt><trkpt lat="44.4561477" lon="11.1724317"><ele>265.6666666666667</ele><time>2026-04-11T18:05:50.654Z</time></trkpt><trkpt lat="44.4562103" lon="11.1724"><ele>263.0</ele><time>2026-04-11T18:05:52.654Z</time></trkpt><trkpt lat="44.4561971" lon="11.1723136"><ele>260.8</ele><time>2026-04-11T18:05:54.653Z</time></trkpt><trkpt lat="44.4560775" lon="11.1722016"><ele>258.6</ele><time>2026-04-11T18:05:56.653Z</time></trkpt><trkpt lat="44.4560054" lon="11.1721172"><ele>256.4</ele><time>2026-04-11T18:05:57.654Z</time></trkpt><trkpt lat="44.4559293" lon="11.1720225"><ele>254.2</ele><time>2026-04-11T18:05:58.654Z</time></trkpt><trkpt lat="44.4558489" lon="11.171927"><ele>252.0</ele><time>2026-04-11T18:05:59.654Z</time></trkpt><trkpt lat="44.4557693" lon="11.1718284"><ele>252.0</ele><time>2026-04-11T18:06:00.653Z</time></trkpt><trkpt lat="44.4556937" lon="11.1717327"><ele>252.0</ele><time>2026-04-11T18:06:01.654Z</time></trkpt><trkpt lat="44.4556204" lon="11.1716366"><ele>252.0</ele><time>2026-04-11T18:06:02.654Z</time></trkpt><trkpt lat="44.4555507" lon="11.1715366"><ele>252.0</ele><time>2026-04-11T18:06:03.654Z</time></trkpt><trkpt lat="44.4554831" lon="11.1714367"><ele>252.0</ele><time>2026-04-11T18:06:04.654Z</time></trkpt><trkpt lat="44.4554139" lon="11.1713476"><ele>251.42857142857144</ele><time>2026-04-11T18:06:05.654Z</time></trkpt><trkpt lat="44.4553665" lon="11.1712726"><ele>250.85714285714286</ele><time>2026-04-11T18:06:06.654Z</time></trkpt><trkpt lat="44.4553179" lon="11.1711843"><ele>250.28571428571428</ele><time>2026-04-11T18:06:07.654Z</time></trkpt><trkpt lat="44.4552805" lon="11.1711114"><ele>249.71428571428572</ele><time>2026-04-11T18:06:08.654Z</time></trkpt><trkpt lat="44.4552539" lon="11.1709926"><ele>249.14285714285717</ele><time>2026-04-11T18:06:10.654Z</time></trkpt><trkpt lat="44.4553074" lon="11.1709233"><ele>248.57142857142858</ele><time>2026-04-11T18:06:12.654Z</time></trkpt><trkpt lat="44.455378" lon="11.1709461"><ele>248.0</ele><time>2026-04-11T18:06:13.654Z</time></trkpt><trkpt lat="44.4554689" lon="11.1709964"><ele>245.83333333333334</ele><time>2026-04-11T18:06:14.654Z</time></trkpt><trkpt lat="44.455552" lon="11.1710456"><ele>243.66666666666669</ele><time>2026-04-11T18:06:15.652Z</time></trkpt><trkpt lat="44.4556272" lon="11.1710985"><ele>241.5</ele><time>2026-04-11T18:06:16.654Z</time></trkpt><trkpt lat="44.4557041" lon="11.1710893"><ele>239.33333333333331</ele><time>2026-04-11T18:06:17.653Z</time></trkpt><trkpt lat="44.4557752" lon="11.1710748"><ele>237.16666666666666</ele><time>2026-04-11T18:06:18.654Z</time></trkpt><trkpt lat="44.4558889" lon="11.1710309"><ele>235.0</ele><time>2026-04-11T18:06:20.654Z</time></trkpt><trkpt lat="44.4559873" lon="11.1709812"><ele>234.99999999999997</ele><time>2026-04-11T18:06:22.654Z</time></trkpt><trkpt lat="44.4560131" lon="11.1708923"><ele>235.0</ele><time>2026-04-11T18:06:24.654Z</time></trkpt><trkpt lat="44.4560256" lon="11.1707856"><ele>235.0</ele><time>2026-04-11T18:06:26.654Z</time></trkpt><trkpt lat="44.456009" lon="11.1706521"><ele>235.0</ele><time>2026-04-11T18:06:28.654Z</time></trkpt><trkpt lat="44.4559858" lon="11.1705125"><ele>234.99999999999997</ele><time>2026-04-11T18:06:29.654Z</time></trkpt><trkpt lat="44.4559669" lon="11.1703993"><ele>235.0</ele><time>2026-04-11T18:06:30.653Z</time></trkpt><trkpt lat="44.4559698" lon="11.1702763"><ele>231.6</ele><time>2026-04-11T18:06:31.654Z</time></trkpt><trkpt lat="44.4559569" lon="11.1700891"><ele>228.2</ele><time>2026-04-11T18:06:33.654Z</time></trkpt><trkpt lat="44.4559486" lon="11.1700015"><ele>224.8</ele><time>2026-04-11T18:06:34.654Z</time></trkpt><trkpt lat="44.4558819" lon="11.169859"><ele>221.4</ele><time>2026-04-11T18:06:36.654Z</time></trkpt><trkpt lat="44.4558093" lon="11.1697957"><ele>218.0</ele><time>2026-04-11T18:06:37.653Z</time></trkpt><trkpt lat="44.4557354" lon="11.169736"><ele>215.33333333333334</ele><time>2026-04-11T18:06:38.654Z</time></trkpt><trkpt lat="44.455662" lon="11.1696816"><ele>212.66666666666669</ele><time>2026-04-11T18:06:39.653Z</time></trkpt><trkpt lat="44.4555869" lon="11.1696256"><ele>210.0</ele><time>2026-04-11T18:06:40.654Z</time></trkpt><trkpt lat="44.4555157" lon="11.1695704"><ele>207.33333333333331</ele><time>2026-04-11T18:06:41.654Z</time></trkpt><trkpt lat="44.4554428" lon="11.1695173"><ele>204.66666666666666</ele><time>2026-04-11T18:06:42.654Z</time></trkpt><trkpt lat="44.4553725" lon="11.1694721"><ele>202.0</ele><time>2026-04-11T18:06:43.654Z</time></trkpt><trkpt lat="44.4553128" lon="11.1694227"><ele>202.0</ele><time>2026-04-11T18:06:44.654Z</time></trkpt><trkpt lat="44.455227" lon="11.1693383"><ele>202.0</ele><time>2026-04-11T18:06:46.654Z</time></trkpt><trkpt lat="44.4552169" lon="11.1692357"><ele>202.0</ele><time>2026-04-11T18:06:48.654Z</time></trkpt><trkpt lat="44.4552989" lon="11.1691461"><ele>202.0</ele><time>2026-04-11T18:06:50.653Z</time></trkpt><trkpt lat="44.4553654" lon="11.1690857"><ele>202.0</ele><time>2026-04-11T18:06:51.654Z</time></trkpt><trkpt lat="44.4554694" lon="11.1690551"><ele>196.25</ele><time>2026-04-11T18:06:52.654Z</time></trkpt><trkpt lat="44.4555906" lon="11.1690159"><ele>190.5</ele><time>2026-04-11T18:06:53.653Z</time></trkpt><trkpt lat="44.4557061" lon="11.1689814"><ele>184.75</ele><time>2026-04-11T18:06:54.654Z</time></trkpt><trkpt lat="44.4558181" lon="11.1689331"><ele>179.0</ele><time>2026-04-11T18:06:55.654Z</time></trkpt><trkpt lat="44.4559344" lon="11.1688753"><ele>179.0</ele><time>2026-04-11T18:06:56.653Z</time></trkpt><trkpt lat="44.4560595" lon="11.1688343"><ele>179.0</ele><time>2026-04-11T18:06:57.654Z</time></trkpt><trkpt lat="44.4561727" lon="11.1687704"><ele>179.0</ele><time>2026-04-11T18:06:58.653Z</time></trkpt><trkpt lat="44.4562859" lon="11.1686963"><ele>179.0</ele><time>2026-04-11T18:06:59.654Z</time></trkpt><trkpt lat="44.4563699" lon="11.1686184"><ele>178.79999999999998</ele><time>2026-04-11T18:07:00.653Z</time></trkpt><trkpt lat="44.4564634" lon="11.1685365"><ele>178.6</ele><time>2026-04-11T18:07:01.654Z</time></trkpt><trkpt lat="44.4565534" lon="11.1684544"><ele>178.4</ele><time>2026-04-11T18:07:02.654Z</time></trkpt><trkpt lat="44.4566369" lon="11.1683706"><ele>178.2</ele><time>2026-04-11T18:07:03.654Z</time></trkpt><trkpt lat="44.4567131" lon="11.1682816"><ele>178.0</ele><time>2026-04-11T18:07:04.654Z</time></trkpt><trkpt lat="44.4567852" lon="11.1682151"><ele>175.0</ele><time>2026-04-11T18:07:05.654Z</time></trkpt><trkpt lat="44.4568629" lon="11.1681484"><ele>172.0</ele><time>2026-04-11T18:07:06.653Z</time></trkpt><trkpt lat="44.4569333" lon="11.1681135"><ele>169.0</ele><time>2026-04-11T18:07:07.654Z</time></trkpt><trkpt lat="44.4570142" lon="11.1681117"><ele>166.0</ele><time>2026-04-11T18:07:08.654Z</time></trkpt><trkpt lat="44.457083" lon="11.1681156"><ele>163.0</ele><time>2026-04-11T18:07:09.653Z</time></trkpt><trkpt lat="44.457143" lon="11.168154"><ele>160.0</ele><time>2026-04-11T18:07:10.654Z</time></trkpt><trkpt lat="44.4572044" lon="11.1683156"><ele>160.0</ele><time>2026-04-11T18:07:12.654Z</time></trkpt><trkpt lat="44.4572331" lon="11.1684301"><ele>160.0</ele><time>2026-04-11T18:07:13.654Z</time></trkpt><trkpt lat="44.4572494" lon="11.1685639"><ele>160.0</ele><time>2026-04-11T18:07:14.654Z</time></trkpt><trkpt lat="44.4572647" lon="11.168703"><ele>160.0</ele><time>2026-04-11T18:07:15.654Z</time></trkpt><trkpt lat="44.4572868" lon="11.1688354"><ele>160.0</ele><time>2026-04-11T18:07:16.653Z</time></trkpt><trkpt lat="44.4573068" lon="11.168968"><ele>161.0</ele><time>2026-04-11T18:07:17.654Z</time></trkpt><trkpt lat="44.4573269" lon="11.1690925"><ele>162.0</ele><time>2026-04-11T18:07:18.654Z</time></trkpt><trkpt lat="44.4573482" lon="11.1692051"><ele>163.0</ele><time>2026-04-11T18:07:19.654Z</time></trkpt><trkpt lat="44.4573699" lon="11.169313"><ele>164.0</ele><time>2026-04-11T18:07:20.654Z</time></trkpt><trkpt lat="44.4574066" lon="11.1694329"><ele>165.0</ele><time>2026-04-11T18:07:22.654Z</time></trkpt><trkpt lat="44.4574682" lon="11.1694607"><ele>166.0</ele><time>2026-04-11T18:07:24.653Z</time></trkpt><trkpt lat="44.4575248" lon="11.1692731"><ele>166.0</ele><time>2026-04-11T18:07:26.654Z</time></trkpt><trkpt lat="44.4575289" lon="11.1691369"><ele>166.0</ele><time>2026-04-11T18:07:27.654Z</time></trkpt><trkpt lat="44.4575594" lon="11.1689885"><ele>166.0</ele><time>2026-04-11T18:07:28.654Z</time></trkpt><trkpt lat="44.457588" lon="11.1688314"><ele>166.0</ele><time>2026-04-11T18:07:29.654Z</time></trkpt><trkpt lat="44.4576646" lon="11.1686278"><ele>164.5</ele><time>2026-04-11T18:07:30.654Z</time></trkpt><trkpt lat="44.4576846" lon="11.1684653"><ele>163.0</ele><time>2026-04-11T18:07:31.654Z</time></trkpt><trkpt lat="44.4577201" lon="11.1682921"><ele>161.5</ele><time>2026-04-11T18:07:32.654Z</time></trkpt><trkpt lat="44.4577672" lon="11.1681787"><ele>160.0</ele><time>2026-04-11T18:07:33.654Z</time></trkpt><trkpt lat="44.4578032" lon="11.1680256"><ele>158.0</ele><time>2026-04-11T18:07:34.654Z</time></trkpt><trkpt lat="44.4578479" lon="11.1678966"><ele>156.0</ele><time>2026-04-11T18:07:35.654Z</time></trkpt><trkpt lat="44.4578921" lon="11.1677635"><ele>154.0</ele><time>2026-04-11T18:07:36.654Z</time></trkpt><trkpt lat="44.4579219" lon="11.1676359"><ele>152.0</ele><time>2026-04-11T18:07:37.654Z</time></trkpt><trkpt lat="44.4579808" lon="11.1675021"><ele>150.0</ele><time>2026-04-11T18:07:38.654Z</time></trkpt><trkpt lat="44.4580171" lon="11.1673836"><ele>148.16666666666666</ele><time>2026-04-11T18:07:39.654Z</time></trkpt><trkpt lat="44.4580095" lon="11.1672762"><ele>146.33333333333334</ele><time>2026-04-11T18:07:40.654Z</time></trkpt><trkpt lat="44.4579776" lon="11.1671927"><ele>144.5</ele><time>2026-04-11T18:07:41.653Z</time></trkpt><trkpt lat="44.4579316" lon="11.1671012"><ele>142.66666666666669</ele><time>2026-04-11T18:07:42.654Z</time></trkpt><trkpt lat="44.4578741" lon="11.167013"><ele>140.83333333333334</ele><time>2026-04-11T18:07:43.654Z</time></trkpt><trkpt lat="44.4578234" lon="11.1669107"><ele>139.0</ele><time>2026-04-11T18:07:44.654Z</time></trkpt><trkpt lat="44.45777" lon="11.1668522"><ele>139.0</ele><time>2026-04-11T18:07:45.654Z</time></trkpt><trkpt lat="44.4577222" lon="11.1667879"><ele>139.0</ele><time>2026-04-11T18:07:46.654Z</time></trkpt><trkpt lat="44.4576512" lon="11.1666772"><ele>139.0</ele><time>2026-04-11T18:07:48.653Z</time></trkpt><trkpt lat="44.4576731" lon="11.1665771"><ele>139.0</ele><time>2026-04-11T18:07:50.654Z</time></trkpt><trkpt lat="44.4577763" lon="11.1665329"><ele>139.0</ele><time>2026-04-11T18:07:52.653Z</time></trkpt><trkpt lat="44.4578679" lon="11.1665404"><ele>139.0</ele><time>2026-04-11T18:07:53.654Z</time></trkpt><trkpt lat="44.4579497" lon="11.1665689"><ele>137.6</ele><time>2026-04-11T18:07:54.654Z</time></trkpt><trkpt lat="44.4580178" lon="11.1666015"><ele>136.2</ele><time>2026-04-11T18:07:55.654Z</time></trkpt><trkpt lat="44.4580861" lon="11.1667647"><ele>134.79999999999998</ele><time>2026-04-11T18:07:57.654Z</time></trkpt><trkpt lat="44.4581355" lon="11.1668433"><ele>133.4</ele><time>2026-04-11T18:07:58.654Z</time></trkpt><trkpt lat="44.4581904" lon="11.1669052"><ele>132.0</ele><time>2026-04-11T18:07:59.654Z</time></trkpt><trkpt lat="44.4582696" lon="11.1670245"><ele>132.0</ele><time>2026-04-11T18:08:01.654Z</time></trkpt><trkpt lat="44.4582851" lon="11.1671283"><ele>132.0</ele><time>2026-04-11T18:08:02.654Z</time></trkpt><trkpt lat="44.4582931" lon="11.1672388"><ele>132.0</ele><time>2026-04-11T18:08:03.654Z</time></trkpt><trkpt lat="44.4583125" lon="11.1673483"><ele>132.0</ele><time>2026-04-11T18:08:04.654Z</time></trkpt><trkpt lat="44.4583526" lon="11.1674225"><ele>132.0</ele><time>2026-04-11T18:08:05.654Z</time></trkpt><trkpt lat="44.4584103" lon="11.1674755"><ele>132.0</ele><time>2026-04-11T18:08:06.654Z</time></trkpt><trkpt lat="44.4584859" lon="11.1675225"><ele>131.79999999999998</ele><time>2026-04-11T18:08:07.654Z</time></trkpt><trkpt lat="44.4585743" lon="11.1675723"><ele>131.6</ele><time>2026-04-11T18:08:08.654Z</time></trkpt><trkpt lat="44.4586894" lon="11.1676094"><ele>131.39999999999998</ele><time>2026-04-11T18:08:09.654Z</time></trkpt><trkpt lat="44.458788" lon="11.1676352"><ele>131.2</ele><time>2026-04-11T18:08:10.654Z</time></trkpt><trkpt lat="44.4588926" lon="11.1676518"><ele>131.0</ele><time>2026-04-11T18:08:11.654Z</time></trkpt><trkpt lat="44.4589947" lon="11.1676732"><ele>133.2</ele><time>2026-04-11T18:08:12.653Z</time></trkpt><trkpt lat="44.459079" lon="11.1677103"><ele>135.39999999999998</ele><time>2026-04-11T18:08:13.654Z</time></trkpt><trkpt lat="44.4591646" lon="11.1677586"><ele>137.6</ele><time>2026-04-11T18:08:14.654Z</time></trkpt><trkpt lat="44.4592238" lon="11.1678619"><ele>139.79999999999998</ele><time>2026-04-11T18:08:15.654Z</time></trkpt><trkpt lat="44.4592894" lon="11.1679401"><ele>142.0</ele><time>2026-04-11T18:08:16.654Z</time></trkpt><trkpt lat="44.4593625" lon="11.1680186"><ele>142.0</ele><time>2026-04-11T18:08:17.654Z</time></trkpt><trkpt lat="44.4594622" lon="11.1681108"><ele>142.0</ele><time>2026-04-11T18:08:19.654Z</time></trkpt><trkpt lat="44.4595284" lon="11.1681673"><ele>142.0</ele><time>2026-04-11T18:08:21.654Z</time></trkpt><trkpt lat="44.4595935" lon="11.1681819"><ele>142.0</ele><time>2026-04-11T18:08:23.654Z</time></trkpt><trkpt lat="44.459641" lon="11.1682764"><ele>142.0</ele><time>2026-04-11T18:08:25.654Z</time></trkpt><trkpt lat="44.4597078" lon="11.1683253"><ele>142.0</ele><time>2026-04-11T18:08:48.654Z</time></trkpt><trkpt lat="44.4598117" lon="11.1684525"><ele>145.25</ele><time>2026-04-11T18:08:50.654Z</time></trkpt><trkpt lat="44.4598798" lon="11.1685559"><ele>148.5</ele><time>2026-04-11T18:08:51.654Z</time></trkpt><trkpt lat="44.4599515" lon="11.1686815"><ele>151.75</ele><time>2026-04-11T18:08:52.654Z</time></trkpt><trkpt lat="44.4600282" lon="11.1688315"><ele>155.0</ele><time>2026-04-11T18:08:53.654Z</time></trkpt><trkpt lat="44.4601138" lon="11.1689907"><ele>151.75</ele><time>2026-04-11T18:08:54.654Z</time></trkpt><trkpt lat="44.4601928" lon="11.169131"><ele>148.5</ele><time>2026-04-11T18:08:55.653Z</time></trkpt><trkpt lat="44.4602748" lon="11.1692751"><ele>145.25</ele><time>2026-04-11T18:08:56.654Z</time></trkpt><trkpt lat="44.4603617" lon="11.1694279"><ele>142.0</ele><time>2026-04-11T18:08:57.654Z</time></trkpt><trkpt lat="44.460452" lon="11.1695652"><ele>143.75</ele><time>2026-04-11T18:08:58.654Z</time></trkpt><trkpt lat="44.4605359" lon="11.1697042"><ele>145.5</ele><time>2026-04-11T18:08:59.654Z</time></trkpt><trkpt lat="44.4606213" lon="11.169846"><ele>147.25</ele><time>2026-04-11T18:09:00.654Z</time></trkpt><trkpt lat="44.4607064" lon="11.1699881"><ele>149.0</ele><time>2026-04-11T18:09:01.654Z</time></trkpt><trkpt lat="44.4607978" lon="11.1701411"><ele>149.0</ele><time>2026-04-11T18:09:02.653Z</time></trkpt><trkpt lat="44.4608967" lon="11.170278"><ele>149.0</ele><time>2026-04-11T18:09:03.653Z</time></trkpt><trkpt lat="44.4610004" lon="11.1704129"><ele>149.0</ele><time>2026-04-11T18:09:04.654Z</time></trkpt><trkpt lat="44.4611167" lon="11.1705416"><ele>149.0</ele><time>2026-04-11T18:09:05.654Z</time></trkpt><trkpt lat="44.4612361" lon="11.1706662"><ele>147.0</ele><time>2026-04-11T18:09:06.654Z</time></trkpt><trkpt lat="44.4613539" lon="11.170793"><ele>145.0</ele><time>2026-04-11T18:09:07.654Z</time></trkpt><trkpt lat="44.4614722" lon="11.1709162"><ele>143.0</ele><time>2026-04-11T18:09:08.654Z</time></trkpt><trkpt lat="44.461592" lon="11.1710355"><ele>141.0</ele><time>2026-04-11T18:09:09.654Z</time></trkpt><trkpt lat="44.4617131" lon="11.1711497"><ele>141.0</ele><time>2026-04-11T18:09:10.654Z</time></trkpt><trkpt lat="44.4618344" lon="11.171264"><ele>141.0</ele><time>2026-04-11T18:09:11.654Z</time></trkpt><trkpt lat="44.4619506" lon="11.1713779"><ele>141.0</ele><time>2026-04-11T18:09:12.654Z</time></trkpt><trkpt lat="44.4620743" lon="11.1714897"><ele>141.0</ele><time>2026-04-11T18:09:13.654Z</time></trkpt><trkpt lat="44.4621961" lon="11.1716107"><ele>139.0</ele><time>2026-04-11T18:09:14.654Z</time></trkpt><trkpt lat="44.4623062" lon="11.1717388"><ele>137.0</ele><time>2026-04-11T18:09:15.653Z</time></trkpt><trkpt lat="44.4624094" lon="11.1719008"><ele>135.0</ele><time>2026-04-11T18:09:16.654Z</time></trkpt><trkpt lat="44.4624926" lon="11.172085"><ele>135.0</ele><time>2026-04-11T18:09:17.654Z</time></trkpt><trkpt lat="44.4625473" lon="11.1723088"><ele>135.0</ele><time>2026-04-11T18:09:18.654Z</time></trkpt><trkpt lat="44.4625903" lon="11.1725563"><ele>135.0</ele><time>2026-04-11T18:09:19.654Z</time></trkpt><trkpt lat="44.4626247" lon="11.1728041"><ele>133.33333333333334</ele><time>2026-04-11T18:09:20.653Z</time></trkpt><trkpt lat="44.4626579" lon="11.1730384"><ele>131.66666666666669</ele><time>2026-04-11T18:09:21.654Z</time></trkpt><trkpt lat="44.4626921" lon="11.1732573"><ele>130.0</ele><time>2026-04-11T18:09:22.653Z</time></trkpt><trkpt lat="44.4627367" lon="11.1734641"><ele>128.66666666666669</ele><time>2026-04-11T18:09:23.653Z</time></trkpt><trkpt lat="44.4628029" lon="11.1736613"><ele>127.33333333333334</ele><time>2026-04-11T18:09:24.654Z</time></trkpt><trkpt lat="44.4628895" lon="11.1738468"><ele>126.0</ele><time>2026-04-11T18:09:25.654Z</time></trkpt><trkpt lat="44.4629913" lon="11.17401"><ele>130.5</ele><time>2026-04-11T18:09:26.654Z</time></trkpt><trkpt lat="44.4630903" lon="11.1741642"><ele>135.0</ele><time>2026-04-11T18:09:27.654Z</time></trkpt><trkpt lat="44.4631804" lon="11.1743209"><ele>139.5</ele><time>2026-04-11T18:09:28.654Z</time></trkpt><trkpt lat="44.4632484" lon="11.174493"><ele>144.0</ele><time>2026-04-11T18:09:29.654Z</time></trkpt><trkpt lat="44.4632947" lon="11.1746874"><ele>141.0</ele><time>2026-04-11T18:09:30.654Z</time></trkpt><trkpt lat="44.4633247" lon="11.1748898"><ele>138.0</ele><time>2026-04-11T18:09:31.653Z</time></trkpt><trkpt lat="44.4633452" lon="11.175113"><ele>135.0</ele><time>2026-04-11T18:09:32.654Z</time></trkpt><trkpt lat="44.4633668" lon="11.1753549"><ele>135.0</ele><time>2026-04-11T18:09:33.654Z</time></trkpt><trkpt lat="44.4633926" lon="11.1756126"><ele>135.0</ele><time>2026-04-11T18:09:34.654Z</time></trkpt><trkpt lat="44.4634175" lon="11.1758608"><ele>135.0</ele><time>2026-04-11T18:09:35.654Z</time></trkpt><trkpt lat="44.4634346" lon="11.1761101"><ele>133.33333333333334</ele><time>2026-04-11T18:09:36.654Z</time></trkpt><trkpt lat="44.4634302" lon="11.1763497"><ele>131.66666666666669</ele><time>2026-04-11T18:09:37.654Z</time></trkpt><trkpt lat="44.4634148" lon="11.1765974"><ele>130.0</ele><time>2026-04-11T18:09:38.653Z</time></trkpt><trkpt lat="44.4634057" lon="11.1768325"><ele>129.33333333333334</ele><time>2026-04-11T18:09:39.654Z</time></trkpt><trkpt lat="44.4634035" lon="11.1770754"><ele>128.66666666666666</ele><time>2026-04-11T18:09:40.654Z</time></trkpt><trkpt lat="44.4634061" lon="11.1773158"><ele>128.0</ele><time>2026-04-11T18:09:41.654Z</time></trkpt><trkpt lat="44.463428" lon="11.177553"><ele>128.0</ele><time>2026-04-11T18:09:42.654Z</time></trkpt><trkpt lat="44.4634597" lon="11.1777899"><ele>128.0</ele><time>2026-04-11T18:09:43.654Z</time></trkpt><trkpt lat="44.4635147" lon="11.1780188"><ele>128.0</ele><time>2026-04-11T18:09:44.654Z</time></trkpt><trkpt lat="44.46364" lon="11.1784802"><ele>127.66666666666666</ele><time>2026-04-11T18:09:46.654Z</time></trkpt><trkpt lat="44.4637018" lon="11.1787019"><ele>127.33333333333334</ele><time>2026-04-11T18:09:47.654Z</time></trkpt><trkpt lat="44.4637569" lon="11.1789268"><ele>127.0</ele><time>2026-04-11T18:09:48.654Z</time></trkpt><trkpt lat="44.4638072" lon="11.1791315"><ele>127.0</ele><time>2026-04-11T18:09:49.653Z</time></trkpt><trkpt lat="44.463861" lon="11.1793358"><ele>127.0</ele><time>2026-04-11T18:09:50.654Z</time></trkpt><trkpt lat="44.46391" lon="11.1795269"><ele>127.0</ele><time>2026-04-11T18:09:51.654Z</time></trkpt><trkpt lat="44.4639543" lon="11.1797091"><ele>127.0</ele><time>2026-04-11T18:09:52.654Z</time></trkpt><trkpt lat="44.4640032" lon="11.1798867"><ele>125.39999999999999</ele><time>2026-04-11T18:09:53.654Z</time></trkpt><trkpt lat="44.464045" lon="11.180043"><ele>123.79999999999998</ele><time>2026-04-11T18:09:54.654Z</time></trkpt><trkpt lat="44.4640837" lon="11.1801868"><ele>122.2</ele><time>2026-04-11T18:09:55.654Z</time></trkpt><trkpt lat="44.4641202" lon="11.1803304"><ele>120.6</ele><time>2026-04-11T18:09:56.654Z</time></trkpt><trkpt lat="44.4641545" lon="11.1804536"><ele>119.0</ele><time>2026-04-11T18:09:57.654Z</time></trkpt><trkpt lat="44.4641821" lon="11.1805643"><ele>118.99999999999999</ele><time>2026-04-11T18:09:58.654Z</time></trkpt><trkpt lat="44.4642075" lon="11.1806598"><ele>119.0</ele><time>2026-04-11T18:09:59.654Z</time></trkpt><trkpt lat="44.464229" lon="11.1807435"><ele>119.0</ele><time>2026-04-11T18:10:00.653Z</time></trkpt><trkpt lat="44.4642054" lon="11.1808588"><ele>119.0</ele><time>2026-04-11T18:10:02.654Z</time></trkpt><trkpt lat="44.464083" lon="11.1809106"><ele>118.99999999999999</ele><time>2026-04-11T18:10:04.654Z</time></trkpt><trkpt lat="44.4640196" lon="11.1809348"><ele>119.0</ele><time>2026-04-11T18:10:05.654Z</time></trkpt><trkpt lat="44.4639237" lon="11.1810085"><ele>118.6</ele><time>2026-04-11T18:10:07.654Z</time></trkpt><trkpt lat="44.4639108" lon="11.1811866"><ele>118.2</ele><time>2026-04-11T18:10:09.654Z</time></trkpt><trkpt lat="44.4639443" lon="11.1812952"><ele>117.79999999999998</ele><time>2026-04-11T18:10:10.654Z</time></trkpt><trkpt lat="44.4639762" lon="11.1814112"><ele>117.39999999999999</ele><time>2026-04-11T18:10:11.654Z</time></trkpt><trkpt lat="44.4640024" lon="11.1815163"><ele>117.0</ele><time>2026-04-11T18:10:12.653Z</time></trkpt><trkpt lat="44.4640319" lon="11.1816227"><ele>117.0</ele><time>2026-04-11T18:10:13.654Z</time></trkpt><trkpt lat="44.4640599" lon="11.1817202"><ele>116.99999999999999</ele><time>2026-04-11T18:10:14.654Z</time></trkpt><trkpt lat="44.4641042" lon="11.1818724"><ele>116.99999999999999</ele><time>2026-04-11T18:10:16.654Z</time></trkpt><trkpt lat="44.464127" lon="11.181998"><ele>117.0</ele><time>2026-04-11T18:10:18.653Z</time></trkpt><trkpt lat="44.4641607" lon="11.1821223"><ele>117.0</ele><time>2026-04-11T18:10:20.654Z</time></trkpt><trkpt lat="44.4641975" lon="11.1822663"><ele>117.19999999999999</ele><time>2026-04-11T18:10:22.654Z</time></trkpt><trkpt lat="44.4642226" lon="11.1823494"><ele>117.39999999999999</ele><time>2026-04-11T18:10:23.654Z</time></trkpt><trkpt lat="44.4642595" lon="11.1825098"><ele>117.60000000000001</ele><time>2026-04-11T18:10:25.654Z</time></trkpt><trkpt lat="44.4642946" lon="11.1826476"><ele>117.80000000000001</ele><time>2026-04-11T18:10:27.653Z</time></trkpt><trkpt lat="44.4643226" lon="11.1827661"><ele>118.0</ele><time>2026-04-11T18:10:29.654Z</time></trkpt><trkpt lat="44.4643044" lon="11.1828727"><ele>118.00000000000001</ele><time>2026-04-11T18:10:31.654Z</time></trkpt><trkpt lat="44.464242" lon="11.1829155"><ele>118.0</ele><time>2026-04-11T18:10:33.654Z</time></trkpt><trkpt lat="44.4641776" lon="11.1829516"><ele>118.0</ele><time>2026-04-11T18:10:36.654Z</time></trkpt><trkpt lat="44.4640983" lon="11.1829879"><ele>118.0</ele><time>2026-04-11T18:10:40.654Z</time></trkpt><trkpt lat="44.4640286" lon="11.1830223"><ele>118.00000000000001</ele><time>2026-04-11T18:10:41.654Z</time></trkpt><trkpt lat="44.4639349" lon="11.1830706"><ele>118.0</ele><time>2026-04-11T18:10:43.654Z</time></trkpt><trkpt lat="44.4638568" lon="11.1830893"><ele>118.00000000000001</ele><time>2026-04-11T18:10:45.654Z</time></trkpt><trkpt lat="44.4639381" lon="11.1830977"><ele>118.0</ele><time>2026-04-11T18:10:49.653Z</time></trkpt><trkpt lat="44.4640307" lon="11.1830499"><ele>118.0</ele><time>2026-04-11T18:10:51.653Z</time></trkpt><trkpt lat="44.4640994" lon="11.1830111"><ele>118.0</ele><time>2026-04-11T18:10:53.654Z</time></trkpt><trkpt lat="44.4641604" lon="11.1829739"><ele>118.00000000000001</ele><time>2026-04-11T18:10:55.653Z</time></trkpt><trkpt lat="44.4642444" lon="11.1829387"><ele>118.0</ele><time>2026-04-11T18:10:57.654Z</time></trkpt><trkpt lat="44.4641602" lon="11.1829754"><ele>118.0</ele><time>2026-04-11T18:11:02.654Z</time></trkpt><trkpt lat="44.4641143" lon="11.1830414"><ele>118.0</ele><time>2026-04-11T18:13:28.654Z</time></trkpt><trkpt lat="44.4641274" lon="11.1829465"><ele>118.0</ele><time>2026-04-11T18:20:41.653Z</time></trkpt><trkpt lat="44.4641426" lon="11.1828596"><ele>118.0</ele><time>2026-04-11T18:20:50.654Z</time></trkpt><trkpt lat="44.4641537" lon="11.1829471"><ele>118.0</ele><time>2026-04-11T18:21:03.653Z</time></trkpt><trkpt lat="44.4641648" lon="11.1830379"><ele>118.0</ele><time>2026-04-11T18:22:00.654Z</time></trkpt><trkpt lat="44.4641714" lon="11.1831416"><ele>118.0</ele><time>2026-04-11T18:22:03.654Z</time></trkpt></trkseg></trk></gpx>